<?xml version="1.0" encoding="UTF-8" standalone="no" ?>
<gpx xmlns="http://www.topografix.com/GPX/1/1" xmlns:xsi="http://www.w3.org/2001/XMLSchema-instance" xsi:schemaLocation="http://www.topografix.com/GPX/1/1 http://www.topografix.com/GPX/1/1/gpx.xsd" version="1.1" creator="VisuGPX - https://www.visugpx.com">
  <metadata>
    <name>ski rando col de CHAUDE MAISON 2825m TURGE DE LA SUFFIE 3024m</name>
  </metadata>
  <trk>
    <name><![CDATA[ski rando col de CHAUDE MAISON 2825m TURGE DE LA SUFFIE 3024m]]></name>
    <trkseg>
      <trkpt lat="44.85509" lon="6.7274">
        <ele>1745</ele>
        <time>2015-03-10T07:21:12.000Z</time>
      </trkpt>
      <trkpt lat="44.85509" lon="6.7274">
        <ele>1745.1999511719</ele>
        <time>2015-03-10T07:21:19.000Z</time>
      </trkpt>
      <trkpt lat="44.85509" lon="6.7274">
        <ele>1745</ele>
        <time>2015-03-10T07:21:28.000Z</time>
      </trkpt>
      <trkpt lat="44.85508" lon="6.7274">
        <ele>1744.5999755859</ele>
        <time>2015-03-10T07:21:40.000Z</time>
      </trkpt>
      <trkpt lat="44.85503" lon="6.72744">
        <ele>1744.5999755859</ele>
        <time>2015-03-10T07:21:46.000Z</time>
      </trkpt>
      <trkpt lat="44.85499" lon="6.72747">
        <ele>1744.8000488281</ele>
        <time>2015-03-10T07:21:50.000Z</time>
      </trkpt>
      <trkpt lat="44.85498" lon="6.72748">
        <ele>1745</ele>
        <time>2015-03-10T07:21:52.000Z</time>
      </trkpt>
      <trkpt lat="44.85494" lon="6.72754">
        <ele>1744.8000488281</ele>
        <time>2015-03-10T07:21:57.000Z</time>
      </trkpt>
      <trkpt lat="44.85489" lon="6.72759">
        <ele>1744.8000488281</ele>
        <time>2015-03-10T07:22:02.000Z</time>
      </trkpt>
      <trkpt lat="44.85483" lon="6.72765">
        <ele>1745</ele>
        <time>2015-03-10T07:22:08.000Z</time>
      </trkpt>
      <trkpt lat="44.85478" lon="6.72769">
        <ele>1745.1999511719</ele>
        <time>2015-03-10T07:22:13.000Z</time>
      </trkpt>
      <trkpt lat="44.85473" lon="6.72774">
        <ele>1745.1999511719</ele>
        <time>2015-03-10T07:22:18.000Z</time>
      </trkpt>
      <trkpt lat="44.85469" lon="6.72778">
        <ele>1745.4000244141</ele>
        <time>2015-03-10T07:22:23.000Z</time>
      </trkpt>
      <trkpt lat="44.85463" lon="6.72783">
        <ele>1745.8000488281</ele>
        <time>2015-03-10T07:22:29.000Z</time>
      </trkpt>
      <trkpt lat="44.85462" lon="6.72784">
        <ele>1745.8000488281</ele>
        <time>2015-03-10T07:22:30.000Z</time>
      </trkpt>
      <trkpt lat="44.85458" lon="6.72789">
        <ele>1745.8000488281</ele>
        <time>2015-03-10T07:22:35.000Z</time>
      </trkpt>
      <trkpt lat="44.85453" lon="6.72794">
        <ele>1745.5999755859</ele>
        <time>2015-03-10T07:22:40.000Z</time>
      </trkpt>
      <trkpt lat="44.85448" lon="6.728">
        <ele>1745.5999755859</ele>
        <time>2015-03-10T07:22:46.000Z</time>
      </trkpt>
      <trkpt lat="44.85442" lon="6.72807">
        <ele>1745.5999755859</ele>
        <time>2015-03-10T07:22:52.000Z</time>
      </trkpt>
      <trkpt lat="44.85439" lon="6.72809">
        <ele>1745.5999755859</ele>
        <time>2015-03-10T07:22:55.000Z</time>
      </trkpt>
      <trkpt lat="44.85437" lon="6.72811">
        <ele>1745.5999755859</ele>
        <time>2015-03-10T07:22:57.000Z</time>
      </trkpt>
      <trkpt lat="44.85432" lon="6.72817">
        <ele>1745.8000488281</ele>
        <time>2015-03-10T07:23:03.000Z</time>
      </trkpt>
      <trkpt lat="44.85424" lon="6.72824">
        <ele>1745.8000488281</ele>
        <time>2015-03-10T07:23:10.000Z</time>
      </trkpt>
      <trkpt lat="44.85423" lon="6.72825">
        <ele>1746</ele>
        <time>2015-03-10T07:23:11.000Z</time>
      </trkpt>
      <trkpt lat="44.85418" lon="6.72829">
        <ele>1746</ele>
        <time>2015-03-10T07:23:16.000Z</time>
      </trkpt>
      <trkpt lat="44.85411" lon="6.72834">
        <ele>1746</ele>
        <time>2015-03-10T07:23:22.000Z</time>
      </trkpt>
      <trkpt lat="44.85406" lon="6.7284">
        <ele>1746.1999511719</ele>
        <time>2015-03-10T07:23:27.000Z</time>
      </trkpt>
      <trkpt lat="44.85403" lon="6.72844">
        <ele>1746.1999511719</ele>
        <time>2015-03-10T07:23:31.000Z</time>
      </trkpt>
      <trkpt lat="44.85401" lon="6.72847">
        <ele>1746.1999511719</ele>
        <time>2015-03-10T07:23:33.000Z</time>
      </trkpt>
      <trkpt lat="44.85398" lon="6.72855">
        <ele>1746.1999511719</ele>
        <time>2015-03-10T07:23:39.000Z</time>
      </trkpt>
      <trkpt lat="44.85394" lon="6.72863">
        <ele>1746.4000244141</ele>
        <time>2015-03-10T07:23:46.000Z</time>
      </trkpt>
      <trkpt lat="44.85389" lon="6.72872">
        <ele>1746.4000244141</ele>
        <time>2015-03-10T07:23:53.000Z</time>
      </trkpt>
      <trkpt lat="44.85386" lon="6.72879">
        <ele>1746.5999755859</ele>
        <time>2015-03-10T07:23:59.000Z</time>
      </trkpt>
      <trkpt lat="44.85379" lon="6.72887">
        <ele>1746.5999755859</ele>
        <time>2015-03-10T07:24:07.000Z</time>
      </trkpt>
      <trkpt lat="44.85373" lon="6.72891">
        <ele>1746.8000488281</ele>
        <time>2015-03-10T07:24:13.000Z</time>
      </trkpt>
      <trkpt lat="44.85368" lon="6.72896">
        <ele>1746.8000488281</ele>
        <time>2015-03-10T07:24:18.000Z</time>
      </trkpt>
      <trkpt lat="44.85362" lon="6.72902">
        <ele>1746.8000488281</ele>
        <time>2015-03-10T07:24:24.000Z</time>
      </trkpt>
      <trkpt lat="44.85356" lon="6.72909">
        <ele>1746.8000488281</ele>
        <time>2015-03-10T07:24:30.000Z</time>
      </trkpt>
      <trkpt lat="44.85351" lon="6.72916">
        <ele>1746.8000488281</ele>
        <time>2015-03-10T07:24:36.000Z</time>
      </trkpt>
      <trkpt lat="44.8535" lon="6.72918">
        <ele>1747</ele>
        <time>2015-03-10T07:24:38.000Z</time>
      </trkpt>
      <trkpt lat="44.85347" lon="6.72923">
        <ele>1747</ele>
        <time>2015-03-10T07:24:42.000Z</time>
      </trkpt>
      <trkpt lat="44.85344" lon="6.72928">
        <ele>1747.1999511719</ele>
        <time>2015-03-10T07:24:47.000Z</time>
      </trkpt>
      <trkpt lat="44.85338" lon="6.72934">
        <ele>1747.4000244141</ele>
        <time>2015-03-10T07:24:53.000Z</time>
      </trkpt>
      <trkpt lat="44.85332" lon="6.72941">
        <ele>1747.5999755859</ele>
        <time>2015-03-10T07:25:00.000Z</time>
      </trkpt>
      <trkpt lat="44.85327" lon="6.72948">
        <ele>1747.4000244141</ele>
        <time>2015-03-10T07:25:06.000Z</time>
      </trkpt>
      <trkpt lat="44.85323" lon="6.72954">
        <ele>1747.5999755859</ele>
        <time>2015-03-10T07:25:11.000Z</time>
      </trkpt>
      <trkpt lat="44.85318" lon="6.7296">
        <ele>1747.8000488281</ele>
        <time>2015-03-10T07:25:17.000Z</time>
      </trkpt>
      <trkpt lat="44.85316" lon="6.72964">
        <ele>1748</ele>
        <time>2015-03-10T07:25:20.000Z</time>
      </trkpt>
      <trkpt lat="44.85315" lon="6.72967">
        <ele>1748.1999511719</ele>
        <time>2015-03-10T07:25:23.000Z</time>
      </trkpt>
      <trkpt lat="44.85309" lon="6.72977">
        <ele>1748.1999511719</ele>
        <time>2015-03-10T07:25:30.000Z</time>
      </trkpt>
      <trkpt lat="44.85305" lon="6.72982">
        <ele>1748.4000244141</ele>
        <time>2015-03-10T07:25:35.000Z</time>
      </trkpt>
      <trkpt lat="44.85301" lon="6.7299">
        <ele>1748.8000488281</ele>
        <time>2015-03-10T07:25:41.000Z</time>
      </trkpt>
      <trkpt lat="44.85292" lon="6.73003">
        <ele>1748.8000488281</ele>
        <time>2015-03-10T07:25:50.000Z</time>
      </trkpt>
      <trkpt lat="44.85286" lon="6.73011">
        <ele>1749</ele>
        <time>2015-03-10T07:25:57.000Z</time>
      </trkpt>
      <trkpt lat="44.85282" lon="6.73018">
        <ele>1749.4000244141</ele>
        <time>2015-03-10T07:26:03.000Z</time>
      </trkpt>
      <trkpt lat="44.85279" lon="6.73024">
        <ele>1749.5999755859</ele>
        <time>2015-03-10T07:26:09.000Z</time>
      </trkpt>
      <trkpt lat="44.85276" lon="6.73028">
        <ele>1749.8000488281</ele>
        <time>2015-03-10T07:26:15.000Z</time>
      </trkpt>
      <trkpt lat="44.85274" lon="6.73034">
        <ele>1749.8000488281</ele>
        <time>2015-03-10T07:26:21.000Z</time>
      </trkpt>
      <trkpt lat="44.85273" lon="6.73036">
        <ele>1750</ele>
        <time>2015-03-10T07:26:24.000Z</time>
      </trkpt>
      <trkpt lat="44.85272" lon="6.73039">
        <ele>1750.1999511719</ele>
        <time>2015-03-10T07:26:27.000Z</time>
      </trkpt>
      <trkpt lat="44.85269" lon="6.73044">
        <ele>1750.4000244141</ele>
        <time>2015-03-10T07:26:33.000Z</time>
      </trkpt>
      <trkpt lat="44.85266" lon="6.73049">
        <ele>1750.5999755859</ele>
        <time>2015-03-10T07:26:39.000Z</time>
      </trkpt>
      <trkpt lat="44.85263" lon="6.73054">
        <ele>1750.8000488281</ele>
        <time>2015-03-10T07:26:45.000Z</time>
      </trkpt>
      <trkpt lat="44.8526" lon="6.73058">
        <ele>1751</ele>
        <time>2015-03-10T07:26:49.000Z</time>
      </trkpt>
      <trkpt lat="44.85259" lon="6.7306">
        <ele>1751.1999511719</ele>
        <time>2015-03-10T07:26:51.000Z</time>
      </trkpt>
      <trkpt lat="44.85255" lon="6.73063">
        <ele>1751.5999755859</ele>
        <time>2015-03-10T07:26:57.000Z</time>
      </trkpt>
      <trkpt lat="44.85252" lon="6.73069">
        <ele>1751.8000488281</ele>
        <time>2015-03-10T07:27:03.000Z</time>
      </trkpt>
      <trkpt lat="44.8525" lon="6.73072">
        <ele>1752</ele>
        <time>2015-03-10T07:27:06.000Z</time>
      </trkpt>
      <trkpt lat="44.85248" lon="6.73074">
        <ele>1752.1999511719</ele>
        <time>2015-03-10T07:27:09.000Z</time>
      </trkpt>
      <trkpt lat="44.85245" lon="6.73078">
        <ele>1752.1999511719</ele>
        <time>2015-03-10T07:27:14.000Z</time>
      </trkpt>
      <trkpt lat="44.85242" lon="6.73082">
        <ele>1752.4000244141</ele>
        <time>2015-03-10T07:27:19.000Z</time>
      </trkpt>
      <trkpt lat="44.85237" lon="6.73087">
        <ele>1752.5999755859</ele>
        <time>2015-03-10T07:27:26.000Z</time>
      </trkpt>
      <trkpt lat="44.85232" lon="6.73093">
        <ele>1752.8000488281</ele>
        <time>2015-03-10T07:27:32.000Z</time>
      </trkpt>
      <trkpt lat="44.8523" lon="6.73097">
        <ele>1753.1999511719</ele>
        <time>2015-03-10T07:27:35.000Z</time>
      </trkpt>
      <trkpt lat="44.85227" lon="6.731">
        <ele>1753.4000244141</ele>
        <time>2015-03-10T07:27:39.000Z</time>
      </trkpt>
      <trkpt lat="44.85222" lon="6.73105">
        <ele>1753.5999755859</ele>
        <time>2015-03-10T07:27:45.000Z</time>
      </trkpt>
      <trkpt lat="44.85218" lon="6.73109">
        <ele>1753.8000488281</ele>
        <time>2015-03-10T07:27:50.000Z</time>
      </trkpt>
      <trkpt lat="44.85214" lon="6.73113">
        <ele>1754.1999511719</ele>
        <time>2015-03-10T07:27:54.000Z</time>
      </trkpt>
      <trkpt lat="44.85212" lon="6.73116">
        <ele>1754.1999511719</ele>
        <time>2015-03-10T07:27:57.000Z</time>
      </trkpt>
      <trkpt lat="44.85208" lon="6.73121">
        <ele>1754.4000244141</ele>
        <time>2015-03-10T07:28:03.000Z</time>
      </trkpt>
      <trkpt lat="44.85205" lon="6.73125">
        <ele>1754.5999755859</ele>
        <time>2015-03-10T07:28:08.000Z</time>
      </trkpt>
      <trkpt lat="44.85198" lon="6.73133">
        <ele>1755</ele>
        <time>2015-03-10T07:28:16.000Z</time>
      </trkpt>
      <trkpt lat="44.85196" lon="6.73137">
        <ele>1755.1999511719</ele>
        <time>2015-03-10T07:28:20.000Z</time>
      </trkpt>
      <trkpt lat="44.85195" lon="6.73139">
        <ele>1755.1999511719</ele>
        <time>2015-03-10T07:28:22.000Z</time>
      </trkpt>
      <trkpt lat="44.85191" lon="6.73145">
        <ele>1755.4000244141</ele>
        <time>2015-03-10T07:28:28.000Z</time>
      </trkpt>
      <trkpt lat="44.85188" lon="6.73149">
        <ele>1755.5999755859</ele>
        <time>2015-03-10T07:28:33.000Z</time>
      </trkpt>
      <trkpt lat="44.85183" lon="6.73155">
        <ele>1755.8000488281</ele>
        <time>2015-03-10T07:28:39.000Z</time>
      </trkpt>
      <trkpt lat="44.85179" lon="6.73159">
        <ele>1756.1999511719</ele>
        <time>2015-03-10T07:28:45.000Z</time>
      </trkpt>
      <trkpt lat="44.85178" lon="6.7316">
        <ele>1756.1999511719</ele>
        <time>2015-03-10T07:28:47.000Z</time>
      </trkpt>
      <trkpt lat="44.85175" lon="6.73164">
        <ele>1756.4000244141</ele>
        <time>2015-03-10T07:28:51.000Z</time>
      </trkpt>
      <trkpt lat="44.85171" lon="6.73168">
        <ele>1756.5999755859</ele>
        <time>2015-03-10T07:28:57.000Z</time>
      </trkpt>
      <trkpt lat="44.85168" lon="6.73172">
        <ele>1757</ele>
        <time>2015-03-10T07:29:02.000Z</time>
      </trkpt>
      <trkpt lat="44.85165" lon="6.73173">
        <ele>1757.1999511719</ele>
        <time>2015-03-10T07:29:06.000Z</time>
      </trkpt>
      <trkpt lat="44.85163" lon="6.73174">
        <ele>1757.1999511719</ele>
        <time>2015-03-10T07:29:08.000Z</time>
      </trkpt>
      <trkpt lat="44.85159" lon="6.73181">
        <ele>1757.8000488281</ele>
        <time>2015-03-10T07:29:15.000Z</time>
      </trkpt>
      <trkpt lat="44.85153" lon="6.73187">
        <ele>1758.1999511719</ele>
        <time>2015-03-10T07:29:21.000Z</time>
      </trkpt>
      <trkpt lat="44.85148" lon="6.73192">
        <ele>1758.5999755859</ele>
        <time>2015-03-10T07:29:27.000Z</time>
      </trkpt>
      <trkpt lat="44.85142" lon="6.73196">
        <ele>1759</ele>
        <time>2015-03-10T07:29:35.000Z</time>
      </trkpt>
      <trkpt lat="44.85137" lon="6.732">
        <ele>1759.1999511719</ele>
        <time>2015-03-10T07:29:40.000Z</time>
      </trkpt>
      <trkpt lat="44.85137" lon="6.732">
        <ele>1759.4000244141</ele>
        <time>2015-03-10T07:29:41.000Z</time>
      </trkpt>
      <trkpt lat="44.85132" lon="6.73202">
        <ele>1760</ele>
        <time>2015-03-10T07:29:47.000Z</time>
      </trkpt>
      <trkpt lat="44.85126" lon="6.73206">
        <ele>1760.1999511719</ele>
        <time>2015-03-10T07:29:54.000Z</time>
      </trkpt>
      <trkpt lat="44.85125" lon="6.73207">
        <ele>1760.1999511719</ele>
        <time>2015-03-10T07:29:56.000Z</time>
      </trkpt>
      <trkpt lat="44.85122" lon="6.73209">
        <ele>1760.5999755859</ele>
        <time>2015-03-10T07:30:00.000Z</time>
      </trkpt>
      <trkpt lat="44.85116" lon="6.73214">
        <ele>1761</ele>
        <time>2015-03-10T07:30:07.000Z</time>
      </trkpt>
      <trkpt lat="44.85115" lon="6.73215">
        <ele>1761</ele>
        <time>2015-03-10T07:30:08.000Z</time>
      </trkpt>
      <trkpt lat="44.85112" lon="6.73218">
        <ele>1761.4000244141</ele>
        <time>2015-03-10T07:30:11.000Z</time>
      </trkpt>
      <trkpt lat="44.8511" lon="6.73219">
        <ele>1761.5999755859</ele>
        <time>2015-03-10T07:30:14.000Z</time>
      </trkpt>
      <trkpt lat="44.85107" lon="6.73222">
        <ele>1761.8000488281</ele>
        <time>2015-03-10T07:30:20.000Z</time>
      </trkpt>
      <trkpt lat="44.85103" lon="6.73225">
        <ele>1762.4000244141</ele>
        <time>2015-03-10T07:30:24.000Z</time>
      </trkpt>
      <trkpt lat="44.85102" lon="6.73226">
        <ele>1762.5999755859</ele>
        <time>2015-03-10T07:30:27.000Z</time>
      </trkpt>
      <trkpt lat="44.85099" lon="6.73232">
        <ele>1762.8000488281</ele>
        <time>2015-03-10T07:30:33.000Z</time>
      </trkpt>
      <trkpt lat="44.85095" lon="6.73236">
        <ele>1763.1999511719</ele>
        <time>2015-03-10T07:30:38.000Z</time>
      </trkpt>
      <trkpt lat="44.85092" lon="6.7324">
        <ele>1763.4000244141</ele>
        <time>2015-03-10T07:30:44.000Z</time>
      </trkpt>
      <trkpt lat="44.85091" lon="6.73242">
        <ele>1763.5999755859</ele>
        <time>2015-03-10T07:30:45.000Z</time>
      </trkpt>
      <trkpt lat="44.85088" lon="6.73246">
        <ele>1764.1999511719</ele>
        <time>2015-03-10T07:30:50.000Z</time>
      </trkpt>
      <trkpt lat="44.85085" lon="6.73249">
        <ele>1764.4000244141</ele>
        <time>2015-03-10T07:30:55.000Z</time>
      </trkpt>
      <trkpt lat="44.85083" lon="6.73252">
        <ele>1764.5999755859</ele>
        <time>2015-03-10T07:30:57.000Z</time>
      </trkpt>
      <trkpt lat="44.85081" lon="6.73254">
        <ele>1764.8000488281</ele>
        <time>2015-03-10T07:31:01.000Z</time>
      </trkpt>
      <trkpt lat="44.85077" lon="6.73258">
        <ele>1765</ele>
        <time>2015-03-10T07:31:06.000Z</time>
      </trkpt>
      <trkpt lat="44.85073" lon="6.73265">
        <ele>1765.5999755859</ele>
        <time>2015-03-10T07:31:12.000Z</time>
      </trkpt>
      <trkpt lat="44.85072" lon="6.73266">
        <ele>1765.5999755859</ele>
        <time>2015-03-10T07:31:13.000Z</time>
      </trkpt>
      <trkpt lat="44.85069" lon="6.73271">
        <ele>1766</ele>
        <time>2015-03-10T07:31:18.000Z</time>
      </trkpt>
      <trkpt lat="44.85066" lon="6.73276">
        <ele>1766.5999755859</ele>
        <time>2015-03-10T07:31:24.000Z</time>
      </trkpt>
      <trkpt lat="44.85065" lon="6.73279">
        <ele>1766.5999755859</ele>
        <time>2015-03-10T07:31:26.000Z</time>
      </trkpt>
      <trkpt lat="44.85063" lon="6.73283">
        <ele>1766.8000488281</ele>
        <time>2015-03-10T07:31:30.000Z</time>
      </trkpt>
      <trkpt lat="44.8506" lon="6.73291">
        <ele>1767.8000488281</ele>
        <time>2015-03-10T07:31:37.000Z</time>
      </trkpt>
      <trkpt lat="44.85059" lon="6.73292">
        <ele>1767.8000488281</ele>
        <time>2015-03-10T07:31:38.000Z</time>
      </trkpt>
      <trkpt lat="44.85057" lon="6.73297">
        <ele>1768</ele>
        <time>2015-03-10T07:31:43.000Z</time>
      </trkpt>
      <trkpt lat="44.85054" lon="6.73304">
        <ele>1768.5999755859</ele>
        <time>2015-03-10T07:31:49.000Z</time>
      </trkpt>
      <trkpt lat="44.85054" lon="6.73304">
        <ele>1768.8000488281</ele>
        <time>2015-03-10T07:31:50.000Z</time>
      </trkpt>
      <trkpt lat="44.8505" lon="6.73312">
        <ele>1769.4000244141</ele>
        <time>2015-03-10T07:31:56.000Z</time>
      </trkpt>
      <trkpt lat="44.85049" lon="6.73317">
        <ele>1769.8000488281</ele>
        <time>2015-03-10T07:32:01.000Z</time>
      </trkpt>
      <trkpt lat="44.85048" lon="6.73318">
        <ele>1770</ele>
        <time>2015-03-10T07:32:03.000Z</time>
      </trkpt>
      <trkpt lat="44.85044" lon="6.73326">
        <ele>1770.8000488281</ele>
        <time>2015-03-10T07:32:09.000Z</time>
      </trkpt>
      <trkpt lat="44.85043" lon="6.73328">
        <ele>1770.8000488281</ele>
        <time>2015-03-10T07:32:10.000Z</time>
      </trkpt>
      <trkpt lat="44.8504" lon="6.73332">
        <ele>1771.1999511719</ele>
        <time>2015-03-10T07:32:14.000Z</time>
      </trkpt>
      <trkpt lat="44.8504" lon="6.73332">
        <ele>1771.4000244141</ele>
        <time>2015-03-10T07:32:20.000Z</time>
      </trkpt>
      <trkpt lat="44.85037" lon="6.73337">
        <ele>1771.4000244141</ele>
        <time>2015-03-10T07:32:31.000Z</time>
      </trkpt>
      <trkpt lat="44.85034" lon="6.73344">
        <ele>1771.8000488281</ele>
        <time>2015-03-10T07:32:37.000Z</time>
      </trkpt>
      <trkpt lat="44.85033" lon="6.73345">
        <ele>1772</ele>
        <time>2015-03-10T07:32:39.000Z</time>
      </trkpt>
      <trkpt lat="44.8503" lon="6.7335">
        <ele>1772.4000244141</ele>
        <time>2015-03-10T07:32:43.000Z</time>
      </trkpt>
      <trkpt lat="44.85026" lon="6.73356">
        <ele>1772.8000488281</ele>
        <time>2015-03-10T07:32:49.000Z</time>
      </trkpt>
      <trkpt lat="44.85025" lon="6.73358">
        <ele>1773</ele>
        <time>2015-03-10T07:32:51.000Z</time>
      </trkpt>
      <trkpt lat="44.85023" lon="6.73362">
        <ele>1773.4000244141</ele>
        <time>2015-03-10T07:32:55.000Z</time>
      </trkpt>
      <trkpt lat="44.8502" lon="6.7337">
        <ele>1774</ele>
        <time>2015-03-10T07:33:02.000Z</time>
      </trkpt>
      <trkpt lat="44.85019" lon="6.73371">
        <ele>1774.1999511719</ele>
        <time>2015-03-10T07:33:03.000Z</time>
      </trkpt>
      <trkpt lat="44.85015" lon="6.7338">
        <ele>1775</ele>
        <time>2015-03-10T07:33:11.000Z</time>
      </trkpt>
      <trkpt lat="44.85014" lon="6.73381">
        <ele>1775.1999511719</ele>
        <time>2015-03-10T07:33:12.000Z</time>
      </trkpt>
      <trkpt lat="44.85012" lon="6.73388">
        <ele>1775.8000488281</ele>
        <time>2015-03-10T07:33:19.000Z</time>
      </trkpt>
      <trkpt lat="44.85011" lon="6.73396">
        <ele>1776.1999511719</ele>
        <time>2015-03-10T07:33:24.000Z</time>
      </trkpt>
      <trkpt lat="44.85011" lon="6.734">
        <ele>1776.4000244141</ele>
        <time>2015-03-10T07:33:27.000Z</time>
      </trkpt>
      <trkpt lat="44.85012" lon="6.73409">
        <ele>1777.1999511719</ele>
        <time>2015-03-10T07:33:34.000Z</time>
      </trkpt>
      <trkpt lat="44.85012" lon="6.73419">
        <ele>1777.5999755859</ele>
        <time>2015-03-10T07:33:40.000Z</time>
      </trkpt>
      <trkpt lat="44.85012" lon="6.73421">
        <ele>1777.5999755859</ele>
        <time>2015-03-10T07:33:41.000Z</time>
      </trkpt>
      <trkpt lat="44.85014" lon="6.73431">
        <ele>1778.1999511719</ele>
        <time>2015-03-10T07:33:48.000Z</time>
      </trkpt>
      <trkpt lat="44.85015" lon="6.73432">
        <ele>1778.4000244141</ele>
        <time>2015-03-10T07:33:49.000Z</time>
      </trkpt>
      <trkpt lat="44.85016" lon="6.7344">
        <ele>1779.4000244141</ele>
        <time>2015-03-10T07:33:54.000Z</time>
      </trkpt>
      <trkpt lat="44.85017" lon="6.73441">
        <ele>1779.5999755859</ele>
        <time>2015-03-10T07:33:55.000Z</time>
      </trkpt>
      <trkpt lat="44.85018" lon="6.73449">
        <ele>1780.1999511719</ele>
        <time>2015-03-10T07:34:01.000Z</time>
      </trkpt>
      <trkpt lat="44.85018" lon="6.73457">
        <ele>1780.5999755859</ele>
        <time>2015-03-10T07:34:07.000Z</time>
      </trkpt>
      <trkpt lat="44.85018" lon="6.73466">
        <ele>1781</ele>
        <time>2015-03-10T07:34:13.000Z</time>
      </trkpt>
      <trkpt lat="44.85018" lon="6.73466">
        <ele>1781</ele>
        <time>2015-03-10T07:34:14.000Z</time>
      </trkpt>
      <trkpt lat="44.85017" lon="6.73473">
        <ele>1781.5999755859</ele>
        <time>2015-03-10T07:34:19.000Z</time>
      </trkpt>
      <trkpt lat="44.85018" lon="6.73475">
        <ele>1781.5999755859</ele>
        <time>2015-03-10T07:34:20.000Z</time>
      </trkpt>
      <trkpt lat="44.85017" lon="6.73485">
        <ele>1782.4000244141</ele>
        <time>2015-03-10T07:34:28.000Z</time>
      </trkpt>
      <trkpt lat="44.85017" lon="6.7349">
        <ele>1782.5999755859</ele>
        <time>2015-03-10T07:34:32.000Z</time>
      </trkpt>
      <trkpt lat="44.85017" lon="6.73493">
        <ele>1782.5999755859</ele>
        <time>2015-03-10T07:34:34.000Z</time>
      </trkpt>
      <trkpt lat="44.85017" lon="6.73497">
        <ele>1783.5999755859</ele>
        <time>2015-03-10T07:34:42.000Z</time>
      </trkpt>
      <trkpt lat="44.85015" lon="6.73502">
        <ele>1783.5999755859</ele>
        <time>2015-03-10T07:34:49.000Z</time>
      </trkpt>
      <trkpt lat="44.85012" lon="6.73511">
        <ele>1784.1999511719</ele>
        <time>2015-03-10T07:34:55.000Z</time>
      </trkpt>
      <trkpt lat="44.85009" lon="6.7352">
        <ele>1784.5999755859</ele>
        <time>2015-03-10T07:35:02.000Z</time>
      </trkpt>
      <trkpt lat="44.85009" lon="6.73521">
        <ele>1784.5999755859</ele>
        <time>2015-03-10T07:35:03.000Z</time>
      </trkpt>
      <trkpt lat="44.85005" lon="6.73527">
        <ele>1785.5999755859</ele>
        <time>2015-03-10T07:35:09.000Z</time>
      </trkpt>
      <trkpt lat="44.85004" lon="6.73528">
        <ele>1785.5999755859</ele>
        <time>2015-03-10T07:35:10.000Z</time>
      </trkpt>
      <trkpt lat="44.85003" lon="6.7353">
        <ele>1785.8000488281</ele>
        <time>2015-03-10T07:35:11.000Z</time>
      </trkpt>
      <trkpt lat="44.85002" lon="6.73532">
        <ele>1786.1999511719</ele>
        <time>2015-03-10T07:35:15.000Z</time>
      </trkpt>
      <trkpt lat="44.85001" lon="6.73534">
        <ele>1786.1999511719</ele>
        <time>2015-03-10T07:35:26.000Z</time>
      </trkpt>
      <trkpt lat="44.84998" lon="6.73541">
        <ele>1786.5999755859</ele>
        <time>2015-03-10T07:35:33.000Z</time>
      </trkpt>
      <trkpt lat="44.84998" lon="6.73541">
        <ele>1786.8000488281</ele>
        <time>2015-03-10T07:35:34.000Z</time>
      </trkpt>
      <trkpt lat="44.84994" lon="6.73547">
        <ele>1787.1999511719</ele>
        <time>2015-03-10T07:35:39.000Z</time>
      </trkpt>
      <trkpt lat="44.84992" lon="6.73552">
        <ele>1787.8000488281</ele>
        <time>2015-03-10T07:35:45.000Z</time>
      </trkpt>
      <trkpt lat="44.84988" lon="6.73561">
        <ele>1788.5999755859</ele>
        <time>2015-03-10T07:35:52.000Z</time>
      </trkpt>
      <trkpt lat="44.84986" lon="6.73564">
        <ele>1789</ele>
        <time>2015-03-10T07:35:55.000Z</time>
      </trkpt>
      <trkpt lat="44.84984" lon="6.73568">
        <ele>1789.4000244141</ele>
        <time>2015-03-10T07:35:58.000Z</time>
      </trkpt>
      <trkpt lat="44.84981" lon="6.73574">
        <ele>1790</ele>
        <time>2015-03-10T07:36:03.000Z</time>
      </trkpt>
      <trkpt lat="44.8498" lon="6.73576">
        <ele>1790.1999511719</ele>
        <time>2015-03-10T07:36:05.000Z</time>
      </trkpt>
      <trkpt lat="44.84976" lon="6.73585">
        <ele>1791</ele>
        <time>2015-03-10T07:36:12.000Z</time>
      </trkpt>
      <trkpt lat="44.84976" lon="6.73586">
        <ele>1791.1999511719</ele>
        <time>2015-03-10T07:36:13.000Z</time>
      </trkpt>
      <trkpt lat="44.84972" lon="6.73592">
        <ele>1791.5999755859</ele>
        <time>2015-03-10T07:36:18.000Z</time>
      </trkpt>
      <trkpt lat="44.84971" lon="6.73597">
        <ele>1792.1999511719</ele>
        <time>2015-03-10T07:36:22.000Z</time>
      </trkpt>
      <trkpt lat="44.84969" lon="6.73601">
        <ele>1792.4000244141</ele>
        <time>2015-03-10T07:36:25.000Z</time>
      </trkpt>
      <trkpt lat="44.84966" lon="6.73608">
        <ele>1793.1999511719</ele>
        <time>2015-03-10T07:36:31.000Z</time>
      </trkpt>
      <trkpt lat="44.84965" lon="6.73609">
        <ele>1793.4000244141</ele>
        <time>2015-03-10T07:36:32.000Z</time>
      </trkpt>
      <trkpt lat="44.84962" lon="6.73617">
        <ele>1794.1999511719</ele>
        <time>2015-03-10T07:36:38.000Z</time>
      </trkpt>
      <trkpt lat="44.84961" lon="6.73618">
        <ele>1794.4000244141</ele>
        <time>2015-03-10T07:36:39.000Z</time>
      </trkpt>
      <trkpt lat="44.84958" lon="6.73627">
        <ele>1795</ele>
        <time>2015-03-10T07:36:45.000Z</time>
      </trkpt>
      <trkpt lat="44.84957" lon="6.73628">
        <ele>1795.1999511719</ele>
        <time>2015-03-10T07:36:46.000Z</time>
      </trkpt>
      <trkpt lat="44.84955" lon="6.73633">
        <ele>1795.5999755859</ele>
        <time>2015-03-10T07:36:50.000Z</time>
      </trkpt>
      <trkpt lat="44.84952" lon="6.73642">
        <ele>1796.4000244141</ele>
        <time>2015-03-10T07:36:57.000Z</time>
      </trkpt>
      <trkpt lat="44.84949" lon="6.73652">
        <ele>1797.1999511719</ele>
        <time>2015-03-10T07:37:04.000Z</time>
      </trkpt>
      <trkpt lat="44.84948" lon="6.73657">
        <ele>1797.4000244141</ele>
        <time>2015-03-10T07:37:08.000Z</time>
      </trkpt>
      <trkpt lat="44.84947" lon="6.7366">
        <ele>1797.8000488281</ele>
        <time>2015-03-10T07:37:10.000Z</time>
      </trkpt>
      <trkpt lat="44.84944" lon="6.73666">
        <ele>1798.4000244141</ele>
        <time>2015-03-10T07:37:15.000Z</time>
      </trkpt>
      <trkpt lat="44.84944" lon="6.73667">
        <ele>1798.5999755859</ele>
        <time>2015-03-10T07:37:16.000Z</time>
      </trkpt>
      <trkpt lat="44.84942" lon="6.73675">
        <ele>1799</ele>
        <time>2015-03-10T07:37:22.000Z</time>
      </trkpt>
      <trkpt lat="44.8494" lon="6.73682">
        <ele>1799.4000244141</ele>
        <time>2015-03-10T07:37:27.000Z</time>
      </trkpt>
      <trkpt lat="44.84939" lon="6.73685">
        <ele>1799.8000488281</ele>
        <time>2015-03-10T07:37:29.000Z</time>
      </trkpt>
      <trkpt lat="44.84936" lon="6.73693">
        <ele>1800.5999755859</ele>
        <time>2015-03-10T07:37:35.000Z</time>
      </trkpt>
      <trkpt lat="44.84932" lon="6.73702">
        <ele>1801.4000244141</ele>
        <time>2015-03-10T07:37:42.000Z</time>
      </trkpt>
      <trkpt lat="44.84932" lon="6.73704">
        <ele>1801.5999755859</ele>
        <time>2015-03-10T07:37:44.000Z</time>
      </trkpt>
      <trkpt lat="44.8493" lon="6.73708">
        <ele>1801.8000488281</ele>
        <time>2015-03-10T07:37:47.000Z</time>
      </trkpt>
      <trkpt lat="44.84928" lon="6.73715">
        <ele>1802.4000244141</ele>
        <time>2015-03-10T07:37:52.000Z</time>
      </trkpt>
      <trkpt lat="44.84927" lon="6.73717">
        <ele>1802.8000488281</ele>
        <time>2015-03-10T07:37:54.000Z</time>
      </trkpt>
      <trkpt lat="44.84925" lon="6.73721">
        <ele>1803.4000244141</ele>
        <time>2015-03-10T07:37:58.000Z</time>
      </trkpt>
      <trkpt lat="44.84924" lon="6.73725">
        <ele>1803.8000488281</ele>
        <time>2015-03-10T07:38:00.000Z</time>
      </trkpt>
      <trkpt lat="44.84922" lon="6.73729">
        <ele>1804.1999511719</ele>
        <time>2015-03-10T07:38:04.000Z</time>
      </trkpt>
      <trkpt lat="44.8492" lon="6.73734">
        <ele>1804.8000488281</ele>
        <time>2015-03-10T07:38:08.000Z</time>
      </trkpt>
      <trkpt lat="44.84919" lon="6.73737">
        <ele>1805.4000244141</ele>
        <time>2015-03-10T07:38:11.000Z</time>
      </trkpt>
      <trkpt lat="44.84915" lon="6.73744">
        <ele>1806</ele>
        <time>2015-03-10T07:38:16.000Z</time>
      </trkpt>
      <trkpt lat="44.84914" lon="6.73746">
        <ele>1806.1999511719</ele>
        <time>2015-03-10T07:38:18.000Z</time>
      </trkpt>
      <trkpt lat="44.8491" lon="6.73754">
        <ele>1806.5999755859</ele>
        <time>2015-03-10T07:38:24.000Z</time>
      </trkpt>
      <trkpt lat="44.84909" lon="6.73758">
        <ele>1807</ele>
        <time>2015-03-10T07:38:27.000Z</time>
      </trkpt>
      <trkpt lat="44.84907" lon="6.73763">
        <ele>1807.4000244141</ele>
        <time>2015-03-10T07:38:31.000Z</time>
      </trkpt>
      <trkpt lat="44.84904" lon="6.73771">
        <ele>1808</ele>
        <time>2015-03-10T07:38:37.000Z</time>
      </trkpt>
      <trkpt lat="44.84901" lon="6.73779">
        <ele>1809</ele>
        <time>2015-03-10T07:38:43.000Z</time>
      </trkpt>
      <trkpt lat="44.849" lon="6.7378">
        <ele>1809.1999511719</ele>
        <time>2015-03-10T07:38:44.000Z</time>
      </trkpt>
      <trkpt lat="44.84899" lon="6.73787">
        <ele>1809.5999755859</ele>
        <time>2015-03-10T07:38:49.000Z</time>
      </trkpt>
      <trkpt lat="44.84896" lon="6.73796">
        <ele>1810.1999511719</ele>
        <time>2015-03-10T07:38:55.000Z</time>
      </trkpt>
      <trkpt lat="44.84893" lon="6.73806">
        <ele>1811</ele>
        <time>2015-03-10T07:39:02.000Z</time>
      </trkpt>
      <trkpt lat="44.84892" lon="6.73809">
        <ele>1811.4000244141</ele>
        <time>2015-03-10T07:39:04.000Z</time>
      </trkpt>
      <trkpt lat="44.8489" lon="6.73815">
        <ele>1811.8000488281</ele>
        <time>2015-03-10T07:39:08.000Z</time>
      </trkpt>
      <trkpt lat="44.84887" lon="6.73821">
        <ele>1812.4000244141</ele>
        <time>2015-03-10T07:39:13.000Z</time>
      </trkpt>
      <trkpt lat="44.84886" lon="6.73824">
        <ele>1812.5999755859</ele>
        <time>2015-03-10T07:39:15.000Z</time>
      </trkpt>
      <trkpt lat="44.84885" lon="6.73828">
        <ele>1813.4000244141</ele>
        <time>2015-03-10T07:39:21.000Z</time>
      </trkpt>
      <trkpt lat="44.84885" lon="6.73828">
        <ele>1813.4000244141</ele>
        <time>2015-03-10T07:39:22.000Z</time>
      </trkpt>
      <trkpt lat="44.84883" lon="6.73836">
        <ele>1813.8000488281</ele>
        <time>2015-03-10T07:39:27.000Z</time>
      </trkpt>
      <trkpt lat="44.84879" lon="6.73844">
        <ele>1814.5999755859</ele>
        <time>2015-03-10T07:39:34.000Z</time>
      </trkpt>
      <trkpt lat="44.84875" lon="6.73854">
        <ele>1815.8000488281</ele>
        <time>2015-03-10T07:39:41.000Z</time>
      </trkpt>
      <trkpt lat="44.84871" lon="6.73859">
        <ele>1816.5999755859</ele>
        <time>2015-03-10T07:39:47.000Z</time>
      </trkpt>
      <trkpt lat="44.84871" lon="6.73861">
        <ele>1816.8000488281</ele>
        <time>2015-03-10T07:39:50.000Z</time>
      </trkpt>
      <trkpt lat="44.84869" lon="6.73864">
        <ele>1817</ele>
        <time>2015-03-10T07:39:52.000Z</time>
      </trkpt>
      <trkpt lat="44.84866" lon="6.73872">
        <ele>1817.8000488281</ele>
        <time>2015-03-10T07:39:58.000Z</time>
      </trkpt>
      <trkpt lat="44.84866" lon="6.73874">
        <ele>1818</ele>
        <time>2015-03-10T07:39:59.000Z</time>
      </trkpt>
      <trkpt lat="44.84864" lon="6.73881">
        <ele>1818.4000244141</ele>
        <time>2015-03-10T07:40:04.000Z</time>
      </trkpt>
      <trkpt lat="44.84861" lon="6.7389">
        <ele>1819</ele>
        <time>2015-03-10T07:40:10.000Z</time>
      </trkpt>
      <trkpt lat="44.8486" lon="6.73891">
        <ele>1819.1999511719</ele>
        <time>2015-03-10T07:40:11.000Z</time>
      </trkpt>
      <trkpt lat="44.84857" lon="6.73898">
        <ele>1820.1999511719</ele>
        <time>2015-03-10T07:40:16.000Z</time>
      </trkpt>
      <trkpt lat="44.84856" lon="6.73901">
        <ele>1820.4000244141</ele>
        <time>2015-03-10T07:40:18.000Z</time>
      </trkpt>
      <trkpt lat="44.84853" lon="6.73905">
        <ele>1821.1999511719</ele>
        <time>2015-03-10T07:40:22.000Z</time>
      </trkpt>
      <trkpt lat="44.84851" lon="6.7391">
        <ele>1821.8000488281</ele>
        <time>2015-03-10T07:40:26.000Z</time>
      </trkpt>
      <trkpt lat="44.84849" lon="6.73915">
        <ele>1822.1999511719</ele>
        <time>2015-03-10T07:40:30.000Z</time>
      </trkpt>
      <trkpt lat="44.84848" lon="6.73918">
        <ele>1822.4000244141</ele>
        <time>2015-03-10T07:40:32.000Z</time>
      </trkpt>
      <trkpt lat="44.84844" lon="6.73928">
        <ele>1823.1999511719</ele>
        <time>2015-03-10T07:40:39.000Z</time>
      </trkpt>
      <trkpt lat="44.84844" lon="6.7393">
        <ele>1823.1999511719</ele>
        <time>2015-03-10T07:40:41.000Z</time>
      </trkpt>
      <trkpt lat="44.84842" lon="6.73936">
        <ele>1823.5999755859</ele>
        <time>2015-03-10T07:40:45.000Z</time>
      </trkpt>
      <trkpt lat="44.84841" lon="6.73938">
        <ele>1823.8000488281</ele>
        <time>2015-03-10T07:40:46.000Z</time>
      </trkpt>
      <trkpt lat="44.84839" lon="6.73943">
        <ele>1824.4000244141</ele>
        <time>2015-03-10T07:40:50.000Z</time>
      </trkpt>
      <trkpt lat="44.84838" lon="6.73946">
        <ele>1824.5999755859</ele>
        <time>2015-03-10T07:40:52.000Z</time>
      </trkpt>
      <trkpt lat="44.84835" lon="6.73955">
        <ele>1825.1999511719</ele>
        <time>2015-03-10T07:40:58.000Z</time>
      </trkpt>
      <trkpt lat="44.84835" lon="6.73957">
        <ele>1825.4000244141</ele>
        <time>2015-03-10T07:40:59.000Z</time>
      </trkpt>
      <trkpt lat="44.84832" lon="6.73969">
        <ele>1826.1999511719</ele>
        <time>2015-03-10T07:41:06.000Z</time>
      </trkpt>
      <trkpt lat="44.84832" lon="6.7397">
        <ele>1826.4000244141</ele>
        <time>2015-03-10T07:41:07.000Z</time>
      </trkpt>
      <trkpt lat="44.8483" lon="6.7398">
        <ele>1827</ele>
        <time>2015-03-10T07:41:14.000Z</time>
      </trkpt>
      <trkpt lat="44.84829" lon="6.73988">
        <ele>1827.4000244141</ele>
        <time>2015-03-10T07:41:18.000Z</time>
      </trkpt>
      <trkpt lat="44.84828" lon="6.7399">
        <ele>1827.5999755859</ele>
        <time>2015-03-10T07:41:20.000Z</time>
      </trkpt>
      <trkpt lat="44.84825" lon="6.73998">
        <ele>1827.8000488281</ele>
        <time>2015-03-10T07:41:26.000Z</time>
      </trkpt>
      <trkpt lat="44.84821" lon="6.74006">
        <ele>1828.4000244141</ele>
        <time>2015-03-10T07:41:32.000Z</time>
      </trkpt>
      <trkpt lat="44.84821" lon="6.74007">
        <ele>1828.5999755859</ele>
        <time>2015-03-10T07:41:33.000Z</time>
      </trkpt>
      <trkpt lat="44.84819" lon="6.74012">
        <ele>1829.4000244141</ele>
        <time>2015-03-10T07:41:38.000Z</time>
      </trkpt>
      <trkpt lat="44.84817" lon="6.74015">
        <ele>1829.5999755859</ele>
        <time>2015-03-10T07:41:40.000Z</time>
      </trkpt>
      <trkpt lat="44.84813" lon="6.74021">
        <ele>1830</ele>
        <time>2015-03-10T07:41:45.000Z</time>
      </trkpt>
      <trkpt lat="44.84811" lon="6.74026">
        <ele>1830.5999755859</ele>
        <time>2015-03-10T07:41:49.000Z</time>
      </trkpt>
      <trkpt lat="44.8481" lon="6.74027">
        <ele>1830.5999755859</ele>
        <time>2015-03-10T07:41:51.000Z</time>
      </trkpt>
      <trkpt lat="44.84805" lon="6.74036">
        <ele>1831.4000244141</ele>
        <time>2015-03-10T07:41:59.000Z</time>
      </trkpt>
      <trkpt lat="44.84805" lon="6.74037">
        <ele>1831.5999755859</ele>
        <time>2015-03-10T07:42:00.000Z</time>
      </trkpt>
      <trkpt lat="44.84802" lon="6.74042">
        <ele>1832</ele>
        <time>2015-03-10T07:42:04.000Z</time>
      </trkpt>
      <trkpt lat="44.84796" lon="6.74048">
        <ele>1832.8000488281</ele>
        <time>2015-03-10T07:42:10.000Z</time>
      </trkpt>
      <trkpt lat="44.84793" lon="6.74054">
        <ele>1833.1999511719</ele>
        <time>2015-03-10T07:42:15.000Z</time>
      </trkpt>
      <trkpt lat="44.8479" lon="6.7406">
        <ele>1833.8000488281</ele>
        <time>2015-03-10T07:42:20.000Z</time>
      </trkpt>
      <trkpt lat="44.84789" lon="6.74061">
        <ele>1833.8000488281</ele>
        <time>2015-03-10T07:42:21.000Z</time>
      </trkpt>
      <trkpt lat="44.84786" lon="6.74065">
        <ele>1834.8000488281</ele>
        <time>2015-03-10T07:42:26.000Z</time>
      </trkpt>
      <trkpt lat="44.84785" lon="6.74066">
        <ele>1834.8000488281</ele>
        <time>2015-03-10T07:42:27.000Z</time>
      </trkpt>
      <trkpt lat="44.84781" lon="6.74071">
        <ele>1835.8000488281</ele>
        <time>2015-03-10T07:42:33.000Z</time>
      </trkpt>
      <trkpt lat="44.84781" lon="6.74072">
        <ele>1836</ele>
        <time>2015-03-10T07:42:34.000Z</time>
      </trkpt>
      <trkpt lat="44.84777" lon="6.74077">
        <ele>1836.4000244141</ele>
        <time>2015-03-10T07:42:38.000Z</time>
      </trkpt>
      <trkpt lat="44.84771" lon="6.74083">
        <ele>1837</ele>
        <time>2015-03-10T07:42:45.000Z</time>
      </trkpt>
      <trkpt lat="44.84771" lon="6.74083">
        <ele>1837</ele>
        <time>2015-03-10T07:42:46.000Z</time>
      </trkpt>
      <trkpt lat="44.84766" lon="6.74089">
        <ele>1837.5999755859</ele>
        <time>2015-03-10T07:42:51.000Z</time>
      </trkpt>
      <trkpt lat="44.84763" lon="6.74091">
        <ele>1838</ele>
        <time>2015-03-10T07:42:54.000Z</time>
      </trkpt>
      <trkpt lat="44.8476" lon="6.74095">
        <ele>1838.4000244141</ele>
        <time>2015-03-10T07:42:57.000Z</time>
      </trkpt>
      <trkpt lat="44.84757" lon="6.74099">
        <ele>1838.8000488281</ele>
        <time>2015-03-10T07:43:02.000Z</time>
      </trkpt>
      <trkpt lat="44.84755" lon="6.74102">
        <ele>1839.1999511719</ele>
        <time>2015-03-10T07:43:04.000Z</time>
      </trkpt>
      <trkpt lat="44.84753" lon="6.74106">
        <ele>1839.8000488281</ele>
        <time>2015-03-10T07:43:09.000Z</time>
      </trkpt>
      <trkpt lat="44.84752" lon="6.74109">
        <ele>1840.1999511719</ele>
        <time>2015-03-10T07:43:12.000Z</time>
      </trkpt>
      <trkpt lat="44.84749" lon="6.74117">
        <ele>1840.8000488281</ele>
        <time>2015-03-10T07:43:16.000Z</time>
      </trkpt>
      <trkpt lat="44.84747" lon="6.7412">
        <ele>1841.4000244141</ele>
        <time>2015-03-10T07:43:19.000Z</time>
      </trkpt>
      <trkpt lat="44.84743" lon="6.74126">
        <ele>1841.8000488281</ele>
        <time>2015-03-10T07:43:24.000Z</time>
      </trkpt>
      <trkpt lat="44.8474" lon="6.74132">
        <ele>1842.4000244141</ele>
        <time>2015-03-10T07:43:30.000Z</time>
      </trkpt>
      <trkpt lat="44.84736" lon="6.74138">
        <ele>1842.8000488281</ele>
        <time>2015-03-10T07:43:37.000Z</time>
      </trkpt>
      <trkpt lat="44.84733" lon="6.74144">
        <ele>1843.5999755859</ele>
        <time>2015-03-10T07:43:43.000Z</time>
      </trkpt>
      <trkpt lat="44.84731" lon="6.74147">
        <ele>1844.1999511719</ele>
        <time>2015-03-10T07:43:46.000Z</time>
      </trkpt>
      <trkpt lat="44.84729" lon="6.74151">
        <ele>1844.5999755859</ele>
        <time>2015-03-10T07:43:49.000Z</time>
      </trkpt>
      <trkpt lat="44.84725" lon="6.74157">
        <ele>1845.1999511719</ele>
        <time>2015-03-10T07:43:55.000Z</time>
      </trkpt>
      <trkpt lat="44.84722" lon="6.7416">
        <ele>1845.8000488281</ele>
        <time>2015-03-10T07:43:58.000Z</time>
      </trkpt>
      <trkpt lat="44.84718" lon="6.74164">
        <ele>1846.5999755859</ele>
        <time>2015-03-10T07:44:02.000Z</time>
      </trkpt>
      <trkpt lat="44.84717" lon="6.74167">
        <ele>1846.8000488281</ele>
        <time>2015-03-10T07:44:04.000Z</time>
      </trkpt>
      <trkpt lat="44.84714" lon="6.74172">
        <ele>1847.1999511719</ele>
        <time>2015-03-10T07:44:09.000Z</time>
      </trkpt>
      <trkpt lat="44.84712" lon="6.74176">
        <ele>1847.8000488281</ele>
        <time>2015-03-10T07:44:13.000Z</time>
      </trkpt>
      <trkpt lat="44.8471" lon="6.74182">
        <ele>1848.1999511719</ele>
        <time>2015-03-10T07:44:18.000Z</time>
      </trkpt>
      <trkpt lat="44.84708" lon="6.74189">
        <ele>1849</ele>
        <time>2015-03-10T07:44:23.000Z</time>
      </trkpt>
      <trkpt lat="44.84706" lon="6.74193">
        <ele>1849.1999511719</ele>
        <time>2015-03-10T07:44:27.000Z</time>
      </trkpt>
      <trkpt lat="44.84704" lon="6.74199">
        <ele>1850</ele>
        <time>2015-03-10T07:44:32.000Z</time>
      </trkpt>
      <trkpt lat="44.84703" lon="6.74202">
        <ele>1850.1999511719</ele>
        <time>2015-03-10T07:44:34.000Z</time>
      </trkpt>
      <trkpt lat="44.84702" lon="6.74212">
        <ele>1851</ele>
        <time>2015-03-10T07:44:42.000Z</time>
      </trkpt>
      <trkpt lat="44.84702" lon="6.74214">
        <ele>1851</ele>
        <time>2015-03-10T07:44:43.000Z</time>
      </trkpt>
      <trkpt lat="44.847" lon="6.7422">
        <ele>1851.8000488281</ele>
        <time>2015-03-10T07:44:48.000Z</time>
      </trkpt>
      <trkpt lat="44.84699" lon="6.74224">
        <ele>1852.1999511719</ele>
        <time>2015-03-10T07:44:51.000Z</time>
      </trkpt>
      <trkpt lat="44.84698" lon="6.74227">
        <ele>1852.4000244141</ele>
        <time>2015-03-10T07:44:54.000Z</time>
      </trkpt>
      <trkpt lat="44.84695" lon="6.7424">
        <ele>1853.1999511719</ele>
        <time>2015-03-10T07:45:02.000Z</time>
      </trkpt>
      <trkpt lat="44.8469" lon="6.74251">
        <ele>1854.1999511719</ele>
        <time>2015-03-10T07:45:10.000Z</time>
      </trkpt>
      <trkpt lat="44.84689" lon="6.74252">
        <ele>1854.4000244141</ele>
        <time>2015-03-10T07:45:11.000Z</time>
      </trkpt>
      <trkpt lat="44.84687" lon="6.74263">
        <ele>1855.1999511719</ele>
        <time>2015-03-10T07:45:18.000Z</time>
      </trkpt>
      <trkpt lat="44.84684" lon="6.74272">
        <ele>1855.5999755859</ele>
        <time>2015-03-10T07:45:24.000Z</time>
      </trkpt>
      <trkpt lat="44.84684" lon="6.74274">
        <ele>1855.5999755859</ele>
        <time>2015-03-10T07:45:26.000Z</time>
      </trkpt>
      <trkpt lat="44.84681" lon="6.74285">
        <ele>1856.4000244141</ele>
        <time>2015-03-10T07:45:33.000Z</time>
      </trkpt>
      <trkpt lat="44.8468" lon="6.74287">
        <ele>1856.8000488281</ele>
        <time>2015-03-10T07:45:35.000Z</time>
      </trkpt>
      <trkpt lat="44.8468" lon="6.74288">
        <ele>1857.1999511719</ele>
        <time>2015-03-10T07:45:41.000Z</time>
      </trkpt>
      <trkpt lat="44.8468" lon="6.74288">
        <ele>1857.1999511719</ele>
        <time>2015-03-10T07:45:49.000Z</time>
      </trkpt>
      <trkpt lat="44.84679" lon="6.74294">
        <ele>1857.8000488281</ele>
        <time>2015-03-10T07:45:55.000Z</time>
      </trkpt>
      <trkpt lat="44.84679" lon="6.74295">
        <ele>1857.8000488281</ele>
        <time>2015-03-10T07:45:56.000Z</time>
      </trkpt>
      <trkpt lat="44.84678" lon="6.74301">
        <ele>1858.1999511719</ele>
        <time>2015-03-10T07:46:00.000Z</time>
      </trkpt>
      <trkpt lat="44.84675" lon="6.7431">
        <ele>1859</ele>
        <time>2015-03-10T07:46:05.000Z</time>
      </trkpt>
      <trkpt lat="44.84675" lon="6.74312">
        <ele>1859.1999511719</ele>
        <time>2015-03-10T07:46:07.000Z</time>
      </trkpt>
      <trkpt lat="44.8467" lon="6.74317">
        <ele>1859.5999755859</ele>
        <time>2015-03-10T07:46:15.000Z</time>
      </trkpt>
      <trkpt lat="44.84662" lon="6.74326">
        <ele>1859.1999511719</ele>
        <time>2015-03-10T07:46:22.000Z</time>
      </trkpt>
      <trkpt lat="44.84656" lon="6.7433">
        <ele>1858.1999511719</ele>
        <time>2015-03-10T07:46:28.000Z</time>
      </trkpt>
      <trkpt lat="44.8465" lon="6.7433">
        <ele>1857.8000488281</ele>
        <time>2015-03-10T07:46:34.000Z</time>
      </trkpt>
      <trkpt lat="44.84646" lon="6.74328">
        <ele>1857.4000244141</ele>
        <time>2015-03-10T07:46:37.000Z</time>
      </trkpt>
      <trkpt lat="44.84637" lon="6.74322">
        <ele>1857.1999511719</ele>
        <time>2015-03-10T07:46:45.000Z</time>
      </trkpt>
      <trkpt lat="44.84626" lon="6.74316">
        <ele>1856.8000488281</ele>
        <time>2015-03-10T07:46:54.000Z</time>
      </trkpt>
      <trkpt lat="44.84617" lon="6.74312">
        <ele>1856.8000488281</ele>
        <time>2015-03-10T07:47:00.000Z</time>
      </trkpt>
      <trkpt lat="44.84614" lon="6.7431">
        <ele>1856.5999755859</ele>
        <time>2015-03-10T07:47:02.000Z</time>
      </trkpt>
      <trkpt lat="44.84607" lon="6.74306">
        <ele>1856.5999755859</ele>
        <time>2015-03-10T07:47:09.000Z</time>
      </trkpt>
      <trkpt lat="44.84598" lon="6.74296">
        <ele>1856.4000244141</ele>
        <time>2015-03-10T07:47:18.000Z</time>
      </trkpt>
      <trkpt lat="44.84591" lon="6.7429">
        <ele>1856.5999755859</ele>
        <time>2015-03-10T07:47:24.000Z</time>
      </trkpt>
      <trkpt lat="44.84587" lon="6.74285">
        <ele>1856.5999755859</ele>
        <time>2015-03-10T07:47:30.000Z</time>
      </trkpt>
      <trkpt lat="44.84578" lon="6.74276">
        <ele>1856.5999755859</ele>
        <time>2015-03-10T07:47:39.000Z</time>
      </trkpt>
      <trkpt lat="44.84572" lon="6.74266">
        <ele>1856.5999755859</ele>
        <time>2015-03-10T07:47:45.000Z</time>
      </trkpt>
      <trkpt lat="44.84569" lon="6.74258">
        <ele>1856.4000244141</ele>
        <time>2015-03-10T07:47:47.000Z</time>
      </trkpt>
      <trkpt lat="44.84565" lon="6.74251">
        <ele>1856.1999511719</ele>
        <time>2015-03-10T07:47:52.000Z</time>
      </trkpt>
      <trkpt lat="44.8456" lon="6.74246">
        <ele>1855.8000488281</ele>
        <time>2015-03-10T07:47:57.000Z</time>
      </trkpt>
      <trkpt lat="44.84554" lon="6.74238">
        <ele>1855.8000488281</ele>
        <time>2015-03-10T07:48:05.000Z</time>
      </trkpt>
      <trkpt lat="44.84549" lon="6.7423">
        <ele>1855.8000488281</ele>
        <time>2015-03-10T07:48:11.000Z</time>
      </trkpt>
      <trkpt lat="44.84545" lon="6.74223">
        <ele>1855.4000244141</ele>
        <time>2015-03-10T07:48:17.000Z</time>
      </trkpt>
      <trkpt lat="44.84539" lon="6.74213">
        <ele>1855.4000244141</ele>
        <time>2015-03-10T07:48:24.000Z</time>
      </trkpt>
      <trkpt lat="44.84534" lon="6.74203">
        <ele>1855.1999511719</ele>
        <time>2015-03-10T07:48:32.000Z</time>
      </trkpt>
      <trkpt lat="44.8453" lon="6.742">
        <ele>1855.5999755859</ele>
        <time>2015-03-10T07:48:39.000Z</time>
      </trkpt>
      <trkpt lat="44.84525" lon="6.74202">
        <ele>1856</ele>
        <time>2015-03-10T07:48:45.000Z</time>
      </trkpt>
      <trkpt lat="44.84521" lon="6.74207">
        <ele>1856.8000488281</ele>
        <time>2015-03-10T07:48:52.000Z</time>
      </trkpt>
      <trkpt lat="44.84517" lon="6.74212">
        <ele>1857.5999755859</ele>
        <time>2015-03-10T07:48:59.000Z</time>
      </trkpt>
      <trkpt lat="44.84516" lon="6.74213">
        <ele>1857.8000488281</ele>
        <time>2015-03-10T07:49:01.000Z</time>
      </trkpt>
      <trkpt lat="44.84513" lon="6.74217">
        <ele>1858.5999755859</ele>
        <time>2015-03-10T07:49:07.000Z</time>
      </trkpt>
      <trkpt lat="44.84513" lon="6.74217">
        <ele>1858.8000488281</ele>
        <time>2015-03-10T07:49:10.000Z</time>
      </trkpt>
      <trkpt lat="44.84513" lon="6.74217">
        <ele>1859.5999755859</ele>
        <time>2015-03-10T07:49:14.000Z</time>
      </trkpt>
      <trkpt lat="44.84513" lon="6.74217">
        <ele>1860</ele>
        <time>2015-03-10T07:49:16.000Z</time>
      </trkpt>
      <trkpt lat="44.84513" lon="6.74217">
        <ele>1860.4000244141</ele>
        <time>2015-03-10T07:49:21.000Z</time>
      </trkpt>
      <trkpt lat="44.84508" lon="6.7422">
        <ele>1860.8000488281</ele>
        <time>2015-03-10T07:49:28.000Z</time>
      </trkpt>
      <trkpt lat="44.84507" lon="6.74221">
        <ele>1861</ele>
        <time>2015-03-10T07:49:29.000Z</time>
      </trkpt>
      <trkpt lat="44.84501" lon="6.74227">
        <ele>1861.8000488281</ele>
        <time>2015-03-10T07:49:36.000Z</time>
      </trkpt>
      <trkpt lat="44.84498" lon="6.74231">
        <ele>1862</ele>
        <time>2015-03-10T07:49:40.000Z</time>
      </trkpt>
      <trkpt lat="44.84495" lon="6.74235">
        <ele>1862.4000244141</ele>
        <time>2015-03-10T07:49:45.000Z</time>
      </trkpt>
      <trkpt lat="44.84491" lon="6.74241">
        <ele>1863.1999511719</ele>
        <time>2015-03-10T07:49:51.000Z</time>
      </trkpt>
      <trkpt lat="44.84489" lon="6.74244">
        <ele>1863.5999755859</ele>
        <time>2015-03-10T07:49:54.000Z</time>
      </trkpt>
      <trkpt lat="44.84487" lon="6.74247">
        <ele>1864.1999511719</ele>
        <time>2015-03-10T07:49:58.000Z</time>
      </trkpt>
      <trkpt lat="44.84484" lon="6.74252">
        <ele>1864.8000488281</ele>
        <time>2015-03-10T07:50:02.000Z</time>
      </trkpt>
      <trkpt lat="44.84482" lon="6.74255">
        <ele>1865.4000244141</ele>
        <time>2015-03-10T07:50:06.000Z</time>
      </trkpt>
      <trkpt lat="44.8448" lon="6.74257">
        <ele>1865.8000488281</ele>
        <time>2015-03-10T07:50:09.000Z</time>
      </trkpt>
      <trkpt lat="44.84477" lon="6.74262">
        <ele>1866.5999755859</ele>
        <time>2015-03-10T07:50:15.000Z</time>
      </trkpt>
      <trkpt lat="44.84476" lon="6.74264">
        <ele>1867</ele>
        <time>2015-03-10T07:50:17.000Z</time>
      </trkpt>
      <trkpt lat="44.84472" lon="6.74266">
        <ele>1867.5999755859</ele>
        <time>2015-03-10T07:50:22.000Z</time>
      </trkpt>
      <trkpt lat="44.8447" lon="6.74268">
        <ele>1868.1999511719</ele>
        <time>2015-03-10T07:50:25.000Z</time>
      </trkpt>
      <trkpt lat="44.84466" lon="6.74271">
        <ele>1868.5999755859</ele>
        <time>2015-03-10T07:50:29.000Z</time>
      </trkpt>
      <trkpt lat="44.84464" lon="6.74272">
        <ele>1868.8000488281</ele>
        <time>2015-03-10T07:50:32.000Z</time>
      </trkpt>
      <trkpt lat="44.8446" lon="6.74277">
        <ele>1869.4000244141</ele>
        <time>2015-03-10T07:50:40.000Z</time>
      </trkpt>
      <trkpt lat="44.84458" lon="6.74277">
        <ele>1869.5999755859</ele>
        <time>2015-03-10T07:50:42.000Z</time>
      </trkpt>
      <trkpt lat="44.8445" lon="6.7428">
        <ele>1870.1999511719</ele>
        <time>2015-03-10T07:50:51.000Z</time>
      </trkpt>
      <trkpt lat="44.84444" lon="6.74282">
        <ele>1870.5999755859</ele>
        <time>2015-03-10T07:50:57.000Z</time>
      </trkpt>
      <trkpt lat="44.84443" lon="6.74282">
        <ele>1870.5999755859</ele>
        <time>2015-03-10T07:50:58.000Z</time>
      </trkpt>
      <trkpt lat="44.8444" lon="6.74284">
        <ele>1871</ele>
        <time>2015-03-10T07:51:02.000Z</time>
      </trkpt>
      <trkpt lat="44.84435" lon="6.74287">
        <ele>1871.5999755859</ele>
        <time>2015-03-10T07:51:08.000Z</time>
      </trkpt>
      <trkpt lat="44.84433" lon="6.74289">
        <ele>1871.8000488281</ele>
        <time>2015-03-10T07:51:10.000Z</time>
      </trkpt>
      <trkpt lat="44.8443" lon="6.74291">
        <ele>1872.4000244141</ele>
        <time>2015-03-10T07:51:16.000Z</time>
      </trkpt>
      <trkpt lat="44.84428" lon="6.74292">
        <ele>1872.8000488281</ele>
        <time>2015-03-10T07:51:19.000Z</time>
      </trkpt>
      <trkpt lat="44.84426" lon="6.74294">
        <ele>1873.1999511719</ele>
        <time>2015-03-10T07:51:22.000Z</time>
      </trkpt>
      <trkpt lat="44.84423" lon="6.74296">
        <ele>1873.5999755859</ele>
        <time>2015-03-10T07:51:25.000Z</time>
      </trkpt>
      <trkpt lat="44.84422" lon="6.74297">
        <ele>1873.8000488281</ele>
        <time>2015-03-10T07:51:27.000Z</time>
      </trkpt>
      <trkpt lat="44.84419" lon="6.743">
        <ele>1874.8000488281</ele>
        <time>2015-03-10T07:51:33.000Z</time>
      </trkpt>
      <trkpt lat="44.84418" lon="6.743">
        <ele>1875</ele>
        <time>2015-03-10T07:51:34.000Z</time>
      </trkpt>
      <trkpt lat="44.84415" lon="6.74302">
        <ele>1875.8000488281</ele>
        <time>2015-03-10T07:51:40.000Z</time>
      </trkpt>
      <trkpt lat="44.84413" lon="6.74303">
        <ele>1876</ele>
        <time>2015-03-10T07:51:42.000Z</time>
      </trkpt>
      <trkpt lat="44.8441" lon="6.74306">
        <ele>1876.8000488281</ele>
        <time>2015-03-10T07:51:48.000Z</time>
      </trkpt>
      <trkpt lat="44.84407" lon="6.7431">
        <ele>1877</ele>
        <time>2015-03-10T07:51:54.000Z</time>
      </trkpt>
      <trkpt lat="44.84406" lon="6.74311">
        <ele>1877.1999511719</ele>
        <time>2015-03-10T07:51:55.000Z</time>
      </trkpt>
      <trkpt lat="44.84401" lon="6.74315">
        <ele>1878.1999511719</ele>
        <time>2015-03-10T07:52:03.000Z</time>
      </trkpt>
      <trkpt lat="44.84395" lon="6.7432">
        <ele>1879.4000244141</ele>
        <time>2015-03-10T07:52:12.000Z</time>
      </trkpt>
      <trkpt lat="44.84395" lon="6.74321">
        <ele>1879.4000244141</ele>
        <time>2015-03-10T07:52:13.000Z</time>
      </trkpt>
      <trkpt lat="44.8439" lon="6.74324">
        <ele>1880.4000244141</ele>
        <time>2015-03-10T07:52:20.000Z</time>
      </trkpt>
      <trkpt lat="44.84385" lon="6.74328">
        <ele>1881.4000244141</ele>
        <time>2015-03-10T07:52:26.000Z</time>
      </trkpt>
      <trkpt lat="44.84384" lon="6.7433">
        <ele>1881.8000488281</ele>
        <time>2015-03-10T07:52:29.000Z</time>
      </trkpt>
      <trkpt lat="44.84383" lon="6.7433">
        <ele>1882.1999511719</ele>
        <time>2015-03-10T07:52:37.000Z</time>
      </trkpt>
      <trkpt lat="44.84383" lon="6.7433">
        <ele>1882.5999755859</ele>
        <time>2015-03-10T07:52:40.000Z</time>
      </trkpt>
      <trkpt lat="44.84383" lon="6.7433">
        <ele>1883.1999511719</ele>
        <time>2015-03-10T07:52:45.000Z</time>
      </trkpt>
      <trkpt lat="44.84383" lon="6.7433">
        <ele>1883.5999755859</ele>
        <time>2015-03-10T07:52:48.000Z</time>
      </trkpt>
      <trkpt lat="44.84383" lon="6.7433">
        <ele>1884.1999511719</ele>
        <time>2015-03-10T07:52:54.000Z</time>
      </trkpt>
      <trkpt lat="44.84379" lon="6.74336">
        <ele>1884.8000488281</ele>
        <time>2015-03-10T07:52:59.000Z</time>
      </trkpt>
      <trkpt lat="44.84378" lon="6.74336">
        <ele>1885</ele>
        <time>2015-03-10T07:53:00.000Z</time>
      </trkpt>
      <trkpt lat="44.84372" lon="6.74343">
        <ele>1885.8000488281</ele>
        <time>2015-03-10T07:53:06.000Z</time>
      </trkpt>
      <trkpt lat="44.8437" lon="6.74346">
        <ele>1886.1999511719</ele>
        <time>2015-03-10T07:53:08.000Z</time>
      </trkpt>
      <trkpt lat="44.84366" lon="6.74351">
        <ele>1887</ele>
        <time>2015-03-10T07:53:13.000Z</time>
      </trkpt>
      <trkpt lat="44.84365" lon="6.74352">
        <ele>1887.1999511719</ele>
        <time>2015-03-10T07:53:15.000Z</time>
      </trkpt>
      <trkpt lat="44.84357" lon="6.74358">
        <ele>1888</ele>
        <time>2015-03-10T07:53:22.000Z</time>
      </trkpt>
      <trkpt lat="44.84357" lon="6.74358">
        <ele>1888</ele>
        <time>2015-03-10T07:53:23.000Z</time>
      </trkpt>
      <trkpt lat="44.84356" lon="6.74359">
        <ele>1888.5999755859</ele>
        <time>2015-03-10T07:53:28.000Z</time>
      </trkpt>
      <trkpt lat="44.84356" lon="6.74359">
        <ele>1889.1999511719</ele>
        <time>2015-03-10T07:53:31.000Z</time>
      </trkpt>
      <trkpt lat="44.84356" lon="6.74359">
        <ele>1890</ele>
        <time>2015-03-10T07:53:36.000Z</time>
      </trkpt>
      <trkpt lat="44.84356" lon="6.74359">
        <ele>1890.1999511719</ele>
        <time>2015-03-10T07:53:37.000Z</time>
      </trkpt>
      <trkpt lat="44.84356" lon="6.74359">
        <ele>1891</ele>
        <time>2015-03-10T07:53:44.000Z</time>
      </trkpt>
      <trkpt lat="44.84356" lon="6.74359">
        <ele>1891.1999511719</ele>
        <time>2015-03-10T07:53:45.000Z</time>
      </trkpt>
      <trkpt lat="44.84356" lon="6.74359">
        <ele>1892</ele>
        <time>2015-03-10T07:53:51.000Z</time>
      </trkpt>
      <trkpt lat="44.84355" lon="6.74361">
        <ele>1892.1999511719</ele>
        <time>2015-03-10T07:53:53.000Z</time>
      </trkpt>
      <trkpt lat="44.8435" lon="6.74368">
        <ele>1892.8000488281</ele>
        <time>2015-03-10T07:53:57.000Z</time>
      </trkpt>
      <trkpt lat="44.84349" lon="6.74368">
        <ele>1893.4000244141</ele>
        <time>2015-03-10T07:53:59.000Z</time>
      </trkpt>
      <trkpt lat="44.84347" lon="6.74373">
        <ele>1893.8000488281</ele>
        <time>2015-03-10T07:54:02.000Z</time>
      </trkpt>
      <trkpt lat="44.84343" lon="6.7438">
        <ele>1894.5999755859</ele>
        <time>2015-03-10T07:54:07.000Z</time>
      </trkpt>
      <trkpt lat="44.8434" lon="6.74382">
        <ele>1894.8000488281</ele>
        <time>2015-03-10T07:54:08.000Z</time>
      </trkpt>
      <trkpt lat="44.84334" lon="6.74388">
        <ele>1895.5999755859</ele>
        <time>2015-03-10T07:54:14.000Z</time>
      </trkpt>
      <trkpt lat="44.84325" lon="6.74398">
        <ele>1896.4000244141</ele>
        <time>2015-03-10T07:54:22.000Z</time>
      </trkpt>
      <trkpt lat="44.84322" lon="6.74398">
        <ele>1896.8000488281</ele>
        <time>2015-03-10T07:54:24.000Z</time>
      </trkpt>
      <trkpt lat="44.84318" lon="6.74401">
        <ele>1897.5999755859</ele>
        <time>2015-03-10T07:54:29.000Z</time>
      </trkpt>
      <trkpt lat="44.84316" lon="6.74402">
        <ele>1897.8000488281</ele>
        <time>2015-03-10T07:54:30.000Z</time>
      </trkpt>
      <trkpt lat="44.84311" lon="6.74408">
        <ele>1898.8000488281</ele>
        <time>2015-03-10T07:54:37.000Z</time>
      </trkpt>
      <trkpt lat="44.84309" lon="6.7441">
        <ele>1899.4000244141</ele>
        <time>2015-03-10T07:54:45.000Z</time>
      </trkpt>
      <trkpt lat="44.84306" lon="6.74413">
        <ele>1900</ele>
        <time>2015-03-10T07:54:48.000Z</time>
      </trkpt>
      <trkpt lat="44.84301" lon="6.74418">
        <ele>1900.4000244141</ele>
        <time>2015-03-10T07:54:53.000Z</time>
      </trkpt>
      <trkpt lat="44.84297" lon="6.74423">
        <ele>1901</ele>
        <time>2015-03-10T07:54:58.000Z</time>
      </trkpt>
      <trkpt lat="44.84295" lon="6.74426">
        <ele>1901.4000244141</ele>
        <time>2015-03-10T07:55:01.000Z</time>
      </trkpt>
      <trkpt lat="44.84291" lon="6.74431">
        <ele>1902</ele>
        <time>2015-03-10T07:55:06.000Z</time>
      </trkpt>
      <trkpt lat="44.84288" lon="6.74435">
        <ele>1902.4000244141</ele>
        <time>2015-03-10T07:55:10.000Z</time>
      </trkpt>
      <trkpt lat="44.84284" lon="6.74438">
        <ele>1903.1999511719</ele>
        <time>2015-03-10T07:55:15.000Z</time>
      </trkpt>
      <trkpt lat="44.8428" lon="6.7444">
        <ele>1903.5999755859</ele>
        <time>2015-03-10T07:55:19.000Z</time>
      </trkpt>
      <trkpt lat="44.84276" lon="6.74444">
        <ele>1904.1999511719</ele>
        <time>2015-03-10T07:55:25.000Z</time>
      </trkpt>
      <trkpt lat="44.84275" lon="6.74447">
        <ele>1904.4000244141</ele>
        <time>2015-03-10T07:55:28.000Z</time>
      </trkpt>
      <trkpt lat="44.84271" lon="6.74451">
        <ele>1905.4000244141</ele>
        <time>2015-03-10T07:55:35.000Z</time>
      </trkpt>
      <trkpt lat="44.84271" lon="6.74451">
        <ele>1906</ele>
        <time>2015-03-10T07:55:39.000Z</time>
      </trkpt>
      <trkpt lat="44.84271" lon="6.74451">
        <ele>1906.4000244141</ele>
        <time>2015-03-10T07:55:43.000Z</time>
      </trkpt>
      <trkpt lat="44.84271" lon="6.74451">
        <ele>1907</ele>
        <time>2015-03-10T07:55:48.000Z</time>
      </trkpt>
      <trkpt lat="44.84271" lon="6.74451">
        <ele>1907.4000244141</ele>
        <time>2015-03-10T07:55:52.000Z</time>
      </trkpt>
      <trkpt lat="44.84271" lon="6.74451">
        <ele>1908.1999511719</ele>
        <time>2015-03-10T07:55:58.000Z</time>
      </trkpt>
      <trkpt lat="44.84271" lon="6.74451">
        <ele>1908.5999755859</ele>
        <time>2015-03-10T07:56:00.000Z</time>
      </trkpt>
      <trkpt lat="44.84271" lon="6.74451">
        <ele>1909.1999511719</ele>
        <time>2015-03-10T07:56:07.000Z</time>
      </trkpt>
      <trkpt lat="44.84265" lon="6.74455">
        <ele>1909.5999755859</ele>
        <time>2015-03-10T07:56:12.000Z</time>
      </trkpt>
      <trkpt lat="44.8426" lon="6.74461">
        <ele>1910.1999511719</ele>
        <time>2015-03-10T07:56:15.000Z</time>
      </trkpt>
      <trkpt lat="44.84249" lon="6.74475">
        <ele>1910.8000488281</ele>
        <time>2015-03-10T07:56:23.000Z</time>
      </trkpt>
      <trkpt lat="44.8424" lon="6.74486">
        <ele>1911.8000488281</ele>
        <time>2015-03-10T07:56:33.000Z</time>
      </trkpt>
      <trkpt lat="44.84232" lon="6.74493">
        <ele>1912.4000244141</ele>
        <time>2015-03-10T07:56:41.000Z</time>
      </trkpt>
      <trkpt lat="44.84229" lon="6.74497">
        <ele>1912.8000488281</ele>
        <time>2015-03-10T07:56:45.000Z</time>
      </trkpt>
      <trkpt lat="44.84226" lon="6.745">
        <ele>1913.1999511719</ele>
        <time>2015-03-10T07:56:49.000Z</time>
      </trkpt>
      <trkpt lat="44.84221" lon="6.74507">
        <ele>1914</ele>
        <time>2015-03-10T07:56:56.000Z</time>
      </trkpt>
      <trkpt lat="44.84216" lon="6.74516">
        <ele>1914.4000244141</ele>
        <time>2015-03-10T07:57:05.000Z</time>
      </trkpt>
      <trkpt lat="44.84214" lon="6.7452">
        <ele>1915</ele>
        <time>2015-03-10T07:57:09.000Z</time>
      </trkpt>
      <trkpt lat="44.84212" lon="6.74524">
        <ele>1915.5999755859</ele>
        <time>2015-03-10T07:57:13.000Z</time>
      </trkpt>
      <trkpt lat="44.84208" lon="6.74527">
        <ele>1916.1999511719</ele>
        <time>2015-03-10T07:57:17.000Z</time>
      </trkpt>
      <trkpt lat="44.84206" lon="6.7453">
        <ele>1916.5999755859</ele>
        <time>2015-03-10T07:57:20.000Z</time>
      </trkpt>
      <trkpt lat="44.84201" lon="6.74534">
        <ele>1917.1999511719</ele>
        <time>2015-03-10T07:57:25.000Z</time>
      </trkpt>
      <trkpt lat="44.842" lon="6.74536">
        <ele>1917.4000244141</ele>
        <time>2015-03-10T07:57:27.000Z</time>
      </trkpt>
      <trkpt lat="44.84197" lon="6.74539">
        <ele>1918.4000244141</ele>
        <time>2015-03-10T07:57:33.000Z</time>
      </trkpt>
      <trkpt lat="44.8419" lon="6.74542">
        <ele>1919</ele>
        <time>2015-03-10T07:57:39.000Z</time>
      </trkpt>
      <trkpt lat="44.84189" lon="6.74543">
        <ele>1919.5999755859</ele>
        <time>2015-03-10T07:57:42.000Z</time>
      </trkpt>
      <trkpt lat="44.84187" lon="6.74545">
        <ele>1919.8000488281</ele>
        <time>2015-03-10T07:57:44.000Z</time>
      </trkpt>
      <trkpt lat="44.84181" lon="6.74552">
        <ele>1920.5999755859</ele>
        <time>2015-03-10T07:57:52.000Z</time>
      </trkpt>
      <trkpt lat="44.84175" lon="6.74559">
        <ele>1921.5999755859</ele>
        <time>2015-03-10T07:58:00.000Z</time>
      </trkpt>
      <trkpt lat="44.84175" lon="6.74559">
        <ele>1921.5999755859</ele>
        <time>2015-03-10T07:58:01.000Z</time>
      </trkpt>
      <trkpt lat="44.84169" lon="6.74565">
        <ele>1922</ele>
        <time>2015-03-10T07:58:08.000Z</time>
      </trkpt>
      <trkpt lat="44.84165" lon="6.74568">
        <ele>1922.5999755859</ele>
        <time>2015-03-10T07:58:13.000Z</time>
      </trkpt>
      <trkpt lat="44.84164" lon="6.74568">
        <ele>1922.5999755859</ele>
        <time>2015-03-10T07:58:14.000Z</time>
      </trkpt>
      <trkpt lat="44.84161" lon="6.74571">
        <ele>1923.4000244141</ele>
        <time>2015-03-10T07:58:20.000Z</time>
      </trkpt>
      <trkpt lat="44.84158" lon="6.74574">
        <ele>1923.8000488281</ele>
        <time>2015-03-10T07:58:24.000Z</time>
      </trkpt>
      <trkpt lat="44.84157" lon="6.74575">
        <ele>1923.8000488281</ele>
        <time>2015-03-10T07:58:25.000Z</time>
      </trkpt>
      <trkpt lat="44.84151" lon="6.74577">
        <ele>1923.8000488281</ele>
        <time>2015-03-10T07:58:31.000Z</time>
      </trkpt>
      <trkpt lat="44.84145" lon="6.74582">
        <ele>1924.4000244141</ele>
        <time>2015-03-10T07:58:40.000Z</time>
      </trkpt>
      <trkpt lat="44.84141" lon="6.74586">
        <ele>1925</ele>
        <time>2015-03-10T07:58:46.000Z</time>
      </trkpt>
      <trkpt lat="44.8414" lon="6.74587">
        <ele>1925</ele>
        <time>2015-03-10T07:58:47.000Z</time>
      </trkpt>
      <trkpt lat="44.84135" lon="6.7459">
        <ele>1925.5999755859</ele>
        <time>2015-03-10T07:58:54.000Z</time>
      </trkpt>
      <trkpt lat="44.84133" lon="6.74591">
        <ele>1926</ele>
        <time>2015-03-10T07:58:57.000Z</time>
      </trkpt>
      <trkpt lat="44.84131" lon="6.74594">
        <ele>1926.4000244141</ele>
        <time>2015-03-10T07:59:00.000Z</time>
      </trkpt>
      <trkpt lat="44.84124" lon="6.74602">
        <ele>1926.8000488281</ele>
        <time>2015-03-10T07:59:10.000Z</time>
      </trkpt>
      <trkpt lat="44.84122" lon="6.74603">
        <ele>1927</ele>
        <time>2015-03-10T07:59:12.000Z</time>
      </trkpt>
      <trkpt lat="44.8412" lon="6.74606">
        <ele>1927</ele>
        <time>2015-03-10T07:59:15.000Z</time>
      </trkpt>
      <trkpt lat="44.84114" lon="6.74612">
        <ele>1927</ele>
        <time>2015-03-10T07:59:24.000Z</time>
      </trkpt>
      <trkpt lat="44.84109" lon="6.7462">
        <ele>1927.1999511719</ele>
        <time>2015-03-10T07:59:31.000Z</time>
      </trkpt>
      <trkpt lat="44.84104" lon="6.74626">
        <ele>1927.8000488281</ele>
        <time>2015-03-10T07:59:38.000Z</time>
      </trkpt>
      <trkpt lat="44.84098" lon="6.74633">
        <ele>1928</ele>
        <time>2015-03-10T07:59:45.000Z</time>
      </trkpt>
      <trkpt lat="44.84098" lon="6.74634">
        <ele>1928.1999511719</ele>
        <time>2015-03-10T07:59:46.000Z</time>
      </trkpt>
      <trkpt lat="44.8409" lon="6.74642">
        <ele>1928.8000488281</ele>
        <time>2015-03-10T07:59:56.000Z</time>
      </trkpt>
      <trkpt lat="44.84087" lon="6.74645">
        <ele>1929.1999511719</ele>
        <time>2015-03-10T08:00:00.000Z</time>
      </trkpt>
      <trkpt lat="44.84083" lon="6.74648">
        <ele>1929.5999755859</ele>
        <time>2015-03-10T08:00:04.000Z</time>
      </trkpt>
      <trkpt lat="44.84075" lon="6.74651">
        <ele>1930.1999511719</ele>
        <time>2015-03-10T08:00:14.000Z</time>
      </trkpt>
      <trkpt lat="44.84074" lon="6.74651">
        <ele>1930.1999511719</ele>
        <time>2015-03-10T08:00:15.000Z</time>
      </trkpt>
      <trkpt lat="44.84067" lon="6.74655">
        <ele>1931</ele>
        <time>2015-03-10T08:00:22.000Z</time>
      </trkpt>
      <trkpt lat="44.84065" lon="6.74656">
        <ele>1931.1999511719</ele>
        <time>2015-03-10T08:00:25.000Z</time>
      </trkpt>
      <trkpt lat="44.8406" lon="6.74658">
        <ele>1931.5999755859</ele>
        <time>2015-03-10T08:00:30.000Z</time>
      </trkpt>
      <trkpt lat="44.84056" lon="6.7466">
        <ele>1932.4000244141</ele>
        <time>2015-03-10T08:00:36.000Z</time>
      </trkpt>
      <trkpt lat="44.84052" lon="6.74662">
        <ele>1932.8000488281</ele>
        <time>2015-03-10T08:00:41.000Z</time>
      </trkpt>
      <trkpt lat="44.84048" lon="6.74664">
        <ele>1933.4000244141</ele>
        <time>2015-03-10T08:00:47.000Z</time>
      </trkpt>
      <trkpt lat="44.84046" lon="6.74664">
        <ele>1933.8000488281</ele>
        <time>2015-03-10T08:00:49.000Z</time>
      </trkpt>
      <trkpt lat="44.8404" lon="6.74666">
        <ele>1934.4000244141</ele>
        <time>2015-03-10T08:00:57.000Z</time>
      </trkpt>
      <trkpt lat="44.84034" lon="6.74668">
        <ele>1935</ele>
        <time>2015-03-10T08:01:05.000Z</time>
      </trkpt>
      <trkpt lat="44.84028" lon="6.74671">
        <ele>1935.4000244141</ele>
        <time>2015-03-10T08:01:12.000Z</time>
      </trkpt>
      <trkpt lat="44.84027" lon="6.74671">
        <ele>1935.4000244141</ele>
        <time>2015-03-10T08:01:13.000Z</time>
      </trkpt>
      <trkpt lat="44.8402" lon="6.74674">
        <ele>1936.1999511719</ele>
        <time>2015-03-10T08:01:23.000Z</time>
      </trkpt>
      <trkpt lat="44.84017" lon="6.74675">
        <ele>1936.5999755859</ele>
        <time>2015-03-10T08:01:27.000Z</time>
      </trkpt>
      <trkpt lat="44.84012" lon="6.74675">
        <ele>1936.8000488281</ele>
        <time>2015-03-10T08:01:32.000Z</time>
      </trkpt>
      <trkpt lat="44.84006" lon="6.74678">
        <ele>1937.4000244141</ele>
        <time>2015-03-10T08:01:39.000Z</time>
      </trkpt>
      <trkpt lat="44.84004" lon="6.74679">
        <ele>1937.5999755859</ele>
        <time>2015-03-10T08:01:41.000Z</time>
      </trkpt>
      <trkpt lat="44.84001" lon="6.74681">
        <ele>1938</ele>
        <time>2015-03-10T08:01:45.000Z</time>
      </trkpt>
      <trkpt lat="44.83999" lon="6.74683">
        <ele>1938.5999755859</ele>
        <time>2015-03-10T08:01:49.000Z</time>
      </trkpt>
      <trkpt lat="44.83996" lon="6.74685">
        <ele>1939</ele>
        <time>2015-03-10T08:01:53.000Z</time>
      </trkpt>
      <trkpt lat="44.83993" lon="6.74689">
        <ele>1939.5999755859</ele>
        <time>2015-03-10T08:01:59.000Z</time>
      </trkpt>
      <trkpt lat="44.83991" lon="6.74691">
        <ele>1940.1999511719</ele>
        <time>2015-03-10T08:02:02.000Z</time>
      </trkpt>
      <trkpt lat="44.83988" lon="6.74693">
        <ele>1940.8000488281</ele>
        <time>2015-03-10T08:02:06.000Z</time>
      </trkpt>
      <trkpt lat="44.83984" lon="6.74695">
        <ele>1941.1999511719</ele>
        <time>2015-03-10T08:02:11.000Z</time>
      </trkpt>
      <trkpt lat="44.83979" lon="6.74698">
        <ele>1941.8000488281</ele>
        <time>2015-03-10T08:02:17.000Z</time>
      </trkpt>
      <trkpt lat="44.83978" lon="6.74698">
        <ele>1942</ele>
        <time>2015-03-10T08:02:19.000Z</time>
      </trkpt>
      <trkpt lat="44.83974" lon="6.747">
        <ele>1943</ele>
        <time>2015-03-10T08:02:26.000Z</time>
      </trkpt>
      <trkpt lat="44.83972" lon="6.74701">
        <ele>1943</ele>
        <time>2015-03-10T08:02:28.000Z</time>
      </trkpt>
      <trkpt lat="44.83964" lon="6.74703">
        <ele>1944</ele>
        <time>2015-03-10T08:02:37.000Z</time>
      </trkpt>
      <trkpt lat="44.83958" lon="6.74707">
        <ele>1945</ele>
        <time>2015-03-10T08:02:46.000Z</time>
      </trkpt>
      <trkpt lat="44.83957" lon="6.74707">
        <ele>1945</ele>
        <time>2015-03-10T08:02:47.000Z</time>
      </trkpt>
      <trkpt lat="44.8395" lon="6.74709">
        <ele>1946</ele>
        <time>2015-03-10T08:02:55.000Z</time>
      </trkpt>
      <trkpt lat="44.83949" lon="6.74709">
        <ele>1946</ele>
        <time>2015-03-10T08:02:56.000Z</time>
      </trkpt>
      <trkpt lat="44.83942" lon="6.74712">
        <ele>1947</ele>
        <time>2015-03-10T08:03:05.000Z</time>
      </trkpt>
      <trkpt lat="44.83942" lon="6.74713">
        <ele>1947.1999511719</ele>
        <time>2015-03-10T08:03:06.000Z</time>
      </trkpt>
      <trkpt lat="44.83938" lon="6.74713">
        <ele>1948.1999511719</ele>
        <time>2015-03-10T08:03:12.000Z</time>
      </trkpt>
      <trkpt lat="44.83937" lon="6.74714">
        <ele>1948.5999755859</ele>
        <time>2015-03-10T08:03:14.000Z</time>
      </trkpt>
      <trkpt lat="44.83935" lon="6.74716">
        <ele>1949.4000244141</ele>
        <time>2015-03-10T08:03:20.000Z</time>
      </trkpt>
      <trkpt lat="44.83934" lon="6.74716">
        <ele>1949.5999755859</ele>
        <time>2015-03-10T08:03:22.000Z</time>
      </trkpt>
      <trkpt lat="44.83934" lon="6.74716">
        <ele>1950.4000244141</ele>
        <time>2015-03-10T08:03:27.000Z</time>
      </trkpt>
      <trkpt lat="44.83934" lon="6.74716">
        <ele>1950.4000244141</ele>
        <time>2015-03-10T08:03:30.000Z</time>
      </trkpt>
      <trkpt lat="44.83934" lon="6.74716">
        <ele>1951</ele>
        <time>2015-03-10T08:03:36.000Z</time>
      </trkpt>
      <trkpt lat="44.83934" lon="6.74716">
        <ele>1951.4000244141</ele>
        <time>2015-03-10T08:03:39.000Z</time>
      </trkpt>
      <trkpt lat="44.83934" lon="6.74716">
        <ele>1952</ele>
        <time>2015-03-10T08:03:44.000Z</time>
      </trkpt>
      <trkpt lat="44.83934" lon="6.74716">
        <ele>1952.4000244141</ele>
        <time>2015-03-10T08:03:48.000Z</time>
      </trkpt>
      <trkpt lat="44.8393" lon="6.7472">
        <ele>1952.8000488281</ele>
        <time>2015-03-10T08:03:52.000Z</time>
      </trkpt>
      <trkpt lat="44.83922" lon="6.74725">
        <ele>1953.4000244141</ele>
        <time>2015-03-10T08:03:58.000Z</time>
      </trkpt>
      <trkpt lat="44.83918" lon="6.74728">
        <ele>1954</ele>
        <time>2015-03-10T08:04:04.000Z</time>
      </trkpt>
      <trkpt lat="44.83913" lon="6.74731">
        <ele>1954.4000244141</ele>
        <time>2015-03-10T08:04:11.000Z</time>
      </trkpt>
      <trkpt lat="44.83912" lon="6.74731">
        <ele>1954.4000244141</ele>
        <time>2015-03-10T08:04:12.000Z</time>
      </trkpt>
      <trkpt lat="44.83906" lon="6.74732">
        <ele>1955.1999511719</ele>
        <time>2015-03-10T08:04:19.000Z</time>
      </trkpt>
      <trkpt lat="44.83904" lon="6.74732">
        <ele>1955.4000244141</ele>
        <time>2015-03-10T08:04:22.000Z</time>
      </trkpt>
      <trkpt lat="44.83901" lon="6.74734">
        <ele>1955.8000488281</ele>
        <time>2015-03-10T08:04:26.000Z</time>
      </trkpt>
      <trkpt lat="44.83899" lon="6.74735">
        <ele>1956.5999755859</ele>
        <time>2015-03-10T08:04:30.000Z</time>
      </trkpt>
      <trkpt lat="44.83898" lon="6.74736">
        <ele>1956.8000488281</ele>
        <time>2015-03-10T08:04:32.000Z</time>
      </trkpt>
      <trkpt lat="44.83897" lon="6.74737">
        <ele>1957.8000488281</ele>
        <time>2015-03-10T08:04:38.000Z</time>
      </trkpt>
      <trkpt lat="44.83896" lon="6.74738">
        <ele>1958.4000244141</ele>
        <time>2015-03-10T08:04:43.000Z</time>
      </trkpt>
      <trkpt lat="44.83895" lon="6.74738">
        <ele>1958.8000488281</ele>
        <time>2015-03-10T08:04:46.000Z</time>
      </trkpt>
      <trkpt lat="44.83892" lon="6.74739">
        <ele>1959.4000244141</ele>
        <time>2015-03-10T08:04:49.000Z</time>
      </trkpt>
      <trkpt lat="44.8389" lon="6.74741">
        <ele>1959.8000488281</ele>
        <time>2015-03-10T08:04:54.000Z</time>
      </trkpt>
      <trkpt lat="44.8389" lon="6.74741">
        <ele>1960.8000488281</ele>
        <time>2015-03-10T08:05:01.000Z</time>
      </trkpt>
      <trkpt lat="44.8389" lon="6.74741">
        <ele>1961</ele>
        <time>2015-03-10T08:05:02.000Z</time>
      </trkpt>
      <trkpt lat="44.8389" lon="6.74741">
        <ele>1961.5999755859</ele>
        <time>2015-03-10T08:05:07.000Z</time>
      </trkpt>
      <trkpt lat="44.8389" lon="6.74741">
        <ele>1962</ele>
        <time>2015-03-10T08:05:10.000Z</time>
      </trkpt>
      <trkpt lat="44.8389" lon="6.74741">
        <ele>1962.4000244141</ele>
        <time>2015-03-10T08:05:14.000Z</time>
      </trkpt>
      <trkpt lat="44.83888" lon="6.74746">
        <ele>1963</ele>
        <time>2015-03-10T08:05:19.000Z</time>
      </trkpt>
      <trkpt lat="44.83883" lon="6.7475">
        <ele>1964.1999511719</ele>
        <time>2015-03-10T08:05:25.000Z</time>
      </trkpt>
      <trkpt lat="44.83877" lon="6.74753">
        <ele>1964.5999755859</ele>
        <time>2015-03-10T08:05:31.000Z</time>
      </trkpt>
      <trkpt lat="44.83876" lon="6.74754">
        <ele>1965.4000244141</ele>
        <time>2015-03-10T08:05:36.000Z</time>
      </trkpt>
      <trkpt lat="44.83876" lon="6.74755">
        <ele>1965.5999755859</ele>
        <time>2015-03-10T08:05:37.000Z</time>
      </trkpt>
      <trkpt lat="44.83876" lon="6.74755">
        <ele>1966</ele>
        <time>2015-03-10T08:05:42.000Z</time>
      </trkpt>
      <trkpt lat="44.83876" lon="6.74755">
        <ele>1966.4000244141</ele>
        <time>2015-03-10T08:05:45.000Z</time>
      </trkpt>
      <trkpt lat="44.83873" lon="6.74757">
        <ele>1967.1999511719</ele>
        <time>2015-03-10T08:05:49.000Z</time>
      </trkpt>
      <trkpt lat="44.83873" lon="6.74757">
        <ele>1967.5999755859</ele>
        <time>2015-03-10T08:05:52.000Z</time>
      </trkpt>
      <trkpt lat="44.83869" lon="6.7476">
        <ele>1967.5999755859</ele>
        <time>2015-03-10T08:05:55.000Z</time>
      </trkpt>
      <trkpt lat="44.83865" lon="6.74765">
        <ele>1968.4000244141</ele>
        <time>2015-03-10T08:06:02.000Z</time>
      </trkpt>
      <trkpt lat="44.8386" lon="6.74769">
        <ele>1968.5999755859</ele>
        <time>2015-03-10T08:06:07.000Z</time>
      </trkpt>
      <trkpt lat="44.83859" lon="6.7477">
        <ele>1968.5999755859</ele>
        <time>2015-03-10T08:06:08.000Z</time>
      </trkpt>
      <trkpt lat="44.83857" lon="6.74772">
        <ele>1969.1999511719</ele>
        <time>2015-03-10T08:06:12.000Z</time>
      </trkpt>
      <trkpt lat="44.83857" lon="6.74772">
        <ele>1969.5999755859</ele>
        <time>2015-03-10T08:06:14.000Z</time>
      </trkpt>
      <trkpt lat="44.83857" lon="6.74772">
        <ele>1970.1999511719</ele>
        <time>2015-03-10T08:06:18.000Z</time>
      </trkpt>
      <trkpt lat="44.83855" lon="6.74773">
        <ele>1970.5999755859</ele>
        <time>2015-03-10T08:06:21.000Z</time>
      </trkpt>
      <trkpt lat="44.83854" lon="6.74775">
        <ele>1970.8000488281</ele>
        <time>2015-03-10T08:06:23.000Z</time>
      </trkpt>
      <trkpt lat="44.83852" lon="6.74776">
        <ele>1971.1999511719</ele>
        <time>2015-03-10T08:06:30.000Z</time>
      </trkpt>
      <trkpt lat="44.83849" lon="6.74781">
        <ele>1971.1999511719</ele>
        <time>2015-03-10T08:06:35.000Z</time>
      </trkpt>
      <trkpt lat="44.83844" lon="6.74785">
        <ele>1971.4000244141</ele>
        <time>2015-03-10T08:06:41.000Z</time>
      </trkpt>
      <trkpt lat="44.83839" lon="6.74788">
        <ele>1971.4000244141</ele>
        <time>2015-03-10T08:06:46.000Z</time>
      </trkpt>
      <trkpt lat="44.83838" lon="6.7479">
        <ele>1971.5999755859</ele>
        <time>2015-03-10T08:06:48.000Z</time>
      </trkpt>
      <trkpt lat="44.83835" lon="6.74792">
        <ele>1972</ele>
        <time>2015-03-10T08:06:51.000Z</time>
      </trkpt>
      <trkpt lat="44.83829" lon="6.74795">
        <ele>1972.4000244141</ele>
        <time>2015-03-10T08:06:57.000Z</time>
      </trkpt>
      <trkpt lat="44.83825" lon="6.74798">
        <ele>1972.8000488281</ele>
        <time>2015-03-10T08:07:03.000Z</time>
      </trkpt>
      <trkpt lat="44.83819" lon="6.74802">
        <ele>1973.1999511719</ele>
        <time>2015-03-10T08:07:09.000Z</time>
      </trkpt>
      <trkpt lat="44.83814" lon="6.74805">
        <ele>1973.5999755859</ele>
        <time>2015-03-10T08:07:15.000Z</time>
      </trkpt>
      <trkpt lat="44.8381" lon="6.74809">
        <ele>1973.8000488281</ele>
        <time>2015-03-10T08:07:21.000Z</time>
      </trkpt>
      <trkpt lat="44.83805" lon="6.74812">
        <ele>1974.1999511719</ele>
        <time>2015-03-10T08:07:27.000Z</time>
      </trkpt>
      <trkpt lat="44.83799" lon="6.74815">
        <ele>1974.5999755859</ele>
        <time>2015-03-10T08:07:33.000Z</time>
      </trkpt>
      <trkpt lat="44.83798" lon="6.74815">
        <ele>1974.8000488281</ele>
        <time>2015-03-10T08:07:34.000Z</time>
      </trkpt>
      <trkpt lat="44.83795" lon="6.74817">
        <ele>1975</ele>
        <time>2015-03-10T08:07:38.000Z</time>
      </trkpt>
      <trkpt lat="44.8379" lon="6.74819">
        <ele>1975.1999511719</ele>
        <time>2015-03-10T08:07:43.000Z</time>
      </trkpt>
      <trkpt lat="44.83784" lon="6.74823">
        <ele>1975.8000488281</ele>
        <time>2015-03-10T08:07:50.000Z</time>
      </trkpt>
      <trkpt lat="44.83784" lon="6.74824">
        <ele>1975.8000488281</ele>
        <time>2015-03-10T08:07:51.000Z</time>
      </trkpt>
      <trkpt lat="44.83781" lon="6.74826">
        <ele>1976</ele>
        <time>2015-03-10T08:07:55.000Z</time>
      </trkpt>
      <trkpt lat="44.83776" lon="6.7483">
        <ele>1976.4000244141</ele>
        <time>2015-03-10T08:08:01.000Z</time>
      </trkpt>
      <trkpt lat="44.83771" lon="6.74835">
        <ele>1976.8000488281</ele>
        <time>2015-03-10T08:08:08.000Z</time>
      </trkpt>
      <trkpt lat="44.83767" lon="6.7484">
        <ele>1977</ele>
        <time>2015-03-10T08:08:14.000Z</time>
      </trkpt>
      <trkpt lat="44.83763" lon="6.74845">
        <ele>1977.4000244141</ele>
        <time>2015-03-10T08:08:20.000Z</time>
      </trkpt>
      <trkpt lat="44.83759" lon="6.74851">
        <ele>1977.8000488281</ele>
        <time>2015-03-10T08:08:26.000Z</time>
      </trkpt>
      <trkpt lat="44.83759" lon="6.74852">
        <ele>1977.8000488281</ele>
        <time>2015-03-10T08:08:27.000Z</time>
      </trkpt>
      <trkpt lat="44.83756" lon="6.74857">
        <ele>1978.1999511719</ele>
        <time>2015-03-10T08:08:32.000Z</time>
      </trkpt>
      <trkpt lat="44.83752" lon="6.74862">
        <ele>1978.1999511719</ele>
        <time>2015-03-10T08:08:38.000Z</time>
      </trkpt>
      <trkpt lat="44.83748" lon="6.74869">
        <ele>1978.8000488281</ele>
        <time>2015-03-10T08:08:45.000Z</time>
      </trkpt>
      <trkpt lat="44.83747" lon="6.7487">
        <ele>1978.8000488281</ele>
        <time>2015-03-10T08:08:46.000Z</time>
      </trkpt>
      <trkpt lat="44.83745" lon="6.74873">
        <ele>1979.1999511719</ele>
        <time>2015-03-10T08:08:50.000Z</time>
      </trkpt>
      <trkpt lat="44.83742" lon="6.74877">
        <ele>1979.4000244141</ele>
        <time>2015-03-10T08:08:55.000Z</time>
      </trkpt>
      <trkpt lat="44.83739" lon="6.74882">
        <ele>1979.5999755859</ele>
        <time>2015-03-10T08:09:00.000Z</time>
      </trkpt>
      <trkpt lat="44.83737" lon="6.74885">
        <ele>1979.8000488281</ele>
        <time>2015-03-10T08:09:04.000Z</time>
      </trkpt>
      <trkpt lat="44.83736" lon="6.74887">
        <ele>1980</ele>
        <time>2015-03-10T08:09:06.000Z</time>
      </trkpt>
      <trkpt lat="44.83734" lon="6.74891">
        <ele>1980.8000488281</ele>
        <time>2015-03-10T08:09:13.000Z</time>
      </trkpt>
      <trkpt lat="44.83734" lon="6.74891">
        <ele>1981</ele>
        <time>2015-03-10T08:09:20.000Z</time>
      </trkpt>
      <trkpt lat="44.83734" lon="6.74891">
        <ele>1981</ele>
        <time>2015-03-10T08:09:34.000Z</time>
      </trkpt>
      <trkpt lat="44.83734" lon="6.74891">
        <ele>1981.1999511719</ele>
        <time>2015-03-10T08:09:48.000Z</time>
      </trkpt>
      <trkpt lat="44.83734" lon="6.74891">
        <ele>1981.1999511719</ele>
        <time>2015-03-10T08:09:58.000Z</time>
      </trkpt>
      <trkpt lat="44.83734" lon="6.74891">
        <ele>1981.1999511719</ele>
        <time>2015-03-10T08:10:05.000Z</time>
      </trkpt>
      <trkpt lat="44.83734" lon="6.74891">
        <ele>1981.5999755859</ele>
        <time>2015-03-10T08:10:20.000Z</time>
      </trkpt>
      <trkpt lat="44.83734" lon="6.74891">
        <ele>1981.1999511719</ele>
        <time>2015-03-10T08:10:28.000Z</time>
      </trkpt>
      <trkpt lat="44.83734" lon="6.74891">
        <ele>1981.4000244141</ele>
        <time>2015-03-10T08:10:38.000Z</time>
      </trkpt>
      <trkpt lat="44.83734" lon="6.74891">
        <ele>1981.4000244141</ele>
        <time>2015-03-10T08:10:54.000Z</time>
      </trkpt>
      <trkpt lat="44.83734" lon="6.74891">
        <ele>1981.4000244141</ele>
        <time>2015-03-10T08:11:08.000Z</time>
      </trkpt>
      <trkpt lat="44.83733" lon="6.74892">
        <ele>1981.1999511719</ele>
        <time>2015-03-10T08:11:17.000Z</time>
      </trkpt>
      <trkpt lat="44.83733" lon="6.74892">
        <ele>1981.4000244141</ele>
        <time>2015-03-10T08:11:26.000Z</time>
      </trkpt>
      <trkpt lat="44.83733" lon="6.74892">
        <ele>1981</ele>
        <time>2015-03-10T08:11:46.000Z</time>
      </trkpt>
      <trkpt lat="44.83728" lon="6.74899">
        <ele>1981</ele>
        <time>2015-03-10T08:12:02.000Z</time>
      </trkpt>
      <trkpt lat="44.83726" lon="6.74899">
        <ele>1981</ele>
        <time>2015-03-10T08:12:20.000Z</time>
      </trkpt>
      <trkpt lat="44.83725" lon="6.74899">
        <ele>1981</ele>
        <time>2015-03-10T08:12:42.000Z</time>
      </trkpt>
      <trkpt lat="44.83725" lon="6.74895">
        <ele>1981</ele>
        <time>2015-03-10T08:13:04.000Z</time>
      </trkpt>
      <trkpt lat="44.83724" lon="6.74896">
        <ele>1981</ele>
        <time>2015-03-10T08:13:22.000Z</time>
      </trkpt>
      <trkpt lat="44.83724" lon="6.74896">
        <ele>1981</ele>
        <time>2015-03-10T08:13:41.000Z</time>
      </trkpt>
      <trkpt lat="44.83724" lon="6.74896">
        <ele>1981</ele>
        <time>2015-03-10T08:13:58.000Z</time>
      </trkpt>
      <trkpt lat="44.83724" lon="6.74896">
        <ele>1981</ele>
        <time>2015-03-10T08:14:14.000Z</time>
      </trkpt>
      <trkpt lat="44.83724" lon="6.74896">
        <ele>1981</ele>
        <time>2015-03-10T08:14:33.000Z</time>
      </trkpt>
      <trkpt lat="44.83726" lon="6.74896">
        <ele>1981</ele>
        <time>2015-03-10T08:14:53.000Z</time>
      </trkpt>
      <trkpt lat="44.83726" lon="6.74896">
        <ele>1981</ele>
        <time>2015-03-10T08:15:16.000Z</time>
      </trkpt>
      <trkpt lat="44.83727" lon="6.74896">
        <ele>1980.8000488281</ele>
        <time>2015-03-10T08:15:40.000Z</time>
      </trkpt>
      <trkpt lat="44.83727" lon="6.74896">
        <ele>1981</ele>
        <time>2015-03-10T08:15:58.000Z</time>
      </trkpt>
      <trkpt lat="44.83727" lon="6.74896">
        <ele>1980.8000488281</ele>
        <time>2015-03-10T08:16:03.000Z</time>
      </trkpt>
      <trkpt lat="44.83728" lon="6.74896">
        <ele>1981</ele>
        <time>2015-03-10T08:16:24.000Z</time>
      </trkpt>
      <trkpt lat="44.83728" lon="6.74896">
        <ele>1981</ele>
        <time>2015-03-10T08:16:47.000Z</time>
      </trkpt>
      <trkpt lat="44.83728" lon="6.74897">
        <ele>1981</ele>
        <time>2015-03-10T08:17:10.000Z</time>
      </trkpt>
      <trkpt lat="44.83728" lon="6.74897">
        <ele>1981</ele>
        <time>2015-03-10T08:17:30.000Z</time>
      </trkpt>
      <trkpt lat="44.83728" lon="6.74897">
        <ele>1981</ele>
        <time>2015-03-10T08:17:48.000Z</time>
      </trkpt>
      <trkpt lat="44.83728" lon="6.74897">
        <ele>1981.1999511719</ele>
        <time>2015-03-10T08:18:08.000Z</time>
      </trkpt>
      <trkpt lat="44.83728" lon="6.74897">
        <ele>1981.1999511719</ele>
        <time>2015-03-10T08:18:26.000Z</time>
      </trkpt>
      <trkpt lat="44.83728" lon="6.74897">
        <ele>1981.1999511719</ele>
        <time>2015-03-10T08:18:42.000Z</time>
      </trkpt>
      <trkpt lat="44.83728" lon="6.74897">
        <ele>1981.1999511719</ele>
        <time>2015-03-10T08:18:57.000Z</time>
      </trkpt>
      <trkpt lat="44.83728" lon="6.74897">
        <ele>1981.1999511719</ele>
        <time>2015-03-10T08:19:18.000Z</time>
      </trkpt>
      <trkpt lat="44.83728" lon="6.74897">
        <ele>1981.1999511719</ele>
        <time>2015-03-10T08:19:38.000Z</time>
      </trkpt>
      <trkpt lat="44.83728" lon="6.74897">
        <ele>1981.4000244141</ele>
        <time>2015-03-10T08:20:04.000Z</time>
      </trkpt>
      <trkpt lat="44.83728" lon="6.74897">
        <ele>1981.8000488281</ele>
        <time>2015-03-10T08:20:19.000Z</time>
      </trkpt>
      <trkpt lat="44.83728" lon="6.74897">
        <ele>1982</ele>
        <time>2015-03-10T08:20:21.000Z</time>
      </trkpt>
      <trkpt lat="44.83728" lon="6.74897">
        <ele>1981.4000244141</ele>
        <time>2015-03-10T08:20:30.000Z</time>
      </trkpt>
      <trkpt lat="44.83728" lon="6.74897">
        <ele>1981.4000244141</ele>
        <time>2015-03-10T08:20:31.000Z</time>
      </trkpt>
      <trkpt lat="44.83728" lon="6.74897">
        <ele>1981.4000244141</ele>
        <time>2015-03-10T08:20:44.000Z</time>
      </trkpt>
      <trkpt lat="44.83728" lon="6.74898">
        <ele>1981.5999755859</ele>
        <time>2015-03-10T08:20:57.000Z</time>
      </trkpt>
      <trkpt lat="44.83727" lon="6.74896">
        <ele>1981.5999755859</ele>
        <time>2015-03-10T08:21:08.000Z</time>
      </trkpt>
      <trkpt lat="44.83727" lon="6.74896">
        <ele>1981.5999755859</ele>
        <time>2015-03-10T08:21:22.000Z</time>
      </trkpt>
      <trkpt lat="44.83726" lon="6.74896">
        <ele>1981.5999755859</ele>
        <time>2015-03-10T08:21:34.000Z</time>
      </trkpt>
      <trkpt lat="44.83727" lon="6.74896">
        <ele>1981.8000488281</ele>
        <time>2015-03-10T08:21:54.000Z</time>
      </trkpt>
      <trkpt lat="44.83727" lon="6.74895">
        <ele>1981.5999755859</ele>
        <time>2015-03-10T08:22:00.000Z</time>
      </trkpt>
      <trkpt lat="44.83727" lon="6.74895">
        <ele>1981.4000244141</ele>
        <time>2015-03-10T08:22:12.000Z</time>
      </trkpt>
      <trkpt lat="44.83727" lon="6.74895">
        <ele>1981.5999755859</ele>
        <time>2015-03-10T08:22:32.000Z</time>
      </trkpt>
      <trkpt lat="44.83727" lon="6.74894">
        <ele>1981.5999755859</ele>
        <time>2015-03-10T08:22:47.000Z</time>
      </trkpt>
      <trkpt lat="44.83727" lon="6.74895">
        <ele>1981.5999755859</ele>
        <time>2015-03-10T08:22:56.000Z</time>
      </trkpt>
      <trkpt lat="44.83726" lon="6.74897">
        <ele>1981.4000244141</ele>
        <time>2015-03-10T08:23:03.000Z</time>
      </trkpt>
      <trkpt lat="44.83726" lon="6.74897">
        <ele>1981.8000488281</ele>
        <time>2015-03-10T08:23:14.000Z</time>
      </trkpt>
      <trkpt lat="44.83725" lon="6.74898">
        <ele>1981.5999755859</ele>
        <time>2015-03-10T08:23:26.000Z</time>
      </trkpt>
      <trkpt lat="44.83725" lon="6.74898">
        <ele>1981.5999755859</ele>
        <time>2015-03-10T08:23:42.000Z</time>
      </trkpt>
      <trkpt lat="44.83725" lon="6.74898">
        <ele>1981.5999755859</ele>
        <time>2015-03-10T08:23:52.000Z</time>
      </trkpt>
      <trkpt lat="44.83725" lon="6.74898">
        <ele>1981.8000488281</ele>
        <time>2015-03-10T08:24:06.000Z</time>
      </trkpt>
      <trkpt lat="44.83725" lon="6.74898">
        <ele>1981.8000488281</ele>
        <time>2015-03-10T08:24:17.000Z</time>
      </trkpt>
      <trkpt lat="44.83725" lon="6.74898">
        <ele>1981.5999755859</ele>
        <time>2015-03-10T08:24:24.000Z</time>
      </trkpt>
      <trkpt lat="44.83727" lon="6.74896">
        <ele>1981.5999755859</ele>
        <time>2015-03-10T08:24:30.000Z</time>
      </trkpt>
      <trkpt lat="44.83727" lon="6.74896">
        <ele>1981.4000244141</ele>
        <time>2015-03-10T08:24:39.000Z</time>
      </trkpt>
      <trkpt lat="44.83727" lon="6.74896">
        <ele>1981.4000244141</ele>
        <time>2015-03-10T08:24:54.000Z</time>
      </trkpt>
      <trkpt lat="44.83727" lon="6.74896">
        <ele>1981.8000488281</ele>
        <time>2015-03-10T08:25:08.000Z</time>
      </trkpt>
      <trkpt lat="44.83727" lon="6.74896">
        <ele>1981.5999755859</ele>
        <time>2015-03-10T08:25:10.000Z</time>
      </trkpt>
      <trkpt lat="44.83728" lon="6.74896">
        <ele>1981.5999755859</ele>
        <time>2015-03-10T08:25:19.000Z</time>
      </trkpt>
      <trkpt lat="44.83727" lon="6.74896">
        <ele>1981.4000244141</ele>
        <time>2015-03-10T08:25:26.000Z</time>
      </trkpt>
      <trkpt lat="44.83727" lon="6.74896">
        <ele>1981.4000244141</ele>
        <time>2015-03-10T08:25:45.000Z</time>
      </trkpt>
      <trkpt lat="44.83727" lon="6.74896">
        <ele>1981.5999755859</ele>
        <time>2015-03-10T08:25:57.000Z</time>
      </trkpt>
      <trkpt lat="44.83727" lon="6.74896">
        <ele>1981.5999755859</ele>
        <time>2015-03-10T08:26:08.000Z</time>
      </trkpt>
      <trkpt lat="44.83727" lon="6.74897">
        <ele>1981.5999755859</ele>
        <time>2015-03-10T08:26:15.000Z</time>
      </trkpt>
      <trkpt lat="44.8372" lon="6.74906">
        <ele>1982</ele>
        <time>2015-03-10T08:26:22.000Z</time>
      </trkpt>
      <trkpt lat="44.83716" lon="6.74913">
        <ele>1982.4000244141</ele>
        <time>2015-03-10T08:26:28.000Z</time>
      </trkpt>
      <trkpt lat="44.83714" lon="6.74918">
        <ele>1982.4000244141</ele>
        <time>2015-03-10T08:26:34.000Z</time>
      </trkpt>
      <trkpt lat="44.83712" lon="6.74925">
        <ele>1982.5999755859</ele>
        <time>2015-03-10T08:26:39.000Z</time>
      </trkpt>
      <trkpt lat="44.83709" lon="6.74929">
        <ele>1982.8000488281</ele>
        <time>2015-03-10T08:26:44.000Z</time>
      </trkpt>
      <trkpt lat="44.83706" lon="6.74934">
        <ele>1983</ele>
        <time>2015-03-10T08:26:50.000Z</time>
      </trkpt>
      <trkpt lat="44.83706" lon="6.74936">
        <ele>1983.1999511719</ele>
        <time>2015-03-10T08:26:51.000Z</time>
      </trkpt>
      <trkpt lat="44.83705" lon="6.7494">
        <ele>1983.4000244141</ele>
        <time>2015-03-10T08:26:56.000Z</time>
      </trkpt>
      <trkpt lat="44.83704" lon="6.74946">
        <ele>1983.8000488281</ele>
        <time>2015-03-10T08:27:02.000Z</time>
      </trkpt>
      <trkpt lat="44.83701" lon="6.74953">
        <ele>1984.1999511719</ele>
        <time>2015-03-10T08:27:08.000Z</time>
      </trkpt>
      <trkpt lat="44.837" lon="6.74955">
        <ele>1984.1999511719</ele>
        <time>2015-03-10T08:27:10.000Z</time>
      </trkpt>
      <trkpt lat="44.83697" lon="6.74959">
        <ele>1984.8000488281</ele>
        <time>2015-03-10T08:27:15.000Z</time>
      </trkpt>
      <trkpt lat="44.83696" lon="6.74965">
        <ele>1985.4000244141</ele>
        <time>2015-03-10T08:27:21.000Z</time>
      </trkpt>
      <trkpt lat="44.83695" lon="6.74966">
        <ele>1985.4000244141</ele>
        <time>2015-03-10T08:27:23.000Z</time>
      </trkpt>
      <trkpt lat="44.83692" lon="6.7497">
        <ele>1985.8000488281</ele>
        <time>2015-03-10T08:27:28.000Z</time>
      </trkpt>
      <trkpt lat="44.83692" lon="6.74972">
        <ele>1985.8000488281</ele>
        <time>2015-03-10T08:27:30.000Z</time>
      </trkpt>
      <trkpt lat="44.83688" lon="6.74976">
        <ele>1986.1999511719</ele>
        <time>2015-03-10T08:27:36.000Z</time>
      </trkpt>
      <trkpt lat="44.83687" lon="6.74978">
        <ele>1986.4000244141</ele>
        <time>2015-03-10T08:27:38.000Z</time>
      </trkpt>
      <trkpt lat="44.83685" lon="6.74983">
        <ele>1986.5999755859</ele>
        <time>2015-03-10T08:27:43.000Z</time>
      </trkpt>
      <trkpt lat="44.83683" lon="6.74988">
        <ele>1987.1999511719</ele>
        <time>2015-03-10T08:27:50.000Z</time>
      </trkpt>
      <trkpt lat="44.83682" lon="6.7499">
        <ele>1987.4000244141</ele>
        <time>2015-03-10T08:27:52.000Z</time>
      </trkpt>
      <trkpt lat="44.83679" lon="6.74994">
        <ele>1987.5999755859</ele>
        <time>2015-03-10T08:27:55.000Z</time>
      </trkpt>
      <trkpt lat="44.83676" lon="6.75">
        <ele>1987.8000488281</ele>
        <time>2015-03-10T08:28:02.000Z</time>
      </trkpt>
      <trkpt lat="44.83674" lon="6.75004">
        <ele>1988.4000244141</ele>
        <time>2015-03-10T08:28:08.000Z</time>
      </trkpt>
      <trkpt lat="44.8367" lon="6.75011">
        <ele>1989</ele>
        <time>2015-03-10T08:28:14.000Z</time>
      </trkpt>
      <trkpt lat="44.83668" lon="6.75015">
        <ele>1989.4000244141</ele>
        <time>2015-03-10T08:28:21.000Z</time>
      </trkpt>
      <trkpt lat="44.83667" lon="6.75017">
        <ele>1989.4000244141</ele>
        <time>2015-03-10T08:28:22.000Z</time>
      </trkpt>
      <trkpt lat="44.83665" lon="6.75023">
        <ele>1990</ele>
        <time>2015-03-10T08:28:28.000Z</time>
      </trkpt>
      <trkpt lat="44.83663" lon="6.75028">
        <ele>1990.5999755859</ele>
        <time>2015-03-10T08:28:34.000Z</time>
      </trkpt>
      <trkpt lat="44.83663" lon="6.75029">
        <ele>1990.8000488281</ele>
        <time>2015-03-10T08:28:35.000Z</time>
      </trkpt>
      <trkpt lat="44.8366" lon="6.75034">
        <ele>1991.1999511719</ele>
        <time>2015-03-10T08:28:42.000Z</time>
      </trkpt>
      <trkpt lat="44.83657" lon="6.75038">
        <ele>1991.8000488281</ele>
        <time>2015-03-10T08:28:47.000Z</time>
      </trkpt>
      <trkpt lat="44.83656" lon="6.7504">
        <ele>1992</ele>
        <time>2015-03-10T08:28:49.000Z</time>
      </trkpt>
      <trkpt lat="44.83654" lon="6.75046">
        <ele>1992.4000244141</ele>
        <time>2015-03-10T08:28:56.000Z</time>
      </trkpt>
      <trkpt lat="44.83651" lon="6.75051">
        <ele>1992.8000488281</ele>
        <time>2015-03-10T08:29:01.000Z</time>
      </trkpt>
      <trkpt lat="44.83651" lon="6.75051">
        <ele>1992.8000488281</ele>
        <time>2015-03-10T08:29:02.000Z</time>
      </trkpt>
      <trkpt lat="44.83649" lon="6.75058">
        <ele>1993.1999511719</ele>
        <time>2015-03-10T08:29:09.000Z</time>
      </trkpt>
      <trkpt lat="44.83647" lon="6.75065">
        <ele>1993.8000488281</ele>
        <time>2015-03-10T08:29:16.000Z</time>
      </trkpt>
      <trkpt lat="44.83646" lon="6.75066">
        <ele>1993.8000488281</ele>
        <time>2015-03-10T08:29:17.000Z</time>
      </trkpt>
      <trkpt lat="44.83643" lon="6.75069">
        <ele>1994.1999511719</ele>
        <time>2015-03-10T08:29:23.000Z</time>
      </trkpt>
      <trkpt lat="44.83641" lon="6.75071">
        <ele>1995</ele>
        <time>2015-03-10T08:29:27.000Z</time>
      </trkpt>
      <trkpt lat="44.83639" lon="6.75072">
        <ele>1995.4000244141</ele>
        <time>2015-03-10T08:29:31.000Z</time>
      </trkpt>
      <trkpt lat="44.83635" lon="6.75073">
        <ele>1996</ele>
        <time>2015-03-10T08:29:36.000Z</time>
      </trkpt>
      <trkpt lat="44.83634" lon="6.75074">
        <ele>1996.1999511719</ele>
        <time>2015-03-10T08:29:37.000Z</time>
      </trkpt>
      <trkpt lat="44.8363" lon="6.75074">
        <ele>1996.8000488281</ele>
        <time>2015-03-10T08:29:44.000Z</time>
      </trkpt>
      <trkpt lat="44.83627" lon="6.75075">
        <ele>1997</ele>
        <time>2015-03-10T08:29:47.000Z</time>
      </trkpt>
      <trkpt lat="44.83624" lon="6.75076">
        <ele>1997.4000244141</ele>
        <time>2015-03-10T08:29:51.000Z</time>
      </trkpt>
      <trkpt lat="44.83618" lon="6.75077">
        <ele>1998.1999511719</ele>
        <time>2015-03-10T08:29:58.000Z</time>
      </trkpt>
      <trkpt lat="44.83614" lon="6.75077">
        <ele>1998.5999755859</ele>
        <time>2015-03-10T08:30:04.000Z</time>
      </trkpt>
      <trkpt lat="44.8361" lon="6.75078">
        <ele>1999</ele>
        <time>2015-03-10T08:30:10.000Z</time>
      </trkpt>
      <trkpt lat="44.83607" lon="6.75078">
        <ele>1999.1999511719</ele>
        <time>2015-03-10T08:30:12.000Z</time>
      </trkpt>
      <trkpt lat="44.83605" lon="6.75078">
        <ele>1999.5999755859</ele>
        <time>2015-03-10T08:30:16.000Z</time>
      </trkpt>
      <trkpt lat="44.836" lon="6.7508">
        <ele>2000</ele>
        <time>2015-03-10T08:30:22.000Z</time>
      </trkpt>
      <trkpt lat="44.83598" lon="6.75081">
        <ele>2000.1999511719</ele>
        <time>2015-03-10T08:30:25.000Z</time>
      </trkpt>
      <trkpt lat="44.83595" lon="6.75082">
        <ele>2000.5999755859</ele>
        <time>2015-03-10T08:30:29.000Z</time>
      </trkpt>
      <trkpt lat="44.83592" lon="6.75084">
        <ele>2001.1999511719</ele>
        <time>2015-03-10T08:30:34.000Z</time>
      </trkpt>
      <trkpt lat="44.8359" lon="6.75084">
        <ele>2001.4000244141</ele>
        <time>2015-03-10T08:30:37.000Z</time>
      </trkpt>
      <trkpt lat="44.83585" lon="6.75088">
        <ele>2002.1999511719</ele>
        <time>2015-03-10T08:30:43.000Z</time>
      </trkpt>
      <trkpt lat="44.83584" lon="6.75088">
        <ele>2002.1999511719</ele>
        <time>2015-03-10T08:30:44.000Z</time>
      </trkpt>
      <trkpt lat="44.83582" lon="6.7509">
        <ele>2002.8000488281</ele>
        <time>2015-03-10T08:30:49.000Z</time>
      </trkpt>
      <trkpt lat="44.83578" lon="6.75093">
        <ele>2003.4000244141</ele>
        <time>2015-03-10T08:30:54.000Z</time>
      </trkpt>
      <trkpt lat="44.83577" lon="6.75095">
        <ele>2003.5999755859</ele>
        <time>2015-03-10T08:30:57.000Z</time>
      </trkpt>
      <trkpt lat="44.83572" lon="6.75101">
        <ele>2004.1999511719</ele>
        <time>2015-03-10T08:31:04.000Z</time>
      </trkpt>
      <trkpt lat="44.83571" lon="6.75102">
        <ele>2004.4000244141</ele>
        <time>2015-03-10T08:31:06.000Z</time>
      </trkpt>
      <trkpt lat="44.83568" lon="6.75105">
        <ele>2004.8000488281</ele>
        <time>2015-03-10T08:31:10.000Z</time>
      </trkpt>
      <trkpt lat="44.83565" lon="6.75107">
        <ele>2005.4000244141</ele>
        <time>2015-03-10T08:31:15.000Z</time>
      </trkpt>
      <trkpt lat="44.83564" lon="6.75109">
        <ele>2005.5999755859</ele>
        <time>2015-03-10T08:31:17.000Z</time>
      </trkpt>
      <trkpt lat="44.83558" lon="6.75114">
        <ele>2006.1999511719</ele>
        <time>2015-03-10T08:31:25.000Z</time>
      </trkpt>
      <trkpt lat="44.83554" lon="6.75117">
        <ele>2006.5999755859</ele>
        <time>2015-03-10T08:31:30.000Z</time>
      </trkpt>
      <trkpt lat="44.83553" lon="6.75118">
        <ele>2006.8000488281</ele>
        <time>2015-03-10T08:31:32.000Z</time>
      </trkpt>
      <trkpt lat="44.8355" lon="6.75122">
        <ele>2007.5999755859</ele>
        <time>2015-03-10T08:31:38.000Z</time>
      </trkpt>
      <trkpt lat="44.83549" lon="6.75123">
        <ele>2007.8000488281</ele>
        <time>2015-03-10T08:31:39.000Z</time>
      </trkpt>
      <trkpt lat="44.83545" lon="6.75126">
        <ele>2008.1999511719</ele>
        <time>2015-03-10T08:31:45.000Z</time>
      </trkpt>
      <trkpt lat="44.8354" lon="6.7513">
        <ele>2008.4000244141</ele>
        <time>2015-03-10T08:31:51.000Z</time>
      </trkpt>
      <trkpt lat="44.83539" lon="6.75131">
        <ele>2008.5999755859</ele>
        <time>2015-03-10T08:31:53.000Z</time>
      </trkpt>
      <trkpt lat="44.83537" lon="6.75133">
        <ele>2009</ele>
        <time>2015-03-10T08:31:57.000Z</time>
      </trkpt>
      <trkpt lat="44.83534" lon="6.75139">
        <ele>2009.8000488281</ele>
        <time>2015-03-10T08:32:03.000Z</time>
      </trkpt>
      <trkpt lat="44.83532" lon="6.7514">
        <ele>2010</ele>
        <time>2015-03-10T08:32:04.000Z</time>
      </trkpt>
      <trkpt lat="44.83529" lon="6.75145">
        <ele>2010.4000244141</ele>
        <time>2015-03-10T08:32:10.000Z</time>
      </trkpt>
      <trkpt lat="44.83526" lon="6.75147">
        <ele>2011</ele>
        <time>2015-03-10T08:32:15.000Z</time>
      </trkpt>
      <trkpt lat="44.83524" lon="6.75148">
        <ele>2011.1999511719</ele>
        <time>2015-03-10T08:32:18.000Z</time>
      </trkpt>
      <trkpt lat="44.8352" lon="6.75153">
        <ele>2011.8000488281</ele>
        <time>2015-03-10T08:32:25.000Z</time>
      </trkpt>
      <trkpt lat="44.83519" lon="6.75154">
        <ele>2012</ele>
        <time>2015-03-10T08:32:26.000Z</time>
      </trkpt>
      <trkpt lat="44.83513" lon="6.75159">
        <ele>2012.8000488281</ele>
        <time>2015-03-10T08:32:35.000Z</time>
      </trkpt>
      <trkpt lat="44.83511" lon="6.7516">
        <ele>2013</ele>
        <time>2015-03-10T08:32:37.000Z</time>
      </trkpt>
      <trkpt lat="44.83507" lon="6.75166">
        <ele>2013.5999755859</ele>
        <time>2015-03-10T08:32:44.000Z</time>
      </trkpt>
      <trkpt lat="44.83505" lon="6.75168">
        <ele>2014</ele>
        <time>2015-03-10T08:32:48.000Z</time>
      </trkpt>
      <trkpt lat="44.83501" lon="6.7517">
        <ele>2014.5999755859</ele>
        <time>2015-03-10T08:32:53.000Z</time>
      </trkpt>
      <trkpt lat="44.83499" lon="6.75172">
        <ele>2015</ele>
        <time>2015-03-10T08:32:56.000Z</time>
      </trkpt>
      <trkpt lat="44.83494" lon="6.75176">
        <ele>2015.5999755859</ele>
        <time>2015-03-10T08:33:02.000Z</time>
      </trkpt>
      <trkpt lat="44.83489" lon="6.75179">
        <ele>2016</ele>
        <time>2015-03-10T08:33:08.000Z</time>
      </trkpt>
      <trkpt lat="44.83488" lon="6.7518">
        <ele>2016.1999511719</ele>
        <time>2015-03-10T08:33:10.000Z</time>
      </trkpt>
      <trkpt lat="44.83482" lon="6.75182">
        <ele>2016.8000488281</ele>
        <time>2015-03-10T08:33:17.000Z</time>
      </trkpt>
      <trkpt lat="44.8348" lon="6.75183">
        <ele>2017</ele>
        <time>2015-03-10T08:33:20.000Z</time>
      </trkpt>
      <trkpt lat="44.83477" lon="6.75188">
        <ele>2017.8000488281</ele>
        <time>2015-03-10T08:33:26.000Z</time>
      </trkpt>
      <trkpt lat="44.83474" lon="6.7519">
        <ele>2018.1999511719</ele>
        <time>2015-03-10T08:33:29.000Z</time>
      </trkpt>
      <trkpt lat="44.8347" lon="6.75191">
        <ele>2018.8000488281</ele>
        <time>2015-03-10T08:33:34.000Z</time>
      </trkpt>
      <trkpt lat="44.8347" lon="6.75191">
        <ele>2019.1999511719</ele>
        <time>2015-03-10T08:33:36.000Z</time>
      </trkpt>
      <trkpt lat="44.83469" lon="6.75193">
        <ele>2019.1999511719</ele>
        <time>2015-03-10T08:33:46.000Z</time>
      </trkpt>
      <trkpt lat="44.83467" lon="6.752">
        <ele>2019.8000488281</ele>
        <time>2015-03-10T08:33:53.000Z</time>
      </trkpt>
      <trkpt lat="44.83465" lon="6.75202">
        <ele>2020.4000244141</ele>
        <time>2015-03-10T08:33:57.000Z</time>
      </trkpt>
      <trkpt lat="44.83465" lon="6.75202">
        <ele>2020.5999755859</ele>
        <time>2015-03-10T08:34:01.000Z</time>
      </trkpt>
      <trkpt lat="44.83462" lon="6.75209">
        <ele>2020.5999755859</ele>
        <time>2015-03-10T08:34:07.000Z</time>
      </trkpt>
      <trkpt lat="44.83461" lon="6.75216">
        <ele>2021.1999511719</ele>
        <time>2015-03-10T08:34:13.000Z</time>
      </trkpt>
      <trkpt lat="44.8346" lon="6.75217">
        <ele>2021.4000244141</ele>
        <time>2015-03-10T08:34:14.000Z</time>
      </trkpt>
      <trkpt lat="44.83457" lon="6.7522">
        <ele>2021.8000488281</ele>
        <time>2015-03-10T08:34:19.000Z</time>
      </trkpt>
      <trkpt lat="44.83456" lon="6.75224">
        <ele>2022.1999511719</ele>
        <time>2015-03-10T08:34:22.000Z</time>
      </trkpt>
      <trkpt lat="44.83454" lon="6.75228">
        <ele>2022.4000244141</ele>
        <time>2015-03-10T08:34:25.000Z</time>
      </trkpt>
      <trkpt lat="44.83452" lon="6.75233">
        <ele>2022.8000488281</ele>
        <time>2015-03-10T08:34:30.000Z</time>
      </trkpt>
      <trkpt lat="44.83452" lon="6.75238">
        <ele>2023.1999511719</ele>
        <time>2015-03-10T08:34:33.000Z</time>
      </trkpt>
      <trkpt lat="44.83452" lon="6.75239">
        <ele>2023.4000244141</ele>
        <time>2015-03-10T08:34:35.000Z</time>
      </trkpt>
      <trkpt lat="44.83452" lon="6.7524">
        <ele>2023.4000244141</ele>
        <time>2015-03-10T08:34:36.000Z</time>
      </trkpt>
      <trkpt lat="44.83452" lon="6.75244">
        <ele>2024.4000244141</ele>
        <time>2015-03-10T08:34:43.000Z</time>
      </trkpt>
      <trkpt lat="44.83456" lon="6.75239">
        <ele>2025.1999511719</ele>
        <time>2015-03-10T08:34:50.000Z</time>
      </trkpt>
      <trkpt lat="44.83457" lon="6.75238">
        <ele>2025.1999511719</ele>
        <time>2015-03-10T08:34:58.000Z</time>
      </trkpt>
      <trkpt lat="44.83457" lon="6.75238">
        <ele>2025.5999755859</ele>
        <time>2015-03-10T08:35:13.000Z</time>
      </trkpt>
      <trkpt lat="44.83457" lon="6.75238">
        <ele>2025.5999755859</ele>
        <time>2015-03-10T08:35:25.000Z</time>
      </trkpt>
      <trkpt lat="44.83457" lon="6.75238">
        <ele>2025.1999511719</ele>
        <time>2015-03-10T08:35:38.000Z</time>
      </trkpt>
      <trkpt lat="44.83457" lon="6.75238">
        <ele>2025.8000488281</ele>
        <time>2015-03-10T08:35:49.000Z</time>
      </trkpt>
      <trkpt lat="44.83464" lon="6.75234">
        <ele>2025.5999755859</ele>
        <time>2015-03-10T08:35:56.000Z</time>
      </trkpt>
      <trkpt lat="44.83471" lon="6.75232">
        <ele>2025.1999511719</ele>
        <time>2015-03-10T08:36:03.000Z</time>
      </trkpt>
      <trkpt lat="44.83474" lon="6.75229">
        <ele>2024.5999755859</ele>
        <time>2015-03-10T08:36:07.000Z</time>
      </trkpt>
      <trkpt lat="44.83476" lon="6.75227">
        <ele>2023.8000488281</ele>
        <time>2015-03-10T08:36:11.000Z</time>
      </trkpt>
      <trkpt lat="44.83477" lon="6.75225">
        <ele>2023.4000244141</ele>
        <time>2015-03-10T08:36:16.000Z</time>
      </trkpt>
      <trkpt lat="44.83477" lon="6.75225">
        <ele>2023.4000244141</ele>
        <time>2015-03-10T08:36:18.000Z</time>
      </trkpt>
      <trkpt lat="44.83479" lon="6.7522">
        <ele>2022.4000244141</ele>
        <time>2015-03-10T08:36:28.000Z</time>
      </trkpt>
      <trkpt lat="44.83484" lon="6.75214">
        <ele>2021.1999511719</ele>
        <time>2015-03-10T08:36:33.000Z</time>
      </trkpt>
      <trkpt lat="44.83484" lon="6.75214">
        <ele>2021.1999511719</ele>
        <time>2015-03-10T08:36:37.000Z</time>
      </trkpt>
      <trkpt lat="44.83484" lon="6.75214">
        <ele>2021.1999511719</ele>
        <time>2015-03-10T08:36:48.000Z</time>
      </trkpt>
      <trkpt lat="44.83484" lon="6.75214">
        <ele>2021</ele>
        <time>2015-03-10T08:37:09.000Z</time>
      </trkpt>
      <trkpt lat="44.83484" lon="6.75214">
        <ele>2021.1999511719</ele>
        <time>2015-03-10T08:37:29.000Z</time>
      </trkpt>
      <trkpt lat="44.83484" lon="6.75214">
        <ele>2021.1999511719</ele>
        <time>2015-03-10T08:37:44.000Z</time>
      </trkpt>
      <trkpt lat="44.83484" lon="6.75213">
        <ele>2021</ele>
        <time>2015-03-10T08:37:59.000Z</time>
      </trkpt>
      <trkpt lat="44.83484" lon="6.75213">
        <ele>2021</ele>
        <time>2015-03-10T08:38:13.000Z</time>
      </trkpt>
      <trkpt lat="44.83484" lon="6.75213">
        <ele>2021</ele>
        <time>2015-03-10T08:38:23.000Z</time>
      </trkpt>
      <trkpt lat="44.83484" lon="6.75213">
        <ele>2020.8000488281</ele>
        <time>2015-03-10T08:38:36.000Z</time>
      </trkpt>
      <trkpt lat="44.83481" lon="6.75215">
        <ele>2021.5999755859</ele>
        <time>2015-03-10T08:38:47.000Z</time>
      </trkpt>
      <trkpt lat="44.83479" lon="6.75218">
        <ele>2021.4000244141</ele>
        <time>2015-03-10T08:38:53.000Z</time>
      </trkpt>
      <trkpt lat="44.83475" lon="6.75223">
        <ele>2022.4000244141</ele>
        <time>2015-03-10T08:38:59.000Z</time>
      </trkpt>
      <trkpt lat="44.83474" lon="6.75225">
        <ele>2022.4000244141</ele>
        <time>2015-03-10T08:39:00.000Z</time>
      </trkpt>
      <trkpt lat="44.8347" lon="6.75225">
        <ele>2023</ele>
        <time>2015-03-10T08:39:05.000Z</time>
      </trkpt>
      <trkpt lat="44.83468" lon="6.75226">
        <ele>2023.1999511719</ele>
        <time>2015-03-10T08:39:07.000Z</time>
      </trkpt>
      <trkpt lat="44.83466" lon="6.75229">
        <ele>2023.1999511719</ele>
        <time>2015-03-10T08:39:10.000Z</time>
      </trkpt>
      <trkpt lat="44.83466" lon="6.75229">
        <ele>2023.4000244141</ele>
        <time>2015-03-10T08:39:11.000Z</time>
      </trkpt>
      <trkpt lat="44.83465" lon="6.75231">
        <ele>2024.4000244141</ele>
        <time>2015-03-10T08:39:15.000Z</time>
      </trkpt>
      <trkpt lat="44.83464" lon="6.75233">
        <ele>2024.4000244141</ele>
        <time>2015-03-10T08:39:16.000Z</time>
      </trkpt>
      <trkpt lat="44.83461" lon="6.75243">
        <ele>2024.8000488281</ele>
        <time>2015-03-10T08:39:22.000Z</time>
      </trkpt>
      <trkpt lat="44.83458" lon="6.75244">
        <ele>2025.4000244141</ele>
        <time>2015-03-10T08:39:28.000Z</time>
      </trkpt>
      <trkpt lat="44.83458" lon="6.75244">
        <ele>2025.4000244141</ele>
        <time>2015-03-10T08:39:29.000Z</time>
      </trkpt>
      <trkpt lat="44.83457" lon="6.75243">
        <ele>2025.5999755859</ele>
        <time>2015-03-10T08:39:33.000Z</time>
      </trkpt>
      <trkpt lat="44.83457" lon="6.75242">
        <ele>2025.1999511719</ele>
        <time>2015-03-10T08:39:39.000Z</time>
      </trkpt>
      <trkpt lat="44.83457" lon="6.75242">
        <ele>2025</ele>
        <time>2015-03-10T08:39:56.000Z</time>
      </trkpt>
      <trkpt lat="44.83457" lon="6.75242">
        <ele>2024.5999755859</ele>
        <time>2015-03-10T08:40:07.000Z</time>
      </trkpt>
      <trkpt lat="44.83457" lon="6.75242">
        <ele>2025.1999511719</ele>
        <time>2015-03-10T08:40:21.000Z</time>
      </trkpt>
      <trkpt lat="44.83457" lon="6.75242">
        <ele>2025</ele>
        <time>2015-03-10T08:40:35.000Z</time>
      </trkpt>
      <trkpt lat="44.83457" lon="6.75242">
        <ele>2025.1999511719</ele>
        <time>2015-03-10T08:40:50.000Z</time>
      </trkpt>
      <trkpt lat="44.83458" lon="6.75241">
        <ele>2025.1999511719</ele>
        <time>2015-03-10T08:41:03.000Z</time>
      </trkpt>
      <trkpt lat="44.83458" lon="6.75241">
        <ele>2025.5999755859</ele>
        <time>2015-03-10T08:41:18.000Z</time>
      </trkpt>
      <trkpt lat="44.83458" lon="6.75241">
        <ele>2025.4000244141</ele>
        <time>2015-03-10T08:41:35.000Z</time>
      </trkpt>
      <trkpt lat="44.83458" lon="6.75241">
        <ele>2025</ele>
        <time>2015-03-10T08:41:48.000Z</time>
      </trkpt>
      <trkpt lat="44.83458" lon="6.75241">
        <ele>2024.8000488281</ele>
        <time>2015-03-10T08:41:58.000Z</time>
      </trkpt>
      <trkpt lat="44.83458" lon="6.75241">
        <ele>2025.4000244141</ele>
        <time>2015-03-10T08:42:11.000Z</time>
      </trkpt>
      <trkpt lat="44.83458" lon="6.7524">
        <ele>2025</ele>
        <time>2015-03-10T08:42:23.000Z</time>
      </trkpt>
      <trkpt lat="44.83458" lon="6.7524">
        <ele>2025</ele>
        <time>2015-03-10T08:42:37.000Z</time>
      </trkpt>
      <trkpt lat="44.8346" lon="6.75242">
        <ele>2025.1999511719</ele>
        <time>2015-03-10T08:42:43.000Z</time>
      </trkpt>
      <trkpt lat="44.83464" lon="6.7525">
        <ele>2026.1999511719</ele>
        <time>2015-03-10T08:42:49.000Z</time>
      </trkpt>
      <trkpt lat="44.83465" lon="6.75251">
        <ele>2026.1999511719</ele>
        <time>2015-03-10T08:42:50.000Z</time>
      </trkpt>
      <trkpt lat="44.83467" lon="6.75253">
        <ele>2026.5999755859</ele>
        <time>2015-03-10T08:42:52.000Z</time>
      </trkpt>
      <trkpt lat="44.83467" lon="6.75254">
        <ele>2026.5999755859</ele>
        <time>2015-03-10T08:42:54.000Z</time>
      </trkpt>
      <trkpt lat="44.83469" lon="6.75259">
        <ele>2027.5999755859</ele>
        <time>2015-03-10T08:43:00.000Z</time>
      </trkpt>
      <trkpt lat="44.8347" lon="6.7526">
        <ele>2027.8000488281</ele>
        <time>2015-03-10T08:43:01.000Z</time>
      </trkpt>
      <trkpt lat="44.8347" lon="6.75266">
        <ele>2028.5999755859</ele>
        <time>2015-03-10T08:43:05.000Z</time>
      </trkpt>
      <trkpt lat="44.83472" lon="6.75271">
        <ele>2029.1999511719</ele>
        <time>2015-03-10T08:43:08.000Z</time>
      </trkpt>
      <trkpt lat="44.83473" lon="6.75273">
        <ele>2029.8000488281</ele>
        <time>2015-03-10T08:43:11.000Z</time>
      </trkpt>
      <trkpt lat="44.83473" lon="6.75273">
        <ele>2030.1999511719</ele>
        <time>2015-03-10T08:43:14.000Z</time>
      </trkpt>
      <trkpt lat="44.83473" lon="6.75273">
        <ele>2030.8000488281</ele>
        <time>2015-03-10T08:43:19.000Z</time>
      </trkpt>
      <trkpt lat="44.83473" lon="6.75276">
        <ele>2031.1999511719</ele>
        <time>2015-03-10T08:43:23.000Z</time>
      </trkpt>
      <trkpt lat="44.83475" lon="6.75285">
        <ele>2031.4000244141</ele>
        <time>2015-03-10T08:43:29.000Z</time>
      </trkpt>
      <trkpt lat="44.83475" lon="6.75287">
        <ele>2032</ele>
        <time>2015-03-10T08:43:32.000Z</time>
      </trkpt>
      <trkpt lat="44.83475" lon="6.75291">
        <ele>2032.4000244141</ele>
        <time>2015-03-10T08:43:35.000Z</time>
      </trkpt>
      <trkpt lat="44.83475" lon="6.75293">
        <ele>2033</ele>
        <time>2015-03-10T08:43:38.000Z</time>
      </trkpt>
      <trkpt lat="44.83477" lon="6.75296">
        <ele>2033.5999755859</ele>
        <time>2015-03-10T08:43:40.000Z</time>
      </trkpt>
      <trkpt lat="44.83476" lon="6.75298">
        <ele>2034.1999511719</ele>
        <time>2015-03-10T08:43:43.000Z</time>
      </trkpt>
      <trkpt lat="44.83478" lon="6.75301">
        <ele>2034.8000488281</ele>
        <time>2015-03-10T08:43:46.000Z</time>
      </trkpt>
      <trkpt lat="44.83478" lon="6.75303">
        <ele>2035.1999511719</ele>
        <time>2015-03-10T08:43:48.000Z</time>
      </trkpt>
      <trkpt lat="44.83479" lon="6.75309">
        <ele>2036.1999511719</ele>
        <time>2015-03-10T08:43:53.000Z</time>
      </trkpt>
      <trkpt lat="44.83479" lon="6.75309">
        <ele>2036.4000244141</ele>
        <time>2015-03-10T08:43:54.000Z</time>
      </trkpt>
      <trkpt lat="44.83478" lon="6.75317">
        <ele>2037.4000244141</ele>
        <time>2015-03-10T08:44:00.000Z</time>
      </trkpt>
      <trkpt lat="44.83478" lon="6.7532">
        <ele>2038.4000244141</ele>
        <time>2015-03-10T08:44:04.000Z</time>
      </trkpt>
      <trkpt lat="44.83479" lon="6.75323">
        <ele>2038.8000488281</ele>
        <time>2015-03-10T08:44:06.000Z</time>
      </trkpt>
      <trkpt lat="44.83478" lon="6.75325">
        <ele>2039.4000244141</ele>
        <time>2015-03-10T08:44:10.000Z</time>
      </trkpt>
      <trkpt lat="44.83479" lon="6.75328">
        <ele>2039.5999755859</ele>
        <time>2015-03-10T08:44:11.000Z</time>
      </trkpt>
      <trkpt lat="44.83479" lon="6.7533">
        <ele>2040</ele>
        <time>2015-03-10T08:44:14.000Z</time>
      </trkpt>
      <trkpt lat="44.83479" lon="6.75333">
        <ele>2040.4000244141</ele>
        <time>2015-03-10T08:44:16.000Z</time>
      </trkpt>
      <trkpt lat="44.83478" lon="6.75336">
        <ele>2041</ele>
        <time>2015-03-10T08:44:19.000Z</time>
      </trkpt>
      <trkpt lat="44.83479" lon="6.7534">
        <ele>2041.5999755859</ele>
        <time>2015-03-10T08:44:22.000Z</time>
      </trkpt>
      <trkpt lat="44.83479" lon="6.75343">
        <ele>2042</ele>
        <time>2015-03-10T08:44:25.000Z</time>
      </trkpt>
      <trkpt lat="44.83479" lon="6.75347">
        <ele>2042.8000488281</ele>
        <time>2015-03-10T08:44:28.000Z</time>
      </trkpt>
      <trkpt lat="44.83479" lon="6.7535">
        <ele>2043.1999511719</ele>
        <time>2015-03-10T08:44:31.000Z</time>
      </trkpt>
      <trkpt lat="44.83479" lon="6.75352">
        <ele>2043.8000488281</ele>
        <time>2015-03-10T08:44:34.000Z</time>
      </trkpt>
      <trkpt lat="44.83481" lon="6.75354">
        <ele>2044.5999755859</ele>
        <time>2015-03-10T08:44:38.000Z</time>
      </trkpt>
      <trkpt lat="44.83482" lon="6.75356">
        <ele>2045</ele>
        <time>2015-03-10T08:44:40.000Z</time>
      </trkpt>
      <trkpt lat="44.83484" lon="6.75358">
        <ele>2045.5999755859</ele>
        <time>2015-03-10T08:44:43.000Z</time>
      </trkpt>
      <trkpt lat="44.83485" lon="6.75359">
        <ele>2046</ele>
        <time>2015-03-10T08:44:46.000Z</time>
      </trkpt>
      <trkpt lat="44.83486" lon="6.7536">
        <ele>2047.1999511719</ele>
        <time>2015-03-10T08:44:51.000Z</time>
      </trkpt>
      <trkpt lat="44.83491" lon="6.75363">
        <ele>2048</ele>
        <time>2015-03-10T08:44:57.000Z</time>
      </trkpt>
      <trkpt lat="44.83492" lon="6.75363">
        <ele>2048.1999511719</ele>
        <time>2015-03-10T08:44:59.000Z</time>
      </trkpt>
      <trkpt lat="44.83493" lon="6.75364">
        <ele>2048.8000488281</ele>
        <time>2015-03-10T08:45:03.000Z</time>
      </trkpt>
      <trkpt lat="44.83494" lon="6.75364">
        <ele>2049.1999511719</ele>
        <time>2015-03-10T08:45:05.000Z</time>
      </trkpt>
      <trkpt lat="44.83495" lon="6.75368">
        <ele>2050.3999023438</ele>
        <time>2015-03-10T08:45:10.000Z</time>
      </trkpt>
      <trkpt lat="44.83494" lon="6.75372">
        <ele>2051.6000976562</ele>
        <time>2015-03-10T08:45:15.000Z</time>
      </trkpt>
      <trkpt lat="44.83493" lon="6.75375">
        <ele>2052.6000976562</ele>
        <time>2015-03-10T08:45:18.000Z</time>
      </trkpt>
      <trkpt lat="44.83493" lon="6.75379">
        <ele>2053.1999511719</ele>
        <time>2015-03-10T08:45:22.000Z</time>
      </trkpt>
      <trkpt lat="44.83493" lon="6.75384">
        <ele>2053.8000488281</ele>
        <time>2015-03-10T08:45:25.000Z</time>
      </trkpt>
      <trkpt lat="44.83492" lon="6.7539">
        <ele>2054.6000976562</ele>
        <time>2015-03-10T08:45:29.000Z</time>
      </trkpt>
      <trkpt lat="44.83492" lon="6.75391">
        <ele>2054.8000488281</ele>
        <time>2015-03-10T08:45:30.000Z</time>
      </trkpt>
      <trkpt lat="44.83493" lon="6.75395">
        <ele>2055.6000976562</ele>
        <time>2015-03-10T08:45:35.000Z</time>
      </trkpt>
      <trkpt lat="44.83494" lon="6.75398">
        <ele>2055.8000488281</ele>
        <time>2015-03-10T08:45:38.000Z</time>
      </trkpt>
      <trkpt lat="44.83495" lon="6.75399">
        <ele>2056.8000488281</ele>
        <time>2015-03-10T08:45:41.000Z</time>
      </trkpt>
      <trkpt lat="44.83496" lon="6.75399">
        <ele>2057</ele>
        <time>2015-03-10T08:45:42.000Z</time>
      </trkpt>
      <trkpt lat="44.83499" lon="6.75399">
        <ele>2058.1999511719</ele>
        <time>2015-03-10T08:45:47.000Z</time>
      </trkpt>
      <trkpt lat="44.83504" lon="6.75404">
        <ele>2059.1999511719</ele>
        <time>2015-03-10T08:45:53.000Z</time>
      </trkpt>
      <trkpt lat="44.83505" lon="6.75405">
        <ele>2059.3999023438</ele>
        <time>2015-03-10T08:45:54.000Z</time>
      </trkpt>
      <trkpt lat="44.83506" lon="6.75406">
        <ele>2060.3999023438</ele>
        <time>2015-03-10T08:46:00.000Z</time>
      </trkpt>
      <trkpt lat="44.83509" lon="6.75409">
        <ele>2061.3999023438</ele>
        <time>2015-03-10T08:46:04.000Z</time>
      </trkpt>
      <trkpt lat="44.8351" lon="6.75411">
        <ele>2061.8000488281</ele>
        <time>2015-03-10T08:46:07.000Z</time>
      </trkpt>
      <trkpt lat="44.8351" lon="6.75414">
        <ele>2062.6000976562</ele>
        <time>2015-03-10T08:46:10.000Z</time>
      </trkpt>
      <trkpt lat="44.8351" lon="6.75416">
        <ele>2063</ele>
        <time>2015-03-10T08:46:12.000Z</time>
      </trkpt>
      <trkpt lat="44.8351" lon="6.75419">
        <ele>2063.6000976562</ele>
        <time>2015-03-10T08:46:14.000Z</time>
      </trkpt>
      <trkpt lat="44.83509" lon="6.75426">
        <ele>2064.6000976562</ele>
        <time>2015-03-10T08:46:18.000Z</time>
      </trkpt>
      <trkpt lat="44.8351" lon="6.75431">
        <ele>2065.3999023438</ele>
        <time>2015-03-10T08:46:24.000Z</time>
      </trkpt>
      <trkpt lat="44.83512" lon="6.75434">
        <ele>2065.8000488281</ele>
        <time>2015-03-10T08:46:27.000Z</time>
      </trkpt>
      <trkpt lat="44.83512" lon="6.75436">
        <ele>2066.6000976562</ele>
        <time>2015-03-10T08:46:30.000Z</time>
      </trkpt>
      <trkpt lat="44.83511" lon="6.75438">
        <ele>2067.1999511719</ele>
        <time>2015-03-10T08:46:32.000Z</time>
      </trkpt>
      <trkpt lat="44.83512" lon="6.75441">
        <ele>2068.1999511719</ele>
        <time>2015-03-10T08:46:36.000Z</time>
      </trkpt>
      <trkpt lat="44.83514" lon="6.75441">
        <ele>2068.8000488281</ele>
        <time>2015-03-10T08:46:41.000Z</time>
      </trkpt>
      <trkpt lat="44.83516" lon="6.75441">
        <ele>2069.3999023438</ele>
        <time>2015-03-10T08:46:44.000Z</time>
      </trkpt>
      <trkpt lat="44.83518" lon="6.75444">
        <ele>2070</ele>
        <time>2015-03-10T08:46:47.000Z</time>
      </trkpt>
      <trkpt lat="44.8352" lon="6.75448">
        <ele>2070.6000976562</ele>
        <time>2015-03-10T08:46:50.000Z</time>
      </trkpt>
      <trkpt lat="44.8352" lon="6.75448">
        <ele>2071.1999511719</ele>
        <time>2015-03-10T08:46:53.000Z</time>
      </trkpt>
      <trkpt lat="44.83521" lon="6.75448">
        <ele>2071.6000976562</ele>
        <time>2015-03-10T08:46:55.000Z</time>
      </trkpt>
      <trkpt lat="44.83522" lon="6.75453">
        <ele>2073</ele>
        <time>2015-03-10T08:47:00.000Z</time>
      </trkpt>
      <trkpt lat="44.83522" lon="6.75455">
        <ele>2073.1999511719</ele>
        <time>2015-03-10T08:47:01.000Z</time>
      </trkpt>
      <trkpt lat="44.8352" lon="6.75465">
        <ele>2074</ele>
        <time>2015-03-10T08:47:06.000Z</time>
      </trkpt>
      <trkpt lat="44.83519" lon="6.75466">
        <ele>2074.3999023438</ele>
        <time>2015-03-10T08:47:07.000Z</time>
      </trkpt>
      <trkpt lat="44.83518" lon="6.7547">
        <ele>2075.1999511719</ele>
        <time>2015-03-10T08:47:12.000Z</time>
      </trkpt>
      <trkpt lat="44.83518" lon="6.7547">
        <ele>2075.6000976562</ele>
        <time>2015-03-10T08:47:13.000Z</time>
      </trkpt>
      <trkpt lat="44.83517" lon="6.75472">
        <ele>2076.3999023438</ele>
        <time>2015-03-10T08:47:16.000Z</time>
      </trkpt>
      <trkpt lat="44.83516" lon="6.75473">
        <ele>2076.8000488281</ele>
        <time>2015-03-10T08:47:19.000Z</time>
      </trkpt>
      <trkpt lat="44.83516" lon="6.75477">
        <ele>2077.3999023438</ele>
        <time>2015-03-10T08:47:22.000Z</time>
      </trkpt>
      <trkpt lat="44.83516" lon="6.75478">
        <ele>2077.6000976562</ele>
        <time>2015-03-10T08:47:25.000Z</time>
      </trkpt>
      <trkpt lat="44.83516" lon="6.75482">
        <ele>2078.6000976562</ele>
        <time>2015-03-10T08:47:29.000Z</time>
      </trkpt>
      <trkpt lat="44.8352" lon="6.75486">
        <ele>2079</ele>
        <time>2015-03-10T08:47:32.000Z</time>
      </trkpt>
      <trkpt lat="44.83523" lon="6.75487">
        <ele>2079.6000976562</ele>
        <time>2015-03-10T08:47:37.000Z</time>
      </trkpt>
      <trkpt lat="44.83524" lon="6.75488">
        <ele>2079.8000488281</ele>
        <time>2015-03-10T08:47:39.000Z</time>
      </trkpt>
      <trkpt lat="44.83526" lon="6.75489">
        <ele>2080.8000488281</ele>
        <time>2015-03-10T08:47:44.000Z</time>
      </trkpt>
      <trkpt lat="44.83526" lon="6.75489">
        <ele>2081</ele>
        <time>2015-03-10T08:47:45.000Z</time>
      </trkpt>
      <trkpt lat="44.8353" lon="6.75491">
        <ele>2081.6000976562</ele>
        <time>2015-03-10T08:47:50.000Z</time>
      </trkpt>
      <trkpt lat="44.8353" lon="6.75492">
        <ele>2081.8000488281</ele>
        <time>2015-03-10T08:47:51.000Z</time>
      </trkpt>
      <trkpt lat="44.83533" lon="6.75494">
        <ele>2083</ele>
        <time>2015-03-10T08:47:57.000Z</time>
      </trkpt>
      <trkpt lat="44.83533" lon="6.75494">
        <ele>2083.1999511719</ele>
        <time>2015-03-10T08:47:58.000Z</time>
      </trkpt>
      <trkpt lat="44.83535" lon="6.75498">
        <ele>2084</ele>
        <time>2015-03-10T08:48:03.000Z</time>
      </trkpt>
      <trkpt lat="44.83535" lon="6.75501">
        <ele>2085</ele>
        <time>2015-03-10T08:48:06.000Z</time>
      </trkpt>
      <trkpt lat="44.83535" lon="6.75503">
        <ele>2085.1999511719</ele>
        <time>2015-03-10T08:48:07.000Z</time>
      </trkpt>
      <trkpt lat="44.83535" lon="6.75509">
        <ele>2086.3999023438</ele>
        <time>2015-03-10T08:48:11.000Z</time>
      </trkpt>
      <trkpt lat="44.83535" lon="6.75511">
        <ele>2086.3999023438</ele>
        <time>2015-03-10T08:48:12.000Z</time>
      </trkpt>
      <trkpt lat="44.83535" lon="6.75514">
        <ele>2087.3999023438</ele>
        <time>2015-03-10T08:48:15.000Z</time>
      </trkpt>
      <trkpt lat="44.83534" lon="6.75518">
        <ele>2088.3999023438</ele>
        <time>2015-03-10T08:48:20.000Z</time>
      </trkpt>
      <trkpt lat="44.83533" lon="6.75519">
        <ele>2088.6000976562</ele>
        <time>2015-03-10T08:48:21.000Z</time>
      </trkpt>
      <trkpt lat="44.83532" lon="6.75522">
        <ele>2089.6000976562</ele>
        <time>2015-03-10T08:48:26.000Z</time>
      </trkpt>
      <trkpt lat="44.83531" lon="6.75524">
        <ele>2090.1999511719</ele>
        <time>2015-03-10T08:48:28.000Z</time>
      </trkpt>
      <trkpt lat="44.83531" lon="6.75526">
        <ele>2090.8000488281</ele>
        <time>2015-03-10T08:48:31.000Z</time>
      </trkpt>
      <trkpt lat="44.83532" lon="6.75529">
        <ele>2091</ele>
        <time>2015-03-10T08:48:34.000Z</time>
      </trkpt>
      <trkpt lat="44.83534" lon="6.75535">
        <ele>2091.8000488281</ele>
        <time>2015-03-10T08:48:38.000Z</time>
      </trkpt>
      <trkpt lat="44.83535" lon="6.75536">
        <ele>2092</ele>
        <time>2015-03-10T08:48:40.000Z</time>
      </trkpt>
      <trkpt lat="44.83537" lon="6.75539">
        <ele>2092.8000488281</ele>
        <time>2015-03-10T08:48:44.000Z</time>
      </trkpt>
      <trkpt lat="44.83537" lon="6.75539">
        <ele>2093</ele>
        <time>2015-03-10T08:48:45.000Z</time>
      </trkpt>
      <trkpt lat="44.8354" lon="6.75539">
        <ele>2093.8000488281</ele>
        <time>2015-03-10T08:48:49.000Z</time>
      </trkpt>
      <trkpt lat="44.83541" lon="6.7554">
        <ele>2094</ele>
        <time>2015-03-10T08:48:50.000Z</time>
      </trkpt>
      <trkpt lat="44.83544" lon="6.75538">
        <ele>2095</ele>
        <time>2015-03-10T08:48:55.000Z</time>
      </trkpt>
      <trkpt lat="44.83544" lon="6.75538">
        <ele>2095.3999023438</ele>
        <time>2015-03-10T08:48:57.000Z</time>
      </trkpt>
      <trkpt lat="44.83544" lon="6.75538">
        <ele>2096</ele>
        <time>2015-03-10T08:49:01.000Z</time>
      </trkpt>
      <trkpt lat="44.83547" lon="6.7554">
        <ele>2096.6000976562</ele>
        <time>2015-03-10T08:49:05.000Z</time>
      </trkpt>
      <trkpt lat="44.83549" lon="6.75543">
        <ele>2097.1999511719</ele>
        <time>2015-03-10T08:49:08.000Z</time>
      </trkpt>
      <trkpt lat="44.8355" lon="6.75545">
        <ele>2098</ele>
        <time>2015-03-10T08:49:11.000Z</time>
      </trkpt>
      <trkpt lat="44.8355" lon="6.75545">
        <ele>2098.3999023438</ele>
        <time>2015-03-10T08:49:12.000Z</time>
      </trkpt>
      <trkpt lat="44.83549" lon="6.75547">
        <ele>2099.1999511719</ele>
        <time>2015-03-10T08:49:15.000Z</time>
      </trkpt>
      <trkpt lat="44.83549" lon="6.75547">
        <ele>2099.6000976562</ele>
        <time>2015-03-10T08:49:16.000Z</time>
      </trkpt>
      <trkpt lat="44.83549" lon="6.75551">
        <ele>2100.1999511719</ele>
        <time>2015-03-10T08:49:20.000Z</time>
      </trkpt>
      <trkpt lat="44.83549" lon="6.75552">
        <ele>2100.8000488281</ele>
        <time>2015-03-10T08:49:23.000Z</time>
      </trkpt>
      <trkpt lat="44.83547" lon="6.75556">
        <ele>2101.1999511719</ele>
        <time>2015-03-10T08:49:26.000Z</time>
      </trkpt>
      <trkpt lat="44.83546" lon="6.7556">
        <ele>2101.8000488281</ele>
        <time>2015-03-10T08:49:29.000Z</time>
      </trkpt>
      <trkpt lat="44.83546" lon="6.75562">
        <ele>2102.6000976562</ele>
        <time>2015-03-10T08:49:33.000Z</time>
      </trkpt>
      <trkpt lat="44.83546" lon="6.75563">
        <ele>2103</ele>
        <time>2015-03-10T08:49:35.000Z</time>
      </trkpt>
      <trkpt lat="44.83547" lon="6.75565">
        <ele>2103.8000488281</ele>
        <time>2015-03-10T08:49:39.000Z</time>
      </trkpt>
      <trkpt lat="44.8355" lon="6.75566">
        <ele>2104</ele>
        <time>2015-03-10T08:49:42.000Z</time>
      </trkpt>
      <trkpt lat="44.83554" lon="6.75566">
        <ele>2104.1999511719</ele>
        <time>2015-03-10T08:49:45.000Z</time>
      </trkpt>
      <trkpt lat="44.83559" lon="6.75567">
        <ele>2105</ele>
        <time>2015-03-10T08:49:50.000Z</time>
      </trkpt>
      <trkpt lat="44.83559" lon="6.75567">
        <ele>2105.1999511719</ele>
        <time>2015-03-10T08:49:51.000Z</time>
      </trkpt>
      <trkpt lat="44.83562" lon="6.75567">
        <ele>2106.1999511719</ele>
        <time>2015-03-10T08:49:57.000Z</time>
      </trkpt>
      <trkpt lat="44.83562" lon="6.75568">
        <ele>2106.3999023438</ele>
        <time>2015-03-10T08:49:58.000Z</time>
      </trkpt>
      <trkpt lat="44.83565" lon="6.75573">
        <ele>2107.3999023438</ele>
        <time>2015-03-10T08:50:03.000Z</time>
      </trkpt>
      <trkpt lat="44.83565" lon="6.75574">
        <ele>2107.6000976562</ele>
        <time>2015-03-10T08:50:04.000Z</time>
      </trkpt>
      <trkpt lat="44.83565" lon="6.75576">
        <ele>2108.3999023438</ele>
        <time>2015-03-10T08:50:07.000Z</time>
      </trkpt>
      <trkpt lat="44.83565" lon="6.75576">
        <ele>2109</ele>
        <time>2015-03-10T08:50:10.000Z</time>
      </trkpt>
      <trkpt lat="44.83564" lon="6.75578">
        <ele>2109.6000976562</ele>
        <time>2015-03-10T08:50:13.000Z</time>
      </trkpt>
      <trkpt lat="44.83562" lon="6.75581">
        <ele>2110.3999023438</ele>
        <time>2015-03-10T08:50:17.000Z</time>
      </trkpt>
      <trkpt lat="44.83562" lon="6.75583">
        <ele>2110.6000976562</ele>
        <time>2015-03-10T08:50:18.000Z</time>
      </trkpt>
      <trkpt lat="44.83556" lon="6.75587">
        <ele>2111.1999511719</ele>
        <time>2015-03-10T08:50:26.000Z</time>
      </trkpt>
      <trkpt lat="44.83555" lon="6.75588">
        <ele>2111.8000488281</ele>
        <time>2015-03-10T08:50:28.000Z</time>
      </trkpt>
      <trkpt lat="44.83553" lon="6.75593">
        <ele>2112.8000488281</ele>
        <time>2015-03-10T08:50:33.000Z</time>
      </trkpt>
      <trkpt lat="44.83553" lon="6.75594">
        <ele>2113</ele>
        <time>2015-03-10T08:50:35.000Z</time>
      </trkpt>
      <trkpt lat="44.83554" lon="6.75595">
        <ele>2114</ele>
        <time>2015-03-10T08:50:39.000Z</time>
      </trkpt>
      <trkpt lat="44.83554" lon="6.75595">
        <ele>2114</ele>
        <time>2015-03-10T08:50:40.000Z</time>
      </trkpt>
      <trkpt lat="44.8356" lon="6.756">
        <ele>2114.6000976562</ele>
        <time>2015-03-10T08:50:46.000Z</time>
      </trkpt>
      <trkpt lat="44.83564" lon="6.75603">
        <ele>2115.1999511719</ele>
        <time>2015-03-10T08:50:51.000Z</time>
      </trkpt>
      <trkpt lat="44.83564" lon="6.75604">
        <ele>2115.8000488281</ele>
        <time>2015-03-10T08:50:52.000Z</time>
      </trkpt>
      <trkpt lat="44.83565" lon="6.75606">
        <ele>2116.1999511719</ele>
        <time>2015-03-10T08:50:54.000Z</time>
      </trkpt>
      <trkpt lat="44.83566" lon="6.7561">
        <ele>2116.8000488281</ele>
        <time>2015-03-10T08:50:57.000Z</time>
      </trkpt>
      <trkpt lat="44.83566" lon="6.75612">
        <ele>2117.1999511719</ele>
        <time>2015-03-10T08:50:59.000Z</time>
      </trkpt>
      <trkpt lat="44.83567" lon="6.75613">
        <ele>2118.6000976562</ele>
        <time>2015-03-10T08:51:04.000Z</time>
      </trkpt>
      <trkpt lat="44.83568" lon="6.75614">
        <ele>2119.1999511719</ele>
        <time>2015-03-10T08:51:06.000Z</time>
      </trkpt>
      <trkpt lat="44.83569" lon="6.75615">
        <ele>2119.6000976562</ele>
        <time>2015-03-10T08:51:11.000Z</time>
      </trkpt>
      <trkpt lat="44.83569" lon="6.75615">
        <ele>2119.6000976562</ele>
        <time>2015-03-10T08:51:13.000Z</time>
      </trkpt>
      <trkpt lat="44.83569" lon="6.75616">
        <ele>2120.6000976562</ele>
        <time>2015-03-10T08:51:19.000Z</time>
      </trkpt>
      <trkpt lat="44.83569" lon="6.75616">
        <ele>2121.6000976562</ele>
        <time>2015-03-10T08:51:24.000Z</time>
      </trkpt>
      <trkpt lat="44.83569" lon="6.75616">
        <ele>2122.3999023438</ele>
        <time>2015-03-10T08:51:26.000Z</time>
      </trkpt>
      <trkpt lat="44.83568" lon="6.75617">
        <ele>2122.8000488281</ele>
        <time>2015-03-10T08:51:28.000Z</time>
      </trkpt>
      <trkpt lat="44.83566" lon="6.7562">
        <ele>2123.1999511719</ele>
        <time>2015-03-10T08:51:35.000Z</time>
      </trkpt>
      <trkpt lat="44.83564" lon="6.75621">
        <ele>2124.1999511719</ele>
        <time>2015-03-10T08:51:38.000Z</time>
      </trkpt>
      <trkpt lat="44.83565" lon="6.75625">
        <ele>2124.8000488281</ele>
        <time>2015-03-10T08:51:42.000Z</time>
      </trkpt>
      <trkpt lat="44.83568" lon="6.75627">
        <ele>2125.1999511719</ele>
        <time>2015-03-10T08:51:46.000Z</time>
      </trkpt>
      <trkpt lat="44.83568" lon="6.75628">
        <ele>2125.3999023438</ele>
        <time>2015-03-10T08:51:47.000Z</time>
      </trkpt>
      <trkpt lat="44.83571" lon="6.75633">
        <ele>2125.1999511719</ele>
        <time>2015-03-10T08:51:52.000Z</time>
      </trkpt>
      <trkpt lat="44.83573" lon="6.75637">
        <ele>2125.6000976562</ele>
        <time>2015-03-10T08:51:56.000Z</time>
      </trkpt>
      <trkpt lat="44.83574" lon="6.7564">
        <ele>2126.3999023438</ele>
        <time>2015-03-10T08:51:59.000Z</time>
      </trkpt>
      <trkpt lat="44.83575" lon="6.75641">
        <ele>2127.6000976562</ele>
        <time>2015-03-10T08:52:02.000Z</time>
      </trkpt>
      <trkpt lat="44.83576" lon="6.75641">
        <ele>2128.3999023438</ele>
        <time>2015-03-10T08:52:04.000Z</time>
      </trkpt>
      <trkpt lat="44.83576" lon="6.7564">
        <ele>2128.8000488281</ele>
        <time>2015-03-10T08:52:05.000Z</time>
      </trkpt>
      <trkpt lat="44.83577" lon="6.75641">
        <ele>2130</ele>
        <time>2015-03-10T08:52:12.000Z</time>
      </trkpt>
      <trkpt lat="44.83579" lon="6.75642">
        <ele>2130.8000488281</ele>
        <time>2015-03-10T08:52:19.000Z</time>
      </trkpt>
      <trkpt lat="44.83582" lon="6.75643">
        <ele>2131.1999511719</ele>
        <time>2015-03-10T08:52:23.000Z</time>
      </trkpt>
      <trkpt lat="44.83583" lon="6.75643">
        <ele>2132</ele>
        <time>2015-03-10T08:52:25.000Z</time>
      </trkpt>
      <trkpt lat="44.83583" lon="6.75643">
        <ele>2132.1999511719</ele>
        <time>2015-03-10T08:52:27.000Z</time>
      </trkpt>
      <trkpt lat="44.83584" lon="6.75643">
        <ele>2132</ele>
        <time>2015-03-10T08:52:33.000Z</time>
      </trkpt>
      <trkpt lat="44.83584" lon="6.75643">
        <ele>2133.3999023438</ele>
        <time>2015-03-10T08:52:38.000Z</time>
      </trkpt>
      <trkpt lat="44.83582" lon="6.75644">
        <ele>2133.6000976562</ele>
        <time>2015-03-10T08:52:42.000Z</time>
      </trkpt>
      <trkpt lat="44.83582" lon="6.75647">
        <ele>2134.6000976562</ele>
        <time>2015-03-10T08:52:47.000Z</time>
      </trkpt>
      <trkpt lat="44.83583" lon="6.75649">
        <ele>2135.3999023438</ele>
        <time>2015-03-10T08:52:51.000Z</time>
      </trkpt>
      <trkpt lat="44.83584" lon="6.75651">
        <ele>2135.6000976562</ele>
        <time>2015-03-10T08:52:52.000Z</time>
      </trkpt>
      <trkpt lat="44.83587" lon="6.75653">
        <ele>2136.6000976562</ele>
        <time>2015-03-10T08:52:56.000Z</time>
      </trkpt>
      <trkpt lat="44.83588" lon="6.75654">
        <ele>2136.8000488281</ele>
        <time>2015-03-10T08:52:57.000Z</time>
      </trkpt>
      <trkpt lat="44.83591" lon="6.75657">
        <ele>2137.3999023438</ele>
        <time>2015-03-10T08:53:02.000Z</time>
      </trkpt>
      <trkpt lat="44.83591" lon="6.7566">
        <ele>2137.8000488281</ele>
        <time>2015-03-10T08:53:06.000Z</time>
      </trkpt>
      <trkpt lat="44.8359" lon="6.75661">
        <ele>2138.8000488281</ele>
        <time>2015-03-10T08:53:09.000Z</time>
      </trkpt>
      <trkpt lat="44.83589" lon="6.75662">
        <ele>2139</ele>
        <time>2015-03-10T08:53:10.000Z</time>
      </trkpt>
      <trkpt lat="44.83587" lon="6.75669">
        <ele>2140</ele>
        <time>2015-03-10T08:53:14.000Z</time>
      </trkpt>
      <trkpt lat="44.83587" lon="6.7567">
        <ele>2140.1999511719</ele>
        <time>2015-03-10T08:53:15.000Z</time>
      </trkpt>
      <trkpt lat="44.83588" lon="6.75674">
        <ele>2141.1999511719</ele>
        <time>2015-03-10T08:53:19.000Z</time>
      </trkpt>
      <trkpt lat="44.83589" lon="6.75675">
        <ele>2141.3999023438</ele>
        <time>2015-03-10T08:53:21.000Z</time>
      </trkpt>
      <trkpt lat="44.83592" lon="6.75675">
        <ele>2142.1999511719</ele>
        <time>2015-03-10T08:53:26.000Z</time>
      </trkpt>
      <trkpt lat="44.83595" lon="6.75675">
        <ele>2143.3999023438</ele>
        <time>2015-03-10T08:53:31.000Z</time>
      </trkpt>
      <trkpt lat="44.83597" lon="6.75676">
        <ele>2144.1999511719</ele>
        <time>2015-03-10T08:53:37.000Z</time>
      </trkpt>
      <trkpt lat="44.83596" lon="6.75677">
        <ele>2144.6000976562</ele>
        <time>2015-03-10T08:53:39.000Z</time>
      </trkpt>
      <trkpt lat="44.83596" lon="6.75678">
        <ele>2145.6000976562</ele>
        <time>2015-03-10T08:53:41.000Z</time>
      </trkpt>
      <trkpt lat="44.83595" lon="6.7568">
        <ele>2146</ele>
        <time>2015-03-10T08:53:43.000Z</time>
      </trkpt>
      <trkpt lat="44.83594" lon="6.75682">
        <ele>2146.8000488281</ele>
        <time>2015-03-10T08:53:47.000Z</time>
      </trkpt>
      <trkpt lat="44.83593" lon="6.7569">
        <ele>2147.6000976562</ele>
        <time>2015-03-10T08:53:51.000Z</time>
      </trkpt>
      <trkpt lat="44.83594" lon="6.75695">
        <ele>2147.8000488281</ele>
        <time>2015-03-10T08:53:54.000Z</time>
      </trkpt>
      <trkpt lat="44.83594" lon="6.75696">
        <ele>2148.3999023438</ele>
        <time>2015-03-10T08:53:56.000Z</time>
      </trkpt>
      <trkpt lat="44.83594" lon="6.75696">
        <ele>2149</ele>
        <time>2015-03-10T08:53:59.000Z</time>
      </trkpt>
      <trkpt lat="44.83594" lon="6.75696">
        <ele>2150.1999511719</ele>
        <time>2015-03-10T08:54:04.000Z</time>
      </trkpt>
      <trkpt lat="44.83594" lon="6.75701">
        <ele>2151.3999023438</ele>
        <time>2015-03-10T08:54:11.000Z</time>
      </trkpt>
      <trkpt lat="44.83596" lon="6.75708">
        <ele>2152.1999511719</ele>
        <time>2015-03-10T08:54:16.000Z</time>
      </trkpt>
      <trkpt lat="44.83599" lon="6.7571">
        <ele>2152.6000976562</ele>
        <time>2015-03-10T08:54:19.000Z</time>
      </trkpt>
      <trkpt lat="44.83601" lon="6.7571">
        <ele>2153</ele>
        <time>2015-03-10T08:54:21.000Z</time>
      </trkpt>
      <trkpt lat="44.83604" lon="6.75711">
        <ele>2153.6000976562</ele>
        <time>2015-03-10T08:54:23.000Z</time>
      </trkpt>
      <trkpt lat="44.83605" lon="6.75711">
        <ele>2154.3999023438</ele>
        <time>2015-03-10T08:54:27.000Z</time>
      </trkpt>
      <trkpt lat="44.83606" lon="6.75712">
        <ele>2154.8000488281</ele>
        <time>2015-03-10T08:54:29.000Z</time>
      </trkpt>
      <trkpt lat="44.83607" lon="6.75716">
        <ele>2155.3999023438</ele>
        <time>2015-03-10T08:54:32.000Z</time>
      </trkpt>
      <trkpt lat="44.83611" lon="6.75722">
        <ele>2156</ele>
        <time>2015-03-10T08:54:37.000Z</time>
      </trkpt>
      <trkpt lat="44.83612" lon="6.75723">
        <ele>2156.3999023438</ele>
        <time>2015-03-10T08:54:38.000Z</time>
      </trkpt>
      <trkpt lat="44.83612" lon="6.75725">
        <ele>2157</ele>
        <time>2015-03-10T08:54:41.000Z</time>
      </trkpt>
      <trkpt lat="44.83612" lon="6.75728">
        <ele>2157.8000488281</ele>
        <time>2015-03-10T08:54:44.000Z</time>
      </trkpt>
      <trkpt lat="44.83612" lon="6.75729">
        <ele>2158.1999511719</ele>
        <time>2015-03-10T08:54:46.000Z</time>
      </trkpt>
      <trkpt lat="44.83613" lon="6.75731">
        <ele>2159</ele>
        <time>2015-03-10T08:54:50.000Z</time>
      </trkpt>
      <trkpt lat="44.83614" lon="6.75733">
        <ele>2159.1999511719</ele>
        <time>2015-03-10T08:54:52.000Z</time>
      </trkpt>
      <trkpt lat="44.83615" lon="6.75737">
        <ele>2159.8000488281</ele>
        <time>2015-03-10T08:54:55.000Z</time>
      </trkpt>
      <trkpt lat="44.83615" lon="6.75738">
        <ele>2160.3999023438</ele>
        <time>2015-03-10T08:54:57.000Z</time>
      </trkpt>
      <trkpt lat="44.83613" lon="6.75741">
        <ele>2161.3999023438</ele>
        <time>2015-03-10T08:55:00.000Z</time>
      </trkpt>
      <trkpt lat="44.83613" lon="6.75743">
        <ele>2161.8000488281</ele>
        <time>2015-03-10T08:55:03.000Z</time>
      </trkpt>
      <trkpt lat="44.83615" lon="6.75745">
        <ele>2162.1999511719</ele>
        <time>2015-03-10T08:55:09.000Z</time>
      </trkpt>
      <trkpt lat="44.83617" lon="6.75747">
        <ele>2162.6000976562</ele>
        <time>2015-03-10T08:55:12.000Z</time>
      </trkpt>
      <trkpt lat="44.83618" lon="6.75749">
        <ele>2163.1999511719</ele>
        <time>2015-03-10T08:55:14.000Z</time>
      </trkpt>
      <trkpt lat="44.8362" lon="6.75751">
        <ele>2164</ele>
        <time>2015-03-10T08:55:17.000Z</time>
      </trkpt>
      <trkpt lat="44.83621" lon="6.75754">
        <ele>2164.3999023438</ele>
        <time>2015-03-10T08:55:19.000Z</time>
      </trkpt>
      <trkpt lat="44.83624" lon="6.75749">
        <ele>2165.1999511719</ele>
        <time>2015-03-10T08:55:23.000Z</time>
      </trkpt>
      <trkpt lat="44.83623" lon="6.75748">
        <ele>2165.3999023438</ele>
        <time>2015-03-10T08:55:24.000Z</time>
      </trkpt>
      <trkpt lat="44.83625" lon="6.75747">
        <ele>2166.1999511719</ele>
        <time>2015-03-10T08:55:27.000Z</time>
      </trkpt>
      <trkpt lat="44.83627" lon="6.75745">
        <ele>2166.6000976562</ele>
        <time>2015-03-10T08:55:29.000Z</time>
      </trkpt>
      <trkpt lat="44.83628" lon="6.75744">
        <ele>2166.8000488281</ele>
        <time>2015-03-10T08:55:30.000Z</time>
      </trkpt>
      <trkpt lat="44.8363" lon="6.7574">
        <ele>2167.1999511719</ele>
        <time>2015-03-10T08:55:34.000Z</time>
      </trkpt>
      <trkpt lat="44.83632" lon="6.75739">
        <ele>2167.3999023438</ele>
        <time>2015-03-10T08:55:37.000Z</time>
      </trkpt>
      <trkpt lat="44.83633" lon="6.75738">
        <ele>2167.6000976562</ele>
        <time>2015-03-10T08:55:39.000Z</time>
      </trkpt>
      <trkpt lat="44.83635" lon="6.75737">
        <ele>2168.6000976562</ele>
        <time>2015-03-10T08:55:41.000Z</time>
      </trkpt>
      <trkpt lat="44.83636" lon="6.75734">
        <ele>2169.1999511719</ele>
        <time>2015-03-10T08:55:44.000Z</time>
      </trkpt>
      <trkpt lat="44.8364" lon="6.75731">
        <ele>2169.6000976562</ele>
        <time>2015-03-10T08:55:48.000Z</time>
      </trkpt>
      <trkpt lat="44.8364" lon="6.75731">
        <ele>2169.8000488281</ele>
        <time>2015-03-10T08:55:49.000Z</time>
      </trkpt>
      <trkpt lat="44.83644" lon="6.7573">
        <ele>2170.8000488281</ele>
        <time>2015-03-10T08:55:55.000Z</time>
      </trkpt>
      <trkpt lat="44.83648" lon="6.75729">
        <ele>2172</ele>
        <time>2015-03-10T08:56:00.000Z</time>
      </trkpt>
      <trkpt lat="44.8365" lon="6.75728">
        <ele>2173.1999511719</ele>
        <time>2015-03-10T08:56:03.000Z</time>
      </trkpt>
      <trkpt lat="44.8365" lon="6.75726">
        <ele>2173.8000488281</ele>
        <time>2015-03-10T08:56:05.000Z</time>
      </trkpt>
      <trkpt lat="44.83652" lon="6.75725">
        <ele>2174.3999023438</ele>
        <time>2015-03-10T08:56:07.000Z</time>
      </trkpt>
      <trkpt lat="44.83654" lon="6.75724">
        <ele>2174.8000488281</ele>
        <time>2015-03-10T08:56:10.000Z</time>
      </trkpt>
      <trkpt lat="44.83657" lon="6.7572">
        <ele>2175.3999023438</ele>
        <time>2015-03-10T08:56:15.000Z</time>
      </trkpt>
      <trkpt lat="44.8366" lon="6.75718">
        <ele>2176.6000976562</ele>
        <time>2015-03-10T08:56:20.000Z</time>
      </trkpt>
      <trkpt lat="44.83664" lon="6.75717">
        <ele>2177.6000976562</ele>
        <time>2015-03-10T08:56:25.000Z</time>
      </trkpt>
      <trkpt lat="44.83667" lon="6.75717">
        <ele>2178.6000976562</ele>
        <time>2015-03-10T08:56:29.000Z</time>
      </trkpt>
      <trkpt lat="44.83669" lon="6.7572">
        <ele>2179.1999511719</ele>
        <time>2015-03-10T08:56:32.000Z</time>
      </trkpt>
      <trkpt lat="44.83669" lon="6.75722">
        <ele>2179.8000488281</ele>
        <time>2015-03-10T08:56:34.000Z</time>
      </trkpt>
      <trkpt lat="44.83671" lon="6.75727">
        <ele>2180.8000488281</ele>
        <time>2015-03-10T08:56:38.000Z</time>
      </trkpt>
      <trkpt lat="44.83671" lon="6.75728">
        <ele>2181</ele>
        <time>2015-03-10T08:56:39.000Z</time>
      </trkpt>
      <trkpt lat="44.83673" lon="6.75734">
        <ele>2181.8000488281</ele>
        <time>2015-03-10T08:56:44.000Z</time>
      </trkpt>
      <trkpt lat="44.83673" lon="6.75735">
        <ele>2182.1999511719</ele>
        <time>2015-03-10T08:56:45.000Z</time>
      </trkpt>
      <trkpt lat="44.83673" lon="6.7574">
        <ele>2182.8000488281</ele>
        <time>2015-03-10T08:56:50.000Z</time>
      </trkpt>
      <trkpt lat="44.83673" lon="6.75743">
        <ele>2183.3999023438</ele>
        <time>2015-03-10T08:56:52.000Z</time>
      </trkpt>
      <trkpt lat="44.83673" lon="6.75746">
        <ele>2184.1999511719</ele>
        <time>2015-03-10T08:56:55.000Z</time>
      </trkpt>
      <trkpt lat="44.83674" lon="6.75747">
        <ele>2184.6000976562</ele>
        <time>2015-03-10T08:56:58.000Z</time>
      </trkpt>
      <trkpt lat="44.83677" lon="6.7575">
        <ele>2185.6000976562</ele>
        <time>2015-03-10T08:57:02.000Z</time>
      </trkpt>
      <trkpt lat="44.83677" lon="6.7575">
        <ele>2185.8000488281</ele>
        <time>2015-03-10T08:57:03.000Z</time>
      </trkpt>
      <trkpt lat="44.83678" lon="6.75753">
        <ele>2186.8000488281</ele>
        <time>2015-03-10T08:57:09.000Z</time>
      </trkpt>
      <trkpt lat="44.83678" lon="6.75753">
        <ele>2186.8000488281</ele>
        <time>2015-03-10T08:57:10.000Z</time>
      </trkpt>
      <trkpt lat="44.83678" lon="6.75753">
        <ele>2187.6000976562</ele>
        <time>2015-03-10T08:57:23.000Z</time>
      </trkpt>
      <trkpt lat="44.83678" lon="6.75753">
        <ele>2187.6000976562</ele>
        <time>2015-03-10T08:57:40.000Z</time>
      </trkpt>
      <trkpt lat="44.83678" lon="6.75753">
        <ele>2187.3999023438</ele>
        <time>2015-03-10T08:57:54.000Z</time>
      </trkpt>
      <trkpt lat="44.83678" lon="6.75753">
        <ele>2187.3999023438</ele>
        <time>2015-03-10T08:58:05.000Z</time>
      </trkpt>
      <trkpt lat="44.83678" lon="6.75753">
        <ele>2187.3999023438</ele>
        <time>2015-03-10T08:58:19.000Z</time>
      </trkpt>
      <trkpt lat="44.83678" lon="6.75753">
        <ele>2187.3999023438</ele>
        <time>2015-03-10T08:58:34.000Z</time>
      </trkpt>
      <trkpt lat="44.83678" lon="6.75753">
        <ele>2187.6000976562</ele>
        <time>2015-03-10T08:58:49.000Z</time>
      </trkpt>
      <trkpt lat="44.83678" lon="6.75753">
        <ele>2187.8000488281</ele>
        <time>2015-03-10T08:58:53.000Z</time>
      </trkpt>
      <trkpt lat="44.83678" lon="6.75753">
        <ele>2188</ele>
        <time>2015-03-10T08:58:54.000Z</time>
      </trkpt>
      <trkpt lat="44.83678" lon="6.75753">
        <ele>2188.1999511719</ele>
        <time>2015-03-10T08:59:11.000Z</time>
      </trkpt>
      <trkpt lat="44.83678" lon="6.75753">
        <ele>2188</ele>
        <time>2015-03-10T08:59:22.000Z</time>
      </trkpt>
      <trkpt lat="44.83678" lon="6.75754">
        <ele>2188.1999511719</ele>
        <time>2015-03-10T08:59:35.000Z</time>
      </trkpt>
      <trkpt lat="44.83678" lon="6.75754">
        <ele>2188.1999511719</ele>
        <time>2015-03-10T08:59:48.000Z</time>
      </trkpt>
      <trkpt lat="44.83678" lon="6.75754">
        <ele>2188.1999511719</ele>
        <time>2015-03-10T08:59:50.000Z</time>
      </trkpt>
      <trkpt lat="44.83678" lon="6.75754">
        <ele>2188</ele>
        <time>2015-03-10T09:00:02.000Z</time>
      </trkpt>
      <trkpt lat="44.83678" lon="6.75754">
        <ele>2188.1999511719</ele>
        <time>2015-03-10T09:00:16.000Z</time>
      </trkpt>
      <trkpt lat="44.83678" lon="6.75754">
        <ele>2188.1999511719</ele>
        <time>2015-03-10T09:00:29.000Z</time>
      </trkpt>
      <trkpt lat="44.83678" lon="6.75754">
        <ele>2188.3999023438</ele>
        <time>2015-03-10T09:00:43.000Z</time>
      </trkpt>
      <trkpt lat="44.83678" lon="6.75754">
        <ele>2188.1999511719</ele>
        <time>2015-03-10T09:00:59.000Z</time>
      </trkpt>
      <trkpt lat="44.83678" lon="6.75754">
        <ele>2188.1999511719</ele>
        <time>2015-03-10T09:01:13.000Z</time>
      </trkpt>
      <trkpt lat="44.83678" lon="6.75754">
        <ele>2188.1999511719</ele>
        <time>2015-03-10T09:01:28.000Z</time>
      </trkpt>
      <trkpt lat="44.83678" lon="6.75754">
        <ele>2188.1999511719</ele>
        <time>2015-03-10T09:01:42.000Z</time>
      </trkpt>
      <trkpt lat="44.83678" lon="6.75754">
        <ele>2188.1999511719</ele>
        <time>2015-03-10T09:01:55.000Z</time>
      </trkpt>
      <trkpt lat="44.83678" lon="6.75754">
        <ele>2188.1999511719</ele>
        <time>2015-03-10T09:02:00.000Z</time>
      </trkpt>
      <trkpt lat="44.83678" lon="6.75754">
        <ele>2188.1999511719</ele>
        <time>2015-03-10T09:02:14.000Z</time>
      </trkpt>
      <trkpt lat="44.83678" lon="6.75754">
        <ele>2188.1999511719</ele>
        <time>2015-03-10T09:02:29.000Z</time>
      </trkpt>
      <trkpt lat="44.83678" lon="6.75753">
        <ele>2188.3999023438</ele>
        <time>2015-03-10T09:02:42.000Z</time>
      </trkpt>
      <trkpt lat="44.83678" lon="6.75753">
        <ele>2188.3999023438</ele>
        <time>2015-03-10T09:02:55.000Z</time>
      </trkpt>
      <trkpt lat="44.83678" lon="6.75753">
        <ele>2188.6000976562</ele>
        <time>2015-03-10T09:03:13.000Z</time>
      </trkpt>
      <trkpt lat="44.83679" lon="6.75754">
        <ele>2188.3999023438</ele>
        <time>2015-03-10T09:03:29.000Z</time>
      </trkpt>
      <trkpt lat="44.83679" lon="6.75754">
        <ele>2188.6000976562</ele>
        <time>2015-03-10T09:03:42.000Z</time>
      </trkpt>
      <trkpt lat="44.83679" lon="6.75754">
        <ele>2188.3999023438</ele>
        <time>2015-03-10T09:03:56.000Z</time>
      </trkpt>
      <trkpt lat="44.83679" lon="6.75754">
        <ele>2188.3999023438</ele>
        <time>2015-03-10T09:03:57.000Z</time>
      </trkpt>
      <trkpt lat="44.83679" lon="6.75754">
        <ele>2188.6000976562</ele>
        <time>2015-03-10T09:04:12.000Z</time>
      </trkpt>
      <trkpt lat="44.83679" lon="6.75754">
        <ele>2188.3999023438</ele>
        <time>2015-03-10T09:04:28.000Z</time>
      </trkpt>
      <trkpt lat="44.83679" lon="6.75754">
        <ele>2188.6000976562</ele>
        <time>2015-03-10T09:04:45.000Z</time>
      </trkpt>
      <trkpt lat="44.83679" lon="6.75754">
        <ele>2188.8000488281</ele>
        <time>2015-03-10T09:04:59.000Z</time>
      </trkpt>
      <trkpt lat="44.83679" lon="6.75754">
        <ele>2189</ele>
        <time>2015-03-10T09:05:13.000Z</time>
      </trkpt>
      <trkpt lat="44.83679" lon="6.75754">
        <ele>2189</ele>
        <time>2015-03-10T09:05:18.000Z</time>
      </trkpt>
      <trkpt lat="44.83679" lon="6.75755">
        <ele>2189.3999023438</ele>
        <time>2015-03-10T09:05:28.000Z</time>
      </trkpt>
      <trkpt lat="44.83679" lon="6.75755">
        <ele>2189.3999023438</ele>
        <time>2015-03-10T09:05:29.000Z</time>
      </trkpt>
      <trkpt lat="44.83679" lon="6.75755">
        <ele>2189.3999023438</ele>
        <time>2015-03-10T09:05:43.000Z</time>
      </trkpt>
      <trkpt lat="44.83679" lon="6.75755">
        <ele>2189</ele>
        <time>2015-03-10T09:05:52.000Z</time>
      </trkpt>
      <trkpt lat="44.83682" lon="6.75755">
        <ele>2188.8000488281</ele>
        <time>2015-03-10T09:06:07.000Z</time>
      </trkpt>
      <trkpt lat="44.83682" lon="6.75755">
        <ele>2188.8000488281</ele>
        <time>2015-03-10T09:06:18.000Z</time>
      </trkpt>
      <trkpt lat="44.83682" lon="6.75755">
        <ele>2189</ele>
        <time>2015-03-10T09:06:33.000Z</time>
      </trkpt>
      <trkpt lat="44.83682" lon="6.75756">
        <ele>2188.8000488281</ele>
        <time>2015-03-10T09:06:47.000Z</time>
      </trkpt>
      <trkpt lat="44.83682" lon="6.75756">
        <ele>2188.8000488281</ele>
        <time>2015-03-10T09:07:02.000Z</time>
      </trkpt>
      <trkpt lat="44.83682" lon="6.75756">
        <ele>2188.8000488281</ele>
        <time>2015-03-10T09:07:16.000Z</time>
      </trkpt>
      <trkpt lat="44.83682" lon="6.75757">
        <ele>2189</ele>
        <time>2015-03-10T09:07:33.000Z</time>
      </trkpt>
      <trkpt lat="44.83682" lon="6.75757">
        <ele>2189</ele>
        <time>2015-03-10T09:07:51.000Z</time>
      </trkpt>
      <trkpt lat="44.83682" lon="6.75757">
        <ele>2188.8000488281</ele>
        <time>2015-03-10T09:08:03.000Z</time>
      </trkpt>
      <trkpt lat="44.83682" lon="6.75757">
        <ele>2188.8000488281</ele>
        <time>2015-03-10T09:08:20.000Z</time>
      </trkpt>
      <trkpt lat="44.83682" lon="6.75757">
        <ele>2188.8000488281</ele>
        <time>2015-03-10T09:08:37.000Z</time>
      </trkpt>
      <trkpt lat="44.83681" lon="6.75758">
        <ele>2189</ele>
        <time>2015-03-10T09:08:48.000Z</time>
      </trkpt>
      <trkpt lat="44.83679" lon="6.75762">
        <ele>2189.1999511719</ele>
        <time>2015-03-10T09:08:55.000Z</time>
      </trkpt>
      <trkpt lat="44.83679" lon="6.75764">
        <ele>2190</ele>
        <time>2015-03-10T09:08:58.000Z</time>
      </trkpt>
      <trkpt lat="44.83679" lon="6.75764">
        <ele>2190.1999511719</ele>
        <time>2015-03-10T09:08:59.000Z</time>
      </trkpt>
      <trkpt lat="44.8368" lon="6.75767">
        <ele>2190.6000976562</ele>
        <time>2015-03-10T09:09:03.000Z</time>
      </trkpt>
      <trkpt lat="44.8368" lon="6.75768">
        <ele>2190.6000976562</ele>
        <time>2015-03-10T09:09:04.000Z</time>
      </trkpt>
      <trkpt lat="44.8368" lon="6.7577">
        <ele>2191.1999511719</ele>
        <time>2015-03-10T09:09:11.000Z</time>
      </trkpt>
      <trkpt lat="44.83681" lon="6.75772">
        <ele>2191.8000488281</ele>
        <time>2015-03-10T09:09:19.000Z</time>
      </trkpt>
      <trkpt lat="44.83682" lon="6.75774">
        <ele>2192.3999023438</ele>
        <time>2015-03-10T09:09:22.000Z</time>
      </trkpt>
      <trkpt lat="44.83682" lon="6.75776">
        <ele>2192.8000488281</ele>
        <time>2015-03-10T09:09:25.000Z</time>
      </trkpt>
      <trkpt lat="44.83682" lon="6.75779">
        <ele>2193.3999023438</ele>
        <time>2015-03-10T09:09:30.000Z</time>
      </trkpt>
      <trkpt lat="44.83682" lon="6.75781">
        <ele>2193.6000976562</ele>
        <time>2015-03-10T09:09:32.000Z</time>
      </trkpt>
      <trkpt lat="44.83682" lon="6.75784">
        <ele>2194.6000976562</ele>
        <time>2015-03-10T09:09:37.000Z</time>
      </trkpt>
      <trkpt lat="44.83682" lon="6.75785">
        <ele>2195.1999511719</ele>
        <time>2015-03-10T09:09:41.000Z</time>
      </trkpt>
      <trkpt lat="44.83683" lon="6.75786">
        <ele>2195.8000488281</ele>
        <time>2015-03-10T09:09:47.000Z</time>
      </trkpt>
      <trkpt lat="44.83683" lon="6.75787">
        <ele>2196</ele>
        <time>2015-03-10T09:09:49.000Z</time>
      </trkpt>
      <trkpt lat="44.83683" lon="6.75789">
        <ele>2196.8000488281</ele>
        <time>2015-03-10T09:09:55.000Z</time>
      </trkpt>
      <trkpt lat="44.83683" lon="6.7579">
        <ele>2197.1999511719</ele>
        <time>2015-03-10T09:09:56.000Z</time>
      </trkpt>
      <trkpt lat="44.83685" lon="6.75792">
        <ele>2197.8000488281</ele>
        <time>2015-03-10T09:10:00.000Z</time>
      </trkpt>
      <trkpt lat="44.83685" lon="6.75794">
        <ele>2198.3999023438</ele>
        <time>2015-03-10T09:10:04.000Z</time>
      </trkpt>
      <trkpt lat="44.83687" lon="6.75794">
        <ele>2198.6000976562</ele>
        <time>2015-03-10T09:10:09.000Z</time>
      </trkpt>
      <trkpt lat="44.83688" lon="6.75795">
        <ele>2199</ele>
        <time>2015-03-10T09:10:11.000Z</time>
      </trkpt>
      <trkpt lat="44.83689" lon="6.75795">
        <ele>2199.1999511719</ele>
        <time>2015-03-10T09:10:15.000Z</time>
      </trkpt>
      <trkpt lat="44.83689" lon="6.75795">
        <ele>2199.3999023438</ele>
        <time>2015-03-10T09:10:28.000Z</time>
      </trkpt>
      <trkpt lat="44.83693" lon="6.75794">
        <ele>2200</ele>
        <time>2015-03-10T09:10:32.000Z</time>
      </trkpt>
      <trkpt lat="44.83695" lon="6.75794">
        <ele>2200.3999023438</ele>
        <time>2015-03-10T09:10:35.000Z</time>
      </trkpt>
      <trkpt lat="44.83698" lon="6.75799">
        <ele>2201.1999511719</ele>
        <time>2015-03-10T09:10:40.000Z</time>
      </trkpt>
      <trkpt lat="44.83698" lon="6.75801">
        <ele>2201.6000976562</ele>
        <time>2015-03-10T09:10:41.000Z</time>
      </trkpt>
      <trkpt lat="44.83698" lon="6.75804">
        <ele>2202.1999511719</ele>
        <time>2015-03-10T09:10:43.000Z</time>
      </trkpt>
      <trkpt lat="44.83698" lon="6.75807">
        <ele>2203</ele>
        <time>2015-03-10T09:10:46.000Z</time>
      </trkpt>
      <trkpt lat="44.83699" lon="6.75808">
        <ele>2203.3999023438</ele>
        <time>2015-03-10T09:10:48.000Z</time>
      </trkpt>
      <trkpt lat="44.83701" lon="6.75809">
        <ele>2203.8000488281</ele>
        <time>2015-03-10T09:10:52.000Z</time>
      </trkpt>
      <trkpt lat="44.83702" lon="6.75811">
        <ele>2204.8000488281</ele>
        <time>2015-03-10T09:10:55.000Z</time>
      </trkpt>
      <trkpt lat="44.83702" lon="6.75812">
        <ele>2205.3999023438</ele>
        <time>2015-03-10T09:10:58.000Z</time>
      </trkpt>
      <trkpt lat="44.83702" lon="6.75813">
        <ele>2205.8000488281</ele>
        <time>2015-03-10T09:11:01.000Z</time>
      </trkpt>
      <trkpt lat="44.83702" lon="6.75816">
        <ele>2206.1999511719</ele>
        <time>2015-03-10T09:11:05.000Z</time>
      </trkpt>
      <trkpt lat="44.83702" lon="6.75818">
        <ele>2207</ele>
        <time>2015-03-10T09:11:09.000Z</time>
      </trkpt>
      <trkpt lat="44.83702" lon="6.7582">
        <ele>2207</ele>
        <time>2015-03-10T09:11:10.000Z</time>
      </trkpt>
      <trkpt lat="44.83703" lon="6.75826">
        <ele>2208</ele>
        <time>2015-03-10T09:11:16.000Z</time>
      </trkpt>
      <trkpt lat="44.83703" lon="6.75826">
        <ele>2208</ele>
        <time>2015-03-10T09:11:17.000Z</time>
      </trkpt>
      <trkpt lat="44.83706" lon="6.75827">
        <ele>2208.6000976562</ele>
        <time>2015-03-10T09:11:21.000Z</time>
      </trkpt>
      <trkpt lat="44.83709" lon="6.75825">
        <ele>2209.1999511719</ele>
        <time>2015-03-10T09:11:25.000Z</time>
      </trkpt>
      <trkpt lat="44.83709" lon="6.75825">
        <ele>2209.1999511719</ele>
        <time>2015-03-10T09:11:26.000Z</time>
      </trkpt>
      <trkpt lat="44.83711" lon="6.75824">
        <ele>2210.3999023438</ele>
        <time>2015-03-10T09:11:31.000Z</time>
      </trkpt>
      <trkpt lat="44.83713" lon="6.75823">
        <ele>2210.8000488281</ele>
        <time>2015-03-10T09:11:34.000Z</time>
      </trkpt>
      <trkpt lat="44.83715" lon="6.75822">
        <ele>2211.8000488281</ele>
        <time>2015-03-10T09:11:37.000Z</time>
      </trkpt>
      <trkpt lat="44.83715" lon="6.75822">
        <ele>2212.6000976562</ele>
        <time>2015-03-10T09:11:42.000Z</time>
      </trkpt>
      <trkpt lat="44.83715" lon="6.75822">
        <ele>2213</ele>
        <time>2015-03-10T09:11:44.000Z</time>
      </trkpt>
      <trkpt lat="44.83716" lon="6.75821">
        <ele>2213.6000976562</ele>
        <time>2015-03-10T09:11:50.000Z</time>
      </trkpt>
      <trkpt lat="44.83716" lon="6.75821">
        <ele>2213.6000976562</ele>
        <time>2015-03-10T09:11:54.000Z</time>
      </trkpt>
      <trkpt lat="44.83717" lon="6.75822">
        <ele>2213.6000976562</ele>
        <time>2015-03-10T09:12:09.000Z</time>
      </trkpt>
      <trkpt lat="44.83722" lon="6.75822">
        <ele>2214.1999511719</ele>
        <time>2015-03-10T09:12:17.000Z</time>
      </trkpt>
      <trkpt lat="44.83725" lon="6.75823">
        <ele>2215.3999023438</ele>
        <time>2015-03-10T09:12:23.000Z</time>
      </trkpt>
      <trkpt lat="44.83726" lon="6.75823">
        <ele>2215.3999023438</ele>
        <time>2015-03-10T09:12:24.000Z</time>
      </trkpt>
      <trkpt lat="44.8373" lon="6.75823">
        <ele>2216.3999023438</ele>
        <time>2015-03-10T09:12:30.000Z</time>
      </trkpt>
      <trkpt lat="44.8373" lon="6.75823">
        <ele>2217</ele>
        <time>2015-03-10T09:12:31.000Z</time>
      </trkpt>
      <trkpt lat="44.83731" lon="6.75823">
        <ele>2218.1999511719</ele>
        <time>2015-03-10T09:12:37.000Z</time>
      </trkpt>
      <trkpt lat="44.83733" lon="6.75821">
        <ele>2217.8000488281</ele>
        <time>2015-03-10T09:12:47.000Z</time>
      </trkpt>
      <trkpt lat="44.83736" lon="6.7582">
        <ele>2219.1999511719</ele>
        <time>2015-03-10T09:12:51.000Z</time>
      </trkpt>
      <trkpt lat="44.83741" lon="6.75819">
        <ele>2219.8000488281</ele>
        <time>2015-03-10T09:12:56.000Z</time>
      </trkpt>
      <trkpt lat="44.83742" lon="6.75818">
        <ele>2220.1999511719</ele>
        <time>2015-03-10T09:13:00.000Z</time>
      </trkpt>
      <trkpt lat="44.83743" lon="6.75818">
        <ele>2220.6000976562</ele>
        <time>2015-03-10T09:13:03.000Z</time>
      </trkpt>
      <trkpt lat="44.83744" lon="6.75817">
        <ele>2221.1999511719</ele>
        <time>2015-03-10T09:13:06.000Z</time>
      </trkpt>
      <trkpt lat="44.83744" lon="6.75817">
        <ele>2221.3999023438</ele>
        <time>2015-03-10T09:13:12.000Z</time>
      </trkpt>
      <trkpt lat="44.83744" lon="6.75817">
        <ele>2221.3999023438</ele>
        <time>2015-03-10T09:13:25.000Z</time>
      </trkpt>
      <trkpt lat="44.83744" lon="6.75816">
        <ele>2221.1999511719</ele>
        <time>2015-03-10T09:13:33.000Z</time>
      </trkpt>
      <trkpt lat="44.83745" lon="6.75816">
        <ele>2222</ele>
        <time>2015-03-10T09:13:41.000Z</time>
      </trkpt>
      <trkpt lat="44.83745" lon="6.75816">
        <ele>2222.1999511719</ele>
        <time>2015-03-10T09:13:42.000Z</time>
      </trkpt>
      <trkpt lat="44.83745" lon="6.75816">
        <ele>2222.3999023438</ele>
        <time>2015-03-10T09:13:51.000Z</time>
      </trkpt>
      <trkpt lat="44.83745" lon="6.75816">
        <ele>2222.3999023438</ele>
        <time>2015-03-10T09:14:02.000Z</time>
      </trkpt>
      <trkpt lat="44.83745" lon="6.75816">
        <ele>2222.8000488281</ele>
        <time>2015-03-10T09:14:18.000Z</time>
      </trkpt>
      <trkpt lat="44.83745" lon="6.75816">
        <ele>2222.6000976562</ele>
        <time>2015-03-10T09:14:34.000Z</time>
      </trkpt>
      <trkpt lat="44.83745" lon="6.75816">
        <ele>2222.3999023438</ele>
        <time>2015-03-10T09:14:50.000Z</time>
      </trkpt>
      <trkpt lat="44.83745" lon="6.75816">
        <ele>2222.3999023438</ele>
        <time>2015-03-10T09:15:03.000Z</time>
      </trkpt>
      <trkpt lat="44.83745" lon="6.75816">
        <ele>2222.3999023438</ele>
        <time>2015-03-10T09:15:14.000Z</time>
      </trkpt>
      <trkpt lat="44.83745" lon="6.75816">
        <ele>2222.6000976562</ele>
        <time>2015-03-10T09:15:25.000Z</time>
      </trkpt>
      <trkpt lat="44.83745" lon="6.75816">
        <ele>2222.3999023438</ele>
        <time>2015-03-10T09:15:40.000Z</time>
      </trkpt>
      <trkpt lat="44.83745" lon="6.75816">
        <ele>2222.3999023438</ele>
        <time>2015-03-10T09:15:55.000Z</time>
      </trkpt>
      <trkpt lat="44.83745" lon="6.75816">
        <ele>2222.3999023438</ele>
        <time>2015-03-10T09:16:07.000Z</time>
      </trkpt>
      <trkpt lat="44.83746" lon="6.75814">
        <ele>2222.3999023438</ele>
        <time>2015-03-10T09:16:19.000Z</time>
      </trkpt>
      <trkpt lat="44.83748" lon="6.75808">
        <ele>2222.6000976562</ele>
        <time>2015-03-10T09:16:24.000Z</time>
      </trkpt>
      <trkpt lat="44.83751" lon="6.75804">
        <ele>2222.6000976562</ele>
        <time>2015-03-10T09:16:29.000Z</time>
      </trkpt>
      <trkpt lat="44.83754" lon="6.75803">
        <ele>2223.3999023438</ele>
        <time>2015-03-10T09:16:32.000Z</time>
      </trkpt>
      <trkpt lat="44.83756" lon="6.75803">
        <ele>2224.1999511719</ele>
        <time>2015-03-10T09:16:35.000Z</time>
      </trkpt>
      <trkpt lat="44.83758" lon="6.75801">
        <ele>2224.6000976562</ele>
        <time>2015-03-10T09:16:38.000Z</time>
      </trkpt>
      <trkpt lat="44.83763" lon="6.75801">
        <ele>2225.1999511719</ele>
        <time>2015-03-10T09:16:43.000Z</time>
      </trkpt>
      <trkpt lat="44.83764" lon="6.75803">
        <ele>2225.6000976562</ele>
        <time>2015-03-10T09:16:45.000Z</time>
      </trkpt>
      <trkpt lat="44.83767" lon="6.75806">
        <ele>2226.1999511719</ele>
        <time>2015-03-10T09:16:49.000Z</time>
      </trkpt>
      <trkpt lat="44.83767" lon="6.75807">
        <ele>2226.6000976562</ele>
        <time>2015-03-10T09:16:52.000Z</time>
      </trkpt>
      <trkpt lat="44.83768" lon="6.75811">
        <ele>2227.8000488281</ele>
        <time>2015-03-10T09:16:56.000Z</time>
      </trkpt>
      <trkpt lat="44.83769" lon="6.75815">
        <ele>2228.8000488281</ele>
        <time>2015-03-10T09:17:00.000Z</time>
      </trkpt>
      <trkpt lat="44.83771" lon="6.75817">
        <ele>2229.1999511719</ele>
        <time>2015-03-10T09:17:03.000Z</time>
      </trkpt>
      <trkpt lat="44.83773" lon="6.75823">
        <ele>2230</ele>
        <time>2015-03-10T09:17:08.000Z</time>
      </trkpt>
      <trkpt lat="44.83776" lon="6.75826">
        <ele>2230.8000488281</ele>
        <time>2015-03-10T09:17:13.000Z</time>
      </trkpt>
      <trkpt lat="44.83778" lon="6.75826">
        <ele>2231</ele>
        <time>2015-03-10T09:17:16.000Z</time>
      </trkpt>
      <trkpt lat="44.8378" lon="6.75828">
        <ele>2231.6000976562</ele>
        <time>2015-03-10T09:17:18.000Z</time>
      </trkpt>
      <trkpt lat="44.83781" lon="6.7583">
        <ele>2232</ele>
        <time>2015-03-10T09:17:21.000Z</time>
      </trkpt>
      <trkpt lat="44.83783" lon="6.75831">
        <ele>2232.6000976562</ele>
        <time>2015-03-10T09:17:23.000Z</time>
      </trkpt>
      <trkpt lat="44.83784" lon="6.75829">
        <ele>2233.1999511719</ele>
        <time>2015-03-10T09:17:26.000Z</time>
      </trkpt>
      <trkpt lat="44.83785" lon="6.75829">
        <ele>2233.1999511719</ele>
        <time>2015-03-10T09:17:28.000Z</time>
      </trkpt>
      <trkpt lat="44.83786" lon="6.75833">
        <ele>2234.1999511719</ele>
        <time>2015-03-10T09:17:32.000Z</time>
      </trkpt>
      <trkpt lat="44.83788" lon="6.75834">
        <ele>2234.8000488281</ele>
        <time>2015-03-10T09:17:34.000Z</time>
      </trkpt>
      <trkpt lat="44.8379" lon="6.75833">
        <ele>2235.1999511719</ele>
        <time>2015-03-10T09:17:36.000Z</time>
      </trkpt>
      <trkpt lat="44.83793" lon="6.75831">
        <ele>2236.3999023438</ele>
        <time>2015-03-10T09:17:40.000Z</time>
      </trkpt>
      <trkpt lat="44.83794" lon="6.75831">
        <ele>2236.3999023438</ele>
        <time>2015-03-10T09:17:41.000Z</time>
      </trkpt>
      <trkpt lat="44.83796" lon="6.7583">
        <ele>2237.3999023438</ele>
        <time>2015-03-10T09:17:46.000Z</time>
      </trkpt>
      <trkpt lat="44.83798" lon="6.75831">
        <ele>2237.8000488281</ele>
        <time>2015-03-10T09:17:49.000Z</time>
      </trkpt>
      <trkpt lat="44.83799" lon="6.7583">
        <ele>2238.6000976562</ele>
        <time>2015-03-10T09:17:53.000Z</time>
      </trkpt>
      <trkpt lat="44.83799" lon="6.7583">
        <ele>2238.8000488281</ele>
        <time>2015-03-10T09:17:55.000Z</time>
      </trkpt>
      <trkpt lat="44.83799" lon="6.7583">
        <ele>2238.6000976562</ele>
        <time>2015-03-10T09:18:12.000Z</time>
      </trkpt>
      <trkpt lat="44.83799" lon="6.7583">
        <ele>2238.8000488281</ele>
        <time>2015-03-10T09:18:33.000Z</time>
      </trkpt>
      <trkpt lat="44.83799" lon="6.7583">
        <ele>2238.6000976562</ele>
        <time>2015-03-10T09:18:50.000Z</time>
      </trkpt>
      <trkpt lat="44.83799" lon="6.7583">
        <ele>2238.6000976562</ele>
        <time>2015-03-10T09:19:13.000Z</time>
      </trkpt>
      <trkpt lat="44.838" lon="6.75833">
        <ele>2238.8000488281</ele>
        <time>2015-03-10T09:19:20.000Z</time>
      </trkpt>
      <trkpt lat="44.83801" lon="6.75836">
        <ele>2239.8000488281</ele>
        <time>2015-03-10T09:19:23.000Z</time>
      </trkpt>
      <trkpt lat="44.83801" lon="6.75839">
        <ele>2240.3999023438</ele>
        <time>2015-03-10T09:19:26.000Z</time>
      </trkpt>
      <trkpt lat="44.838" lon="6.75839">
        <ele>2241</ele>
        <time>2015-03-10T09:19:28.000Z</time>
      </trkpt>
      <trkpt lat="44.83801" lon="6.75841">
        <ele>2241.6000976562</ele>
        <time>2015-03-10T09:19:31.000Z</time>
      </trkpt>
      <trkpt lat="44.83801" lon="6.75844">
        <ele>2242.1999511719</ele>
        <time>2015-03-10T09:19:33.000Z</time>
      </trkpt>
      <trkpt lat="44.83801" lon="6.75849">
        <ele>2242.8000488281</ele>
        <time>2015-03-10T09:19:36.000Z</time>
      </trkpt>
      <trkpt lat="44.83801" lon="6.7585">
        <ele>2243.1999511719</ele>
        <time>2015-03-10T09:19:38.000Z</time>
      </trkpt>
      <trkpt lat="44.83799" lon="6.75853">
        <ele>2244.1999511719</ele>
        <time>2015-03-10T09:19:42.000Z</time>
      </trkpt>
      <trkpt lat="44.83798" lon="6.75855">
        <ele>2245</ele>
        <time>2015-03-10T09:19:44.000Z</time>
      </trkpt>
      <trkpt lat="44.83797" lon="6.75857">
        <ele>2245.3999023438</ele>
        <time>2015-03-10T09:19:46.000Z</time>
      </trkpt>
      <trkpt lat="44.83795" lon="6.75863">
        <ele>2246</ele>
        <time>2015-03-10T09:19:51.000Z</time>
      </trkpt>
      <trkpt lat="44.83795" lon="6.75865">
        <ele>2246.3999023438</ele>
        <time>2015-03-10T09:19:52.000Z</time>
      </trkpt>
      <trkpt lat="44.83794" lon="6.75871">
        <ele>2247.3999023438</ele>
        <time>2015-03-10T09:19:56.000Z</time>
      </trkpt>
      <trkpt lat="44.83794" lon="6.75872">
        <ele>2247.8000488281</ele>
        <time>2015-03-10T09:19:58.000Z</time>
      </trkpt>
      <trkpt lat="44.83797" lon="6.75874">
        <ele>2248.3999023438</ele>
        <time>2015-03-10T09:20:01.000Z</time>
      </trkpt>
      <trkpt lat="44.83799" lon="6.75876">
        <ele>2249</ele>
        <time>2015-03-10T09:20:05.000Z</time>
      </trkpt>
      <trkpt lat="44.83798" lon="6.75876">
        <ele>2249.6000976562</ele>
        <time>2015-03-10T09:20:07.000Z</time>
      </trkpt>
      <trkpt lat="44.83798" lon="6.75879">
        <ele>2250.1999511719</ele>
        <time>2015-03-10T09:20:11.000Z</time>
      </trkpt>
      <trkpt lat="44.83798" lon="6.75881">
        <ele>2250.6000976562</ele>
        <time>2015-03-10T09:20:12.000Z</time>
      </trkpt>
      <trkpt lat="44.83799" lon="6.75886">
        <ele>2251.8000488281</ele>
        <time>2015-03-10T09:20:16.000Z</time>
      </trkpt>
      <trkpt lat="44.83803" lon="6.7589">
        <ele>2253</ele>
        <time>2015-03-10T09:20:21.000Z</time>
      </trkpt>
      <trkpt lat="44.83803" lon="6.75889">
        <ele>2253.1999511719</ele>
        <time>2015-03-10T09:20:22.000Z</time>
      </trkpt>
      <trkpt lat="44.83806" lon="6.75887">
        <ele>2254</ele>
        <time>2015-03-10T09:20:28.000Z</time>
      </trkpt>
      <trkpt lat="44.8381" lon="6.75892">
        <ele>2255</ele>
        <time>2015-03-10T09:20:33.000Z</time>
      </trkpt>
      <trkpt lat="44.8381" lon="6.75893">
        <ele>2255.1999511719</ele>
        <time>2015-03-10T09:20:34.000Z</time>
      </trkpt>
      <trkpt lat="44.83812" lon="6.75894">
        <ele>2256</ele>
        <time>2015-03-10T09:20:39.000Z</time>
      </trkpt>
      <trkpt lat="44.83812" lon="6.75896">
        <ele>2256.1999511719</ele>
        <time>2015-03-10T09:20:40.000Z</time>
      </trkpt>
      <trkpt lat="44.83813" lon="6.75896">
        <ele>2257.3999023438</ele>
        <time>2015-03-10T09:20:45.000Z</time>
      </trkpt>
      <trkpt lat="44.83813" lon="6.75896">
        <ele>2257.6000976562</ele>
        <time>2015-03-10T09:20:46.000Z</time>
      </trkpt>
      <trkpt lat="44.83813" lon="6.75896">
        <ele>2258.1999511719</ele>
        <time>2015-03-10T09:21:01.000Z</time>
      </trkpt>
      <trkpt lat="44.83814" lon="6.759">
        <ele>2258</ele>
        <time>2015-03-10T09:21:05.000Z</time>
      </trkpt>
      <trkpt lat="44.83815" lon="6.75901">
        <ele>2258.6000976562</ele>
        <time>2015-03-10T09:21:07.000Z</time>
      </trkpt>
      <trkpt lat="44.83814" lon="6.75904">
        <ele>2259.1999511719</ele>
        <time>2015-03-10T09:21:09.000Z</time>
      </trkpt>
      <trkpt lat="44.83814" lon="6.75907">
        <ele>2260</ele>
        <time>2015-03-10T09:21:12.000Z</time>
      </trkpt>
      <trkpt lat="44.83815" lon="6.75907">
        <ele>2260.3999023438</ele>
        <time>2015-03-10T09:21:13.000Z</time>
      </trkpt>
      <trkpt lat="44.83815" lon="6.75909">
        <ele>2261.1999511719</ele>
        <time>2015-03-10T09:21:17.000Z</time>
      </trkpt>
      <trkpt lat="44.83814" lon="6.75911">
        <ele>2261.8000488281</ele>
        <time>2015-03-10T09:21:19.000Z</time>
      </trkpt>
      <trkpt lat="44.83813" lon="6.75913">
        <ele>2262.3999023438</ele>
        <time>2015-03-10T09:21:21.000Z</time>
      </trkpt>
      <trkpt lat="44.83811" lon="6.75915">
        <ele>2263.1999511719</ele>
        <time>2015-03-10T09:21:25.000Z</time>
      </trkpt>
      <trkpt lat="44.8381" lon="6.75915">
        <ele>2263.6000976562</ele>
        <time>2015-03-10T09:21:26.000Z</time>
      </trkpt>
      <trkpt lat="44.83807" lon="6.75915">
        <ele>2264.6000976562</ele>
        <time>2015-03-10T09:21:31.000Z</time>
      </trkpt>
      <trkpt lat="44.83804" lon="6.75917">
        <ele>2265.8000488281</ele>
        <time>2015-03-10T09:21:36.000Z</time>
      </trkpt>
      <trkpt lat="44.83801" lon="6.7592">
        <ele>2266.6000976562</ele>
        <time>2015-03-10T09:21:42.000Z</time>
      </trkpt>
      <trkpt lat="44.83801" lon="6.75921">
        <ele>2267</ele>
        <time>2015-03-10T09:21:43.000Z</time>
      </trkpt>
      <trkpt lat="44.83798" lon="6.75923">
        <ele>2268</ele>
        <time>2015-03-10T09:21:48.000Z</time>
      </trkpt>
      <trkpt lat="44.83797" lon="6.75923">
        <ele>2268.1999511719</ele>
        <time>2015-03-10T09:21:49.000Z</time>
      </trkpt>
      <trkpt lat="44.83797" lon="6.75925">
        <ele>2269.3999023438</ele>
        <time>2015-03-10T09:21:54.000Z</time>
      </trkpt>
      <trkpt lat="44.83793" lon="6.75929">
        <ele>2270.1999511719</ele>
        <time>2015-03-10T09:22:01.000Z</time>
      </trkpt>
      <trkpt lat="44.83793" lon="6.7593">
        <ele>2270.6000976562</ele>
        <time>2015-03-10T09:22:02.000Z</time>
      </trkpt>
      <trkpt lat="44.83791" lon="6.75934">
        <ele>2271.3999023438</ele>
        <time>2015-03-10T09:22:07.000Z</time>
      </trkpt>
      <trkpt lat="44.8379" lon="6.75935">
        <ele>2271.6000976562</ele>
        <time>2015-03-10T09:22:08.000Z</time>
      </trkpt>
      <trkpt lat="44.83789" lon="6.75938">
        <ele>2272.6000976562</ele>
        <time>2015-03-10T09:22:13.000Z</time>
      </trkpt>
      <trkpt lat="44.83789" lon="6.75939">
        <ele>2272.8000488281</ele>
        <time>2015-03-10T09:22:14.000Z</time>
      </trkpt>
      <trkpt lat="44.83786" lon="6.75943">
        <ele>2274</ele>
        <time>2015-03-10T09:22:19.000Z</time>
      </trkpt>
      <trkpt lat="44.83784" lon="6.7595">
        <ele>2275.1999511719</ele>
        <time>2015-03-10T09:22:25.000Z</time>
      </trkpt>
      <trkpt lat="44.83784" lon="6.75951">
        <ele>2275.3999023438</ele>
        <time>2015-03-10T09:22:26.000Z</time>
      </trkpt>
      <trkpt lat="44.83782" lon="6.75956">
        <ele>2276.6000976562</ele>
        <time>2015-03-10T09:22:31.000Z</time>
      </trkpt>
      <trkpt lat="44.83782" lon="6.75956">
        <ele>2276.8000488281</ele>
        <time>2015-03-10T09:22:32.000Z</time>
      </trkpt>
      <trkpt lat="44.83781" lon="6.7596">
        <ele>2277.6000976562</ele>
        <time>2015-03-10T09:22:37.000Z</time>
      </trkpt>
      <trkpt lat="44.83781" lon="6.75963">
        <ele>2278.6000976562</ele>
        <time>2015-03-10T09:22:42.000Z</time>
      </trkpt>
      <trkpt lat="44.83782" lon="6.75966">
        <ele>2279</ele>
        <time>2015-03-10T09:22:43.000Z</time>
      </trkpt>
      <trkpt lat="44.83782" lon="6.7597">
        <ele>2279.6000976562</ele>
        <time>2015-03-10T09:22:48.000Z</time>
      </trkpt>
      <trkpt lat="44.83782" lon="6.75972">
        <ele>2280</ele>
        <time>2015-03-10T09:22:49.000Z</time>
      </trkpt>
      <trkpt lat="44.8378" lon="6.75971">
        <ele>2280.8000488281</ele>
        <time>2015-03-10T09:22:53.000Z</time>
      </trkpt>
      <trkpt lat="44.8378" lon="6.75973">
        <ele>2281.3999023438</ele>
        <time>2015-03-10T09:22:55.000Z</time>
      </trkpt>
      <trkpt lat="44.83783" lon="6.7598">
        <ele>2282.3999023438</ele>
        <time>2015-03-10T09:23:01.000Z</time>
      </trkpt>
      <trkpt lat="44.83784" lon="6.75983">
        <ele>2282.3999023438</ele>
        <time>2015-03-10T09:23:02.000Z</time>
      </trkpt>
      <trkpt lat="44.83785" lon="6.75984">
        <ele>2282.6000976562</ele>
        <time>2015-03-10T09:23:03.000Z</time>
      </trkpt>
      <trkpt lat="44.83785" lon="6.75984">
        <ele>2283</ele>
        <time>2015-03-10T09:23:06.000Z</time>
      </trkpt>
      <trkpt lat="44.83785" lon="6.7598">
        <ele>2283.6000976562</ele>
        <time>2015-03-10T09:23:10.000Z</time>
      </trkpt>
      <trkpt lat="44.83785" lon="6.7598">
        <ele>2283.8000488281</ele>
        <time>2015-03-10T09:23:11.000Z</time>
      </trkpt>
      <trkpt lat="44.83786" lon="6.75982">
        <ele>2284.3999023438</ele>
        <time>2015-03-10T09:23:15.000Z</time>
      </trkpt>
      <trkpt lat="44.83788" lon="6.75988">
        <ele>2284.6000976562</ele>
        <time>2015-03-10T09:23:17.000Z</time>
      </trkpt>
      <trkpt lat="44.83793" lon="6.75998">
        <ele>2285.8000488281</ele>
        <time>2015-03-10T09:23:22.000Z</time>
      </trkpt>
      <trkpt lat="44.83794" lon="6.76">
        <ele>2286.8000488281</ele>
        <time>2015-03-10T09:23:28.000Z</time>
      </trkpt>
      <trkpt lat="44.83795" lon="6.75999">
        <ele>2287</ele>
        <time>2015-03-10T09:23:29.000Z</time>
      </trkpt>
      <trkpt lat="44.83796" lon="6.76004">
        <ele>2288</ele>
        <time>2015-03-10T09:23:35.000Z</time>
      </trkpt>
      <trkpt lat="44.83801" lon="6.7601">
        <ele>2289</ele>
        <time>2015-03-10T09:23:40.000Z</time>
      </trkpt>
      <trkpt lat="44.83802" lon="6.76012">
        <ele>2289.1999511719</ele>
        <time>2015-03-10T09:23:41.000Z</time>
      </trkpt>
      <trkpt lat="44.83804" lon="6.76016">
        <ele>2290</ele>
        <time>2015-03-10T09:23:44.000Z</time>
      </trkpt>
      <trkpt lat="44.83806" lon="6.76018">
        <ele>2290.3999023438</ele>
        <time>2015-03-10T09:23:46.000Z</time>
      </trkpt>
      <trkpt lat="44.83809" lon="6.76026">
        <ele>2291.1999511719</ele>
        <time>2015-03-10T09:23:51.000Z</time>
      </trkpt>
      <trkpt lat="44.8381" lon="6.76027">
        <ele>2291.3999023438</ele>
        <time>2015-03-10T09:23:52.000Z</time>
      </trkpt>
      <trkpt lat="44.83813" lon="6.76032">
        <ele>2292.3999023438</ele>
        <time>2015-03-10T09:23:57.000Z</time>
      </trkpt>
      <trkpt lat="44.83813" lon="6.76032">
        <ele>2292.8000488281</ele>
        <time>2015-03-10T09:23:59.000Z</time>
      </trkpt>
      <trkpt lat="44.83815" lon="6.76034">
        <ele>2293.6000976562</ele>
        <time>2015-03-10T09:24:01.000Z</time>
      </trkpt>
      <trkpt lat="44.83817" lon="6.76038">
        <ele>2294.6000976562</ele>
        <time>2015-03-10T09:24:07.000Z</time>
      </trkpt>
      <trkpt lat="44.83818" lon="6.76039">
        <ele>2295.8000488281</ele>
        <time>2015-03-10T09:24:10.000Z</time>
      </trkpt>
      <trkpt lat="44.83818" lon="6.7604">
        <ele>2296</ele>
        <time>2015-03-10T09:24:11.000Z</time>
      </trkpt>
      <trkpt lat="44.83817" lon="6.7604">
        <ele>2296.8000488281</ele>
        <time>2015-03-10T09:24:15.000Z</time>
      </trkpt>
      <trkpt lat="44.83817" lon="6.76041">
        <ele>2297.1999511719</ele>
        <time>2015-03-10T09:24:16.000Z</time>
      </trkpt>
      <trkpt lat="44.83817" lon="6.76042">
        <ele>2298.1999511719</ele>
        <time>2015-03-10T09:24:20.000Z</time>
      </trkpt>
      <trkpt lat="44.83818" lon="6.76043">
        <ele>2298.8000488281</ele>
        <time>2015-03-10T09:24:23.000Z</time>
      </trkpt>
      <trkpt lat="44.83818" lon="6.76043">
        <ele>2299.1999511719</ele>
        <time>2015-03-10T09:24:25.000Z</time>
      </trkpt>
      <trkpt lat="44.83819" lon="6.76044">
        <ele>2300.1999511719</ele>
        <time>2015-03-10T09:24:30.000Z</time>
      </trkpt>
      <trkpt lat="44.8382" lon="6.76047">
        <ele>2300.3999023438</ele>
        <time>2015-03-10T09:24:31.000Z</time>
      </trkpt>
      <trkpt lat="44.83821" lon="6.76051">
        <ele>2301.3999023438</ele>
        <time>2015-03-10T09:24:35.000Z</time>
      </trkpt>
      <trkpt lat="44.83821" lon="6.76054">
        <ele>2302.1999511719</ele>
        <time>2015-03-10T09:24:46.000Z</time>
      </trkpt>
      <trkpt lat="44.83823" lon="6.76057">
        <ele>2302.3999023438</ele>
        <time>2015-03-10T09:24:48.000Z</time>
      </trkpt>
      <trkpt lat="44.83825" lon="6.76061">
        <ele>2302.8000488281</ele>
        <time>2015-03-10T09:24:51.000Z</time>
      </trkpt>
      <trkpt lat="44.83828" lon="6.7607">
        <ele>2303.1999511719</ele>
        <time>2015-03-10T09:24:56.000Z</time>
      </trkpt>
      <trkpt lat="44.83829" lon="6.76072">
        <ele>2303.8000488281</ele>
        <time>2015-03-10T09:24:58.000Z</time>
      </trkpt>
      <trkpt lat="44.83832" lon="6.76078">
        <ele>2304.3999023438</ele>
        <time>2015-03-10T09:25:01.000Z</time>
      </trkpt>
      <trkpt lat="44.83833" lon="6.76084">
        <ele>2304.8000488281</ele>
        <time>2015-03-10T09:25:04.000Z</time>
      </trkpt>
      <trkpt lat="44.83834" lon="6.76089">
        <ele>2305.6000976562</ele>
        <time>2015-03-10T09:25:08.000Z</time>
      </trkpt>
      <trkpt lat="44.83834" lon="6.76088">
        <ele>2306</ele>
        <time>2015-03-10T09:25:10.000Z</time>
      </trkpt>
      <trkpt lat="44.83833" lon="6.76087">
        <ele>2307</ele>
        <time>2015-03-10T09:25:14.000Z</time>
      </trkpt>
      <trkpt lat="44.83834" lon="6.76089">
        <ele>2307.1999511719</ele>
        <time>2015-03-10T09:25:27.000Z</time>
      </trkpt>
      <trkpt lat="44.83837" lon="6.76097">
        <ele>2306.8000488281</ele>
        <time>2015-03-10T09:25:32.000Z</time>
      </trkpt>
      <trkpt lat="44.83837" lon="6.76104">
        <ele>2307.3999023438</ele>
        <time>2015-03-10T09:25:36.000Z</time>
      </trkpt>
      <trkpt lat="44.83838" lon="6.76109">
        <ele>2308</ele>
        <time>2015-03-10T09:25:40.000Z</time>
      </trkpt>
      <trkpt lat="44.83839" lon="6.76113">
        <ele>2308.3999023438</ele>
        <time>2015-03-10T09:25:42.000Z</time>
      </trkpt>
      <trkpt lat="44.8384" lon="6.7612">
        <ele>2309.1999511719</ele>
        <time>2015-03-10T09:25:46.000Z</time>
      </trkpt>
      <trkpt lat="44.83841" lon="6.76122">
        <ele>2309.3999023438</ele>
        <time>2015-03-10T09:25:47.000Z</time>
      </trkpt>
      <trkpt lat="44.83841" lon="6.76126">
        <ele>2310.3999023438</ele>
        <time>2015-03-10T09:25:51.000Z</time>
      </trkpt>
      <trkpt lat="44.83841" lon="6.76126">
        <ele>2311</ele>
        <time>2015-03-10T09:25:54.000Z</time>
      </trkpt>
      <trkpt lat="44.83841" lon="6.76126">
        <ele>2311</ele>
        <time>2015-03-10T09:26:05.000Z</time>
      </trkpt>
      <trkpt lat="44.83841" lon="6.76126">
        <ele>2310.8000488281</ele>
        <time>2015-03-10T09:26:14.000Z</time>
      </trkpt>
      <trkpt lat="44.83842" lon="6.76129">
        <ele>2311.3999023438</ele>
        <time>2015-03-10T09:26:19.000Z</time>
      </trkpt>
      <trkpt lat="44.83845" lon="6.76137">
        <ele>2312.6000976562</ele>
        <time>2015-03-10T09:26:25.000Z</time>
      </trkpt>
      <trkpt lat="44.83847" lon="6.76146">
        <ele>2313.3999023438</ele>
        <time>2015-03-10T09:26:31.000Z</time>
      </trkpt>
      <trkpt lat="44.83848" lon="6.76149">
        <ele>2314</ele>
        <time>2015-03-10T09:26:32.000Z</time>
      </trkpt>
      <trkpt lat="44.83849" lon="6.76151">
        <ele>2314.3999023438</ele>
        <time>2015-03-10T09:26:33.000Z</time>
      </trkpt>
      <trkpt lat="44.8385" lon="6.76155">
        <ele>2315.1999511719</ele>
        <time>2015-03-10T09:26:36.000Z</time>
      </trkpt>
      <trkpt lat="44.83851" lon="6.76157">
        <ele>2315.3999023438</ele>
        <time>2015-03-10T09:26:37.000Z</time>
      </trkpt>
      <trkpt lat="44.83852" lon="6.76161">
        <ele>2315.8000488281</ele>
        <time>2015-03-10T09:26:42.000Z</time>
      </trkpt>
      <trkpt lat="44.83853" lon="6.76164">
        <ele>2316.1999511719</ele>
        <time>2015-03-10T09:26:44.000Z</time>
      </trkpt>
      <trkpt lat="44.83854" lon="6.76168">
        <ele>2316.8000488281</ele>
        <time>2015-03-10T09:26:47.000Z</time>
      </trkpt>
      <trkpt lat="44.83855" lon="6.76172">
        <ele>2317.3999023438</ele>
        <time>2015-03-10T09:26:49.000Z</time>
      </trkpt>
      <trkpt lat="44.83855" lon="6.76176">
        <ele>2318.1999511719</ele>
        <time>2015-03-10T09:26:53.000Z</time>
      </trkpt>
      <trkpt lat="44.83855" lon="6.76175">
        <ele>2318.3999023438</ele>
        <time>2015-03-10T09:26:54.000Z</time>
      </trkpt>
      <trkpt lat="44.83856" lon="6.76181">
        <ele>2319.3999023438</ele>
        <time>2015-03-10T09:26:58.000Z</time>
      </trkpt>
      <trkpt lat="44.83856" lon="6.76183">
        <ele>2319.3999023438</ele>
        <time>2015-03-10T09:26:59.000Z</time>
      </trkpt>
      <trkpt lat="44.83857" lon="6.76193">
        <ele>2320.3999023438</ele>
        <time>2015-03-10T09:27:06.000Z</time>
      </trkpt>
      <trkpt lat="44.83857" lon="6.76194">
        <ele>2320.6000976562</ele>
        <time>2015-03-10T09:27:07.000Z</time>
      </trkpt>
      <trkpt lat="44.83859" lon="6.76203">
        <ele>2321.6000976562</ele>
        <time>2015-03-10T09:27:12.000Z</time>
      </trkpt>
      <trkpt lat="44.83861" lon="6.7621">
        <ele>2322.3999023438</ele>
        <time>2015-03-10T09:27:18.000Z</time>
      </trkpt>
      <trkpt lat="44.83861" lon="6.76212">
        <ele>2322.8000488281</ele>
        <time>2015-03-10T09:27:20.000Z</time>
      </trkpt>
      <trkpt lat="44.83863" lon="6.76218">
        <ele>2323.6000976562</ele>
        <time>2015-03-10T09:27:25.000Z</time>
      </trkpt>
      <trkpt lat="44.83863" lon="6.76221">
        <ele>2323.8000488281</ele>
        <time>2015-03-10T09:27:26.000Z</time>
      </trkpt>
      <trkpt lat="44.83864" lon="6.76226">
        <ele>2324.6000976562</ele>
        <time>2015-03-10T09:27:31.000Z</time>
      </trkpt>
      <trkpt lat="44.83864" lon="6.76226">
        <ele>2325</ele>
        <time>2015-03-10T09:27:32.000Z</time>
      </trkpt>
      <trkpt lat="44.83865" lon="6.76233">
        <ele>2325.8000488281</ele>
        <time>2015-03-10T09:27:37.000Z</time>
      </trkpt>
      <trkpt lat="44.83865" lon="6.76233">
        <ele>2326</ele>
        <time>2015-03-10T09:27:38.000Z</time>
      </trkpt>
      <trkpt lat="44.83864" lon="6.76235">
        <ele>2326.8000488281</ele>
        <time>2015-03-10T09:27:42.000Z</time>
      </trkpt>
      <trkpt lat="44.83864" lon="6.76236">
        <ele>2327</ele>
        <time>2015-03-10T09:27:43.000Z</time>
      </trkpt>
      <trkpt lat="44.83863" lon="6.7624">
        <ele>2328.1999511719</ele>
        <time>2015-03-10T09:27:48.000Z</time>
      </trkpt>
      <trkpt lat="44.83863" lon="6.76242">
        <ele>2328.3999023438</ele>
        <time>2015-03-10T09:27:49.000Z</time>
      </trkpt>
      <trkpt lat="44.83861" lon="6.76248">
        <ele>2329.1999511719</ele>
        <time>2015-03-10T09:27:54.000Z</time>
      </trkpt>
      <trkpt lat="44.83861" lon="6.76249">
        <ele>2329.6000976562</ele>
        <time>2015-03-10T09:27:56.000Z</time>
      </trkpt>
      <trkpt lat="44.83859" lon="6.76252">
        <ele>2330.6000976562</ele>
        <time>2015-03-10T09:27:59.000Z</time>
      </trkpt>
      <trkpt lat="44.83858" lon="6.76256">
        <ele>2331.3999023438</ele>
        <time>2015-03-10T09:28:02.000Z</time>
      </trkpt>
      <trkpt lat="44.83858" lon="6.76256">
        <ele>2331.6000976562</ele>
        <time>2015-03-10T09:28:03.000Z</time>
      </trkpt>
      <trkpt lat="44.83858" lon="6.7626">
        <ele>2332.6000976562</ele>
        <time>2015-03-10T09:28:07.000Z</time>
      </trkpt>
      <trkpt lat="44.83858" lon="6.76262">
        <ele>2333.3999023438</ele>
        <time>2015-03-10T09:28:09.000Z</time>
      </trkpt>
      <trkpt lat="44.83858" lon="6.76263">
        <ele>2333.6000976562</ele>
        <time>2015-03-10T09:28:10.000Z</time>
      </trkpt>
      <trkpt lat="44.83856" lon="6.76268">
        <ele>2334.3999023438</ele>
        <time>2015-03-10T09:28:15.000Z</time>
      </trkpt>
      <trkpt lat="44.83856" lon="6.76269">
        <ele>2334.8000488281</ele>
        <time>2015-03-10T09:28:17.000Z</time>
      </trkpt>
      <trkpt lat="44.83855" lon="6.76274">
        <ele>2336</ele>
        <time>2015-03-10T09:28:21.000Z</time>
      </trkpt>
      <trkpt lat="44.83856" lon="6.76278">
        <ele>2337</ele>
        <time>2015-03-10T09:28:26.000Z</time>
      </trkpt>
      <trkpt lat="44.83856" lon="6.76281">
        <ele>2337.6000976562</ele>
        <time>2015-03-10T09:28:29.000Z</time>
      </trkpt>
      <trkpt lat="44.83855" lon="6.76282">
        <ele>2338</ele>
        <time>2015-03-10T09:28:31.000Z</time>
      </trkpt>
      <trkpt lat="44.83855" lon="6.76284">
        <ele>2339</ele>
        <time>2015-03-10T09:28:34.000Z</time>
      </trkpt>
      <trkpt lat="44.83854" lon="6.76284">
        <ele>2339.3999023438</ele>
        <time>2015-03-10T09:28:35.000Z</time>
      </trkpt>
      <trkpt lat="44.83854" lon="6.76285">
        <ele>2340.1999511719</ele>
        <time>2015-03-10T09:28:38.000Z</time>
      </trkpt>
      <trkpt lat="44.83854" lon="6.76287">
        <ele>2340.8000488281</ele>
        <time>2015-03-10T09:28:41.000Z</time>
      </trkpt>
      <trkpt lat="44.83854" lon="6.76288">
        <ele>2341.1999511719</ele>
        <time>2015-03-10T09:28:43.000Z</time>
      </trkpt>
      <trkpt lat="44.83854" lon="6.76294">
        <ele>2342.1999511719</ele>
        <time>2015-03-10T09:28:47.000Z</time>
      </trkpt>
      <trkpt lat="44.83854" lon="6.76294">
        <ele>2342.3999023438</ele>
        <time>2015-03-10T09:28:48.000Z</time>
      </trkpt>
      <trkpt lat="44.83853" lon="6.76295">
        <ele>2343.3999023438</ele>
        <time>2015-03-10T09:28:52.000Z</time>
      </trkpt>
      <trkpt lat="44.83853" lon="6.76295">
        <ele>2343.3999023438</ele>
        <time>2015-03-10T09:28:53.000Z</time>
      </trkpt>
      <trkpt lat="44.83854" lon="6.76296">
        <ele>2344.6000976562</ele>
        <time>2015-03-10T09:28:57.000Z</time>
      </trkpt>
      <trkpt lat="44.83855" lon="6.76297">
        <ele>2344.8000488281</ele>
        <time>2015-03-10T09:28:58.000Z</time>
      </trkpt>
      <trkpt lat="44.83857" lon="6.76302">
        <ele>2346</ele>
        <time>2015-03-10T09:29:03.000Z</time>
      </trkpt>
      <trkpt lat="44.83859" lon="6.76303">
        <ele>2346</ele>
        <time>2015-03-10T09:29:04.000Z</time>
      </trkpt>
      <trkpt lat="44.83861" lon="6.76304">
        <ele>2347.1999511719</ele>
        <time>2015-03-10T09:29:09.000Z</time>
      </trkpt>
      <trkpt lat="44.83864" lon="6.76306">
        <ele>2348.3999023438</ele>
        <time>2015-03-10T09:29:15.000Z</time>
      </trkpt>
      <trkpt lat="44.83865" lon="6.76307">
        <ele>2348.6000976562</ele>
        <time>2015-03-10T09:29:16.000Z</time>
      </trkpt>
      <trkpt lat="44.83867" lon="6.76309">
        <ele>2349.8000488281</ele>
        <time>2015-03-10T09:29:20.000Z</time>
      </trkpt>
      <trkpt lat="44.83869" lon="6.7631">
        <ele>2350.3999023438</ele>
        <time>2015-03-10T09:29:22.000Z</time>
      </trkpt>
      <trkpt lat="44.83871" lon="6.76312">
        <ele>2351</ele>
        <time>2015-03-10T09:29:25.000Z</time>
      </trkpt>
      <trkpt lat="44.83873" lon="6.76314">
        <ele>2352.1999511719</ele>
        <time>2015-03-10T09:29:30.000Z</time>
      </trkpt>
      <trkpt lat="44.83875" lon="6.76316">
        <ele>2353.3999023438</ele>
        <time>2015-03-10T09:29:35.000Z</time>
      </trkpt>
      <trkpt lat="44.83875" lon="6.76316">
        <ele>2353.3999023438</ele>
        <time>2015-03-10T09:29:36.000Z</time>
      </trkpt>
      <trkpt lat="44.83876" lon="6.76317">
        <ele>2354.6000976562</ele>
        <time>2015-03-10T09:29:40.000Z</time>
      </trkpt>
      <trkpt lat="44.83876" lon="6.76318">
        <ele>2355</ele>
        <time>2015-03-10T09:29:42.000Z</time>
      </trkpt>
      <trkpt lat="44.83877" lon="6.76319">
        <ele>2355.6000976562</ele>
        <time>2015-03-10T09:29:44.000Z</time>
      </trkpt>
      <trkpt lat="44.83878" lon="6.76321">
        <ele>2356</ele>
        <time>2015-03-10T09:29:47.000Z</time>
      </trkpt>
      <trkpt lat="44.8388" lon="6.76324">
        <ele>2356.8000488281</ele>
        <time>2015-03-10T09:29:51.000Z</time>
      </trkpt>
      <trkpt lat="44.83882" lon="6.76326">
        <ele>2358</ele>
        <time>2015-03-10T09:29:56.000Z</time>
      </trkpt>
      <trkpt lat="44.83884" lon="6.7633">
        <ele>2359</ele>
        <time>2015-03-10T09:30:00.000Z</time>
      </trkpt>
      <trkpt lat="44.83885" lon="6.7633">
        <ele>2359.3999023438</ele>
        <time>2015-03-10T09:30:02.000Z</time>
      </trkpt>
      <trkpt lat="44.83887" lon="6.76333">
        <ele>2360.6000976562</ele>
        <time>2015-03-10T09:30:06.000Z</time>
      </trkpt>
      <trkpt lat="44.83888" lon="6.76335">
        <ele>2361.6000976562</ele>
        <time>2015-03-10T09:30:10.000Z</time>
      </trkpt>
      <trkpt lat="44.8389" lon="6.76337">
        <ele>2362.1999511719</ele>
        <time>2015-03-10T09:30:13.000Z</time>
      </trkpt>
      <trkpt lat="44.83892" lon="6.76339">
        <ele>2362.8000488281</ele>
        <time>2015-03-10T09:30:15.000Z</time>
      </trkpt>
      <trkpt lat="44.83894" lon="6.76341">
        <ele>2363.6000976562</ele>
        <time>2015-03-10T09:30:18.000Z</time>
      </trkpt>
      <trkpt lat="44.83894" lon="6.76341">
        <ele>2364.1999511719</ele>
        <time>2015-03-10T09:30:20.000Z</time>
      </trkpt>
      <trkpt lat="44.83895" lon="6.76342">
        <ele>2364.6000976562</ele>
        <time>2015-03-10T09:30:24.000Z</time>
      </trkpt>
      <trkpt lat="44.83899" lon="6.76345">
        <ele>2365.3999023438</ele>
        <time>2015-03-10T09:30:28.000Z</time>
      </trkpt>
      <trkpt lat="44.83899" lon="6.76345">
        <ele>2365.8000488281</ele>
        <time>2015-03-10T09:30:30.000Z</time>
      </trkpt>
      <trkpt lat="44.839" lon="6.76345">
        <ele>2366.3999023438</ele>
        <time>2015-03-10T09:30:32.000Z</time>
      </trkpt>
      <trkpt lat="44.83902" lon="6.76347">
        <ele>2367.6000976562</ele>
        <time>2015-03-10T09:30:36.000Z</time>
      </trkpt>
      <trkpt lat="44.83905" lon="6.76349">
        <ele>2368.1999511719</ele>
        <time>2015-03-10T09:30:42.000Z</time>
      </trkpt>
      <trkpt lat="44.83906" lon="6.7635">
        <ele>2368.8000488281</ele>
        <time>2015-03-10T09:30:45.000Z</time>
      </trkpt>
      <trkpt lat="44.83907" lon="6.76352">
        <ele>2369.1999511719</ele>
        <time>2015-03-10T09:30:48.000Z</time>
      </trkpt>
      <trkpt lat="44.83909" lon="6.76355">
        <ele>2370</ele>
        <time>2015-03-10T09:30:52.000Z</time>
      </trkpt>
      <trkpt lat="44.8391" lon="6.76357">
        <ele>2371</ele>
        <time>2015-03-10T09:30:56.000Z</time>
      </trkpt>
      <trkpt lat="44.8391" lon="6.76358">
        <ele>2371.1999511719</ele>
        <time>2015-03-10T09:30:57.000Z</time>
      </trkpt>
      <trkpt lat="44.8391" lon="6.76358">
        <ele>2371.8000488281</ele>
        <time>2015-03-10T09:31:08.000Z</time>
      </trkpt>
      <trkpt lat="44.83911" lon="6.7636">
        <ele>2372.1999511719</ele>
        <time>2015-03-10T09:31:10.000Z</time>
      </trkpt>
      <trkpt lat="44.83911" lon="6.76364">
        <ele>2372.6000976562</ele>
        <time>2015-03-10T09:31:14.000Z</time>
      </trkpt>
      <trkpt lat="44.83912" lon="6.76368">
        <ele>2373</ele>
        <time>2015-03-10T09:31:19.000Z</time>
      </trkpt>
      <trkpt lat="44.83912" lon="6.7637">
        <ele>2373.6000976562</ele>
        <time>2015-03-10T09:31:20.000Z</time>
      </trkpt>
      <trkpt lat="44.83911" lon="6.76372">
        <ele>2374.3999023438</ele>
        <time>2015-03-10T09:31:23.000Z</time>
      </trkpt>
      <trkpt lat="44.83911" lon="6.76373">
        <ele>2374.6000976562</ele>
        <time>2015-03-10T09:31:24.000Z</time>
      </trkpt>
      <trkpt lat="44.8391" lon="6.76376">
        <ele>2375.6000976562</ele>
        <time>2015-03-10T09:31:28.000Z</time>
      </trkpt>
      <trkpt lat="44.83909" lon="6.76377">
        <ele>2376.3999023438</ele>
        <time>2015-03-10T09:31:30.000Z</time>
      </trkpt>
      <trkpt lat="44.83908" lon="6.76378">
        <ele>2376.8000488281</ele>
        <time>2015-03-10T09:31:31.000Z</time>
      </trkpt>
      <trkpt lat="44.83905" lon="6.76379">
        <ele>2377.3999023438</ele>
        <time>2015-03-10T09:31:37.000Z</time>
      </trkpt>
      <trkpt lat="44.83903" lon="6.7638">
        <ele>2378</ele>
        <time>2015-03-10T09:31:39.000Z</time>
      </trkpt>
      <trkpt lat="44.83902" lon="6.76381">
        <ele>2379</ele>
        <time>2015-03-10T09:31:42.000Z</time>
      </trkpt>
      <trkpt lat="44.83901" lon="6.76381">
        <ele>2379.1999511719</ele>
        <time>2015-03-10T09:31:43.000Z</time>
      </trkpt>
      <trkpt lat="44.83899" lon="6.76383">
        <ele>2380</ele>
        <time>2015-03-10T09:31:47.000Z</time>
      </trkpt>
      <trkpt lat="44.83898" lon="6.76383">
        <ele>2380.1999511719</ele>
        <time>2015-03-10T09:31:48.000Z</time>
      </trkpt>
      <trkpt lat="44.83895" lon="6.76385">
        <ele>2381.3999023438</ele>
        <time>2015-03-10T09:31:53.000Z</time>
      </trkpt>
      <trkpt lat="44.83894" lon="6.76384">
        <ele>2381.3999023438</ele>
        <time>2015-03-10T09:31:54.000Z</time>
      </trkpt>
      <trkpt lat="44.83891" lon="6.76387">
        <ele>2382.3999023438</ele>
        <time>2015-03-10T09:32:00.000Z</time>
      </trkpt>
      <trkpt lat="44.83889" lon="6.76388">
        <ele>2383.6000976562</ele>
        <time>2015-03-10T09:32:05.000Z</time>
      </trkpt>
      <trkpt lat="44.83888" lon="6.76389">
        <ele>2384</ele>
        <time>2015-03-10T09:32:07.000Z</time>
      </trkpt>
      <trkpt lat="44.83886" lon="6.7639">
        <ele>2384.8000488281</ele>
        <time>2015-03-10T09:32:10.000Z</time>
      </trkpt>
      <trkpt lat="44.83883" lon="6.76392">
        <ele>2385.6000976562</ele>
        <time>2015-03-10T09:32:14.000Z</time>
      </trkpt>
      <trkpt lat="44.83883" lon="6.76392">
        <ele>2385.8000488281</ele>
        <time>2015-03-10T09:32:15.000Z</time>
      </trkpt>
      <trkpt lat="44.83881" lon="6.76393">
        <ele>2386.3999023438</ele>
        <time>2015-03-10T09:32:19.000Z</time>
      </trkpt>
      <trkpt lat="44.8388" lon="6.76395">
        <ele>2386.8000488281</ele>
        <time>2015-03-10T09:32:22.000Z</time>
      </trkpt>
      <trkpt lat="44.83878" lon="6.76396">
        <ele>2387.6000976562</ele>
        <time>2015-03-10T09:32:25.000Z</time>
      </trkpt>
      <trkpt lat="44.83876" lon="6.76397">
        <ele>2388</ele>
        <time>2015-03-10T09:32:27.000Z</time>
      </trkpt>
      <trkpt lat="44.83874" lon="6.76397">
        <ele>2388.8000488281</ele>
        <time>2015-03-10T09:32:30.000Z</time>
      </trkpt>
      <trkpt lat="44.83874" lon="6.76397">
        <ele>2389.1999511719</ele>
        <time>2015-03-10T09:32:32.000Z</time>
      </trkpt>
      <trkpt lat="44.83873" lon="6.764">
        <ele>2389.8000488281</ele>
        <time>2015-03-10T09:32:36.000Z</time>
      </trkpt>
      <trkpt lat="44.83872" lon="6.76401">
        <ele>2390.3999023438</ele>
        <time>2015-03-10T09:32:39.000Z</time>
      </trkpt>
      <trkpt lat="44.8387" lon="6.76403">
        <ele>2390.8000488281</ele>
        <time>2015-03-10T09:32:42.000Z</time>
      </trkpt>
      <trkpt lat="44.83868" lon="6.76403">
        <ele>2391.6000976562</ele>
        <time>2015-03-10T09:32:45.000Z</time>
      </trkpt>
      <trkpt lat="44.83866" lon="6.76402">
        <ele>2392</ele>
        <time>2015-03-10T09:32:48.000Z</time>
      </trkpt>
      <trkpt lat="44.83865" lon="6.76401">
        <ele>2392.6000976562</ele>
        <time>2015-03-10T09:32:50.000Z</time>
      </trkpt>
      <trkpt lat="44.83863" lon="6.76401">
        <ele>2393.6000976562</ele>
        <time>2015-03-10T09:32:54.000Z</time>
      </trkpt>
      <trkpt lat="44.83859" lon="6.76403">
        <ele>2394.8000488281</ele>
        <time>2015-03-10T09:33:00.000Z</time>
      </trkpt>
      <trkpt lat="44.83856" lon="6.76404">
        <ele>2395.3999023438</ele>
        <time>2015-03-10T09:33:05.000Z</time>
      </trkpt>
      <trkpt lat="44.83855" lon="6.76404">
        <ele>2395.8000488281</ele>
        <time>2015-03-10T09:33:06.000Z</time>
      </trkpt>
      <trkpt lat="44.83855" lon="6.76404">
        <ele>2396.8000488281</ele>
        <time>2015-03-10T09:33:09.000Z</time>
      </trkpt>
      <trkpt lat="44.83853" lon="6.76404">
        <ele>2397.3999023438</ele>
        <time>2015-03-10T09:33:11.000Z</time>
      </trkpt>
      <trkpt lat="44.83853" lon="6.76405">
        <ele>2397.8000488281</ele>
        <time>2015-03-10T09:33:14.000Z</time>
      </trkpt>
      <trkpt lat="44.83853" lon="6.76405">
        <ele>2398.1999511719</ele>
        <time>2015-03-10T09:33:20.000Z</time>
      </trkpt>
      <trkpt lat="44.83853" lon="6.76406">
        <ele>2398.8000488281</ele>
        <time>2015-03-10T09:33:27.000Z</time>
      </trkpt>
      <trkpt lat="44.83853" lon="6.76407">
        <ele>2398.8000488281</ele>
        <time>2015-03-10T09:33:28.000Z</time>
      </trkpt>
      <trkpt lat="44.83853" lon="6.76407">
        <ele>2400</ele>
        <time>2015-03-10T09:33:35.000Z</time>
      </trkpt>
      <trkpt lat="44.83854" lon="6.76408">
        <ele>2400.1999511719</ele>
        <time>2015-03-10T09:33:37.000Z</time>
      </trkpt>
      <trkpt lat="44.83854" lon="6.7641">
        <ele>2400.6000976562</ele>
        <time>2015-03-10T09:33:41.000Z</time>
      </trkpt>
      <trkpt lat="44.83854" lon="6.76411">
        <ele>2401.1999511719</ele>
        <time>2015-03-10T09:33:44.000Z</time>
      </trkpt>
      <trkpt lat="44.83855" lon="6.76413">
        <ele>2401.6000976562</ele>
        <time>2015-03-10T09:33:47.000Z</time>
      </trkpt>
      <trkpt lat="44.83855" lon="6.76415">
        <ele>2402.1999511719</ele>
        <time>2015-03-10T09:33:49.000Z</time>
      </trkpt>
      <trkpt lat="44.83855" lon="6.76416">
        <ele>2402.6000976562</ele>
        <time>2015-03-10T09:33:53.000Z</time>
      </trkpt>
      <trkpt lat="44.83854" lon="6.76417">
        <ele>2403.3999023438</ele>
        <time>2015-03-10T09:34:01.000Z</time>
      </trkpt>
      <trkpt lat="44.83854" lon="6.76417">
        <ele>2403.3999023438</ele>
        <time>2015-03-10T09:34:02.000Z</time>
      </trkpt>
      <trkpt lat="44.8385" lon="6.76416">
        <ele>2402.8000488281</ele>
        <time>2015-03-10T09:34:08.000Z</time>
      </trkpt>
      <trkpt lat="44.83845" lon="6.76413">
        <ele>2403.3999023438</ele>
        <time>2015-03-10T09:34:14.000Z</time>
      </trkpt>
      <trkpt lat="44.83843" lon="6.76413">
        <ele>2403.8000488281</ele>
        <time>2015-03-10T09:34:16.000Z</time>
      </trkpt>
      <trkpt lat="44.83841" lon="6.76414">
        <ele>2404.3999023438</ele>
        <time>2015-03-10T09:34:19.000Z</time>
      </trkpt>
      <trkpt lat="44.83841" lon="6.76414">
        <ele>2404.6000976562</ele>
        <time>2015-03-10T09:34:20.000Z</time>
      </trkpt>
      <trkpt lat="44.83842" lon="6.76418">
        <ele>2405.3999023438</ele>
        <time>2015-03-10T09:34:26.000Z</time>
      </trkpt>
      <trkpt lat="44.83845" lon="6.76423">
        <ele>2406.1999511719</ele>
        <time>2015-03-10T09:34:32.000Z</time>
      </trkpt>
      <trkpt lat="44.83847" lon="6.76428">
        <ele>2407.1999511719</ele>
        <time>2015-03-10T09:34:37.000Z</time>
      </trkpt>
      <trkpt lat="44.83847" lon="6.76428">
        <ele>2407.3999023438</ele>
        <time>2015-03-10T09:34:38.000Z</time>
      </trkpt>
      <trkpt lat="44.83847" lon="6.76433">
        <ele>2408.6000976562</ele>
        <time>2015-03-10T09:34:43.000Z</time>
      </trkpt>
      <trkpt lat="44.83847" lon="6.76433">
        <ele>2408.6000976562</ele>
        <time>2015-03-10T09:34:44.000Z</time>
      </trkpt>
      <trkpt lat="44.83849" lon="6.76437">
        <ele>2409.6000976562</ele>
        <time>2015-03-10T09:34:48.000Z</time>
      </trkpt>
      <trkpt lat="44.83849" lon="6.76436">
        <ele>2410</ele>
        <time>2015-03-10T09:34:49.000Z</time>
      </trkpt>
      <trkpt lat="44.83849" lon="6.76436">
        <ele>2410.8000488281</ele>
        <time>2015-03-10T09:34:52.000Z</time>
      </trkpt>
      <trkpt lat="44.83848" lon="6.76436">
        <ele>2410.8000488281</ele>
        <time>2015-03-10T09:34:59.000Z</time>
      </trkpt>
      <trkpt lat="44.83848" lon="6.76436">
        <ele>2412</ele>
        <time>2015-03-10T09:35:02.000Z</time>
      </trkpt>
      <trkpt lat="44.83847" lon="6.76436">
        <ele>2412.6000976562</ele>
        <time>2015-03-10T09:35:07.000Z</time>
      </trkpt>
      <trkpt lat="44.83843" lon="6.76436">
        <ele>2413</ele>
        <time>2015-03-10T09:35:13.000Z</time>
      </trkpt>
      <trkpt lat="44.83841" lon="6.76437">
        <ele>2413.1999511719</ele>
        <time>2015-03-10T09:35:15.000Z</time>
      </trkpt>
      <trkpt lat="44.83838" lon="6.76438">
        <ele>2413.6000976562</ele>
        <time>2015-03-10T09:35:18.000Z</time>
      </trkpt>
      <trkpt lat="44.83836" lon="6.76441">
        <ele>2414.1999511719</ele>
        <time>2015-03-10T09:35:23.000Z</time>
      </trkpt>
      <trkpt lat="44.83836" lon="6.76443">
        <ele>2415</ele>
        <time>2015-03-10T09:35:25.000Z</time>
      </trkpt>
      <trkpt lat="44.83837" lon="6.76445">
        <ele>2415.3999023438</ele>
        <time>2015-03-10T09:35:27.000Z</time>
      </trkpt>
      <trkpt lat="44.83839" lon="6.76447">
        <ele>2416.6000976562</ele>
        <time>2015-03-10T09:35:32.000Z</time>
      </trkpt>
      <trkpt lat="44.8384" lon="6.76452">
        <ele>2417.6000976562</ele>
        <time>2015-03-10T09:35:37.000Z</time>
      </trkpt>
      <trkpt lat="44.83841" lon="6.76455">
        <ele>2418.1999511719</ele>
        <time>2015-03-10T09:35:40.000Z</time>
      </trkpt>
      <trkpt lat="44.83841" lon="6.76455">
        <ele>2418.6000976562</ele>
        <time>2015-03-10T09:35:42.000Z</time>
      </trkpt>
      <trkpt lat="44.83841" lon="6.76458">
        <ele>2419.8000488281</ele>
        <time>2015-03-10T09:35:46.000Z</time>
      </trkpt>
      <trkpt lat="44.8384" lon="6.76462">
        <ele>2421</ele>
        <time>2015-03-10T09:35:51.000Z</time>
      </trkpt>
      <trkpt lat="44.83839" lon="6.76463">
        <ele>2421</ele>
        <time>2015-03-10T09:35:52.000Z</time>
      </trkpt>
      <trkpt lat="44.83837" lon="6.76467">
        <ele>2422</ele>
        <time>2015-03-10T09:35:56.000Z</time>
      </trkpt>
      <trkpt lat="44.83837" lon="6.76468">
        <ele>2422.3999023438</ele>
        <time>2015-03-10T09:35:58.000Z</time>
      </trkpt>
      <trkpt lat="44.83836" lon="6.76471">
        <ele>2423.1999511719</ele>
        <time>2015-03-10T09:36:03.000Z</time>
      </trkpt>
      <trkpt lat="44.83836" lon="6.76472">
        <ele>2423.6000976562</ele>
        <time>2015-03-10T09:36:05.000Z</time>
      </trkpt>
      <trkpt lat="44.83838" lon="6.76474">
        <ele>2424.6000976562</ele>
        <time>2015-03-10T09:36:09.000Z</time>
      </trkpt>
      <trkpt lat="44.83839" lon="6.76475">
        <ele>2425</ele>
        <time>2015-03-10T09:36:11.000Z</time>
      </trkpt>
      <trkpt lat="44.8384" lon="6.76477">
        <ele>2425.6000976562</ele>
        <time>2015-03-10T09:36:14.000Z</time>
      </trkpt>
      <trkpt lat="44.83841" lon="6.76477">
        <ele>2426.1999511719</ele>
        <time>2015-03-10T09:36:17.000Z</time>
      </trkpt>
      <trkpt lat="44.83843" lon="6.76479">
        <ele>2426.6000976562</ele>
        <time>2015-03-10T09:36:19.000Z</time>
      </trkpt>
      <trkpt lat="44.83844" lon="6.7648">
        <ele>2427.3999023438</ele>
        <time>2015-03-10T09:36:23.000Z</time>
      </trkpt>
      <trkpt lat="44.83844" lon="6.7648">
        <ele>2427.6000976562</ele>
        <time>2015-03-10T09:36:24.000Z</time>
      </trkpt>
      <trkpt lat="44.83842" lon="6.76485">
        <ele>2428.8000488281</ele>
        <time>2015-03-10T09:36:29.000Z</time>
      </trkpt>
      <trkpt lat="44.8384" lon="6.76488">
        <ele>2430</ele>
        <time>2015-03-10T09:36:33.000Z</time>
      </trkpt>
      <trkpt lat="44.83839" lon="6.76491">
        <ele>2430.8000488281</ele>
        <time>2015-03-10T09:36:38.000Z</time>
      </trkpt>
      <trkpt lat="44.83839" lon="6.76492">
        <ele>2431.1999511719</ele>
        <time>2015-03-10T09:36:40.000Z</time>
      </trkpt>
      <trkpt lat="44.83836" lon="6.76496">
        <ele>2431.8000488281</ele>
        <time>2015-03-10T09:36:44.000Z</time>
      </trkpt>
      <trkpt lat="44.83835" lon="6.76497">
        <ele>2432.1999511719</ele>
        <time>2015-03-10T09:36:45.000Z</time>
      </trkpt>
      <trkpt lat="44.83834" lon="6.76499">
        <ele>2433</ele>
        <time>2015-03-10T09:36:50.000Z</time>
      </trkpt>
      <trkpt lat="44.83833" lon="6.765">
        <ele>2433.1999511719</ele>
        <time>2015-03-10T09:36:51.000Z</time>
      </trkpt>
      <trkpt lat="44.83834" lon="6.76504">
        <ele>2434.1999511719</ele>
        <time>2015-03-10T09:36:56.000Z</time>
      </trkpt>
      <trkpt lat="44.83835" lon="6.76505">
        <ele>2435.3999023438</ele>
        <time>2015-03-10T09:37:01.000Z</time>
      </trkpt>
      <trkpt lat="44.83835" lon="6.76507">
        <ele>2435.6000976562</ele>
        <time>2015-03-10T09:37:03.000Z</time>
      </trkpt>
      <trkpt lat="44.83838" lon="6.76509">
        <ele>2436.6000976562</ele>
        <time>2015-03-10T09:37:09.000Z</time>
      </trkpt>
      <trkpt lat="44.83841" lon="6.76511">
        <ele>2437.6000976562</ele>
        <time>2015-03-10T09:37:13.000Z</time>
      </trkpt>
      <trkpt lat="44.83841" lon="6.76512">
        <ele>2438</ele>
        <time>2015-03-10T09:37:15.000Z</time>
      </trkpt>
      <trkpt lat="44.83841" lon="6.76513">
        <ele>2438.8000488281</ele>
        <time>2015-03-10T09:37:19.000Z</time>
      </trkpt>
      <trkpt lat="44.83841" lon="6.76516">
        <ele>2439.6000976562</ele>
        <time>2015-03-10T09:37:21.000Z</time>
      </trkpt>
      <trkpt lat="44.83841" lon="6.76518">
        <ele>2440</ele>
        <time>2015-03-10T09:37:22.000Z</time>
      </trkpt>
      <trkpt lat="44.83841" lon="6.76521">
        <ele>2440.8000488281</ele>
        <time>2015-03-10T09:37:26.000Z</time>
      </trkpt>
      <trkpt lat="44.83841" lon="6.76522">
        <ele>2441</ele>
        <time>2015-03-10T09:37:27.000Z</time>
      </trkpt>
      <trkpt lat="44.83841" lon="6.76524">
        <ele>2442</ele>
        <time>2015-03-10T09:37:32.000Z</time>
      </trkpt>
      <trkpt lat="44.83839" lon="6.7653">
        <ele>2443.1999511719</ele>
        <time>2015-03-10T09:37:38.000Z</time>
      </trkpt>
      <trkpt lat="44.83839" lon="6.76531">
        <ele>2443.3999023438</ele>
        <time>2015-03-10T09:37:39.000Z</time>
      </trkpt>
      <trkpt lat="44.83838" lon="6.76536">
        <ele>2444.3999023438</ele>
        <time>2015-03-10T09:37:44.000Z</time>
      </trkpt>
      <trkpt lat="44.83838" lon="6.76538">
        <ele>2445</ele>
        <time>2015-03-10T09:37:45.000Z</time>
      </trkpt>
      <trkpt lat="44.83838" lon="6.7654">
        <ele>2445.6000976562</ele>
        <time>2015-03-10T09:37:50.000Z</time>
      </trkpt>
      <trkpt lat="44.83838" lon="6.76541">
        <ele>2445.8000488281</ele>
        <time>2015-03-10T09:37:51.000Z</time>
      </trkpt>
      <trkpt lat="44.83837" lon="6.76542">
        <ele>2446.8000488281</ele>
        <time>2015-03-10T09:37:55.000Z</time>
      </trkpt>
      <trkpt lat="44.83837" lon="6.76542">
        <ele>2447</ele>
        <time>2015-03-10T09:37:59.000Z</time>
      </trkpt>
      <trkpt lat="44.83837" lon="6.76542">
        <ele>2447.1999511719</ele>
        <time>2015-03-10T09:38:09.000Z</time>
      </trkpt>
      <trkpt lat="44.83837" lon="6.76542">
        <ele>2447.1999511719</ele>
        <time>2015-03-10T09:38:24.000Z</time>
      </trkpt>
      <trkpt lat="44.83837" lon="6.76542">
        <ele>2447.1999511719</ele>
        <time>2015-03-10T09:38:40.000Z</time>
      </trkpt>
      <trkpt lat="44.83837" lon="6.76542">
        <ele>2447.1999511719</ele>
        <time>2015-03-10T09:39:00.000Z</time>
      </trkpt>
      <trkpt lat="44.83837" lon="6.76542">
        <ele>2447</ele>
        <time>2015-03-10T09:39:12.000Z</time>
      </trkpt>
      <trkpt lat="44.83837" lon="6.76543">
        <ele>2447.1999511719</ele>
        <time>2015-03-10T09:39:27.000Z</time>
      </trkpt>
      <trkpt lat="44.83837" lon="6.76543">
        <ele>2447.1999511719</ele>
        <time>2015-03-10T09:39:41.000Z</time>
      </trkpt>
      <trkpt lat="44.83837" lon="6.76543">
        <ele>2447.8000488281</ele>
        <time>2015-03-10T09:39:55.000Z</time>
      </trkpt>
      <trkpt lat="44.83836" lon="6.76543">
        <ele>2447.3999023438</ele>
        <time>2015-03-10T09:40:08.000Z</time>
      </trkpt>
      <trkpt lat="44.83836" lon="6.76543">
        <ele>2447.6000976562</ele>
        <time>2015-03-10T09:40:20.000Z</time>
      </trkpt>
      <trkpt lat="44.83836" lon="6.76543">
        <ele>2447.6000976562</ele>
        <time>2015-03-10T09:40:37.000Z</time>
      </trkpt>
      <trkpt lat="44.83836" lon="6.76544">
        <ele>2447.6000976562</ele>
        <time>2015-03-10T09:40:51.000Z</time>
      </trkpt>
      <trkpt lat="44.83836" lon="6.76544">
        <ele>2447.6000976562</ele>
        <time>2015-03-10T09:41:01.000Z</time>
      </trkpt>
      <trkpt lat="44.83836" lon="6.76544">
        <ele>2448</ele>
        <time>2015-03-10T09:41:03.000Z</time>
      </trkpt>
      <trkpt lat="44.83836" lon="6.76544">
        <ele>2448.1999511719</ele>
        <time>2015-03-10T09:41:14.000Z</time>
      </trkpt>
      <trkpt lat="44.83836" lon="6.76544">
        <ele>2448.3999023438</ele>
        <time>2015-03-10T09:41:30.000Z</time>
      </trkpt>
      <trkpt lat="44.83836" lon="6.76544">
        <ele>2448.1999511719</ele>
        <time>2015-03-10T09:41:49.000Z</time>
      </trkpt>
      <trkpt lat="44.83836" lon="6.76544">
        <ele>2448.1999511719</ele>
        <time>2015-03-10T09:42:03.000Z</time>
      </trkpt>
      <trkpt lat="44.83836" lon="6.76544">
        <ele>2448.1999511719</ele>
        <time>2015-03-10T09:42:18.000Z</time>
      </trkpt>
      <trkpt lat="44.83836" lon="6.76544">
        <ele>2448</ele>
        <time>2015-03-10T09:42:33.000Z</time>
      </trkpt>
      <trkpt lat="44.83837" lon="6.76545">
        <ele>2448</ele>
        <time>2015-03-10T09:42:57.000Z</time>
      </trkpt>
      <trkpt lat="44.83837" lon="6.76545">
        <ele>2448</ele>
        <time>2015-03-10T09:43:10.000Z</time>
      </trkpt>
      <trkpt lat="44.83837" lon="6.76545">
        <ele>2448</ele>
        <time>2015-03-10T09:43:31.000Z</time>
      </trkpt>
      <trkpt lat="44.83837" lon="6.76545">
        <ele>2447.8000488281</ele>
        <time>2015-03-10T09:43:46.000Z</time>
      </trkpt>
      <trkpt lat="44.83837" lon="6.76545">
        <ele>2448.3999023438</ele>
        <time>2015-03-10T09:44:00.000Z</time>
      </trkpt>
      <trkpt lat="44.83837" lon="6.76546">
        <ele>2448</ele>
        <time>2015-03-10T09:44:18.000Z</time>
      </trkpt>
      <trkpt lat="44.83837" lon="6.76546">
        <ele>2448</ele>
        <time>2015-03-10T09:44:28.000Z</time>
      </trkpt>
      <trkpt lat="44.83837" lon="6.76546">
        <ele>2448.1999511719</ele>
        <time>2015-03-10T09:44:47.000Z</time>
      </trkpt>
      <trkpt lat="44.83837" lon="6.76547">
        <ele>2448</ele>
        <time>2015-03-10T09:44:57.000Z</time>
      </trkpt>
      <trkpt lat="44.83837" lon="6.76547">
        <ele>2448.3999023438</ele>
        <time>2015-03-10T09:45:11.000Z</time>
      </trkpt>
      <trkpt lat="44.83837" lon="6.76547">
        <ele>2448.3999023438</ele>
        <time>2015-03-10T09:45:26.000Z</time>
      </trkpt>
      <trkpt lat="44.83837" lon="6.76547">
        <ele>2448.3999023438</ele>
        <time>2015-03-10T09:45:48.000Z</time>
      </trkpt>
      <trkpt lat="44.83837" lon="6.76547">
        <ele>2448.3999023438</ele>
        <time>2015-03-10T09:46:01.000Z</time>
      </trkpt>
      <trkpt lat="44.83836" lon="6.76547">
        <ele>2448.3999023438</ele>
        <time>2015-03-10T09:46:13.000Z</time>
      </trkpt>
      <trkpt lat="44.83836" lon="6.76547">
        <ele>2449</ele>
        <time>2015-03-10T09:46:27.000Z</time>
      </trkpt>
      <trkpt lat="44.83836" lon="6.76547">
        <ele>2448.8000488281</ele>
        <time>2015-03-10T09:46:45.000Z</time>
      </trkpt>
      <trkpt lat="44.83836" lon="6.76547">
        <ele>2449.1999511719</ele>
        <time>2015-03-10T09:46:52.000Z</time>
      </trkpt>
      <trkpt lat="44.83837" lon="6.76548">
        <ele>2450</ele>
        <time>2015-03-10T09:46:56.000Z</time>
      </trkpt>
      <trkpt lat="44.83837" lon="6.76548">
        <ele>2450.6000976562</ele>
        <time>2015-03-10T09:46:59.000Z</time>
      </trkpt>
      <trkpt lat="44.83837" lon="6.76548">
        <ele>2451</ele>
        <time>2015-03-10T09:47:02.000Z</time>
      </trkpt>
      <trkpt lat="44.83837" lon="6.76548">
        <ele>2451.1999511719</ele>
        <time>2015-03-10T09:47:04.000Z</time>
      </trkpt>
      <trkpt lat="44.83837" lon="6.76548">
        <ele>2451.6000976562</ele>
        <time>2015-03-10T09:47:09.000Z</time>
      </trkpt>
      <trkpt lat="44.83837" lon="6.76548">
        <ele>2452.1999511719</ele>
        <time>2015-03-10T09:47:13.000Z</time>
      </trkpt>
      <trkpt lat="44.83837" lon="6.76548">
        <ele>2452.3999023438</ele>
        <time>2015-03-10T09:47:15.000Z</time>
      </trkpt>
      <trkpt lat="44.83836" lon="6.76551">
        <ele>2453.1999511719</ele>
        <time>2015-03-10T09:47:21.000Z</time>
      </trkpt>
      <trkpt lat="44.83833" lon="6.76565">
        <ele>2453.6000976562</ele>
        <time>2015-03-10T09:47:24.000Z</time>
      </trkpt>
      <trkpt lat="44.83829" lon="6.76578">
        <ele>2454.3999023438</ele>
        <time>2015-03-10T09:47:30.000Z</time>
      </trkpt>
      <trkpt lat="44.83829" lon="6.76579">
        <ele>2454.8000488281</ele>
        <time>2015-03-10T09:47:32.000Z</time>
      </trkpt>
      <trkpt lat="44.83828" lon="6.76582">
        <ele>2455.3999023438</ele>
        <time>2015-03-10T09:47:35.000Z</time>
      </trkpt>
      <trkpt lat="44.83827" lon="6.76587">
        <ele>2456.6000976562</ele>
        <time>2015-03-10T09:47:40.000Z</time>
      </trkpt>
      <trkpt lat="44.83826" lon="6.76591">
        <ele>2457.8000488281</ele>
        <time>2015-03-10T09:47:45.000Z</time>
      </trkpt>
      <trkpt lat="44.83826" lon="6.76591">
        <ele>2458.1999511719</ele>
        <time>2015-03-10T09:47:48.000Z</time>
      </trkpt>
      <trkpt lat="44.83823" lon="6.76597">
        <ele>2458.8000488281</ele>
        <time>2015-03-10T09:47:53.000Z</time>
      </trkpt>
      <trkpt lat="44.83822" lon="6.76599">
        <ele>2459</ele>
        <time>2015-03-10T09:47:54.000Z</time>
      </trkpt>
      <trkpt lat="44.8382" lon="6.76603">
        <ele>2459.8000488281</ele>
        <time>2015-03-10T09:47:59.000Z</time>
      </trkpt>
      <trkpt lat="44.8382" lon="6.76605">
        <ele>2460.1999511719</ele>
        <time>2015-03-10T09:48:01.000Z</time>
      </trkpt>
      <trkpt lat="44.83819" lon="6.76607">
        <ele>2461</ele>
        <time>2015-03-10T09:48:05.000Z</time>
      </trkpt>
      <trkpt lat="44.83818" lon="6.76608">
        <ele>2461.6000976562</ele>
        <time>2015-03-10T09:48:08.000Z</time>
      </trkpt>
      <trkpt lat="44.83816" lon="6.76609">
        <ele>2462.1999511719</ele>
        <time>2015-03-10T09:48:10.000Z</time>
      </trkpt>
      <trkpt lat="44.83815" lon="6.76612">
        <ele>2463</ele>
        <time>2015-03-10T09:48:14.000Z</time>
      </trkpt>
      <trkpt lat="44.83815" lon="6.76613">
        <ele>2463.3999023438</ele>
        <time>2015-03-10T09:48:16.000Z</time>
      </trkpt>
      <trkpt lat="44.83814" lon="6.76616">
        <ele>2464.3999023438</ele>
        <time>2015-03-10T09:48:20.000Z</time>
      </trkpt>
      <trkpt lat="44.83812" lon="6.76619">
        <ele>2465.6000976562</ele>
        <time>2015-03-10T09:48:27.000Z</time>
      </trkpt>
      <trkpt lat="44.8381" lon="6.76623">
        <ele>2467</ele>
        <time>2015-03-10T09:48:33.000Z</time>
      </trkpt>
      <trkpt lat="44.83809" lon="6.76624">
        <ele>2467.3999023438</ele>
        <time>2015-03-10T09:48:35.000Z</time>
      </trkpt>
      <trkpt lat="44.83808" lon="6.76627">
        <ele>2468</ele>
        <time>2015-03-10T09:48:38.000Z</time>
      </trkpt>
      <trkpt lat="44.83806" lon="6.7663">
        <ele>2468.3999023438</ele>
        <time>2015-03-10T09:48:41.000Z</time>
      </trkpt>
      <trkpt lat="44.83806" lon="6.76631">
        <ele>2469.1999511719</ele>
        <time>2015-03-10T09:48:46.000Z</time>
      </trkpt>
      <trkpt lat="44.83806" lon="6.76632">
        <ele>2469.3999023438</ele>
        <time>2015-03-10T09:48:47.000Z</time>
      </trkpt>
      <trkpt lat="44.83806" lon="6.76634">
        <ele>2470.1999511719</ele>
        <time>2015-03-10T09:48:53.000Z</time>
      </trkpt>
      <trkpt lat="44.83807" lon="6.76634">
        <ele>2470.1999511719</ele>
        <time>2015-03-10T09:48:54.000Z</time>
      </trkpt>
      <trkpt lat="44.83807" lon="6.76635">
        <ele>2471.1999511719</ele>
        <time>2015-03-10T09:48:57.000Z</time>
      </trkpt>
      <trkpt lat="44.83807" lon="6.76635">
        <ele>2472</ele>
        <time>2015-03-10T09:49:02.000Z</time>
      </trkpt>
      <trkpt lat="44.83807" lon="6.76637">
        <ele>2472.1999511719</ele>
        <time>2015-03-10T09:49:04.000Z</time>
      </trkpt>
      <trkpt lat="44.83808" lon="6.7664">
        <ele>2473.3999023438</ele>
        <time>2015-03-10T09:49:08.000Z</time>
      </trkpt>
      <trkpt lat="44.83811" lon="6.76644">
        <ele>2474.3999023438</ele>
        <time>2015-03-10T09:49:13.000Z</time>
      </trkpt>
      <trkpt lat="44.83812" lon="6.76646">
        <ele>2474.6000976562</ele>
        <time>2015-03-10T09:49:15.000Z</time>
      </trkpt>
      <trkpt lat="44.83814" lon="6.76649">
        <ele>2475.6000976562</ele>
        <time>2015-03-10T09:49:19.000Z</time>
      </trkpt>
      <trkpt lat="44.83815" lon="6.7665">
        <ele>2475.6000976562</ele>
        <time>2015-03-10T09:49:20.000Z</time>
      </trkpt>
      <trkpt lat="44.83815" lon="6.76651">
        <ele>2476.6000976562</ele>
        <time>2015-03-10T09:49:23.000Z</time>
      </trkpt>
      <trkpt lat="44.83816" lon="6.76652">
        <ele>2477.1999511719</ele>
        <time>2015-03-10T09:49:26.000Z</time>
      </trkpt>
      <trkpt lat="44.83818" lon="6.76653">
        <ele>2477.6000976562</ele>
        <time>2015-03-10T09:49:28.000Z</time>
      </trkpt>
      <trkpt lat="44.83819" lon="6.76654">
        <ele>2478.1999511719</ele>
        <time>2015-03-10T09:49:32.000Z</time>
      </trkpt>
      <trkpt lat="44.83819" lon="6.76655">
        <ele>2478.8000488281</ele>
        <time>2015-03-10T09:49:36.000Z</time>
      </trkpt>
      <trkpt lat="44.8382" lon="6.76655">
        <ele>2478.8000488281</ele>
        <time>2015-03-10T09:49:37.000Z</time>
      </trkpt>
      <trkpt lat="44.8382" lon="6.7666">
        <ele>2479.8000488281</ele>
        <time>2015-03-10T09:49:41.000Z</time>
      </trkpt>
      <trkpt lat="44.83819" lon="6.76663">
        <ele>2481</ele>
        <time>2015-03-10T09:49:46.000Z</time>
      </trkpt>
      <trkpt lat="44.83819" lon="6.76667">
        <ele>2482.1999511719</ele>
        <time>2015-03-10T09:49:52.000Z</time>
      </trkpt>
      <trkpt lat="44.83817" lon="6.76672">
        <ele>2483.1999511719</ele>
        <time>2015-03-10T09:49:57.000Z</time>
      </trkpt>
      <trkpt lat="44.83816" lon="6.76674">
        <ele>2483.6000976562</ele>
        <time>2015-03-10T09:50:00.000Z</time>
      </trkpt>
      <trkpt lat="44.83816" lon="6.76676">
        <ele>2484.1999511719</ele>
        <time>2015-03-10T09:50:04.000Z</time>
      </trkpt>
      <trkpt lat="44.83816" lon="6.76678">
        <ele>2484.8000488281</ele>
        <time>2015-03-10T09:50:07.000Z</time>
      </trkpt>
      <trkpt lat="44.83818" lon="6.76678">
        <ele>2485.3999023438</ele>
        <time>2015-03-10T09:50:11.000Z</time>
      </trkpt>
      <trkpt lat="44.83819" lon="6.76679">
        <ele>2486</ele>
        <time>2015-03-10T09:50:13.000Z</time>
      </trkpt>
      <trkpt lat="44.83821" lon="6.7668">
        <ele>2486.3999023438</ele>
        <time>2015-03-10T09:50:16.000Z</time>
      </trkpt>
      <trkpt lat="44.83824" lon="6.76681">
        <ele>2487.1999511719</ele>
        <time>2015-03-10T09:50:20.000Z</time>
      </trkpt>
      <trkpt lat="44.83824" lon="6.76682">
        <ele>2487.6000976562</ele>
        <time>2015-03-10T09:50:22.000Z</time>
      </trkpt>
      <trkpt lat="44.83827" lon="6.76682">
        <ele>2488</ele>
        <time>2015-03-10T09:50:26.000Z</time>
      </trkpt>
      <trkpt lat="44.83828" lon="6.76682">
        <ele>2488.6000976562</ele>
        <time>2015-03-10T09:50:30.000Z</time>
      </trkpt>
      <trkpt lat="44.83828" lon="6.76682">
        <ele>2489.6000976562</ele>
        <time>2015-03-10T09:50:34.000Z</time>
      </trkpt>
      <trkpt lat="44.83828" lon="6.76682">
        <ele>2489.8000488281</ele>
        <time>2015-03-10T09:50:35.000Z</time>
      </trkpt>
      <trkpt lat="44.83827" lon="6.76687">
        <ele>2490.6000976562</ele>
        <time>2015-03-10T09:50:41.000Z</time>
      </trkpt>
      <trkpt lat="44.83827" lon="6.76688">
        <ele>2490.8000488281</ele>
        <time>2015-03-10T09:50:42.000Z</time>
      </trkpt>
      <trkpt lat="44.83824" lon="6.76694">
        <ele>2491.3999023438</ele>
        <time>2015-03-10T09:50:48.000Z</time>
      </trkpt>
      <trkpt lat="44.83824" lon="6.76696">
        <ele>2491.8000488281</ele>
        <time>2015-03-10T09:50:51.000Z</time>
      </trkpt>
      <trkpt lat="44.83821" lon="6.76699">
        <ele>2492.8000488281</ele>
        <time>2015-03-10T09:50:55.000Z</time>
      </trkpt>
      <trkpt lat="44.8382" lon="6.767">
        <ele>2493</ele>
        <time>2015-03-10T09:50:56.000Z</time>
      </trkpt>
      <trkpt lat="44.83817" lon="6.76701">
        <ele>2494.1999511719</ele>
        <time>2015-03-10T09:51:01.000Z</time>
      </trkpt>
      <trkpt lat="44.83815" lon="6.76704">
        <ele>2495.3999023438</ele>
        <time>2015-03-10T09:51:05.000Z</time>
      </trkpt>
      <trkpt lat="44.83814" lon="6.76706">
        <ele>2495.6000976562</ele>
        <time>2015-03-10T09:51:08.000Z</time>
      </trkpt>
      <trkpt lat="44.83812" lon="6.76708">
        <ele>2496.3999023438</ele>
        <time>2015-03-10T09:51:14.000Z</time>
      </trkpt>
      <trkpt lat="44.83812" lon="6.76709">
        <ele>2496.8000488281</ele>
        <time>2015-03-10T09:51:15.000Z</time>
      </trkpt>
      <trkpt lat="44.83811" lon="6.7671">
        <ele>2497.6000976562</ele>
        <time>2015-03-10T09:51:18.000Z</time>
      </trkpt>
      <trkpt lat="44.83809" lon="6.76713">
        <ele>2498.3999023438</ele>
        <time>2015-03-10T09:51:22.000Z</time>
      </trkpt>
      <trkpt lat="44.83809" lon="6.76715">
        <ele>2498.6000976562</ele>
        <time>2015-03-10T09:51:24.000Z</time>
      </trkpt>
      <trkpt lat="44.83808" lon="6.76718">
        <ele>2499.6000976562</ele>
        <time>2015-03-10T09:51:29.000Z</time>
      </trkpt>
      <trkpt lat="44.83808" lon="6.76718">
        <ele>2499.8000488281</ele>
        <time>2015-03-10T09:51:30.000Z</time>
      </trkpt>
      <trkpt lat="44.83812" lon="6.76716">
        <ele>2499.8000488281</ele>
        <time>2015-03-10T09:51:38.000Z</time>
      </trkpt>
      <trkpt lat="44.83819" lon="6.76717">
        <ele>2501.1999511719</ele>
        <time>2015-03-10T09:51:45.000Z</time>
      </trkpt>
      <trkpt lat="44.8382" lon="6.76718">
        <ele>2502.3999023438</ele>
        <time>2015-03-10T09:51:50.000Z</time>
      </trkpt>
      <trkpt lat="44.83822" lon="6.76719">
        <ele>2502.8000488281</ele>
        <time>2015-03-10T09:51:53.000Z</time>
      </trkpt>
      <trkpt lat="44.83823" lon="6.7672">
        <ele>2503.3999023438</ele>
        <time>2015-03-10T09:51:57.000Z</time>
      </trkpt>
      <trkpt lat="44.83824" lon="6.76722">
        <ele>2503.8000488281</ele>
        <time>2015-03-10T09:51:59.000Z</time>
      </trkpt>
      <trkpt lat="44.83826" lon="6.76724">
        <ele>2504.6000976562</ele>
        <time>2015-03-10T09:52:03.000Z</time>
      </trkpt>
      <trkpt lat="44.83826" lon="6.76724">
        <ele>2504.6000976562</ele>
        <time>2015-03-10T09:52:04.000Z</time>
      </trkpt>
      <trkpt lat="44.83827" lon="6.76725">
        <ele>2505.6000976562</ele>
        <time>2015-03-10T09:52:07.000Z</time>
      </trkpt>
      <trkpt lat="44.83829" lon="6.76726">
        <ele>2506</ele>
        <time>2015-03-10T09:52:10.000Z</time>
      </trkpt>
      <trkpt lat="44.8383" lon="6.76727">
        <ele>2506.6000976562</ele>
        <time>2015-03-10T09:52:16.000Z</time>
      </trkpt>
      <trkpt lat="44.83831" lon="6.76728">
        <ele>2506.8000488281</ele>
        <time>2015-03-10T09:52:17.000Z</time>
      </trkpt>
      <trkpt lat="44.83835" lon="6.76731">
        <ele>2507.6000976562</ele>
        <time>2015-03-10T09:52:24.000Z</time>
      </trkpt>
      <trkpt lat="44.83835" lon="6.76731">
        <ele>2508</ele>
        <time>2015-03-10T09:52:25.000Z</time>
      </trkpt>
      <trkpt lat="44.83837" lon="6.76731">
        <ele>2508.8000488281</ele>
        <time>2015-03-10T09:52:28.000Z</time>
      </trkpt>
      <trkpt lat="44.83838" lon="6.76732">
        <ele>2509.3999023438</ele>
        <time>2015-03-10T09:52:31.000Z</time>
      </trkpt>
      <trkpt lat="44.83838" lon="6.76732">
        <ele>2509.8000488281</ele>
        <time>2015-03-10T09:52:34.000Z</time>
      </trkpt>
      <trkpt lat="44.8384" lon="6.76732">
        <ele>2510</ele>
        <time>2015-03-10T09:52:39.000Z</time>
      </trkpt>
      <trkpt lat="44.8384" lon="6.76732">
        <ele>2510.8000488281</ele>
        <time>2015-03-10T09:52:45.000Z</time>
      </trkpt>
      <trkpt lat="44.83841" lon="6.76732">
        <ele>2511.1999511719</ele>
        <time>2015-03-10T09:52:49.000Z</time>
      </trkpt>
      <trkpt lat="44.83841" lon="6.76731">
        <ele>2511.1999511719</ele>
        <time>2015-03-10T09:52:56.000Z</time>
      </trkpt>
      <trkpt lat="44.83841" lon="6.76731">
        <ele>2511.3999023438</ele>
        <time>2015-03-10T09:53:09.000Z</time>
      </trkpt>
      <trkpt lat="44.83841" lon="6.76731">
        <ele>2511.8000488281</ele>
        <time>2015-03-10T09:53:23.000Z</time>
      </trkpt>
      <trkpt lat="44.83842" lon="6.76731">
        <ele>2511.3999023438</ele>
        <time>2015-03-10T09:53:35.000Z</time>
      </trkpt>
      <trkpt lat="44.83842" lon="6.76731">
        <ele>2511.8000488281</ele>
        <time>2015-03-10T09:53:44.000Z</time>
      </trkpt>
      <trkpt lat="44.83843" lon="6.76732">
        <ele>2511.6000976562</ele>
        <time>2015-03-10T09:53:53.000Z</time>
      </trkpt>
      <trkpt lat="44.83843" lon="6.76732">
        <ele>2511.8000488281</ele>
        <time>2015-03-10T09:54:06.000Z</time>
      </trkpt>
      <trkpt lat="44.83843" lon="6.76732">
        <ele>2511.8000488281</ele>
        <time>2015-03-10T09:54:07.000Z</time>
      </trkpt>
      <trkpt lat="44.83843" lon="6.76732">
        <ele>2512</ele>
        <time>2015-03-10T09:54:15.000Z</time>
      </trkpt>
      <trkpt lat="44.83843" lon="6.76737">
        <ele>2512.8000488281</ele>
        <time>2015-03-10T09:54:20.000Z</time>
      </trkpt>
      <trkpt lat="44.83843" lon="6.76738">
        <ele>2513</ele>
        <time>2015-03-10T09:54:21.000Z</time>
      </trkpt>
      <trkpt lat="44.83839" lon="6.76742">
        <ele>2514</ele>
        <time>2015-03-10T09:54:26.000Z</time>
      </trkpt>
      <trkpt lat="44.83838" lon="6.76742">
        <ele>2514.1999511719</ele>
        <time>2015-03-10T09:54:27.000Z</time>
      </trkpt>
      <trkpt lat="44.83834" lon="6.76746">
        <ele>2515.3999023438</ele>
        <time>2015-03-10T09:54:32.000Z</time>
      </trkpt>
      <trkpt lat="44.8383" lon="6.76747">
        <ele>2516.6000976562</ele>
        <time>2015-03-10T09:54:36.000Z</time>
      </trkpt>
      <trkpt lat="44.83827" lon="6.76747">
        <ele>2517</ele>
        <time>2015-03-10T09:54:39.000Z</time>
      </trkpt>
      <trkpt lat="44.83825" lon="6.76749">
        <ele>2517.6000976562</ele>
        <time>2015-03-10T09:54:42.000Z</time>
      </trkpt>
      <trkpt lat="44.83824" lon="6.76751">
        <ele>2518.3999023438</ele>
        <time>2015-03-10T09:54:45.000Z</time>
      </trkpt>
      <trkpt lat="44.83823" lon="6.76754">
        <ele>2518.8000488281</ele>
        <time>2015-03-10T09:54:48.000Z</time>
      </trkpt>
      <trkpt lat="44.83823" lon="6.76757">
        <ele>2519.3999023438</ele>
        <time>2015-03-10T09:54:51.000Z</time>
      </trkpt>
      <trkpt lat="44.83823" lon="6.7676">
        <ele>2519.8000488281</ele>
        <time>2015-03-10T09:54:54.000Z</time>
      </trkpt>
      <trkpt lat="44.83823" lon="6.76763">
        <ele>2521</ele>
        <time>2015-03-10T09:54:58.000Z</time>
      </trkpt>
      <trkpt lat="44.83823" lon="6.76765">
        <ele>2521.1999511719</ele>
        <time>2015-03-10T09:54:59.000Z</time>
      </trkpt>
      <trkpt lat="44.83822" lon="6.76769">
        <ele>2522.1999511719</ele>
        <time>2015-03-10T09:55:05.000Z</time>
      </trkpt>
      <trkpt lat="44.83822" lon="6.7677">
        <ele>2523.3999023438</ele>
        <time>2015-03-10T09:55:09.000Z</time>
      </trkpt>
      <trkpt lat="44.83822" lon="6.7677">
        <ele>2524</ele>
        <time>2015-03-10T09:55:11.000Z</time>
      </trkpt>
      <trkpt lat="44.83821" lon="6.76771">
        <ele>2524.6000976562</ele>
        <time>2015-03-10T09:55:14.000Z</time>
      </trkpt>
      <trkpt lat="44.8382" lon="6.76775">
        <ele>2525.3999023438</ele>
        <time>2015-03-10T09:55:19.000Z</time>
      </trkpt>
      <trkpt lat="44.83819" lon="6.76776">
        <ele>2525.8000488281</ele>
        <time>2015-03-10T09:55:20.000Z</time>
      </trkpt>
      <trkpt lat="44.83818" lon="6.76781">
        <ele>2527</ele>
        <time>2015-03-10T09:55:24.000Z</time>
      </trkpt>
      <trkpt lat="44.83817" lon="6.76783">
        <ele>2527.1999511719</ele>
        <time>2015-03-10T09:55:26.000Z</time>
      </trkpt>
      <trkpt lat="44.83816" lon="6.76786">
        <ele>2528</ele>
        <time>2015-03-10T09:55:30.000Z</time>
      </trkpt>
      <trkpt lat="44.83817" lon="6.76787">
        <ele>2528.3999023438</ele>
        <time>2015-03-10T09:55:33.000Z</time>
      </trkpt>
      <trkpt lat="44.83818" lon="6.76786">
        <ele>2528.6000976562</ele>
        <time>2015-03-10T09:55:39.000Z</time>
      </trkpt>
      <trkpt lat="44.8382" lon="6.76784">
        <ele>2529</ele>
        <time>2015-03-10T09:55:41.000Z</time>
      </trkpt>
      <trkpt lat="44.83826" lon="6.76783">
        <ele>2530.1999511719</ele>
        <time>2015-03-10T09:55:46.000Z</time>
      </trkpt>
      <trkpt lat="44.83833" lon="6.7678">
        <ele>2531.6000976562</ele>
        <time>2015-03-10T09:55:52.000Z</time>
      </trkpt>
      <trkpt lat="44.83836" lon="6.7678">
        <ele>2532</ele>
        <time>2015-03-10T09:55:54.000Z</time>
      </trkpt>
      <trkpt lat="44.83841" lon="6.76781">
        <ele>2532.6000976562</ele>
        <time>2015-03-10T09:55:59.000Z</time>
      </trkpt>
      <trkpt lat="44.83842" lon="6.76782">
        <ele>2533</ele>
        <time>2015-03-10T09:56:01.000Z</time>
      </trkpt>
      <trkpt lat="44.83843" lon="6.76785">
        <ele>2533.8000488281</ele>
        <time>2015-03-10T09:56:06.000Z</time>
      </trkpt>
      <trkpt lat="44.83843" lon="6.76785">
        <ele>2534.1999511719</ele>
        <time>2015-03-10T09:56:07.000Z</time>
      </trkpt>
      <trkpt lat="44.83843" lon="6.76786">
        <ele>2535</ele>
        <time>2015-03-10T09:56:11.000Z</time>
      </trkpt>
      <trkpt lat="44.83844" lon="6.76788">
        <ele>2535.3999023438</ele>
        <time>2015-03-10T09:56:13.000Z</time>
      </trkpt>
      <trkpt lat="44.83845" lon="6.7679">
        <ele>2536</ele>
        <time>2015-03-10T09:56:17.000Z</time>
      </trkpt>
      <trkpt lat="44.83847" lon="6.76792">
        <ele>2536.8000488281</ele>
        <time>2015-03-10T09:56:20.000Z</time>
      </trkpt>
      <trkpt lat="44.83848" lon="6.76793">
        <ele>2537.1999511719</ele>
        <time>2015-03-10T09:56:23.000Z</time>
      </trkpt>
      <trkpt lat="44.83848" lon="6.76794">
        <ele>2537.6000976562</ele>
        <time>2015-03-10T09:56:26.000Z</time>
      </trkpt>
      <trkpt lat="44.83848" lon="6.76796">
        <ele>2538.3999023438</ele>
        <time>2015-03-10T09:56:29.000Z</time>
      </trkpt>
      <trkpt lat="44.83848" lon="6.76796">
        <ele>2539.1999511719</ele>
        <time>2015-03-10T09:56:32.000Z</time>
      </trkpt>
      <trkpt lat="44.83848" lon="6.76797">
        <ele>2539.3999023438</ele>
        <time>2015-03-10T09:56:33.000Z</time>
      </trkpt>
      <trkpt lat="44.8385" lon="6.76799">
        <ele>2540</ele>
        <time>2015-03-10T09:56:37.000Z</time>
      </trkpt>
      <trkpt lat="44.83851" lon="6.76801">
        <ele>2540.6000976562</ele>
        <time>2015-03-10T09:56:39.000Z</time>
      </trkpt>
      <trkpt lat="44.83852" lon="6.76802">
        <ele>2541.1999511719</ele>
        <time>2015-03-10T09:56:42.000Z</time>
      </trkpt>
      <trkpt lat="44.83853" lon="6.76805">
        <ele>2541.8000488281</ele>
        <time>2015-03-10T09:56:45.000Z</time>
      </trkpt>
      <trkpt lat="44.83853" lon="6.76805">
        <ele>2542.1999511719</ele>
        <time>2015-03-10T09:56:47.000Z</time>
      </trkpt>
      <trkpt lat="44.83854" lon="6.76807">
        <ele>2542.8000488281</ele>
        <time>2015-03-10T09:56:50.000Z</time>
      </trkpt>
      <trkpt lat="44.83855" lon="6.76809">
        <ele>2543.3999023438</ele>
        <time>2015-03-10T09:56:53.000Z</time>
      </trkpt>
      <trkpt lat="44.83856" lon="6.7681">
        <ele>2544</ele>
        <time>2015-03-10T09:56:57.000Z</time>
      </trkpt>
      <trkpt lat="44.83856" lon="6.76811">
        <ele>2544.1999511719</ele>
        <time>2015-03-10T09:56:58.000Z</time>
      </trkpt>
      <trkpt lat="44.83856" lon="6.76811">
        <ele>2545</ele>
        <time>2015-03-10T09:57:01.000Z</time>
      </trkpt>
      <trkpt lat="44.83856" lon="6.76811">
        <ele>2546.1999511719</ele>
        <time>2015-03-10T09:57:04.000Z</time>
      </trkpt>
      <trkpt lat="44.83856" lon="6.76811">
        <ele>2546.6000976562</ele>
        <time>2015-03-10T09:57:06.000Z</time>
      </trkpt>
      <trkpt lat="44.83852" lon="6.76813">
        <ele>2546.1999511719</ele>
        <time>2015-03-10T09:57:11.000Z</time>
      </trkpt>
      <trkpt lat="44.83849" lon="6.76814">
        <ele>2547.3999023438</ele>
        <time>2015-03-10T09:57:17.000Z</time>
      </trkpt>
      <trkpt lat="44.83847" lon="6.76815">
        <ele>2548.6000976562</ele>
        <time>2015-03-10T09:57:21.000Z</time>
      </trkpt>
      <trkpt lat="44.83846" lon="6.76816">
        <ele>2549.3999023438</ele>
        <time>2015-03-10T09:57:23.000Z</time>
      </trkpt>
      <trkpt lat="44.83845" lon="6.76817">
        <ele>2549.6000976562</ele>
        <time>2015-03-10T09:57:25.000Z</time>
      </trkpt>
      <trkpt lat="44.83842" lon="6.76818">
        <ele>2550.1999511719</ele>
        <time>2015-03-10T09:57:29.000Z</time>
      </trkpt>
      <trkpt lat="44.83842" lon="6.7682">
        <ele>2550.8000488281</ele>
        <time>2015-03-10T09:57:31.000Z</time>
      </trkpt>
      <trkpt lat="44.8384" lon="6.76822">
        <ele>2551.6000976562</ele>
        <time>2015-03-10T09:57:36.000Z</time>
      </trkpt>
      <trkpt lat="44.83839" lon="6.76823">
        <ele>2552</ele>
        <time>2015-03-10T09:57:38.000Z</time>
      </trkpt>
      <trkpt lat="44.83838" lon="6.76827">
        <ele>2552.8000488281</ele>
        <time>2015-03-10T09:57:43.000Z</time>
      </trkpt>
      <trkpt lat="44.83838" lon="6.76828">
        <ele>2553</ele>
        <time>2015-03-10T09:57:44.000Z</time>
      </trkpt>
      <trkpt lat="44.83839" lon="6.76828">
        <ele>2554</ele>
        <time>2015-03-10T09:57:51.000Z</time>
      </trkpt>
      <trkpt lat="44.8384" lon="6.76829">
        <ele>2554.1999511719</ele>
        <time>2015-03-10T09:57:54.000Z</time>
      </trkpt>
      <trkpt lat="44.83843" lon="6.76831">
        <ele>2554.6000976562</ele>
        <time>2015-03-10T09:57:57.000Z</time>
      </trkpt>
      <trkpt lat="44.83845" lon="6.76833">
        <ele>2555.1999511719</ele>
        <time>2015-03-10T09:58:01.000Z</time>
      </trkpt>
      <trkpt lat="44.83846" lon="6.76834">
        <ele>2555.3999023438</ele>
        <time>2015-03-10T09:58:02.000Z</time>
      </trkpt>
      <trkpt lat="44.83848" lon="6.76836">
        <ele>2556.3999023438</ele>
        <time>2015-03-10T09:58:05.000Z</time>
      </trkpt>
      <trkpt lat="44.8385" lon="6.7684">
        <ele>2557.1999511719</ele>
        <time>2015-03-10T09:58:09.000Z</time>
      </trkpt>
      <trkpt lat="44.83851" lon="6.7684">
        <ele>2557.6000976562</ele>
        <time>2015-03-10T09:58:10.000Z</time>
      </trkpt>
      <trkpt lat="44.83852" lon="6.76843">
        <ele>2558.6000976562</ele>
        <time>2015-03-10T09:58:15.000Z</time>
      </trkpt>
      <trkpt lat="44.83852" lon="6.76843">
        <ele>2558.8000488281</ele>
        <time>2015-03-10T09:58:16.000Z</time>
      </trkpt>
      <trkpt lat="44.83855" lon="6.76845">
        <ele>2560</ele>
        <time>2015-03-10T09:58:21.000Z</time>
      </trkpt>
      <trkpt lat="44.83856" lon="6.76851">
        <ele>2561.1999511719</ele>
        <time>2015-03-10T09:58:28.000Z</time>
      </trkpt>
      <trkpt lat="44.83856" lon="6.76852">
        <ele>2561.6000976562</ele>
        <time>2015-03-10T09:58:29.000Z</time>
      </trkpt>
      <trkpt lat="44.83858" lon="6.76855">
        <ele>2562.3999023438</ele>
        <time>2015-03-10T09:58:34.000Z</time>
      </trkpt>
      <trkpt lat="44.83859" lon="6.76856">
        <ele>2562.8000488281</ele>
        <time>2015-03-10T09:58:35.000Z</time>
      </trkpt>
      <trkpt lat="44.83859" lon="6.76857">
        <ele>2563.3999023438</ele>
        <time>2015-03-10T09:58:39.000Z</time>
      </trkpt>
      <trkpt lat="44.8386" lon="6.76858">
        <ele>2563.8000488281</ele>
        <time>2015-03-10T09:58:41.000Z</time>
      </trkpt>
      <trkpt lat="44.83862" lon="6.76859">
        <ele>2564.3999023438</ele>
        <time>2015-03-10T09:58:45.000Z</time>
      </trkpt>
      <trkpt lat="44.83862" lon="6.7686">
        <ele>2564.6000976562</ele>
        <time>2015-03-10T09:58:46.000Z</time>
      </trkpt>
      <trkpt lat="44.83863" lon="6.76861">
        <ele>2565.3999023438</ele>
        <time>2015-03-10T09:58:51.000Z</time>
      </trkpt>
      <trkpt lat="44.83863" lon="6.76861">
        <ele>2565.8000488281</ele>
        <time>2015-03-10T09:58:53.000Z</time>
      </trkpt>
      <trkpt lat="44.83861" lon="6.76863">
        <ele>2566.8000488281</ele>
        <time>2015-03-10T09:58:59.000Z</time>
      </trkpt>
      <trkpt lat="44.83855" lon="6.76865">
        <ele>2567.6000976562</ele>
        <time>2015-03-10T09:59:06.000Z</time>
      </trkpt>
      <trkpt lat="44.83853" lon="6.76866">
        <ele>2568</ele>
        <time>2015-03-10T09:59:10.000Z</time>
      </trkpt>
      <trkpt lat="44.83852" lon="6.76866">
        <ele>2568.3999023438</ele>
        <time>2015-03-10T09:59:12.000Z</time>
      </trkpt>
      <trkpt lat="44.83851" lon="6.76865">
        <ele>2569</ele>
        <time>2015-03-10T09:59:14.000Z</time>
      </trkpt>
      <trkpt lat="44.83848" lon="6.76866">
        <ele>2569.8000488281</ele>
        <time>2015-03-10T09:59:19.000Z</time>
      </trkpt>
      <trkpt lat="44.83847" lon="6.76867">
        <ele>2570</ele>
        <time>2015-03-10T09:59:20.000Z</time>
      </trkpt>
      <trkpt lat="44.83844" lon="6.76867">
        <ele>2571</ele>
        <time>2015-03-10T09:59:24.000Z</time>
      </trkpt>
      <trkpt lat="44.83843" lon="6.76868">
        <ele>2571.3999023438</ele>
        <time>2015-03-10T09:59:26.000Z</time>
      </trkpt>
      <trkpt lat="44.8384" lon="6.76871">
        <ele>2572</ele>
        <time>2015-03-10T09:59:30.000Z</time>
      </trkpt>
      <trkpt lat="44.83838" lon="6.76872">
        <ele>2572.8000488281</ele>
        <time>2015-03-10T09:59:33.000Z</time>
      </trkpt>
      <trkpt lat="44.83837" lon="6.76873">
        <ele>2573.1999511719</ele>
        <time>2015-03-10T09:59:35.000Z</time>
      </trkpt>
      <trkpt lat="44.83835" lon="6.76876">
        <ele>2574.1999511719</ele>
        <time>2015-03-10T09:59:40.000Z</time>
      </trkpt>
      <trkpt lat="44.83835" lon="6.76883">
        <ele>2575.6000976562</ele>
        <time>2015-03-10T09:59:47.000Z</time>
      </trkpt>
      <trkpt lat="44.83838" lon="6.76886">
        <ele>2576.6000976562</ele>
        <time>2015-03-10T09:59:51.000Z</time>
      </trkpt>
      <trkpt lat="44.8384" lon="6.76887">
        <ele>2577.1999511719</ele>
        <time>2015-03-10T09:59:54.000Z</time>
      </trkpt>
      <trkpt lat="44.8384" lon="6.76888">
        <ele>2577.8000488281</ele>
        <time>2015-03-10T09:59:56.000Z</time>
      </trkpt>
      <trkpt lat="44.83842" lon="6.76891">
        <ele>2578.8000488281</ele>
        <time>2015-03-10T10:00:02.000Z</time>
      </trkpt>
      <trkpt lat="44.83842" lon="6.76891">
        <ele>2579</ele>
        <time>2015-03-10T10:00:03.000Z</time>
      </trkpt>
      <trkpt lat="44.83843" lon="6.76893">
        <ele>2580</ele>
        <time>2015-03-10T10:00:06.000Z</time>
      </trkpt>
      <trkpt lat="44.83843" lon="6.76894">
        <ele>2580.1999511719</ele>
        <time>2015-03-10T10:00:07.000Z</time>
      </trkpt>
      <trkpt lat="44.83844" lon="6.76897">
        <ele>2580.8000488281</ele>
        <time>2015-03-10T10:00:11.000Z</time>
      </trkpt>
      <trkpt lat="44.83845" lon="6.76899">
        <ele>2581.3999023438</ele>
        <time>2015-03-10T10:00:13.000Z</time>
      </trkpt>
      <trkpt lat="44.83847" lon="6.76902">
        <ele>2582.3999023438</ele>
        <time>2015-03-10T10:00:17.000Z</time>
      </trkpt>
      <trkpt lat="44.83847" lon="6.76902">
        <ele>2582.3999023438</ele>
        <time>2015-03-10T10:00:18.000Z</time>
      </trkpt>
      <trkpt lat="44.83848" lon="6.76905">
        <ele>2583.3999023438</ele>
        <time>2015-03-10T10:00:22.000Z</time>
      </trkpt>
      <trkpt lat="44.83849" lon="6.76906">
        <ele>2583.6000976562</ele>
        <time>2015-03-10T10:00:23.000Z</time>
      </trkpt>
      <trkpt lat="44.83851" lon="6.76911">
        <ele>2584.8000488281</ele>
        <time>2015-03-10T10:00:29.000Z</time>
      </trkpt>
      <trkpt lat="44.83853" lon="6.76916">
        <ele>2585.8000488281</ele>
        <time>2015-03-10T10:00:35.000Z</time>
      </trkpt>
      <trkpt lat="44.83853" lon="6.76919">
        <ele>2587</ele>
        <time>2015-03-10T10:00:40.000Z</time>
      </trkpt>
      <trkpt lat="44.83855" lon="6.76925">
        <ele>2588.1999511719</ele>
        <time>2015-03-10T10:00:44.000Z</time>
      </trkpt>
      <trkpt lat="44.83855" lon="6.76926">
        <ele>2588.6000976562</ele>
        <time>2015-03-10T10:00:46.000Z</time>
      </trkpt>
      <trkpt lat="44.83856" lon="6.7693">
        <ele>2589.3999023438</ele>
        <time>2015-03-10T10:00:51.000Z</time>
      </trkpt>
      <trkpt lat="44.83856" lon="6.7693">
        <ele>2589.3999023438</ele>
        <time>2015-03-10T10:00:52.000Z</time>
      </trkpt>
      <trkpt lat="44.83857" lon="6.76932">
        <ele>2590.3999023438</ele>
        <time>2015-03-10T10:00:55.000Z</time>
      </trkpt>
      <trkpt lat="44.83857" lon="6.76933">
        <ele>2590.8000488281</ele>
        <time>2015-03-10T10:00:57.000Z</time>
      </trkpt>
      <trkpt lat="44.83857" lon="6.76935">
        <ele>2591.6000976562</ele>
        <time>2015-03-10T10:00:59.000Z</time>
      </trkpt>
      <trkpt lat="44.83859" lon="6.7694">
        <ele>2592.3999023438</ele>
        <time>2015-03-10T10:01:03.000Z</time>
      </trkpt>
      <trkpt lat="44.8386" lon="6.76941">
        <ele>2592.8000488281</ele>
        <time>2015-03-10T10:01:06.000Z</time>
      </trkpt>
      <trkpt lat="44.8386" lon="6.76942">
        <ele>2593.1999511719</ele>
        <time>2015-03-10T10:01:08.000Z</time>
      </trkpt>
      <trkpt lat="44.83862" lon="6.76945">
        <ele>2594</ele>
        <time>2015-03-10T10:01:11.000Z</time>
      </trkpt>
      <trkpt lat="44.83863" lon="6.76947">
        <ele>2594.8000488281</ele>
        <time>2015-03-10T10:01:14.000Z</time>
      </trkpt>
      <trkpt lat="44.83863" lon="6.76947">
        <ele>2595</ele>
        <time>2015-03-10T10:01:15.000Z</time>
      </trkpt>
      <trkpt lat="44.83865" lon="6.76949">
        <ele>2596</ele>
        <time>2015-03-10T10:01:19.000Z</time>
      </trkpt>
      <trkpt lat="44.83866" lon="6.7695">
        <ele>2596</ele>
        <time>2015-03-10T10:01:20.000Z</time>
      </trkpt>
      <trkpt lat="44.83868" lon="6.76953">
        <ele>2597.1999511719</ele>
        <time>2015-03-10T10:01:25.000Z</time>
      </trkpt>
      <trkpt lat="44.83868" lon="6.76955">
        <ele>2598.1999511719</ele>
        <time>2015-03-10T10:01:29.000Z</time>
      </trkpt>
      <trkpt lat="44.83868" lon="6.76957">
        <ele>2598.6000976562</ele>
        <time>2015-03-10T10:01:31.000Z</time>
      </trkpt>
      <trkpt lat="44.8387" lon="6.76959">
        <ele>2599.3999023438</ele>
        <time>2015-03-10T10:01:35.000Z</time>
      </trkpt>
      <trkpt lat="44.8387" lon="6.7696">
        <ele>2599.3999023438</ele>
        <time>2015-03-10T10:01:36.000Z</time>
      </trkpt>
      <trkpt lat="44.83871" lon="6.76961">
        <ele>2600.1999511719</ele>
        <time>2015-03-10T10:01:41.000Z</time>
      </trkpt>
      <trkpt lat="44.83872" lon="6.76962">
        <ele>2600.3999023438</ele>
        <time>2015-03-10T10:01:42.000Z</time>
      </trkpt>
      <trkpt lat="44.83872" lon="6.76968">
        <ele>2601.8000488281</ele>
        <time>2015-03-10T10:01:47.000Z</time>
      </trkpt>
      <trkpt lat="44.83872" lon="6.76971">
        <ele>2603</ele>
        <time>2015-03-10T10:01:51.000Z</time>
      </trkpt>
      <trkpt lat="44.83874" lon="6.76974">
        <ele>2604.1999511719</ele>
        <time>2015-03-10T10:01:55.000Z</time>
      </trkpt>
      <trkpt lat="44.83874" lon="6.76976">
        <ele>2604.6000976562</ele>
        <time>2015-03-10T10:01:57.000Z</time>
      </trkpt>
      <trkpt lat="44.83874" lon="6.76977">
        <ele>2605.1999511719</ele>
        <time>2015-03-10T10:02:01.000Z</time>
      </trkpt>
      <trkpt lat="44.83877" lon="6.76981">
        <ele>2606.1999511719</ele>
        <time>2015-03-10T10:02:07.000Z</time>
      </trkpt>
      <trkpt lat="44.83878" lon="6.76983">
        <ele>2607.3999023438</ele>
        <time>2015-03-10T10:02:11.000Z</time>
      </trkpt>
      <trkpt lat="44.83879" lon="6.76986">
        <ele>2608.6000976562</ele>
        <time>2015-03-10T10:02:16.000Z</time>
      </trkpt>
      <trkpt lat="44.8388" lon="6.76988">
        <ele>2608.8000488281</ele>
        <time>2015-03-10T10:02:17.000Z</time>
      </trkpt>
      <trkpt lat="44.8388" lon="6.7699">
        <ele>2609.3999023438</ele>
        <time>2015-03-10T10:02:21.000Z</time>
      </trkpt>
      <trkpt lat="44.8388" lon="6.76991">
        <ele>2609.8000488281</ele>
        <time>2015-03-10T10:02:22.000Z</time>
      </trkpt>
      <trkpt lat="44.8388" lon="6.76995">
        <ele>2610.8000488281</ele>
        <time>2015-03-10T10:02:26.000Z</time>
      </trkpt>
      <trkpt lat="44.8388" lon="6.76996">
        <ele>2610.8000488281</ele>
        <time>2015-03-10T10:02:27.000Z</time>
      </trkpt>
      <trkpt lat="44.83881" lon="6.76999">
        <ele>2611.6000976562</ele>
        <time>2015-03-10T10:02:31.000Z</time>
      </trkpt>
      <trkpt lat="44.83881" lon="6.76999">
        <ele>2612</ele>
        <time>2015-03-10T10:02:32.000Z</time>
      </trkpt>
      <trkpt lat="44.83882" lon="6.77">
        <ele>2613</ele>
        <time>2015-03-10T10:02:35.000Z</time>
      </trkpt>
      <trkpt lat="44.83882" lon="6.77001">
        <ele>2613.1999511719</ele>
        <time>2015-03-10T10:02:36.000Z</time>
      </trkpt>
      <trkpt lat="44.83883" lon="6.77004">
        <ele>2614</ele>
        <time>2015-03-10T10:02:40.000Z</time>
      </trkpt>
      <trkpt lat="44.83883" lon="6.77007">
        <ele>2614.6000976562</ele>
        <time>2015-03-10T10:02:43.000Z</time>
      </trkpt>
      <trkpt lat="44.83884" lon="6.77008">
        <ele>2615.1999511719</ele>
        <time>2015-03-10T10:02:46.000Z</time>
      </trkpt>
      <trkpt lat="44.83884" lon="6.77008">
        <ele>2615.3999023438</ele>
        <time>2015-03-10T10:02:47.000Z</time>
      </trkpt>
      <trkpt lat="44.83885" lon="6.77011">
        <ele>2616.3999023438</ele>
        <time>2015-03-10T10:02:51.000Z</time>
      </trkpt>
      <trkpt lat="44.83885" lon="6.77012">
        <ele>2616.6000976562</ele>
        <time>2015-03-10T10:02:52.000Z</time>
      </trkpt>
      <trkpt lat="44.83886" lon="6.77016">
        <ele>2617.8000488281</ele>
        <time>2015-03-10T10:02:56.000Z</time>
      </trkpt>
      <trkpt lat="44.83887" lon="6.77018">
        <ele>2618.1999511719</ele>
        <time>2015-03-10T10:02:58.000Z</time>
      </trkpt>
      <trkpt lat="44.83888" lon="6.77018">
        <ele>2618.8000488281</ele>
        <time>2015-03-10T10:03:00.000Z</time>
      </trkpt>
      <trkpt lat="44.83889" lon="6.77019">
        <ele>2619.6000976562</ele>
        <time>2015-03-10T10:03:03.000Z</time>
      </trkpt>
      <trkpt lat="44.83889" lon="6.7702">
        <ele>2619.8000488281</ele>
        <time>2015-03-10T10:03:04.000Z</time>
      </trkpt>
      <trkpt lat="44.8389" lon="6.77024">
        <ele>2620.6000976562</ele>
        <time>2015-03-10T10:03:08.000Z</time>
      </trkpt>
      <trkpt lat="44.8389" lon="6.77027">
        <ele>2621.1999511719</ele>
        <time>2015-03-10T10:03:11.000Z</time>
      </trkpt>
      <trkpt lat="44.83891" lon="6.77027">
        <ele>2621.8000488281</ele>
        <time>2015-03-10T10:03:13.000Z</time>
      </trkpt>
      <trkpt lat="44.83892" lon="6.77029">
        <ele>2622.1999511719</ele>
        <time>2015-03-10T10:03:16.000Z</time>
      </trkpt>
      <trkpt lat="44.83892" lon="6.77032">
        <ele>2622.8000488281</ele>
        <time>2015-03-10T10:03:19.000Z</time>
      </trkpt>
      <trkpt lat="44.83893" lon="6.77033">
        <ele>2623.3999023438</ele>
        <time>2015-03-10T10:03:21.000Z</time>
      </trkpt>
      <trkpt lat="44.83893" lon="6.77036">
        <ele>2624.1999511719</ele>
        <time>2015-03-10T10:03:25.000Z</time>
      </trkpt>
      <trkpt lat="44.83893" lon="6.77036">
        <ele>2624.3999023438</ele>
        <time>2015-03-10T10:03:26.000Z</time>
      </trkpt>
      <trkpt lat="44.83894" lon="6.77039">
        <ele>2625.6000976562</ele>
        <time>2015-03-10T10:03:30.000Z</time>
      </trkpt>
      <trkpt lat="44.83895" lon="6.77042">
        <ele>2626.6000976562</ele>
        <time>2015-03-10T10:03:35.000Z</time>
      </trkpt>
      <trkpt lat="44.83895" lon="6.77042">
        <ele>2627</ele>
        <time>2015-03-10T10:03:36.000Z</time>
      </trkpt>
      <trkpt lat="44.83896" lon="6.77047">
        <ele>2627.8000488281</ele>
        <time>2015-03-10T10:03:41.000Z</time>
      </trkpt>
      <trkpt lat="44.83896" lon="6.77047">
        <ele>2628.1999511719</ele>
        <time>2015-03-10T10:03:42.000Z</time>
      </trkpt>
      <trkpt lat="44.83897" lon="6.7705">
        <ele>2629</ele>
        <time>2015-03-10T10:03:45.000Z</time>
      </trkpt>
      <trkpt lat="44.83897" lon="6.77051">
        <ele>2629</ele>
        <time>2015-03-10T10:03:46.000Z</time>
      </trkpt>
      <trkpt lat="44.83898" lon="6.77052">
        <ele>2630</ele>
        <time>2015-03-10T10:03:50.000Z</time>
      </trkpt>
      <trkpt lat="44.83898" lon="6.77054">
        <ele>2630.3999023438</ele>
        <time>2015-03-10T10:03:51.000Z</time>
      </trkpt>
      <trkpt lat="44.83898" lon="6.77056">
        <ele>2631</ele>
        <time>2015-03-10T10:03:54.000Z</time>
      </trkpt>
      <trkpt lat="44.83898" lon="6.77056">
        <ele>2631</ele>
        <time>2015-03-10T10:03:55.000Z</time>
      </trkpt>
      <trkpt lat="44.83899" lon="6.7706">
        <ele>2632</ele>
        <time>2015-03-10T10:03:59.000Z</time>
      </trkpt>
      <trkpt lat="44.83899" lon="6.77061">
        <ele>2632.1999511719</ele>
        <time>2015-03-10T10:04:00.000Z</time>
      </trkpt>
      <trkpt lat="44.839" lon="6.77066">
        <ele>2633.1999511719</ele>
        <time>2015-03-10T10:04:05.000Z</time>
      </trkpt>
      <trkpt lat="44.83901" lon="6.7707">
        <ele>2634.6000976562</ele>
        <time>2015-03-10T10:04:09.000Z</time>
      </trkpt>
      <trkpt lat="44.83903" lon="6.77072">
        <ele>2635.3999023438</ele>
        <time>2015-03-10T10:04:13.000Z</time>
      </trkpt>
      <trkpt lat="44.83903" lon="6.77073">
        <ele>2635.8000488281</ele>
        <time>2015-03-10T10:04:15.000Z</time>
      </trkpt>
      <trkpt lat="44.83902" lon="6.77073">
        <ele>2636.3999023438</ele>
        <time>2015-03-10T10:04:17.000Z</time>
      </trkpt>
      <trkpt lat="44.83902" lon="6.77073">
        <ele>2637</ele>
        <time>2015-03-10T10:04:19.000Z</time>
      </trkpt>
      <trkpt lat="44.83903" lon="6.77073">
        <ele>2637.1999511719</ele>
        <time>2015-03-10T10:04:28.000Z</time>
      </trkpt>
      <trkpt lat="44.83905" lon="6.77074">
        <ele>2637.8000488281</ele>
        <time>2015-03-10T10:04:33.000Z</time>
      </trkpt>
      <trkpt lat="44.83906" lon="6.77075">
        <ele>2638</ele>
        <time>2015-03-10T10:04:34.000Z</time>
      </trkpt>
      <trkpt lat="44.83906" lon="6.77079">
        <ele>2638.8000488281</ele>
        <time>2015-03-10T10:04:37.000Z</time>
      </trkpt>
      <trkpt lat="44.83906" lon="6.7708">
        <ele>2639</ele>
        <time>2015-03-10T10:04:38.000Z</time>
      </trkpt>
      <trkpt lat="44.83907" lon="6.77081">
        <ele>2639.1999511719</ele>
        <time>2015-03-10T10:04:40.000Z</time>
      </trkpt>
      <trkpt lat="44.83907" lon="6.77082">
        <ele>2639.6000976562</ele>
        <time>2015-03-10T10:04:42.000Z</time>
      </trkpt>
      <trkpt lat="44.83908" lon="6.77083">
        <ele>2640.3999023438</ele>
        <time>2015-03-10T10:04:44.000Z</time>
      </trkpt>
      <trkpt lat="44.83909" lon="6.77084">
        <ele>2641.3999023438</ele>
        <time>2015-03-10T10:04:47.000Z</time>
      </trkpt>
      <trkpt lat="44.83909" lon="6.77085">
        <ele>2641.3999023438</ele>
        <time>2015-03-10T10:04:48.000Z</time>
      </trkpt>
      <trkpt lat="44.8391" lon="6.77088">
        <ele>2642.1999511719</ele>
        <time>2015-03-10T10:04:52.000Z</time>
      </trkpt>
      <trkpt lat="44.8391" lon="6.77089">
        <ele>2642.8000488281</ele>
        <time>2015-03-10T10:04:54.000Z</time>
      </trkpt>
      <trkpt lat="44.83911" lon="6.77092">
        <ele>2643.3999023438</ele>
        <time>2015-03-10T10:04:57.000Z</time>
      </trkpt>
      <trkpt lat="44.83912" lon="6.77092">
        <ele>2644</ele>
        <time>2015-03-10T10:04:59.000Z</time>
      </trkpt>
      <trkpt lat="44.83913" lon="6.77095">
        <ele>2645.1999511719</ele>
        <time>2015-03-10T10:05:02.000Z</time>
      </trkpt>
      <trkpt lat="44.83914" lon="6.77097">
        <ele>2645.6000976562</ele>
        <time>2015-03-10T10:05:06.000Z</time>
      </trkpt>
      <trkpt lat="44.83916" lon="6.771">
        <ele>2646.3999023438</ele>
        <time>2015-03-10T10:05:10.000Z</time>
      </trkpt>
      <trkpt lat="44.83916" lon="6.77101">
        <ele>2646.6000976562</ele>
        <time>2015-03-10T10:05:11.000Z</time>
      </trkpt>
      <trkpt lat="44.83917" lon="6.77104">
        <ele>2647.6000976562</ele>
        <time>2015-03-10T10:05:14.000Z</time>
      </trkpt>
      <trkpt lat="44.83918" lon="6.77104">
        <ele>2647.6000976562</ele>
        <time>2015-03-10T10:05:15.000Z</time>
      </trkpt>
      <trkpt lat="44.8392" lon="6.77107">
        <ele>2648.6000976562</ele>
        <time>2015-03-10T10:05:20.000Z</time>
      </trkpt>
      <trkpt lat="44.8392" lon="6.7711">
        <ele>2649.8000488281</ele>
        <time>2015-03-10T10:05:24.000Z</time>
      </trkpt>
      <trkpt lat="44.8392" lon="6.77112">
        <ele>2650</ele>
        <time>2015-03-10T10:05:25.000Z</time>
      </trkpt>
      <trkpt lat="44.83922" lon="6.77115">
        <ele>2651</ele>
        <time>2015-03-10T10:05:28.000Z</time>
      </trkpt>
      <trkpt lat="44.83922" lon="6.77115">
        <ele>2651.1999511719</ele>
        <time>2015-03-10T10:05:30.000Z</time>
      </trkpt>
      <trkpt lat="44.83924" lon="6.77119">
        <ele>2652</ele>
        <time>2015-03-10T10:05:34.000Z</time>
      </trkpt>
      <trkpt lat="44.83924" lon="6.77119">
        <ele>2652.1999511719</ele>
        <time>2015-03-10T10:05:35.000Z</time>
      </trkpt>
      <trkpt lat="44.83928" lon="6.7712">
        <ele>2653.3999023438</ele>
        <time>2015-03-10T10:05:40.000Z</time>
      </trkpt>
      <trkpt lat="44.83929" lon="6.7712">
        <ele>2653.6000976562</ele>
        <time>2015-03-10T10:05:41.000Z</time>
      </trkpt>
      <trkpt lat="44.83934" lon="6.7712">
        <ele>2654.6000976562</ele>
        <time>2015-03-10T10:05:46.000Z</time>
      </trkpt>
      <trkpt lat="44.83936" lon="6.7712">
        <ele>2655.1999511719</ele>
        <time>2015-03-10T10:05:49.000Z</time>
      </trkpt>
      <trkpt lat="44.83937" lon="6.77119">
        <ele>2655.8000488281</ele>
        <time>2015-03-10T10:05:51.000Z</time>
      </trkpt>
      <trkpt lat="44.83941" lon="6.77119">
        <ele>2656.8000488281</ele>
        <time>2015-03-10T10:05:57.000Z</time>
      </trkpt>
      <trkpt lat="44.83942" lon="6.7712">
        <ele>2657</ele>
        <time>2015-03-10T10:05:58.000Z</time>
      </trkpt>
      <trkpt lat="44.83943" lon="6.77121">
        <ele>2658</ele>
        <time>2015-03-10T10:06:04.000Z</time>
      </trkpt>
      <trkpt lat="44.83944" lon="6.77121">
        <ele>2658</ele>
        <time>2015-03-10T10:06:06.000Z</time>
      </trkpt>
      <trkpt lat="44.83945" lon="6.77123">
        <ele>2658.6000976562</ele>
        <time>2015-03-10T10:06:09.000Z</time>
      </trkpt>
      <trkpt lat="44.83946" lon="6.77125">
        <ele>2659.3999023438</ele>
        <time>2015-03-10T10:06:12.000Z</time>
      </trkpt>
      <trkpt lat="44.83947" lon="6.77128">
        <ele>2659.6000976562</ele>
        <time>2015-03-10T10:06:14.000Z</time>
      </trkpt>
      <trkpt lat="44.83949" lon="6.77134">
        <ele>2660.6000976562</ele>
        <time>2015-03-10T10:06:19.000Z</time>
      </trkpt>
      <trkpt lat="44.8395" lon="6.77135">
        <ele>2660.8000488281</ele>
        <time>2015-03-10T10:06:20.000Z</time>
      </trkpt>
      <trkpt lat="44.8395" lon="6.77137">
        <ele>2661.8000488281</ele>
        <time>2015-03-10T10:06:24.000Z</time>
      </trkpt>
      <trkpt lat="44.83951" lon="6.77138">
        <ele>2662.1999511719</ele>
        <time>2015-03-10T10:06:27.000Z</time>
      </trkpt>
      <trkpt lat="44.83953" lon="6.7714">
        <ele>2662.8000488281</ele>
        <time>2015-03-10T10:06:30.000Z</time>
      </trkpt>
      <trkpt lat="44.83954" lon="6.77142">
        <ele>2663.1999511719</ele>
        <time>2015-03-10T10:06:32.000Z</time>
      </trkpt>
      <trkpt lat="44.83956" lon="6.77144">
        <ele>2664</ele>
        <time>2015-03-10T10:06:35.000Z</time>
      </trkpt>
      <trkpt lat="44.83957" lon="6.77145">
        <ele>2664.6000976562</ele>
        <time>2015-03-10T10:06:38.000Z</time>
      </trkpt>
      <trkpt lat="44.83958" lon="6.77148">
        <ele>2665.1999511719</ele>
        <time>2015-03-10T10:06:40.000Z</time>
      </trkpt>
      <trkpt lat="44.83959" lon="6.7715">
        <ele>2665.6000976562</ele>
        <time>2015-03-10T10:06:43.000Z</time>
      </trkpt>
      <trkpt lat="44.83962" lon="6.77153">
        <ele>2666.3999023438</ele>
        <time>2015-03-10T10:06:47.000Z</time>
      </trkpt>
      <trkpt lat="44.83962" lon="6.77154">
        <ele>2666.3999023438</ele>
        <time>2015-03-10T10:06:48.000Z</time>
      </trkpt>
      <trkpt lat="44.83964" lon="6.77156">
        <ele>2667.3999023438</ele>
        <time>2015-03-10T10:06:53.000Z</time>
      </trkpt>
      <trkpt lat="44.83964" lon="6.77156">
        <ele>2668.3999023438</ele>
        <time>2015-03-10T10:06:57.000Z</time>
      </trkpt>
      <trkpt lat="44.83964" lon="6.77157">
        <ele>2668.6000976562</ele>
        <time>2015-03-10T10:07:04.000Z</time>
      </trkpt>
      <trkpt lat="44.83967" lon="6.77163">
        <ele>2669.1999511719</ele>
        <time>2015-03-10T10:07:09.000Z</time>
      </trkpt>
      <trkpt lat="44.83968" lon="6.77164">
        <ele>2669.6000976562</ele>
        <time>2015-03-10T10:07:11.000Z</time>
      </trkpt>
      <trkpt lat="44.8397" lon="6.77167">
        <ele>2670.3999023438</ele>
        <time>2015-03-10T10:07:15.000Z</time>
      </trkpt>
      <trkpt lat="44.83972" lon="6.77169">
        <ele>2670.6000976562</ele>
        <time>2015-03-10T10:07:16.000Z</time>
      </trkpt>
      <trkpt lat="44.83974" lon="6.77172">
        <ele>2671.6000976562</ele>
        <time>2015-03-10T10:07:21.000Z</time>
      </trkpt>
      <trkpt lat="44.83976" lon="6.77175">
        <ele>2673</ele>
        <time>2015-03-10T10:07:25.000Z</time>
      </trkpt>
      <trkpt lat="44.83977" lon="6.77175">
        <ele>2673.3999023438</ele>
        <time>2015-03-10T10:07:27.000Z</time>
      </trkpt>
      <trkpt lat="44.83979" lon="6.77177">
        <ele>2674.1999511719</ele>
        <time>2015-03-10T10:07:30.000Z</time>
      </trkpt>
      <trkpt lat="44.83979" lon="6.77178">
        <ele>2674.3999023438</ele>
        <time>2015-03-10T10:07:32.000Z</time>
      </trkpt>
      <trkpt lat="44.83981" lon="6.77181">
        <ele>2675.1999511719</ele>
        <time>2015-03-10T10:07:37.000Z</time>
      </trkpt>
      <trkpt lat="44.83981" lon="6.77181">
        <ele>2675.3999023438</ele>
        <time>2015-03-10T10:07:38.000Z</time>
      </trkpt>
      <trkpt lat="44.83984" lon="6.77184">
        <ele>2676.3999023438</ele>
        <time>2015-03-10T10:07:43.000Z</time>
      </trkpt>
      <trkpt lat="44.83984" lon="6.77184">
        <ele>2676.6000976562</ele>
        <time>2015-03-10T10:07:44.000Z</time>
      </trkpt>
      <trkpt lat="44.83985" lon="6.77185">
        <ele>2677.3999023438</ele>
        <time>2015-03-10T10:07:47.000Z</time>
      </trkpt>
      <trkpt lat="44.83987" lon="6.77187">
        <ele>2678.6000976562</ele>
        <time>2015-03-10T10:07:51.000Z</time>
      </trkpt>
      <trkpt lat="44.83989" lon="6.77189">
        <ele>2679.8000488281</ele>
        <time>2015-03-10T10:07:57.000Z</time>
      </trkpt>
      <trkpt lat="44.83995" lon="6.77193">
        <ele>2680.6000976562</ele>
        <time>2015-03-10T10:08:03.000Z</time>
      </trkpt>
      <trkpt lat="44.83995" lon="6.77193">
        <ele>2680.8000488281</ele>
        <time>2015-03-10T10:08:04.000Z</time>
      </trkpt>
      <trkpt lat="44.83997" lon="6.77196">
        <ele>2681.8000488281</ele>
        <time>2015-03-10T10:08:08.000Z</time>
      </trkpt>
      <trkpt lat="44.83998" lon="6.77196">
        <ele>2682</ele>
        <time>2015-03-10T10:08:09.000Z</time>
      </trkpt>
      <trkpt lat="44.84" lon="6.77199">
        <ele>2683</ele>
        <time>2015-03-10T10:08:14.000Z</time>
      </trkpt>
      <trkpt lat="44.84" lon="6.77199">
        <ele>2683.1999511719</ele>
        <time>2015-03-10T10:08:15.000Z</time>
      </trkpt>
      <trkpt lat="44.84002" lon="6.77202">
        <ele>2684.1999511719</ele>
        <time>2015-03-10T10:08:19.000Z</time>
      </trkpt>
      <trkpt lat="44.84003" lon="6.77204">
        <ele>2684.6000976562</ele>
        <time>2015-03-10T10:08:21.000Z</time>
      </trkpt>
      <trkpt lat="44.84004" lon="6.77205">
        <ele>2685.3999023438</ele>
        <time>2015-03-10T10:08:25.000Z</time>
      </trkpt>
      <trkpt lat="44.84007" lon="6.77208">
        <ele>2686.3999023438</ele>
        <time>2015-03-10T10:08:29.000Z</time>
      </trkpt>
      <trkpt lat="44.84007" lon="6.77208">
        <ele>2686.6000976562</ele>
        <time>2015-03-10T10:08:30.000Z</time>
      </trkpt>
      <trkpt lat="44.8401" lon="6.77213">
        <ele>2687.3999023438</ele>
        <time>2015-03-10T10:08:35.000Z</time>
      </trkpt>
      <trkpt lat="44.8401" lon="6.77213">
        <ele>2688.1999511719</ele>
        <time>2015-03-10T10:08:36.000Z</time>
      </trkpt>
      <trkpt lat="44.84011" lon="6.77214">
        <ele>2689.3999023438</ele>
        <time>2015-03-10T10:08:41.000Z</time>
      </trkpt>
      <trkpt lat="44.84011" lon="6.77214">
        <ele>2689.3999023438</ele>
        <time>2015-03-10T10:08:42.000Z</time>
      </trkpt>
      <trkpt lat="44.84011" lon="6.77219">
        <ele>2690.3999023438</ele>
        <time>2015-03-10T10:08:46.000Z</time>
      </trkpt>
      <trkpt lat="44.84011" lon="6.77221">
        <ele>2691.1999511719</ele>
        <time>2015-03-10T10:08:50.000Z</time>
      </trkpt>
      <trkpt lat="44.8401" lon="6.77223">
        <ele>2691.6000976562</ele>
        <time>2015-03-10T10:08:53.000Z</time>
      </trkpt>
      <trkpt lat="44.84009" lon="6.77226">
        <ele>2692.6000976562</ele>
        <time>2015-03-10T10:08:57.000Z</time>
      </trkpt>
      <trkpt lat="44.84007" lon="6.77228">
        <ele>2693.8000488281</ele>
        <time>2015-03-10T10:09:00.000Z</time>
      </trkpt>
      <trkpt lat="44.84006" lon="6.77233">
        <ele>2695</ele>
        <time>2015-03-10T10:09:05.000Z</time>
      </trkpt>
      <trkpt lat="44.84005" lon="6.77235">
        <ele>2696.1999511719</ele>
        <time>2015-03-10T10:09:12.000Z</time>
      </trkpt>
      <trkpt lat="44.84005" lon="6.77235">
        <ele>2696.3999023438</ele>
        <time>2015-03-10T10:09:13.000Z</time>
      </trkpt>
      <trkpt lat="44.84003" lon="6.77238">
        <ele>2697.3999023438</ele>
        <time>2015-03-10T10:09:19.000Z</time>
      </trkpt>
      <trkpt lat="44.84002" lon="6.77239">
        <ele>2697.6000976562</ele>
        <time>2015-03-10T10:09:21.000Z</time>
      </trkpt>
      <trkpt lat="44.84001" lon="6.77241">
        <ele>2698.6000976562</ele>
        <time>2015-03-10T10:09:24.000Z</time>
      </trkpt>
      <trkpt lat="44.84" lon="6.77246">
        <ele>2699.3999023438</ele>
        <time>2015-03-10T10:09:30.000Z</time>
      </trkpt>
      <trkpt lat="44.83999" lon="6.77247">
        <ele>2699.8000488281</ele>
        <time>2015-03-10T10:09:31.000Z</time>
      </trkpt>
      <trkpt lat="44.83999" lon="6.77247">
        <ele>2700.8000488281</ele>
        <time>2015-03-10T10:09:37.000Z</time>
      </trkpt>
      <trkpt lat="44.83999" lon="6.77247">
        <ele>2701</ele>
        <time>2015-03-10T10:09:40.000Z</time>
      </trkpt>
      <trkpt lat="44.84001" lon="6.77248">
        <ele>2701.3999023438</ele>
        <time>2015-03-10T10:09:49.000Z</time>
      </trkpt>
      <trkpt lat="44.84002" lon="6.7725">
        <ele>2702</ele>
        <time>2015-03-10T10:09:52.000Z</time>
      </trkpt>
      <trkpt lat="44.84003" lon="6.77253">
        <ele>2702.3999023438</ele>
        <time>2015-03-10T10:09:53.000Z</time>
      </trkpt>
      <trkpt lat="44.84005" lon="6.77256">
        <ele>2703</ele>
        <time>2015-03-10T10:09:57.000Z</time>
      </trkpt>
      <trkpt lat="44.84008" lon="6.77259">
        <ele>2704</ele>
        <time>2015-03-10T10:10:02.000Z</time>
      </trkpt>
      <trkpt lat="44.84008" lon="6.77259">
        <ele>2704.1999511719</ele>
        <time>2015-03-10T10:10:03.000Z</time>
      </trkpt>
      <trkpt lat="44.84011" lon="6.77262">
        <ele>2705.1999511719</ele>
        <time>2015-03-10T10:10:07.000Z</time>
      </trkpt>
      <trkpt lat="44.84013" lon="6.77264">
        <ele>2706.3999023438</ele>
        <time>2015-03-10T10:10:12.000Z</time>
      </trkpt>
      <trkpt lat="44.84015" lon="6.77266">
        <ele>2707.3999023438</ele>
        <time>2015-03-10T10:10:15.000Z</time>
      </trkpt>
      <trkpt lat="44.84017" lon="6.77267">
        <ele>2708.1999511719</ele>
        <time>2015-03-10T10:10:18.000Z</time>
      </trkpt>
      <trkpt lat="44.84017" lon="6.77267">
        <ele>2708.6000976562</ele>
        <time>2015-03-10T10:10:19.000Z</time>
      </trkpt>
      <trkpt lat="44.84021" lon="6.77267">
        <ele>2709.3999023438</ele>
        <time>2015-03-10T10:10:24.000Z</time>
      </trkpt>
      <trkpt lat="44.84021" lon="6.77267">
        <ele>2709.6000976562</ele>
        <time>2015-03-10T10:10:25.000Z</time>
      </trkpt>
      <trkpt lat="44.84026" lon="6.77266">
        <ele>2710.6000976562</ele>
        <time>2015-03-10T10:10:30.000Z</time>
      </trkpt>
      <trkpt lat="44.84026" lon="6.77266">
        <ele>2710.8000488281</ele>
        <time>2015-03-10T10:10:31.000Z</time>
      </trkpt>
      <trkpt lat="44.84031" lon="6.77265">
        <ele>2712</ele>
        <time>2015-03-10T10:10:36.000Z</time>
      </trkpt>
      <trkpt lat="44.84035" lon="6.77264">
        <ele>2712.6000976562</ele>
        <time>2015-03-10T10:10:39.000Z</time>
      </trkpt>
      <trkpt lat="44.84036" lon="6.77264">
        <ele>2713</ele>
        <time>2015-03-10T10:10:42.000Z</time>
      </trkpt>
      <trkpt lat="44.84038" lon="6.77264">
        <ele>2713.6000976562</ele>
        <time>2015-03-10T10:10:46.000Z</time>
      </trkpt>
      <trkpt lat="44.84038" lon="6.77264">
        <ele>2714.1999511719</ele>
        <time>2015-03-10T10:10:49.000Z</time>
      </trkpt>
      <trkpt lat="44.84037" lon="6.77265">
        <ele>2715</ele>
        <time>2015-03-10T10:10:53.000Z</time>
      </trkpt>
      <trkpt lat="44.84037" lon="6.77265">
        <ele>2715.1999511719</ele>
        <time>2015-03-10T10:10:54.000Z</time>
      </trkpt>
      <trkpt lat="44.84034" lon="6.77272">
        <ele>2716</ele>
        <time>2015-03-10T10:11:02.000Z</time>
      </trkpt>
      <trkpt lat="44.84033" lon="6.77274">
        <ele>2716.1999511719</ele>
        <time>2015-03-10T10:11:04.000Z</time>
      </trkpt>
      <trkpt lat="44.8403" lon="6.77278">
        <ele>2717.3999023438</ele>
        <time>2015-03-10T10:11:09.000Z</time>
      </trkpt>
      <trkpt lat="44.84028" lon="6.77282">
        <ele>2718.3999023438</ele>
        <time>2015-03-10T10:11:14.000Z</time>
      </trkpt>
      <trkpt lat="44.84027" lon="6.77285">
        <ele>2718.8000488281</ele>
        <time>2015-03-10T10:11:17.000Z</time>
      </trkpt>
      <trkpt lat="44.84025" lon="6.77288">
        <ele>2719.3999023438</ele>
        <time>2015-03-10T10:11:21.000Z</time>
      </trkpt>
      <trkpt lat="44.84024" lon="6.77293">
        <ele>2720</ele>
        <time>2015-03-10T10:11:25.000Z</time>
      </trkpt>
      <trkpt lat="44.8402" lon="6.77297">
        <ele>2720.6000976562</ele>
        <time>2015-03-10T10:11:29.000Z</time>
      </trkpt>
      <trkpt lat="44.84017" lon="6.773">
        <ele>2721.3999023438</ele>
        <time>2015-03-10T10:11:33.000Z</time>
      </trkpt>
      <trkpt lat="44.84017" lon="6.77301">
        <ele>2721.8000488281</ele>
        <time>2015-03-10T10:11:34.000Z</time>
      </trkpt>
      <trkpt lat="44.84014" lon="6.77306">
        <ele>2722.8000488281</ele>
        <time>2015-03-10T10:11:40.000Z</time>
      </trkpt>
      <trkpt lat="44.84007" lon="6.77309">
        <ele>2724</ele>
        <time>2015-03-10T10:11:46.000Z</time>
      </trkpt>
      <trkpt lat="44.84007" lon="6.77309">
        <ele>2724</ele>
        <time>2015-03-10T10:11:47.000Z</time>
      </trkpt>
      <trkpt lat="44.84003" lon="6.77311">
        <ele>2725.3999023438</ele>
        <time>2015-03-10T10:11:52.000Z</time>
      </trkpt>
      <trkpt lat="44.84003" lon="6.77311">
        <ele>2725.8000488281</ele>
        <time>2015-03-10T10:11:54.000Z</time>
      </trkpt>
      <trkpt lat="44.84005" lon="6.77313">
        <ele>2726.1999511719</ele>
        <time>2015-03-10T10:12:02.000Z</time>
      </trkpt>
      <trkpt lat="44.84005" lon="6.77313">
        <ele>2726.6000976562</ele>
        <time>2015-03-10T10:12:03.000Z</time>
      </trkpt>
      <trkpt lat="44.84007" lon="6.77316">
        <ele>2727.6000976562</ele>
        <time>2015-03-10T10:12:07.000Z</time>
      </trkpt>
      <trkpt lat="44.84008" lon="6.77317">
        <ele>2728.6000976562</ele>
        <time>2015-03-10T10:12:11.000Z</time>
      </trkpt>
      <trkpt lat="44.84009" lon="6.77318">
        <ele>2729.1999511719</ele>
        <time>2015-03-10T10:12:13.000Z</time>
      </trkpt>
      <trkpt lat="44.84011" lon="6.77319">
        <ele>2729.8000488281</ele>
        <time>2015-03-10T10:12:16.000Z</time>
      </trkpt>
      <trkpt lat="44.84014" lon="6.7732">
        <ele>2730.1999511719</ele>
        <time>2015-03-10T10:12:19.000Z</time>
      </trkpt>
      <trkpt lat="44.84016" lon="6.77319">
        <ele>2731.1999511719</ele>
        <time>2015-03-10T10:12:22.000Z</time>
      </trkpt>
      <trkpt lat="44.84018" lon="6.7732">
        <ele>2731.6000976562</ele>
        <time>2015-03-10T10:12:24.000Z</time>
      </trkpt>
      <trkpt lat="44.8402" lon="6.77321">
        <ele>2732.3999023438</ele>
        <time>2015-03-10T10:12:28.000Z</time>
      </trkpt>
      <trkpt lat="44.84021" lon="6.77321">
        <ele>2733.1999511719</ele>
        <time>2015-03-10T10:12:31.000Z</time>
      </trkpt>
      <trkpt lat="44.84021" lon="6.77321">
        <ele>2733.6000976562</ele>
        <time>2015-03-10T10:12:32.000Z</time>
      </trkpt>
      <trkpt lat="44.84024" lon="6.77323">
        <ele>2734.6000976562</ele>
        <time>2015-03-10T10:12:37.000Z</time>
      </trkpt>
      <trkpt lat="44.84027" lon="6.77324">
        <ele>2735.8000488281</ele>
        <time>2015-03-10T10:12:41.000Z</time>
      </trkpt>
      <trkpt lat="44.84028" lon="6.77323">
        <ele>2736</ele>
        <time>2015-03-10T10:12:42.000Z</time>
      </trkpt>
      <trkpt lat="44.84032" lon="6.77325">
        <ele>2736.8000488281</ele>
        <time>2015-03-10T10:12:47.000Z</time>
      </trkpt>
      <trkpt lat="44.84032" lon="6.77325">
        <ele>2738</ele>
        <time>2015-03-10T10:12:50.000Z</time>
      </trkpt>
      <trkpt lat="44.84034" lon="6.77326">
        <ele>2738.8000488281</ele>
        <time>2015-03-10T10:12:57.000Z</time>
      </trkpt>
      <trkpt lat="44.84034" lon="6.77326">
        <ele>2739</ele>
        <time>2015-03-10T10:12:58.000Z</time>
      </trkpt>
      <trkpt lat="44.84035" lon="6.77326">
        <ele>2740.3999023438</ele>
        <time>2015-03-10T10:13:02.000Z</time>
      </trkpt>
      <trkpt lat="44.84038" lon="6.77326">
        <ele>2740.8000488281</ele>
        <time>2015-03-10T10:13:05.000Z</time>
      </trkpt>
      <trkpt lat="44.8404" lon="6.77326">
        <ele>2741.3999023438</ele>
        <time>2015-03-10T10:13:08.000Z</time>
      </trkpt>
      <trkpt lat="44.84044" lon="6.77327">
        <ele>2742.3999023438</ele>
        <time>2015-03-10T10:13:12.000Z</time>
      </trkpt>
      <trkpt lat="44.84045" lon="6.77327">
        <ele>2742.8000488281</ele>
        <time>2015-03-10T10:13:13.000Z</time>
      </trkpt>
      <trkpt lat="44.84051" lon="6.77329">
        <ele>2743.6000976562</ele>
        <time>2015-03-10T10:13:19.000Z</time>
      </trkpt>
      <trkpt lat="44.84051" lon="6.77329">
        <ele>2743.8000488281</ele>
        <time>2015-03-10T10:13:20.000Z</time>
      </trkpt>
      <trkpt lat="44.84052" lon="6.7733">
        <ele>2744.8000488281</ele>
        <time>2015-03-10T10:13:25.000Z</time>
      </trkpt>
      <trkpt lat="44.84052" lon="6.7733">
        <ele>2745</ele>
        <time>2015-03-10T10:13:26.000Z</time>
      </trkpt>
      <trkpt lat="44.84055" lon="6.77331">
        <ele>2746</ele>
        <time>2015-03-10T10:13:30.000Z</time>
      </trkpt>
      <trkpt lat="44.84056" lon="6.77332">
        <ele>2746.6000976562</ele>
        <time>2015-03-10T10:13:32.000Z</time>
      </trkpt>
      <trkpt lat="44.84057" lon="6.77332">
        <ele>2747.3999023438</ele>
        <time>2015-03-10T10:13:34.000Z</time>
      </trkpt>
      <trkpt lat="44.84058" lon="6.77332">
        <ele>2748.3999023438</ele>
        <time>2015-03-10T10:13:42.000Z</time>
      </trkpt>
      <trkpt lat="44.84059" lon="6.77332">
        <ele>2748.3999023438</ele>
        <time>2015-03-10T10:13:43.000Z</time>
      </trkpt>
      <trkpt lat="44.84062" lon="6.77332">
        <ele>2748.8000488281</ele>
        <time>2015-03-10T10:13:47.000Z</time>
      </trkpt>
      <trkpt lat="44.84062" lon="6.77332">
        <ele>2749.3999023438</ele>
        <time>2015-03-10T10:13:49.000Z</time>
      </trkpt>
      <trkpt lat="44.84065" lon="6.77333">
        <ele>2750.6000976562</ele>
        <time>2015-03-10T10:13:53.000Z</time>
      </trkpt>
      <trkpt lat="44.84066" lon="6.77332">
        <ele>2751</ele>
        <time>2015-03-10T10:13:56.000Z</time>
      </trkpt>
      <trkpt lat="44.84066" lon="6.77333">
        <ele>2751.8000488281</ele>
        <time>2015-03-10T10:13:59.000Z</time>
      </trkpt>
      <trkpt lat="44.84067" lon="6.77335">
        <ele>2752.6000976562</ele>
        <time>2015-03-10T10:14:03.000Z</time>
      </trkpt>
      <trkpt lat="44.84065" lon="6.77345">
        <ele>2752.8000488281</ele>
        <time>2015-03-10T10:14:10.000Z</time>
      </trkpt>
      <trkpt lat="44.84065" lon="6.7735">
        <ele>2753.8000488281</ele>
        <time>2015-03-10T10:14:14.000Z</time>
      </trkpt>
      <trkpt lat="44.84065" lon="6.77351">
        <ele>2754</ele>
        <time>2015-03-10T10:14:15.000Z</time>
      </trkpt>
      <trkpt lat="44.84065" lon="6.77355">
        <ele>2755.1999511719</ele>
        <time>2015-03-10T10:14:20.000Z</time>
      </trkpt>
      <trkpt lat="44.84064" lon="6.77356">
        <ele>2755.3999023438</ele>
        <time>2015-03-10T10:14:21.000Z</time>
      </trkpt>
      <trkpt lat="44.84063" lon="6.7736">
        <ele>2756.1999511719</ele>
        <time>2015-03-10T10:14:25.000Z</time>
      </trkpt>
      <trkpt lat="44.84061" lon="6.77363">
        <ele>2756.8000488281</ele>
        <time>2015-03-10T10:14:28.000Z</time>
      </trkpt>
      <trkpt lat="44.8406" lon="6.77365">
        <ele>2757.3999023438</ele>
        <time>2015-03-10T10:14:31.000Z</time>
      </trkpt>
      <trkpt lat="44.84058" lon="6.77369">
        <ele>2758.6000976562</ele>
        <time>2015-03-10T10:14:36.000Z</time>
      </trkpt>
      <trkpt lat="44.84057" lon="6.77371">
        <ele>2759.6000976562</ele>
        <time>2015-03-10T10:14:41.000Z</time>
      </trkpt>
      <trkpt lat="44.84057" lon="6.77371">
        <ele>2760.6000976562</ele>
        <time>2015-03-10T10:14:45.000Z</time>
      </trkpt>
      <trkpt lat="44.84057" lon="6.77372">
        <ele>2761.8000488281</ele>
        <time>2015-03-10T10:14:50.000Z</time>
      </trkpt>
      <trkpt lat="44.84057" lon="6.77373">
        <ele>2762</ele>
        <time>2015-03-10T10:14:52.000Z</time>
      </trkpt>
      <trkpt lat="44.84057" lon="6.77374">
        <ele>2762.8000488281</ele>
        <time>2015-03-10T10:14:57.000Z</time>
      </trkpt>
      <trkpt lat="44.84055" lon="6.77376">
        <ele>2763.8000488281</ele>
        <time>2015-03-10T10:15:01.000Z</time>
      </trkpt>
      <trkpt lat="44.84054" lon="6.7738">
        <ele>2764.8000488281</ele>
        <time>2015-03-10T10:15:06.000Z</time>
      </trkpt>
      <trkpt lat="44.84052" lon="6.77383">
        <ele>2765.1999511719</ele>
        <time>2015-03-10T10:15:08.000Z</time>
      </trkpt>
      <trkpt lat="44.8405" lon="6.77387">
        <ele>2766.1999511719</ele>
        <time>2015-03-10T10:15:12.000Z</time>
      </trkpt>
      <trkpt lat="44.84048" lon="6.77389">
        <ele>2767</ele>
        <time>2015-03-10T10:15:15.000Z</time>
      </trkpt>
      <trkpt lat="44.84048" lon="6.77389">
        <ele>2767.1999511719</ele>
        <time>2015-03-10T10:15:16.000Z</time>
      </trkpt>
      <trkpt lat="44.84051" lon="6.77391">
        <ele>2767.6000976562</ele>
        <time>2015-03-10T10:15:24.000Z</time>
      </trkpt>
      <trkpt lat="44.84052" lon="6.77392">
        <ele>2768.3999023438</ele>
        <time>2015-03-10T10:15:27.000Z</time>
      </trkpt>
      <trkpt lat="44.84054" lon="6.77393">
        <ele>2769.1999511719</ele>
        <time>2015-03-10T10:15:30.000Z</time>
      </trkpt>
      <trkpt lat="44.84056" lon="6.77393">
        <ele>2769.3999023438</ele>
        <time>2015-03-10T10:15:32.000Z</time>
      </trkpt>
      <trkpt lat="44.84056" lon="6.77394">
        <ele>2770.1999511719</ele>
        <time>2015-03-10T10:15:36.000Z</time>
      </trkpt>
      <trkpt lat="44.84058" lon="6.77396">
        <ele>2770.6000976562</ele>
        <time>2015-03-10T10:15:39.000Z</time>
      </trkpt>
      <trkpt lat="44.84059" lon="6.77398">
        <ele>2770.8000488281</ele>
        <time>2015-03-10T10:15:41.000Z</time>
      </trkpt>
      <trkpt lat="44.84061" lon="6.774">
        <ele>2771.8000488281</ele>
        <time>2015-03-10T10:15:45.000Z</time>
      </trkpt>
      <trkpt lat="44.84062" lon="6.77401">
        <ele>2772.3999023438</ele>
        <time>2015-03-10T10:15:47.000Z</time>
      </trkpt>
      <trkpt lat="44.84063" lon="6.77401">
        <ele>2772.8000488281</ele>
        <time>2015-03-10T10:15:49.000Z</time>
      </trkpt>
      <trkpt lat="44.84065" lon="6.77402">
        <ele>2773.8000488281</ele>
        <time>2015-03-10T10:15:53.000Z</time>
      </trkpt>
      <trkpt lat="44.84066" lon="6.77402">
        <ele>2774.1999511719</ele>
        <time>2015-03-10T10:15:54.000Z</time>
      </trkpt>
      <trkpt lat="44.84069" lon="6.77403">
        <ele>2775</ele>
        <time>2015-03-10T10:15:59.000Z</time>
      </trkpt>
      <trkpt lat="44.84069" lon="6.77403">
        <ele>2775.1999511719</ele>
        <time>2015-03-10T10:16:02.000Z</time>
      </trkpt>
      <trkpt lat="44.84072" lon="6.77405">
        <ele>2776</ele>
        <time>2015-03-10T10:16:06.000Z</time>
      </trkpt>
      <trkpt lat="44.84072" lon="6.77405">
        <ele>2776.1999511719</ele>
        <time>2015-03-10T10:16:09.000Z</time>
      </trkpt>
      <trkpt lat="44.84074" lon="6.77407">
        <ele>2776.6000976562</ele>
        <time>2015-03-10T10:16:11.000Z</time>
      </trkpt>
      <trkpt lat="44.84075" lon="6.77407">
        <ele>2777.3999023438</ele>
        <time>2015-03-10T10:16:16.000Z</time>
      </trkpt>
      <trkpt lat="44.84075" lon="6.77407">
        <ele>2777.8000488281</ele>
        <time>2015-03-10T10:16:17.000Z</time>
      </trkpt>
      <trkpt lat="44.84075" lon="6.77408">
        <ele>2778.6000976562</ele>
        <time>2015-03-10T10:16:20.000Z</time>
      </trkpt>
      <trkpt lat="44.84075" lon="6.77408">
        <ele>2779.1999511719</ele>
        <time>2015-03-10T10:16:24.000Z</time>
      </trkpt>
      <trkpt lat="44.84075" lon="6.77408">
        <ele>2779.8000488281</ele>
        <time>2015-03-10T10:16:26.000Z</time>
      </trkpt>
      <trkpt lat="44.84078" lon="6.77408">
        <ele>2780.8000488281</ele>
        <time>2015-03-10T10:16:32.000Z</time>
      </trkpt>
      <trkpt lat="44.84084" lon="6.77408">
        <ele>2782</ele>
        <time>2015-03-10T10:16:37.000Z</time>
      </trkpt>
      <trkpt lat="44.84087" lon="6.77408">
        <ele>2782.3999023438</ele>
        <time>2015-03-10T10:16:40.000Z</time>
      </trkpt>
      <trkpt lat="44.84089" lon="6.77408">
        <ele>2783.1999511719</ele>
        <time>2015-03-10T10:16:43.000Z</time>
      </trkpt>
      <trkpt lat="44.84093" lon="6.77408">
        <ele>2783.8000488281</ele>
        <time>2015-03-10T10:16:46.000Z</time>
      </trkpt>
      <trkpt lat="44.84094" lon="6.77408">
        <ele>2784.3999023438</ele>
        <time>2015-03-10T10:16:48.000Z</time>
      </trkpt>
      <trkpt lat="44.84097" lon="6.77407">
        <ele>2785.3999023438</ele>
        <time>2015-03-10T10:16:52.000Z</time>
      </trkpt>
      <trkpt lat="44.84097" lon="6.77407">
        <ele>2785.8000488281</ele>
        <time>2015-03-10T10:16:54.000Z</time>
      </trkpt>
      <trkpt lat="44.84097" lon="6.77407">
        <ele>2786.3999023438</ele>
        <time>2015-03-10T10:16:57.000Z</time>
      </trkpt>
      <trkpt lat="44.84099" lon="6.77406">
        <ele>2786.6000976562</ele>
        <time>2015-03-10T10:17:02.000Z</time>
      </trkpt>
      <trkpt lat="44.84103" lon="6.77405">
        <ele>2787.6000976562</ele>
        <time>2015-03-10T10:17:08.000Z</time>
      </trkpt>
      <trkpt lat="44.84106" lon="6.77405">
        <ele>2788.6000976562</ele>
        <time>2015-03-10T10:17:14.000Z</time>
      </trkpt>
      <trkpt lat="44.84106" lon="6.77405">
        <ele>2788.8000488281</ele>
        <time>2015-03-10T10:17:15.000Z</time>
      </trkpt>
      <trkpt lat="44.84106" lon="6.77405">
        <ele>2789.8000488281</ele>
        <time>2015-03-10T10:17:19.000Z</time>
      </trkpt>
      <trkpt lat="44.84106" lon="6.77406">
        <ele>2790.1999511719</ele>
        <time>2015-03-10T10:17:23.000Z</time>
      </trkpt>
      <trkpt lat="44.84107" lon="6.77413">
        <ele>2790.8000488281</ele>
        <time>2015-03-10T10:17:29.000Z</time>
      </trkpt>
      <trkpt lat="44.84107" lon="6.77415">
        <ele>2791.8000488281</ele>
        <time>2015-03-10T10:17:33.000Z</time>
      </trkpt>
      <trkpt lat="44.84107" lon="6.77416">
        <ele>2792.1999511719</ele>
        <time>2015-03-10T10:17:35.000Z</time>
      </trkpt>
      <trkpt lat="44.84107" lon="6.77419">
        <ele>2793</ele>
        <time>2015-03-10T10:17:39.000Z</time>
      </trkpt>
      <trkpt lat="44.84106" lon="6.77422">
        <ele>2793.3999023438</ele>
        <time>2015-03-10T10:17:40.000Z</time>
      </trkpt>
      <trkpt lat="44.84104" lon="6.77427">
        <ele>2794</ele>
        <time>2015-03-10T10:17:44.000Z</time>
      </trkpt>
      <trkpt lat="44.84103" lon="6.77431">
        <ele>2795</ele>
        <time>2015-03-10T10:17:48.000Z</time>
      </trkpt>
      <trkpt lat="44.84103" lon="6.77431">
        <ele>2795.6000976562</ele>
        <time>2015-03-10T10:17:49.000Z</time>
      </trkpt>
      <trkpt lat="44.84105" lon="6.77429">
        <ele>2796.6000976562</ele>
        <time>2015-03-10T10:17:56.000Z</time>
      </trkpt>
      <trkpt lat="44.84105" lon="6.77429">
        <ele>2796.8000488281</ele>
        <time>2015-03-10T10:17:57.000Z</time>
      </trkpt>
      <trkpt lat="44.8411" lon="6.77427">
        <ele>2797.8000488281</ele>
        <time>2015-03-10T10:18:03.000Z</time>
      </trkpt>
      <trkpt lat="44.84114" lon="6.77426">
        <ele>2798.8000488281</ele>
        <time>2015-03-10T10:18:08.000Z</time>
      </trkpt>
      <trkpt lat="44.84117" lon="6.77425">
        <ele>2799.3999023438</ele>
        <time>2015-03-10T10:18:11.000Z</time>
      </trkpt>
      <trkpt lat="44.84119" lon="6.77424">
        <ele>2800</ele>
        <time>2015-03-10T10:18:14.000Z</time>
      </trkpt>
      <trkpt lat="44.84122" lon="6.77424">
        <ele>2800.8000488281</ele>
        <time>2015-03-10T10:18:18.000Z</time>
      </trkpt>
      <trkpt lat="44.84123" lon="6.77424">
        <ele>2801.1999511719</ele>
        <time>2015-03-10T10:18:19.000Z</time>
      </trkpt>
      <trkpt lat="44.84126" lon="6.77428">
        <ele>2802.3999023438</ele>
        <time>2015-03-10T10:18:23.000Z</time>
      </trkpt>
      <trkpt lat="44.84125" lon="6.77428">
        <ele>2802.6000976562</ele>
        <time>2015-03-10T10:18:24.000Z</time>
      </trkpt>
      <trkpt lat="44.84125" lon="6.77435">
        <ele>2803.6000976562</ele>
        <time>2015-03-10T10:18:30.000Z</time>
      </trkpt>
      <trkpt lat="44.84125" lon="6.77435">
        <ele>2803.8000488281</ele>
        <time>2015-03-10T10:18:31.000Z</time>
      </trkpt>
      <trkpt lat="44.84125" lon="6.77436">
        <ele>2804.1999511719</ele>
        <time>2015-03-10T10:18:41.000Z</time>
      </trkpt>
      <trkpt lat="44.84124" lon="6.77443">
        <ele>2804.8000488281</ele>
        <time>2015-03-10T10:18:46.000Z</time>
      </trkpt>
      <trkpt lat="44.84124" lon="6.77443">
        <ele>2805</ele>
        <time>2015-03-10T10:18:47.000Z</time>
      </trkpt>
      <trkpt lat="44.84121" lon="6.77451">
        <ele>2805.8000488281</ele>
        <time>2015-03-10T10:18:52.000Z</time>
      </trkpt>
      <trkpt lat="44.84121" lon="6.77451">
        <ele>2806</ele>
        <time>2015-03-10T10:18:53.000Z</time>
      </trkpt>
      <trkpt lat="44.84118" lon="6.77456">
        <ele>2806.8000488281</ele>
        <time>2015-03-10T10:18:57.000Z</time>
      </trkpt>
      <trkpt lat="44.84116" lon="6.77458">
        <ele>2808</ele>
        <time>2015-03-10T10:19:01.000Z</time>
      </trkpt>
      <trkpt lat="44.84113" lon="6.77463">
        <ele>2809</ele>
        <time>2015-03-10T10:19:06.000Z</time>
      </trkpt>
      <trkpt lat="44.84113" lon="6.77464">
        <ele>2809.3999023438</ele>
        <time>2015-03-10T10:19:08.000Z</time>
      </trkpt>
      <trkpt lat="44.84111" lon="6.77468">
        <ele>2810</ele>
        <time>2015-03-10T10:19:13.000Z</time>
      </trkpt>
      <trkpt lat="44.8411" lon="6.77469">
        <ele>2810.6000976562</ele>
        <time>2015-03-10T10:19:15.000Z</time>
      </trkpt>
      <trkpt lat="44.84109" lon="6.7747">
        <ele>2811.1999511719</ele>
        <time>2015-03-10T10:19:17.000Z</time>
      </trkpt>
      <trkpt lat="44.84108" lon="6.77471">
        <ele>2812</ele>
        <time>2015-03-10T10:19:20.000Z</time>
      </trkpt>
      <trkpt lat="44.84108" lon="6.77471">
        <ele>2812.3999023438</ele>
        <time>2015-03-10T10:19:21.000Z</time>
      </trkpt>
      <trkpt lat="44.84108" lon="6.77471">
        <ele>2812.8000488281</ele>
        <time>2015-03-10T10:19:31.000Z</time>
      </trkpt>
      <trkpt lat="44.84108" lon="6.77471">
        <ele>2812.8000488281</ele>
        <time>2015-03-10T10:19:45.000Z</time>
      </trkpt>
      <trkpt lat="44.84108" lon="6.77471">
        <ele>2813</ele>
        <time>2015-03-10T10:19:57.000Z</time>
      </trkpt>
      <trkpt lat="44.84108" lon="6.77471">
        <ele>2813</ele>
        <time>2015-03-10T10:20:21.000Z</time>
      </trkpt>
      <trkpt lat="44.84108" lon="6.77471">
        <ele>2812.3999023438</ele>
        <time>2015-03-10T10:20:40.000Z</time>
      </trkpt>
      <trkpt lat="44.84108" lon="6.77471">
        <ele>2813.3999023438</ele>
        <time>2015-03-10T10:20:45.000Z</time>
      </trkpt>
      <trkpt lat="44.84108" lon="6.77471">
        <ele>2813.1999511719</ele>
        <time>2015-03-10T10:20:55.000Z</time>
      </trkpt>
      <trkpt lat="44.84108" lon="6.77471">
        <ele>2813</ele>
        <time>2015-03-10T10:21:06.000Z</time>
      </trkpt>
      <trkpt lat="44.84108" lon="6.77471">
        <ele>2813</ele>
        <time>2015-03-10T10:21:18.000Z</time>
      </trkpt>
      <trkpt lat="44.84109" lon="6.77472">
        <ele>2812.8000488281</ele>
        <time>2015-03-10T10:21:32.000Z</time>
      </trkpt>
      <trkpt lat="44.84109" lon="6.77472">
        <ele>2812.8000488281</ele>
        <time>2015-03-10T10:21:45.000Z</time>
      </trkpt>
      <trkpt lat="44.84109" lon="6.77472">
        <ele>2813</ele>
        <time>2015-03-10T10:22:03.000Z</time>
      </trkpt>
      <trkpt lat="44.84109" lon="6.77472">
        <ele>2813</ele>
        <time>2015-03-10T10:22:21.000Z</time>
      </trkpt>
      <trkpt lat="44.84109" lon="6.77472">
        <ele>2813</ele>
        <time>2015-03-10T10:22:36.000Z</time>
      </trkpt>
      <trkpt lat="44.84108" lon="6.77472">
        <ele>2813</ele>
        <time>2015-03-10T10:22:41.000Z</time>
      </trkpt>
      <trkpt lat="44.84108" lon="6.77472">
        <ele>2813</ele>
        <time>2015-03-10T10:22:49.000Z</time>
      </trkpt>
      <trkpt lat="44.84108" lon="6.77472">
        <ele>2812.8000488281</ele>
        <time>2015-03-10T10:23:03.000Z</time>
      </trkpt>
      <trkpt lat="44.84108" lon="6.77472">
        <ele>2812.8000488281</ele>
        <time>2015-03-10T10:23:14.000Z</time>
      </trkpt>
      <trkpt lat="44.84109" lon="6.77472">
        <ele>2813</ele>
        <time>2015-03-10T10:23:25.000Z</time>
      </trkpt>
      <trkpt lat="44.84108" lon="6.77471">
        <ele>2812.8000488281</ele>
        <time>2015-03-10T10:23:34.000Z</time>
      </trkpt>
      <trkpt lat="44.84108" lon="6.77471">
        <ele>2813</ele>
        <time>2015-03-10T10:23:49.000Z</time>
      </trkpt>
      <trkpt lat="44.84108" lon="6.77471">
        <ele>2813</ele>
        <time>2015-03-10T10:24:00.000Z</time>
      </trkpt>
      <trkpt lat="44.84108" lon="6.77471">
        <ele>2812.8000488281</ele>
        <time>2015-03-10T10:24:16.000Z</time>
      </trkpt>
      <trkpt lat="44.84108" lon="6.77471">
        <ele>2812.8000488281</ele>
        <time>2015-03-10T10:24:33.000Z</time>
      </trkpt>
      <trkpt lat="44.84108" lon="6.77471">
        <ele>2812.8000488281</ele>
        <time>2015-03-10T10:24:53.000Z</time>
      </trkpt>
      <trkpt lat="44.84108" lon="6.77471">
        <ele>2812</ele>
        <time>2015-03-10T10:24:58.000Z</time>
      </trkpt>
      <trkpt lat="44.84108" lon="6.77471">
        <ele>2812.8000488281</ele>
        <time>2015-03-10T10:25:08.000Z</time>
      </trkpt>
      <trkpt lat="44.84108" lon="6.77471">
        <ele>2812.6000976562</ele>
        <time>2015-03-10T10:25:21.000Z</time>
      </trkpt>
      <trkpt lat="44.84108" lon="6.77471">
        <ele>2812.6000976562</ele>
        <time>2015-03-10T10:25:38.000Z</time>
      </trkpt>
      <trkpt lat="44.84108" lon="6.77471">
        <ele>2813.1999511719</ele>
        <time>2015-03-10T10:25:49.000Z</time>
      </trkpt>
      <trkpt lat="44.84108" lon="6.77471">
        <ele>2813.1999511719</ele>
        <time>2015-03-10T10:25:54.000Z</time>
      </trkpt>
      <trkpt lat="44.84108" lon="6.77471">
        <ele>2812.8000488281</ele>
        <time>2015-03-10T10:26:08.000Z</time>
      </trkpt>
      <trkpt lat="44.84108" lon="6.77471">
        <ele>2812.8000488281</ele>
        <time>2015-03-10T10:26:24.000Z</time>
      </trkpt>
      <trkpt lat="44.84107" lon="6.77471">
        <ele>2812.6000976562</ele>
        <time>2015-03-10T10:26:35.000Z</time>
      </trkpt>
      <trkpt lat="44.84107" lon="6.77471">
        <ele>2812.8000488281</ele>
        <time>2015-03-10T10:26:52.000Z</time>
      </trkpt>
      <trkpt lat="44.84107" lon="6.77472">
        <ele>2812.6000976562</ele>
        <time>2015-03-10T10:27:09.000Z</time>
      </trkpt>
      <trkpt lat="44.84107" lon="6.77472">
        <ele>2812.6000976562</ele>
        <time>2015-03-10T10:27:25.000Z</time>
      </trkpt>
      <trkpt lat="44.84107" lon="6.77472">
        <ele>2812.8000488281</ele>
        <time>2015-03-10T10:27:41.000Z</time>
      </trkpt>
      <trkpt lat="44.84107" lon="6.77472">
        <ele>2812.6000976562</ele>
        <time>2015-03-10T10:27:53.000Z</time>
      </trkpt>
      <trkpt lat="44.84107" lon="6.77472">
        <ele>2812.6000976562</ele>
        <time>2015-03-10T10:28:10.000Z</time>
      </trkpt>
      <trkpt lat="44.84107" lon="6.77473">
        <ele>2812.6000976562</ele>
        <time>2015-03-10T10:28:28.000Z</time>
      </trkpt>
      <trkpt lat="44.84107" lon="6.77473">
        <ele>2812.8000488281</ele>
        <time>2015-03-10T10:28:46.000Z</time>
      </trkpt>
      <trkpt lat="44.84107" lon="6.77473">
        <ele>2812.8000488281</ele>
        <time>2015-03-10T10:29:04.000Z</time>
      </trkpt>
      <trkpt lat="44.84107" lon="6.77472">
        <ele>2812.8000488281</ele>
        <time>2015-03-10T10:29:12.000Z</time>
      </trkpt>
      <trkpt lat="44.84107" lon="6.77472">
        <ele>2812.3999023438</ele>
        <time>2015-03-10T10:29:24.000Z</time>
      </trkpt>
      <trkpt lat="44.84107" lon="6.77472">
        <ele>2812.6000976562</ele>
        <time>2015-03-10T10:29:42.000Z</time>
      </trkpt>
      <trkpt lat="44.84107" lon="6.77472">
        <ele>2812.6000976562</ele>
        <time>2015-03-10T10:29:59.000Z</time>
      </trkpt>
      <trkpt lat="44.84107" lon="6.77472">
        <ele>2812.8000488281</ele>
        <time>2015-03-10T10:30:14.000Z</time>
      </trkpt>
      <trkpt lat="44.84107" lon="6.77472">
        <ele>2813</ele>
        <time>2015-03-10T10:30:28.000Z</time>
      </trkpt>
      <trkpt lat="44.84108" lon="6.77473">
        <ele>2812.6000976562</ele>
        <time>2015-03-10T10:30:44.000Z</time>
      </trkpt>
      <trkpt lat="44.84108" lon="6.77473">
        <ele>2812.8000488281</ele>
        <time>2015-03-10T10:30:56.000Z</time>
      </trkpt>
      <trkpt lat="44.84108" lon="6.77473">
        <ele>2812.6000976562</ele>
        <time>2015-03-10T10:31:04.000Z</time>
      </trkpt>
      <trkpt lat="44.84107" lon="6.77473">
        <ele>2812.8000488281</ele>
        <time>2015-03-10T10:31:22.000Z</time>
      </trkpt>
      <trkpt lat="44.84107" lon="6.77473">
        <ele>2813</ele>
        <time>2015-03-10T10:31:34.000Z</time>
      </trkpt>
      <trkpt lat="44.84107" lon="6.77473">
        <ele>2813</ele>
        <time>2015-03-10T10:31:46.000Z</time>
      </trkpt>
      <trkpt lat="44.84107" lon="6.77473">
        <ele>2812.6000976562</ele>
        <time>2015-03-10T10:32:01.000Z</time>
      </trkpt>
      <trkpt lat="44.84107" lon="6.77473">
        <ele>2812.8000488281</ele>
        <time>2015-03-10T10:32:10.000Z</time>
      </trkpt>
      <trkpt lat="44.84107" lon="6.77473">
        <ele>2812.3999023438</ele>
        <time>2015-03-10T10:32:22.000Z</time>
      </trkpt>
      <trkpt lat="44.84107" lon="6.77473">
        <ele>2812.6000976562</ele>
        <time>2015-03-10T10:32:34.000Z</time>
      </trkpt>
      <trkpt lat="44.84107" lon="6.77473">
        <ele>2812.3999023438</ele>
        <time>2015-03-10T10:32:45.000Z</time>
      </trkpt>
      <trkpt lat="44.84107" lon="6.77472">
        <ele>2812.6000976562</ele>
        <time>2015-03-10T10:32:58.000Z</time>
      </trkpt>
      <trkpt lat="44.84107" lon="6.77472">
        <ele>2812.6000976562</ele>
        <time>2015-03-10T10:33:13.000Z</time>
      </trkpt>
      <trkpt lat="44.84107" lon="6.77472">
        <ele>2812.3999023438</ele>
        <time>2015-03-10T10:33:26.000Z</time>
      </trkpt>
      <trkpt lat="44.84107" lon="6.77473">
        <ele>2812.8000488281</ele>
        <time>2015-03-10T10:33:45.000Z</time>
      </trkpt>
      <trkpt lat="44.84107" lon="6.77473">
        <ele>2812.6000976562</ele>
        <time>2015-03-10T10:34:03.000Z</time>
      </trkpt>
      <trkpt lat="44.84107" lon="6.77472">
        <ele>2812.8000488281</ele>
        <time>2015-03-10T10:34:17.000Z</time>
      </trkpt>
      <trkpt lat="44.84107" lon="6.77472">
        <ele>2812.6000976562</ele>
        <time>2015-03-10T10:34:29.000Z</time>
      </trkpt>
      <trkpt lat="44.84107" lon="6.77472">
        <ele>2812.6000976562</ele>
        <time>2015-03-10T10:34:40.000Z</time>
      </trkpt>
      <trkpt lat="44.84106" lon="6.77472">
        <ele>2812.8000488281</ele>
        <time>2015-03-10T10:34:56.000Z</time>
      </trkpt>
      <trkpt lat="44.84106" lon="6.77472">
        <ele>2812.8000488281</ele>
        <time>2015-03-10T10:35:09.000Z</time>
      </trkpt>
      <trkpt lat="44.84106" lon="6.77472">
        <ele>2812.8000488281</ele>
        <time>2015-03-10T10:35:24.000Z</time>
      </trkpt>
      <trkpt lat="44.84107" lon="6.77472">
        <ele>2812.8000488281</ele>
        <time>2015-03-10T10:35:43.000Z</time>
      </trkpt>
      <trkpt lat="44.84107" lon="6.77472">
        <ele>2812.8000488281</ele>
        <time>2015-03-10T10:35:57.000Z</time>
      </trkpt>
      <trkpt lat="44.84107" lon="6.77472">
        <ele>2812.8000488281</ele>
        <time>2015-03-10T10:36:22.000Z</time>
      </trkpt>
      <trkpt lat="44.84107" lon="6.77472">
        <ele>2812.8000488281</ele>
        <time>2015-03-10T10:36:36.000Z</time>
      </trkpt>
      <trkpt lat="44.84107" lon="6.77472">
        <ele>2813</ele>
        <time>2015-03-10T10:36:56.000Z</time>
      </trkpt>
      <trkpt lat="44.84107" lon="6.77472">
        <ele>2813</ele>
        <time>2015-03-10T10:37:13.000Z</time>
      </trkpt>
      <trkpt lat="44.84107" lon="6.77472">
        <ele>2813</ele>
        <time>2015-03-10T10:37:28.000Z</time>
      </trkpt>
      <trkpt lat="44.84107" lon="6.77472">
        <ele>2812</ele>
        <time>2015-03-10T10:37:34.000Z</time>
      </trkpt>
      <trkpt lat="44.84107" lon="6.77472">
        <ele>2813.1999511719</ele>
        <time>2015-03-10T10:37:39.000Z</time>
      </trkpt>
      <trkpt lat="44.84107" lon="6.77472">
        <ele>2813.3999023438</ele>
        <time>2015-03-10T10:37:55.000Z</time>
      </trkpt>
      <trkpt lat="44.84108" lon="6.77473">
        <ele>2813.8000488281</ele>
        <time>2015-03-10T10:38:11.000Z</time>
      </trkpt>
      <trkpt lat="44.8411" lon="6.77474">
        <ele>2813.3999023438</ele>
        <time>2015-03-10T10:38:19.000Z</time>
      </trkpt>
      <trkpt lat="44.8411" lon="6.77474">
        <ele>2813.6000976562</ele>
        <time>2015-03-10T10:38:31.000Z</time>
      </trkpt>
      <trkpt lat="44.8411" lon="6.77474">
        <ele>2812.1999511719</ele>
        <time>2015-03-10T10:38:38.000Z</time>
      </trkpt>
      <trkpt lat="44.8411" lon="6.77474">
        <ele>2813.3999023438</ele>
        <time>2015-03-10T10:38:40.000Z</time>
      </trkpt>
      <trkpt lat="44.8411" lon="6.77474">
        <ele>2814.1999511719</ele>
        <time>2015-03-10T10:38:43.000Z</time>
      </trkpt>
      <trkpt lat="44.8411" lon="6.77474">
        <ele>2814.3999023438</ele>
        <time>2015-03-10T10:38:46.000Z</time>
      </trkpt>
      <trkpt lat="44.8411" lon="6.77474">
        <ele>2813.3999023438</ele>
        <time>2015-03-10T10:38:57.000Z</time>
      </trkpt>
      <trkpt lat="44.8411" lon="6.77474">
        <ele>2813.6000976562</ele>
        <time>2015-03-10T10:39:06.000Z</time>
      </trkpt>
      <trkpt lat="44.84109" lon="6.77473">
        <ele>2813.6000976562</ele>
        <time>2015-03-10T10:39:13.000Z</time>
      </trkpt>
      <trkpt lat="44.84109" lon="6.77473">
        <ele>2813.3999023438</ele>
        <time>2015-03-10T10:39:23.000Z</time>
      </trkpt>
      <trkpt lat="44.84109" lon="6.77473">
        <ele>2813.3999023438</ele>
        <time>2015-03-10T10:39:27.000Z</time>
      </trkpt>
      <trkpt lat="44.84109" lon="6.77473">
        <ele>2813.6000976562</ele>
        <time>2015-03-10T10:39:41.000Z</time>
      </trkpt>
      <trkpt lat="44.84109" lon="6.77473">
        <ele>2813.1999511719</ele>
        <time>2015-03-10T10:39:55.000Z</time>
      </trkpt>
      <trkpt lat="44.84109" lon="6.77473">
        <ele>2813.3999023438</ele>
        <time>2015-03-10T10:40:09.000Z</time>
      </trkpt>
      <trkpt lat="44.84109" lon="6.77473">
        <ele>2813.1999511719</ele>
        <time>2015-03-10T10:40:22.000Z</time>
      </trkpt>
      <trkpt lat="44.84109" lon="6.77473">
        <ele>2813.1999511719</ele>
        <time>2015-03-10T10:40:41.000Z</time>
      </trkpt>
      <trkpt lat="44.84109" lon="6.77473">
        <ele>2813.1999511719</ele>
        <time>2015-03-10T10:40:54.000Z</time>
      </trkpt>
      <trkpt lat="44.84109" lon="6.77474">
        <ele>2813.3999023438</ele>
        <time>2015-03-10T10:41:04.000Z</time>
      </trkpt>
      <trkpt lat="44.8411" lon="6.77475">
        <ele>2813.8000488281</ele>
        <time>2015-03-10T10:41:12.000Z</time>
      </trkpt>
      <trkpt lat="44.8411" lon="6.77475">
        <ele>2813.8000488281</ele>
        <time>2015-03-10T10:41:30.000Z</time>
      </trkpt>
      <trkpt lat="44.8411" lon="6.77475">
        <ele>2813.8000488281</ele>
        <time>2015-03-10T10:41:43.000Z</time>
      </trkpt>
      <trkpt lat="44.8411" lon="6.77475">
        <ele>2813.6000976562</ele>
        <time>2015-03-10T10:41:55.000Z</time>
      </trkpt>
      <trkpt lat="44.8411" lon="6.77475">
        <ele>2813.6000976562</ele>
        <time>2015-03-10T10:42:12.000Z</time>
      </trkpt>
      <trkpt lat="44.84109" lon="6.77476">
        <ele>2813.8000488281</ele>
        <time>2015-03-10T10:42:25.000Z</time>
      </trkpt>
      <trkpt lat="44.84109" lon="6.77476">
        <ele>2813.6000976562</ele>
        <time>2015-03-10T10:42:42.000Z</time>
      </trkpt>
      <trkpt lat="44.8411" lon="6.77476">
        <ele>2813.8000488281</ele>
        <time>2015-03-10T10:43:01.000Z</time>
      </trkpt>
      <trkpt lat="44.84109" lon="6.77475">
        <ele>2813.8000488281</ele>
        <time>2015-03-10T10:43:18.000Z</time>
      </trkpt>
      <trkpt lat="44.8411" lon="6.77476">
        <ele>2813.6000976562</ele>
        <time>2015-03-10T10:43:25.000Z</time>
      </trkpt>
      <trkpt lat="44.84108" lon="6.77475">
        <ele>2814</ele>
        <time>2015-03-10T10:43:31.000Z</time>
      </trkpt>
      <trkpt lat="44.84109" lon="6.77475">
        <ele>2813.8000488281</ele>
        <time>2015-03-10T10:43:39.000Z</time>
      </trkpt>
      <trkpt lat="44.84109" lon="6.77475">
        <ele>2813.8000488281</ele>
        <time>2015-03-10T10:43:51.000Z</time>
      </trkpt>
      <trkpt lat="44.84109" lon="6.77475">
        <ele>2813.8000488281</ele>
        <time>2015-03-10T10:44:03.000Z</time>
      </trkpt>
      <trkpt lat="44.84109" lon="6.77475">
        <ele>2813.8000488281</ele>
        <time>2015-03-10T10:44:19.000Z</time>
      </trkpt>
      <trkpt lat="44.84109" lon="6.77475">
        <ele>2813.6000976562</ele>
        <time>2015-03-10T10:44:26.000Z</time>
      </trkpt>
      <trkpt lat="44.84108" lon="6.77472">
        <ele>2813.3999023438</ele>
        <time>2015-03-10T10:44:33.000Z</time>
      </trkpt>
      <trkpt lat="44.84108" lon="6.77472">
        <ele>2812.8000488281</ele>
        <time>2015-03-10T10:44:48.000Z</time>
      </trkpt>
      <trkpt lat="44.84109" lon="6.77473">
        <ele>2813.1999511719</ele>
        <time>2015-03-10T10:44:57.000Z</time>
      </trkpt>
      <trkpt lat="44.8411" lon="6.77476">
        <ele>2813.8000488281</ele>
        <time>2015-03-10T10:45:04.000Z</time>
      </trkpt>
      <trkpt lat="44.8411" lon="6.77476">
        <ele>2813.8000488281</ele>
        <time>2015-03-10T10:45:22.000Z</time>
      </trkpt>
      <trkpt lat="44.84109" lon="6.77475">
        <ele>2813.6000976562</ele>
        <time>2015-03-10T10:45:40.000Z</time>
      </trkpt>
      <trkpt lat="44.84109" lon="6.77475">
        <ele>2813.6000976562</ele>
        <time>2015-03-10T10:45:47.000Z</time>
      </trkpt>
      <trkpt lat="44.84109" lon="6.77475">
        <ele>2813.6000976562</ele>
        <time>2015-03-10T10:46:05.000Z</time>
      </trkpt>
      <trkpt lat="44.84109" lon="6.77475">
        <ele>2813.3999023438</ele>
        <time>2015-03-10T10:46:16.000Z</time>
      </trkpt>
      <trkpt lat="44.8411" lon="6.77477">
        <ele>2813.3999023438</ele>
        <time>2015-03-10T10:46:22.000Z</time>
      </trkpt>
      <trkpt lat="44.84109" lon="6.77476">
        <ele>2813.8000488281</ele>
        <time>2015-03-10T10:46:29.000Z</time>
      </trkpt>
      <trkpt lat="44.84109" lon="6.77476">
        <ele>2813.3999023438</ele>
        <time>2015-03-10T10:46:38.000Z</time>
      </trkpt>
      <trkpt lat="44.84109" lon="6.77476">
        <ele>2813.1999511719</ele>
        <time>2015-03-10T10:46:52.000Z</time>
      </trkpt>
      <trkpt lat="44.84109" lon="6.77476">
        <ele>2813.3999023438</ele>
        <time>2015-03-10T10:47:10.000Z</time>
      </trkpt>
      <trkpt lat="44.84109" lon="6.77476">
        <ele>2813.6000976562</ele>
        <time>2015-03-10T10:47:23.000Z</time>
      </trkpt>
      <trkpt lat="44.84109" lon="6.77476">
        <ele>2813.6000976562</ele>
        <time>2015-03-10T10:47:42.000Z</time>
      </trkpt>
      <trkpt lat="44.84109" lon="6.77476">
        <ele>2813.6000976562</ele>
        <time>2015-03-10T10:48:01.000Z</time>
      </trkpt>
      <trkpt lat="44.84109" lon="6.77476">
        <ele>2813.3999023438</ele>
        <time>2015-03-10T10:48:21.000Z</time>
      </trkpt>
      <trkpt lat="44.84109" lon="6.77475">
        <ele>2813</ele>
        <time>2015-03-10T10:48:42.000Z</time>
      </trkpt>
      <trkpt lat="44.84109" lon="6.77475">
        <ele>2813.3999023438</ele>
        <time>2015-03-10T10:48:57.000Z</time>
      </trkpt>
      <trkpt lat="44.84109" lon="6.77475">
        <ele>2813.3999023438</ele>
        <time>2015-03-10T10:49:14.000Z</time>
      </trkpt>
      <trkpt lat="44.84109" lon="6.77475">
        <ele>2813.3999023438</ele>
        <time>2015-03-10T10:49:28.000Z</time>
      </trkpt>
      <trkpt lat="44.84109" lon="6.77475">
        <ele>2813.3999023438</ele>
        <time>2015-03-10T10:49:48.000Z</time>
      </trkpt>
      <trkpt lat="44.84109" lon="6.77475">
        <ele>2813</ele>
        <time>2015-03-10T10:50:06.000Z</time>
      </trkpt>
      <trkpt lat="44.84109" lon="6.77475">
        <ele>2813.1999511719</ele>
        <time>2015-03-10T10:50:18.000Z</time>
      </trkpt>
      <trkpt lat="44.84109" lon="6.77475">
        <ele>2813.8000488281</ele>
        <time>2015-03-10T10:50:35.000Z</time>
      </trkpt>
      <trkpt lat="44.84109" lon="6.77475">
        <ele>2813.1999511719</ele>
        <time>2015-03-10T10:51:00.000Z</time>
      </trkpt>
      <trkpt lat="44.84109" lon="6.77475">
        <ele>2813.1999511719</ele>
        <time>2015-03-10T10:51:18.000Z</time>
      </trkpt>
      <trkpt lat="44.84109" lon="6.77475">
        <ele>2813.1999511719</ele>
        <time>2015-03-10T10:51:38.000Z</time>
      </trkpt>
      <trkpt lat="44.84109" lon="6.77475">
        <ele>2813</ele>
        <time>2015-03-10T10:51:50.000Z</time>
      </trkpt>
      <trkpt lat="44.84109" lon="6.77475">
        <ele>2813.1999511719</ele>
        <time>2015-03-10T10:52:03.000Z</time>
      </trkpt>
      <trkpt lat="44.84109" lon="6.77475">
        <ele>2813.3999023438</ele>
        <time>2015-03-10T10:52:18.000Z</time>
      </trkpt>
      <trkpt lat="44.84109" lon="6.77475">
        <ele>2813</ele>
        <time>2015-03-10T10:52:26.000Z</time>
      </trkpt>
      <trkpt lat="44.84109" lon="6.77475">
        <ele>2813.6000976562</ele>
        <time>2015-03-10T10:52:37.000Z</time>
      </trkpt>
      <trkpt lat="44.84109" lon="6.77475">
        <ele>2813.1999511719</ele>
        <time>2015-03-10T10:52:47.000Z</time>
      </trkpt>
      <trkpt lat="44.84109" lon="6.77475">
        <ele>2812.6000976562</ele>
        <time>2015-03-10T10:52:59.000Z</time>
      </trkpt>
      <trkpt lat="44.84109" lon="6.77475">
        <ele>2812.1999511719</ele>
        <time>2015-03-10T10:53:02.000Z</time>
      </trkpt>
      <trkpt lat="44.84109" lon="6.77475">
        <ele>2813.3999023438</ele>
        <time>2015-03-10T10:53:12.000Z</time>
      </trkpt>
      <trkpt lat="44.84109" lon="6.77475">
        <ele>2813.3999023438</ele>
        <time>2015-03-10T10:53:16.000Z</time>
      </trkpt>
      <trkpt lat="44.84109" lon="6.77475">
        <ele>2813</ele>
        <time>2015-03-10T10:53:25.000Z</time>
      </trkpt>
      <trkpt lat="44.84109" lon="6.77475">
        <ele>2812.1999511719</ele>
        <time>2015-03-10T10:53:35.000Z</time>
      </trkpt>
      <trkpt lat="44.84109" lon="6.77475">
        <ele>2812.3999023438</ele>
        <time>2015-03-10T10:53:39.000Z</time>
      </trkpt>
      <trkpt lat="44.84109" lon="6.77475">
        <ele>2813.3999023438</ele>
        <time>2015-03-10T10:53:53.000Z</time>
      </trkpt>
      <trkpt lat="44.84109" lon="6.77475">
        <ele>2813.1999511719</ele>
        <time>2015-03-10T10:53:56.000Z</time>
      </trkpt>
      <trkpt lat="44.84109" lon="6.77475">
        <ele>2813</ele>
        <time>2015-03-10T10:54:04.000Z</time>
      </trkpt>
      <trkpt lat="44.84112" lon="6.77472">
        <ele>2813</ele>
        <time>2015-03-10T10:54:13.000Z</time>
      </trkpt>
      <trkpt lat="44.8412" lon="6.77457">
        <ele>2812.3999023438</ele>
        <time>2015-03-10T10:54:16.000Z</time>
      </trkpt>
      <trkpt lat="44.84123" lon="6.77452">
        <ele>2811</ele>
        <time>2015-03-10T10:54:17.000Z</time>
      </trkpt>
      <trkpt lat="44.84124" lon="6.77446">
        <ele>2810</ele>
        <time>2015-03-10T10:54:18.000Z</time>
      </trkpt>
      <trkpt lat="44.84125" lon="6.77439">
        <ele>2809.1999511719</ele>
        <time>2015-03-10T10:54:19.000Z</time>
      </trkpt>
      <trkpt lat="44.84126" lon="6.77431">
        <ele>2808.3999023438</ele>
        <time>2015-03-10T10:54:20.000Z</time>
      </trkpt>
      <trkpt lat="44.84126" lon="6.77423">
        <ele>2807.6000976562</ele>
        <time>2015-03-10T10:54:21.000Z</time>
      </trkpt>
      <trkpt lat="44.84125" lon="6.77412">
        <ele>2805.6000976562</ele>
        <time>2015-03-10T10:54:23.000Z</time>
      </trkpt>
      <trkpt lat="44.84122" lon="6.77403">
        <ele>2804.1999511719</ele>
        <time>2015-03-10T10:54:25.000Z</time>
      </trkpt>
      <trkpt lat="44.84121" lon="6.774">
        <ele>2803.1999511719</ele>
        <time>2015-03-10T10:54:26.000Z</time>
      </trkpt>
      <trkpt lat="44.84121" lon="6.77399">
        <ele>2802.1999511719</ele>
        <time>2015-03-10T10:54:27.000Z</time>
      </trkpt>
      <trkpt lat="44.84121" lon="6.77397">
        <ele>2801</ele>
        <time>2015-03-10T10:54:28.000Z</time>
      </trkpt>
      <trkpt lat="44.84115" lon="6.77405">
        <ele>2799.6000976562</ele>
        <time>2015-03-10T10:54:29.000Z</time>
      </trkpt>
      <trkpt lat="44.84111" lon="6.77408">
        <ele>2798.1999511719</ele>
        <time>2015-03-10T10:54:30.000Z</time>
      </trkpt>
      <trkpt lat="44.84109" lon="6.77408">
        <ele>2797.1999511719</ele>
        <time>2015-03-10T10:54:31.000Z</time>
      </trkpt>
      <trkpt lat="44.84107" lon="6.77401">
        <ele>2795.8000488281</ele>
        <time>2015-03-10T10:54:33.000Z</time>
      </trkpt>
      <trkpt lat="44.84105" lon="6.77391">
        <ele>2794.3999023438</ele>
        <time>2015-03-10T10:54:35.000Z</time>
      </trkpt>
      <trkpt lat="44.84104" lon="6.77386">
        <ele>2793.1999511719</ele>
        <time>2015-03-10T10:54:36.000Z</time>
      </trkpt>
      <trkpt lat="44.84103" lon="6.77381">
        <ele>2791.6000976562</ele>
        <time>2015-03-10T10:54:37.000Z</time>
      </trkpt>
      <trkpt lat="44.84102" lon="6.77377">
        <ele>2789.6000976562</ele>
        <time>2015-03-10T10:54:38.000Z</time>
      </trkpt>
      <trkpt lat="44.84101" lon="6.77373">
        <ele>2787.3999023438</ele>
        <time>2015-03-10T10:54:39.000Z</time>
      </trkpt>
      <trkpt lat="44.841" lon="6.77369">
        <ele>2785.3999023438</ele>
        <time>2015-03-10T10:54:40.000Z</time>
      </trkpt>
      <trkpt lat="44.84099" lon="6.77365">
        <ele>2782.8000488281</ele>
        <time>2015-03-10T10:54:41.000Z</time>
      </trkpt>
      <trkpt lat="44.84088" lon="6.77376">
        <ele>2782.1999511719</ele>
        <time>2015-03-10T10:54:42.000Z</time>
      </trkpt>
      <trkpt lat="44.84079" lon="6.77386">
        <ele>2781.6000976562</ele>
        <time>2015-03-10T10:54:43.000Z</time>
      </trkpt>
      <trkpt lat="44.84071" lon="6.7739">
        <ele>2780.3999023438</ele>
        <time>2015-03-10T10:54:45.000Z</time>
      </trkpt>
      <trkpt lat="44.84076" lon="6.77383">
        <ele>2778.6000976562</ele>
        <time>2015-03-10T10:54:47.000Z</time>
      </trkpt>
      <trkpt lat="44.84078" lon="6.77378">
        <ele>2777.3999023438</ele>
        <time>2015-03-10T10:54:48.000Z</time>
      </trkpt>
      <trkpt lat="44.84081" lon="6.77372">
        <ele>2776</ele>
        <time>2015-03-10T10:54:49.000Z</time>
      </trkpt>
      <trkpt lat="44.84083" lon="6.77367">
        <ele>2774.3999023438</ele>
        <time>2015-03-10T10:54:50.000Z</time>
      </trkpt>
      <trkpt lat="44.84085" lon="6.77364">
        <ele>2772.8000488281</ele>
        <time>2015-03-10T10:54:51.000Z</time>
      </trkpt>
      <trkpt lat="44.84085" lon="6.77363">
        <ele>2771</ele>
        <time>2015-03-10T10:54:52.000Z</time>
      </trkpt>
      <trkpt lat="44.84084" lon="6.77364">
        <ele>2769</ele>
        <time>2015-03-10T10:54:53.000Z</time>
      </trkpt>
      <trkpt lat="44.84082" lon="6.77363">
        <ele>2766.8000488281</ele>
        <time>2015-03-10T10:54:54.000Z</time>
      </trkpt>
      <trkpt lat="44.84074" lon="6.77361">
        <ele>2765</ele>
        <time>2015-03-10T10:54:55.000Z</time>
      </trkpt>
      <trkpt lat="44.84067" lon="6.77358">
        <ele>2763.3999023438</ele>
        <time>2015-03-10T10:54:56.000Z</time>
      </trkpt>
      <trkpt lat="44.84066" lon="6.77354">
        <ele>2762</ele>
        <time>2015-03-10T10:54:57.000Z</time>
      </trkpt>
      <trkpt lat="44.84067" lon="6.77348">
        <ele>2760.6000976562</ele>
        <time>2015-03-10T10:54:58.000Z</time>
      </trkpt>
      <trkpt lat="44.84071" lon="6.77343">
        <ele>2759.3999023438</ele>
        <time>2015-03-10T10:54:59.000Z</time>
      </trkpt>
      <trkpt lat="44.84073" lon="6.77338">
        <ele>2758.3999023438</ele>
        <time>2015-03-10T10:55:00.000Z</time>
      </trkpt>
      <trkpt lat="44.84075" lon="6.77336">
        <ele>2757.1999511719</ele>
        <time>2015-03-10T10:55:01.000Z</time>
      </trkpt>
      <trkpt lat="44.84075" lon="6.77335">
        <ele>2755.8000488281</ele>
        <time>2015-03-10T10:55:02.000Z</time>
      </trkpt>
      <trkpt lat="44.84074" lon="6.77336">
        <ele>2754.6000976562</ele>
        <time>2015-03-10T10:55:03.000Z</time>
      </trkpt>
      <trkpt lat="44.84074" lon="6.77336">
        <ele>2752.6000976562</ele>
        <time>2015-03-10T10:55:05.000Z</time>
      </trkpt>
      <trkpt lat="44.84074" lon="6.77336">
        <ele>2752.3999023438</ele>
        <time>2015-03-10T10:55:06.000Z</time>
      </trkpt>
      <trkpt lat="44.84077" lon="6.77326">
        <ele>2752</ele>
        <time>2015-03-10T10:55:10.000Z</time>
      </trkpt>
      <trkpt lat="44.8408" lon="6.77318">
        <ele>2751.3999023438</ele>
        <time>2015-03-10T10:55:12.000Z</time>
      </trkpt>
      <trkpt lat="44.84083" lon="6.77306">
        <ele>2750.3999023438</ele>
        <time>2015-03-10T10:55:14.000Z</time>
      </trkpt>
      <trkpt lat="44.84084" lon="6.77301">
        <ele>2749.8000488281</ele>
        <time>2015-03-10T10:55:15.000Z</time>
      </trkpt>
      <trkpt lat="44.84085" lon="6.77294">
        <ele>2749</ele>
        <time>2015-03-10T10:55:17.000Z</time>
      </trkpt>
      <trkpt lat="44.84086" lon="6.77282">
        <ele>2747.3999023438</ele>
        <time>2015-03-10T10:55:19.000Z</time>
      </trkpt>
      <trkpt lat="44.84084" lon="6.77275">
        <ele>2745.6000976562</ele>
        <time>2015-03-10T10:55:20.000Z</time>
      </trkpt>
      <trkpt lat="44.84083" lon="6.77268">
        <ele>2743.8000488281</ele>
        <time>2015-03-10T10:55:21.000Z</time>
      </trkpt>
      <trkpt lat="44.84082" lon="6.77262">
        <ele>2742.3999023438</ele>
        <time>2015-03-10T10:55:22.000Z</time>
      </trkpt>
      <trkpt lat="44.84079" lon="6.7726">
        <ele>2741</ele>
        <time>2015-03-10T10:55:23.000Z</time>
      </trkpt>
      <trkpt lat="44.84076" lon="6.77255">
        <ele>2739</ele>
        <time>2015-03-10T10:55:24.000Z</time>
      </trkpt>
      <trkpt lat="44.84073" lon="6.77249">
        <ele>2736.8000488281</ele>
        <time>2015-03-10T10:55:25.000Z</time>
      </trkpt>
      <trkpt lat="44.8407" lon="6.77246">
        <ele>2734.8000488281</ele>
        <time>2015-03-10T10:55:26.000Z</time>
      </trkpt>
      <trkpt lat="44.84064" lon="6.77246">
        <ele>2733.1999511719</ele>
        <time>2015-03-10T10:55:27.000Z</time>
      </trkpt>
      <trkpt lat="44.84062" lon="6.77242">
        <ele>2731.1999511719</ele>
        <time>2015-03-10T10:55:28.000Z</time>
      </trkpt>
      <trkpt lat="44.84058" lon="6.77237">
        <ele>2726.8000488281</ele>
        <time>2015-03-10T10:55:29.000Z</time>
      </trkpt>
      <trkpt lat="44.84056" lon="6.77232">
        <ele>2724.6000976562</ele>
        <time>2015-03-10T10:55:30.000Z</time>
      </trkpt>
      <trkpt lat="44.84054" lon="6.77228">
        <ele>2722</ele>
        <time>2015-03-10T10:55:31.000Z</time>
      </trkpt>
      <trkpt lat="44.84052" lon="6.77223">
        <ele>2719.3999023438</ele>
        <time>2015-03-10T10:55:32.000Z</time>
      </trkpt>
      <trkpt lat="44.84049" lon="6.77218">
        <ele>2717.1999511719</ele>
        <time>2015-03-10T10:55:33.000Z</time>
      </trkpt>
      <trkpt lat="44.84045" lon="6.77212">
        <ele>2715.6000976562</ele>
        <time>2015-03-10T10:55:34.000Z</time>
      </trkpt>
      <trkpt lat="44.84042" lon="6.77206">
        <ele>2714.6000976562</ele>
        <time>2015-03-10T10:55:35.000Z</time>
      </trkpt>
      <trkpt lat="44.84039" lon="6.77201">
        <ele>2713.6000976562</ele>
        <time>2015-03-10T10:55:36.000Z</time>
      </trkpt>
      <trkpt lat="44.84029" lon="6.77205">
        <ele>2712.3999023438</ele>
        <time>2015-03-10T10:55:37.000Z</time>
      </trkpt>
      <trkpt lat="44.84019" lon="6.77213">
        <ele>2711.1999511719</ele>
        <time>2015-03-10T10:55:38.000Z</time>
      </trkpt>
      <trkpt lat="44.8401" lon="6.77218">
        <ele>2710.1999511719</ele>
        <time>2015-03-10T10:55:39.000Z</time>
      </trkpt>
      <trkpt lat="44.83999" lon="6.7722">
        <ele>2708.8000488281</ele>
        <time>2015-03-10T10:55:41.000Z</time>
      </trkpt>
      <trkpt lat="44.83994" lon="6.77219">
        <ele>2706.8000488281</ele>
        <time>2015-03-10T10:55:43.000Z</time>
      </trkpt>
      <trkpt lat="44.83993" lon="6.77219">
        <ele>2705.6000976562</ele>
        <time>2015-03-10T10:55:44.000Z</time>
      </trkpt>
      <trkpt lat="44.83992" lon="6.77221">
        <ele>2704.1999511719</ele>
        <time>2015-03-10T10:55:46.000Z</time>
      </trkpt>
      <trkpt lat="44.83992" lon="6.77221">
        <ele>2702.8000488281</ele>
        <time>2015-03-10T10:55:48.000Z</time>
      </trkpt>
      <trkpt lat="44.83992" lon="6.77221">
        <ele>2701.3999023438</ele>
        <time>2015-03-10T10:55:51.000Z</time>
      </trkpt>
      <trkpt lat="44.83992" lon="6.77221">
        <ele>2701.1999511719</ele>
        <time>2015-03-10T10:55:59.000Z</time>
      </trkpt>
      <trkpt lat="44.83992" lon="6.77221">
        <ele>2701.1999511719</ele>
        <time>2015-03-10T10:56:22.000Z</time>
      </trkpt>
      <trkpt lat="44.83992" lon="6.77222">
        <ele>2701.1999511719</ele>
        <time>2015-03-10T10:56:26.000Z</time>
      </trkpt>
      <trkpt lat="44.83996" lon="6.77222">
        <ele>2701</ele>
        <time>2015-03-10T10:56:28.000Z</time>
      </trkpt>
      <trkpt lat="44.84009" lon="6.77216">
        <ele>2700.3999023438</ele>
        <time>2015-03-10T10:56:31.000Z</time>
      </trkpt>
      <trkpt lat="44.84013" lon="6.77214">
        <ele>2699.6000976562</ele>
        <time>2015-03-10T10:56:32.000Z</time>
      </trkpt>
      <trkpt lat="44.84017" lon="6.77211">
        <ele>2698.8000488281</ele>
        <time>2015-03-10T10:56:33.000Z</time>
      </trkpt>
      <trkpt lat="44.84017" lon="6.77202">
        <ele>2697.1999511719</ele>
        <time>2015-03-10T10:56:35.000Z</time>
      </trkpt>
      <trkpt lat="44.84011" lon="6.77183">
        <ele>2695.8000488281</ele>
        <time>2015-03-10T10:56:38.000Z</time>
      </trkpt>
      <trkpt lat="44.84004" lon="6.7717">
        <ele>2693.8000488281</ele>
        <time>2015-03-10T10:56:40.000Z</time>
      </trkpt>
      <trkpt lat="44.84" lon="6.77164">
        <ele>2691.8000488281</ele>
        <time>2015-03-10T10:56:41.000Z</time>
      </trkpt>
      <trkpt lat="44.83996" lon="6.77158">
        <ele>2687.8000488281</ele>
        <time>2015-03-10T10:56:42.000Z</time>
      </trkpt>
      <trkpt lat="44.83991" lon="6.77151">
        <ele>2685.8000488281</ele>
        <time>2015-03-10T10:56:43.000Z</time>
      </trkpt>
      <trkpt lat="44.83985" lon="6.77144">
        <ele>2683.1999511719</ele>
        <time>2015-03-10T10:56:44.000Z</time>
      </trkpt>
      <trkpt lat="44.8398" lon="6.77138">
        <ele>2681</ele>
        <time>2015-03-10T10:56:45.000Z</time>
      </trkpt>
      <trkpt lat="44.83976" lon="6.77133">
        <ele>2678.8000488281</ele>
        <time>2015-03-10T10:56:46.000Z</time>
      </trkpt>
      <trkpt lat="44.83975" lon="6.77128">
        <ele>2676.3999023438</ele>
        <time>2015-03-10T10:56:47.000Z</time>
      </trkpt>
      <trkpt lat="44.83972" lon="6.77121">
        <ele>2674.1999511719</ele>
        <time>2015-03-10T10:56:48.000Z</time>
      </trkpt>
      <trkpt lat="44.8397" lon="6.77114">
        <ele>2672.3999023438</ele>
        <time>2015-03-10T10:56:49.000Z</time>
      </trkpt>
      <trkpt lat="44.83968" lon="6.77108">
        <ele>2670.6000976562</ele>
        <time>2015-03-10T10:56:50.000Z</time>
      </trkpt>
      <trkpt lat="44.8396" lon="6.77103">
        <ele>2668.8000488281</ele>
        <time>2015-03-10T10:56:51.000Z</time>
      </trkpt>
      <trkpt lat="44.83953" lon="6.77099">
        <ele>2666.3999023438</ele>
        <time>2015-03-10T10:56:52.000Z</time>
      </trkpt>
      <trkpt lat="44.83949" lon="6.77097">
        <ele>2664</ele>
        <time>2015-03-10T10:56:53.000Z</time>
      </trkpt>
      <trkpt lat="44.83946" lon="6.77095">
        <ele>2662.1999511719</ele>
        <time>2015-03-10T10:56:54.000Z</time>
      </trkpt>
      <trkpt lat="44.83945" lon="6.77094">
        <ele>2660.8000488281</ele>
        <time>2015-03-10T10:56:55.000Z</time>
      </trkpt>
      <trkpt lat="44.83944" lon="6.77094">
        <ele>2659.8000488281</ele>
        <time>2015-03-10T10:56:56.000Z</time>
      </trkpt>
      <trkpt lat="44.83944" lon="6.77094">
        <ele>2659</ele>
        <time>2015-03-10T10:56:57.000Z</time>
      </trkpt>
      <trkpt lat="44.83944" lon="6.77095">
        <ele>2658.6000976562</ele>
        <time>2015-03-10T10:56:58.000Z</time>
      </trkpt>
      <trkpt lat="44.83945" lon="6.77096">
        <ele>2657.8000488281</ele>
        <time>2015-03-10T10:57:00.000Z</time>
      </trkpt>
      <trkpt lat="44.83946" lon="6.77096">
        <ele>2657.1999511719</ele>
        <time>2015-03-10T10:57:09.000Z</time>
      </trkpt>
      <trkpt lat="44.83947" lon="6.77099">
        <ele>2656.6000976562</ele>
        <time>2015-03-10T10:57:16.000Z</time>
      </trkpt>
      <trkpt lat="44.83948" lon="6.771">
        <ele>2657.1999511719</ele>
        <time>2015-03-10T10:57:20.000Z</time>
      </trkpt>
      <trkpt lat="44.83948" lon="6.771">
        <ele>2657</ele>
        <time>2015-03-10T10:57:34.000Z</time>
      </trkpt>
      <trkpt lat="44.83948" lon="6.771">
        <ele>2656.8000488281</ele>
        <time>2015-03-10T10:57:48.000Z</time>
      </trkpt>
      <trkpt lat="44.83947" lon="6.77101">
        <ele>2657</ele>
        <time>2015-03-10T10:58:03.000Z</time>
      </trkpt>
      <trkpt lat="44.83947" lon="6.77101">
        <ele>2657</ele>
        <time>2015-03-10T10:58:16.000Z</time>
      </trkpt>
      <trkpt lat="44.83947" lon="6.77101">
        <ele>2657</ele>
        <time>2015-03-10T10:58:29.000Z</time>
      </trkpt>
      <trkpt lat="44.83946" lon="6.77102">
        <ele>2656.8000488281</ele>
        <time>2015-03-10T10:58:44.000Z</time>
      </trkpt>
      <trkpt lat="44.83946" lon="6.77102">
        <ele>2657</ele>
        <time>2015-03-10T10:58:57.000Z</time>
      </trkpt>
      <trkpt lat="44.83946" lon="6.77102">
        <ele>2657</ele>
        <time>2015-03-10T10:59:10.000Z</time>
      </trkpt>
      <trkpt lat="44.83948" lon="6.77101">
        <ele>2656.6000976562</ele>
        <time>2015-03-10T10:59:24.000Z</time>
      </trkpt>
      <trkpt lat="44.83948" lon="6.77101">
        <ele>2656.8000488281</ele>
        <time>2015-03-10T10:59:37.000Z</time>
      </trkpt>
      <trkpt lat="44.83948" lon="6.77101">
        <ele>2657</ele>
        <time>2015-03-10T10:59:50.000Z</time>
      </trkpt>
      <trkpt lat="44.83949" lon="6.77108">
        <ele>2657</ele>
        <time>2015-03-10T11:00:01.000Z</time>
      </trkpt>
      <trkpt lat="44.83948" lon="6.77111">
        <ele>2657.8000488281</ele>
        <time>2015-03-10T11:00:09.000Z</time>
      </trkpt>
      <trkpt lat="44.83948" lon="6.77112">
        <ele>2657.8000488281</ele>
        <time>2015-03-10T11:00:11.000Z</time>
      </trkpt>
      <trkpt lat="44.83948" lon="6.77112">
        <ele>2657.1999511719</ele>
        <time>2015-03-10T11:00:25.000Z</time>
      </trkpt>
      <trkpt lat="44.83948" lon="6.77112">
        <ele>2656.6000976562</ele>
        <time>2015-03-10T11:00:39.000Z</time>
      </trkpt>
      <trkpt lat="44.83949" lon="6.77112">
        <ele>2656.6000976562</ele>
        <time>2015-03-10T11:00:40.000Z</time>
      </trkpt>
      <trkpt lat="44.8395" lon="6.77117">
        <ele>2657.3999023438</ele>
        <time>2015-03-10T11:00:43.000Z</time>
      </trkpt>
      <trkpt lat="44.83951" lon="6.77118">
        <ele>2657.6000976562</ele>
        <time>2015-03-10T11:00:45.000Z</time>
      </trkpt>
      <trkpt lat="44.83951" lon="6.77118">
        <ele>2657.8000488281</ele>
        <time>2015-03-10T11:00:46.000Z</time>
      </trkpt>
      <trkpt lat="44.83953" lon="6.7712">
        <ele>2658</ele>
        <time>2015-03-10T11:00:51.000Z</time>
      </trkpt>
      <trkpt lat="44.83953" lon="6.7712">
        <ele>2658.8000488281</ele>
        <time>2015-03-10T11:00:55.000Z</time>
      </trkpt>
      <trkpt lat="44.83954" lon="6.77123">
        <ele>2659</ele>
        <time>2015-03-10T11:00:56.000Z</time>
      </trkpt>
      <trkpt lat="44.83955" lon="6.77124">
        <ele>2659</ele>
        <time>2015-03-10T11:00:58.000Z</time>
      </trkpt>
      <trkpt lat="44.83958" lon="6.77129">
        <ele>2659.1999511719</ele>
        <time>2015-03-10T11:01:02.000Z</time>
      </trkpt>
      <trkpt lat="44.8396" lon="6.77133">
        <ele>2660.1999511719</ele>
        <time>2015-03-10T11:01:06.000Z</time>
      </trkpt>
      <trkpt lat="44.83962" lon="6.77134">
        <ele>2660.6000976562</ele>
        <time>2015-03-10T11:01:08.000Z</time>
      </trkpt>
      <trkpt lat="44.83964" lon="6.77138">
        <ele>2661.3999023438</ele>
        <time>2015-03-10T11:01:13.000Z</time>
      </trkpt>
      <trkpt lat="44.83968" lon="6.77142">
        <ele>2662.3999023438</ele>
        <time>2015-03-10T11:01:18.000Z</time>
      </trkpt>
      <trkpt lat="44.83969" lon="6.77142">
        <ele>2662.6000976562</ele>
        <time>2015-03-10T11:01:19.000Z</time>
      </trkpt>
      <trkpt lat="44.83971" lon="6.77147">
        <ele>2663.6000976562</ele>
        <time>2015-03-10T11:01:24.000Z</time>
      </trkpt>
      <trkpt lat="44.83974" lon="6.77149">
        <ele>2664.6000976562</ele>
        <time>2015-03-10T11:01:29.000Z</time>
      </trkpt>
      <trkpt lat="44.83975" lon="6.77149">
        <ele>2665.1999511719</ele>
        <time>2015-03-10T11:01:30.000Z</time>
      </trkpt>
      <trkpt lat="44.83979" lon="6.77151">
        <ele>2666</ele>
        <time>2015-03-10T11:01:35.000Z</time>
      </trkpt>
      <trkpt lat="44.8398" lon="6.77151">
        <ele>2666.3999023438</ele>
        <time>2015-03-10T11:01:36.000Z</time>
      </trkpt>
      <trkpt lat="44.83983" lon="6.77154">
        <ele>2667.3999023438</ele>
        <time>2015-03-10T11:01:42.000Z</time>
      </trkpt>
      <trkpt lat="44.83984" lon="6.77155">
        <ele>2667.8000488281</ele>
        <time>2015-03-10T11:01:43.000Z</time>
      </trkpt>
      <trkpt lat="44.83986" lon="6.77158">
        <ele>2668.6000976562</ele>
        <time>2015-03-10T11:01:47.000Z</time>
      </trkpt>
      <trkpt lat="44.83986" lon="6.77159">
        <ele>2669</ele>
        <time>2015-03-10T11:01:49.000Z</time>
      </trkpt>
      <trkpt lat="44.83984" lon="6.7716">
        <ele>2669.8000488281</ele>
        <time>2015-03-10T11:01:53.000Z</time>
      </trkpt>
      <trkpt lat="44.83981" lon="6.77163">
        <ele>2670.8000488281</ele>
        <time>2015-03-10T11:01:59.000Z</time>
      </trkpt>
      <trkpt lat="44.83977" lon="6.77168">
        <ele>2671.8000488281</ele>
        <time>2015-03-10T11:02:05.000Z</time>
      </trkpt>
      <trkpt lat="44.83975" lon="6.77172">
        <ele>2673</ele>
        <time>2015-03-10T11:02:10.000Z</time>
      </trkpt>
      <trkpt lat="44.83971" lon="6.77176">
        <ele>2673.6000976562</ele>
        <time>2015-03-10T11:02:15.000Z</time>
      </trkpt>
      <trkpt lat="44.83969" lon="6.77177">
        <ele>2674</ele>
        <time>2015-03-10T11:02:17.000Z</time>
      </trkpt>
      <trkpt lat="44.83966" lon="6.77178">
        <ele>2674.6000976562</ele>
        <time>2015-03-10T11:02:21.000Z</time>
      </trkpt>
      <trkpt lat="44.83966" lon="6.77179">
        <ele>2675.1999511719</ele>
        <time>2015-03-10T11:02:23.000Z</time>
      </trkpt>
      <trkpt lat="44.83961" lon="6.77181">
        <ele>2676</ele>
        <time>2015-03-10T11:02:28.000Z</time>
      </trkpt>
      <trkpt lat="44.8396" lon="6.77181">
        <ele>2676.3999023438</ele>
        <time>2015-03-10T11:02:29.000Z</time>
      </trkpt>
      <trkpt lat="44.83957" lon="6.77183">
        <ele>2677.1999511719</ele>
        <time>2015-03-10T11:02:35.000Z</time>
      </trkpt>
      <trkpt lat="44.83956" lon="6.77184">
        <ele>2677.3999023438</ele>
        <time>2015-03-10T11:02:36.000Z</time>
      </trkpt>
      <trkpt lat="44.83952" lon="6.77187">
        <ele>2678.3999023438</ele>
        <time>2015-03-10T11:02:42.000Z</time>
      </trkpt>
      <trkpt lat="44.83952" lon="6.77187">
        <ele>2678.6000976562</ele>
        <time>2015-03-10T11:02:43.000Z</time>
      </trkpt>
      <trkpt lat="44.83954" lon="6.77189">
        <ele>2679.3999023438</ele>
        <time>2015-03-10T11:02:49.000Z</time>
      </trkpt>
      <trkpt lat="44.83955" lon="6.7719">
        <ele>2679.3999023438</ele>
        <time>2015-03-10T11:02:50.000Z</time>
      </trkpt>
      <trkpt lat="44.83957" lon="6.77194">
        <ele>2680.6000976562</ele>
        <time>2015-03-10T11:02:55.000Z</time>
      </trkpt>
      <trkpt lat="44.83958" lon="6.77195">
        <ele>2680.8000488281</ele>
        <time>2015-03-10T11:02:56.000Z</time>
      </trkpt>
      <trkpt lat="44.8396" lon="6.77198">
        <ele>2681.8000488281</ele>
        <time>2015-03-10T11:03:01.000Z</time>
      </trkpt>
      <trkpt lat="44.83961" lon="6.77198">
        <ele>2682.3999023438</ele>
        <time>2015-03-10T11:03:03.000Z</time>
      </trkpt>
      <trkpt lat="44.83961" lon="6.77199">
        <ele>2683</ele>
        <time>2015-03-10T11:03:05.000Z</time>
      </trkpt>
      <trkpt lat="44.83963" lon="6.77202">
        <ele>2683.6000976562</ele>
        <time>2015-03-10T11:03:08.000Z</time>
      </trkpt>
      <trkpt lat="44.83964" lon="6.77203">
        <ele>2684.1999511719</ele>
        <time>2015-03-10T11:03:10.000Z</time>
      </trkpt>
      <trkpt lat="44.83965" lon="6.77205">
        <ele>2684.8000488281</ele>
        <time>2015-03-10T11:03:13.000Z</time>
      </trkpt>
      <trkpt lat="44.83967" lon="6.77208">
        <ele>2685.6000976562</ele>
        <time>2015-03-10T11:03:17.000Z</time>
      </trkpt>
      <trkpt lat="44.83968" lon="6.77209">
        <ele>2685.8000488281</ele>
        <time>2015-03-10T11:03:18.000Z</time>
      </trkpt>
      <trkpt lat="44.83971" lon="6.77213">
        <ele>2686.6000976562</ele>
        <time>2015-03-10T11:03:24.000Z</time>
      </trkpt>
      <trkpt lat="44.83973" lon="6.77216">
        <ele>2687.8000488281</ele>
        <time>2015-03-10T11:03:28.000Z</time>
      </trkpt>
      <trkpt lat="44.83973" lon="6.77217">
        <ele>2688.1999511719</ele>
        <time>2015-03-10T11:03:29.000Z</time>
      </trkpt>
      <trkpt lat="44.83976" lon="6.77219">
        <ele>2689.1999511719</ele>
        <time>2015-03-10T11:03:34.000Z</time>
      </trkpt>
      <trkpt lat="44.83977" lon="6.7722">
        <ele>2689.8000488281</ele>
        <time>2015-03-10T11:03:36.000Z</time>
      </trkpt>
      <trkpt lat="44.83979" lon="6.77223">
        <ele>2690.3999023438</ele>
        <time>2015-03-10T11:03:41.000Z</time>
      </trkpt>
      <trkpt lat="44.83979" lon="6.77224">
        <ele>2690.3999023438</ele>
        <time>2015-03-10T11:03:42.000Z</time>
      </trkpt>
      <trkpt lat="44.83982" lon="6.77225">
        <ele>2691.6000976562</ele>
        <time>2015-03-10T11:03:47.000Z</time>
      </trkpt>
      <trkpt lat="44.83985" lon="6.77227">
        <ele>2692.3999023438</ele>
        <time>2015-03-10T11:03:52.000Z</time>
      </trkpt>
      <trkpt lat="44.83987" lon="6.77229">
        <ele>2692.8000488281</ele>
        <time>2015-03-10T11:03:54.000Z</time>
      </trkpt>
      <trkpt lat="44.83989" lon="6.77229">
        <ele>2693.6000976562</ele>
        <time>2015-03-10T11:03:57.000Z</time>
      </trkpt>
      <trkpt lat="44.83989" lon="6.7723">
        <ele>2694</ele>
        <time>2015-03-10T11:03:59.000Z</time>
      </trkpt>
      <trkpt lat="44.83989" lon="6.7723">
        <ele>2694.8000488281</ele>
        <time>2015-03-10T11:04:03.000Z</time>
      </trkpt>
      <trkpt lat="44.8399" lon="6.7723">
        <ele>2695</ele>
        <time>2015-03-10T11:04:05.000Z</time>
      </trkpt>
      <trkpt lat="44.83993" lon="6.77234">
        <ele>2695.3999023438</ele>
        <time>2015-03-10T11:04:10.000Z</time>
      </trkpt>
      <trkpt lat="44.83996" lon="6.77237">
        <ele>2696.1999511719</ele>
        <time>2015-03-10T11:04:14.000Z</time>
      </trkpt>
      <trkpt lat="44.83998" lon="6.77239">
        <ele>2697.1999511719</ele>
        <time>2015-03-10T11:04:18.000Z</time>
      </trkpt>
      <trkpt lat="44.84" lon="6.77242">
        <ele>2698.3999023438</ele>
        <time>2015-03-10T11:04:24.000Z</time>
      </trkpt>
      <trkpt lat="44.84001" lon="6.77244">
        <ele>2698.8000488281</ele>
        <time>2015-03-10T11:04:26.000Z</time>
      </trkpt>
      <trkpt lat="44.84003" lon="6.77247">
        <ele>2699.3999023438</ele>
        <time>2015-03-10T11:04:30.000Z</time>
      </trkpt>
      <trkpt lat="44.84004" lon="6.77248">
        <ele>2700</ele>
        <time>2015-03-10T11:04:32.000Z</time>
      </trkpt>
      <trkpt lat="44.84005" lon="6.77248">
        <ele>2700.6000976562</ele>
        <time>2015-03-10T11:04:34.000Z</time>
      </trkpt>
      <trkpt lat="44.84007" lon="6.77249">
        <ele>2701</ele>
        <time>2015-03-10T11:04:37.000Z</time>
      </trkpt>
      <trkpt lat="44.84012" lon="6.77251">
        <ele>2702.1999511719</ele>
        <time>2015-03-10T11:04:42.000Z</time>
      </trkpt>
      <trkpt lat="44.84014" lon="6.77252">
        <ele>2702.6000976562</ele>
        <time>2015-03-10T11:04:44.000Z</time>
      </trkpt>
      <trkpt lat="44.84017" lon="6.77253">
        <ele>2703.1999511719</ele>
        <time>2015-03-10T11:04:48.000Z</time>
      </trkpt>
      <trkpt lat="44.84017" lon="6.77253">
        <ele>2703.6000976562</ele>
        <time>2015-03-10T11:04:49.000Z</time>
      </trkpt>
      <trkpt lat="44.84019" lon="6.77255">
        <ele>2704.3999023438</ele>
        <time>2015-03-10T11:04:54.000Z</time>
      </trkpt>
      <trkpt lat="44.8402" lon="6.77257">
        <ele>2704.8000488281</ele>
        <time>2015-03-10T11:04:56.000Z</time>
      </trkpt>
      <trkpt lat="44.84019" lon="6.77259">
        <ele>2705.6000976562</ele>
        <time>2015-03-10T11:04:59.000Z</time>
      </trkpt>
      <trkpt lat="44.84018" lon="6.77261">
        <ele>2706.1999511719</ele>
        <time>2015-03-10T11:05:01.000Z</time>
      </trkpt>
      <trkpt lat="44.84016" lon="6.77264">
        <ele>2706.6000976562</ele>
        <time>2015-03-10T11:05:04.000Z</time>
      </trkpt>
      <trkpt lat="44.84014" lon="6.77266">
        <ele>2707.8000488281</ele>
        <time>2015-03-10T11:05:07.000Z</time>
      </trkpt>
      <trkpt lat="44.84012" lon="6.77272">
        <ele>2708.8000488281</ele>
        <time>2015-03-10T11:05:13.000Z</time>
      </trkpt>
      <trkpt lat="44.84012" lon="6.77272">
        <ele>2709</ele>
        <time>2015-03-10T11:05:14.000Z</time>
      </trkpt>
      <trkpt lat="44.84012" lon="6.77275">
        <ele>2710</ele>
        <time>2015-03-10T11:05:19.000Z</time>
      </trkpt>
      <trkpt lat="44.84011" lon="6.77278">
        <ele>2711.3999023438</ele>
        <time>2015-03-10T11:05:24.000Z</time>
      </trkpt>
      <trkpt lat="44.84011" lon="6.77279">
        <ele>2711.6000976562</ele>
        <time>2015-03-10T11:05:25.000Z</time>
      </trkpt>
      <trkpt lat="44.84008" lon="6.77283">
        <ele>2712.6000976562</ele>
        <time>2015-03-10T11:05:30.000Z</time>
      </trkpt>
      <trkpt lat="44.84008" lon="6.77284">
        <ele>2712.8000488281</ele>
        <time>2015-03-10T11:05:31.000Z</time>
      </trkpt>
      <trkpt lat="44.84007" lon="6.77287">
        <ele>2713.6000976562</ele>
        <time>2015-03-10T11:05:34.000Z</time>
      </trkpt>
      <trkpt lat="44.84006" lon="6.77288">
        <ele>2714</ele>
        <time>2015-03-10T11:05:36.000Z</time>
      </trkpt>
      <trkpt lat="44.84004" lon="6.77289">
        <ele>2714.8000488281</ele>
        <time>2015-03-10T11:05:40.000Z</time>
      </trkpt>
      <trkpt lat="44.84004" lon="6.7729">
        <ele>2715.3999023438</ele>
        <time>2015-03-10T11:05:42.000Z</time>
      </trkpt>
      <trkpt lat="44.84003" lon="6.77291">
        <ele>2715.8000488281</ele>
        <time>2015-03-10T11:05:45.000Z</time>
      </trkpt>
      <trkpt lat="44.84001" lon="6.77293">
        <ele>2716.8000488281</ele>
        <time>2015-03-10T11:05:50.000Z</time>
      </trkpt>
      <trkpt lat="44.84001" lon="6.77293">
        <ele>2717.1999511719</ele>
        <time>2015-03-10T11:05:52.000Z</time>
      </trkpt>
      <trkpt lat="44.83999" lon="6.77295">
        <ele>2718</ele>
        <time>2015-03-10T11:05:55.000Z</time>
      </trkpt>
      <trkpt lat="44.83997" lon="6.77297">
        <ele>2718.6000976562</ele>
        <time>2015-03-10T11:05:59.000Z</time>
      </trkpt>
      <trkpt lat="44.83996" lon="6.77298">
        <ele>2719</ele>
        <time>2015-03-10T11:06:01.000Z</time>
      </trkpt>
      <trkpt lat="44.83993" lon="6.773">
        <ele>2719.6000976562</ele>
        <time>2015-03-10T11:06:05.000Z</time>
      </trkpt>
      <trkpt lat="44.83992" lon="6.77301">
        <ele>2720.1999511719</ele>
        <time>2015-03-10T11:06:08.000Z</time>
      </trkpt>
      <trkpt lat="44.83991" lon="6.77302">
        <ele>2720.3999023438</ele>
        <time>2015-03-10T11:06:09.000Z</time>
      </trkpt>
      <trkpt lat="44.83991" lon="6.77302">
        <ele>2721.1999511719</ele>
        <time>2015-03-10T11:06:12.000Z</time>
      </trkpt>
      <trkpt lat="44.83992" lon="6.77303">
        <ele>2721.8000488281</ele>
        <time>2015-03-10T11:06:15.000Z</time>
      </trkpt>
      <trkpt lat="44.83994" lon="6.77304">
        <ele>2722.3999023438</ele>
        <time>2015-03-10T11:06:18.000Z</time>
      </trkpt>
      <trkpt lat="44.83996" lon="6.77305">
        <ele>2722.6000976562</ele>
        <time>2015-03-10T11:06:20.000Z</time>
      </trkpt>
      <trkpt lat="44.83999" lon="6.77307">
        <ele>2723.6000976562</ele>
        <time>2015-03-10T11:06:25.000Z</time>
      </trkpt>
      <trkpt lat="44.83999" lon="6.77307">
        <ele>2723.8000488281</ele>
        <time>2015-03-10T11:06:26.000Z</time>
      </trkpt>
      <trkpt lat="44.84002" lon="6.77309">
        <ele>2724.8000488281</ele>
        <time>2015-03-10T11:06:31.000Z</time>
      </trkpt>
      <trkpt lat="44.84003" lon="6.77311">
        <ele>2725.1999511719</ele>
        <time>2015-03-10T11:06:35.000Z</time>
      </trkpt>
      <trkpt lat="44.84004" lon="6.77312">
        <ele>2726.1999511719</ele>
        <time>2015-03-10T11:06:39.000Z</time>
      </trkpt>
      <trkpt lat="44.84004" lon="6.77312">
        <ele>2726.8000488281</ele>
        <time>2015-03-10T11:06:41.000Z</time>
      </trkpt>
      <trkpt lat="44.84005" lon="6.77313">
        <ele>2727.1999511719</ele>
        <time>2015-03-10T11:06:42.000Z</time>
      </trkpt>
      <trkpt lat="44.84009" lon="6.77315">
        <ele>2728.3999023438</ele>
        <time>2015-03-10T11:06:48.000Z</time>
      </trkpt>
      <trkpt lat="44.84014" lon="6.77319">
        <ele>2729.6000976562</ele>
        <time>2015-03-10T11:06:54.000Z</time>
      </trkpt>
      <trkpt lat="44.84014" lon="6.77319">
        <ele>2729.8000488281</ele>
        <time>2015-03-10T11:06:55.000Z</time>
      </trkpt>
      <trkpt lat="44.84015" lon="6.7732">
        <ele>2730.6000976562</ele>
        <time>2015-03-10T11:06:59.000Z</time>
      </trkpt>
      <trkpt lat="44.84015" lon="6.7732">
        <ele>2730.6000976562</ele>
        <time>2015-03-10T11:07:00.000Z</time>
      </trkpt>
      <trkpt lat="44.84018" lon="6.77321">
        <ele>2731.8000488281</ele>
        <time>2015-03-10T11:07:04.000Z</time>
      </trkpt>
      <trkpt lat="44.84019" lon="6.77321">
        <ele>2732.1999511719</ele>
        <time>2015-03-10T11:07:06.000Z</time>
      </trkpt>
      <trkpt lat="44.84021" lon="6.77322">
        <ele>2732.8000488281</ele>
        <time>2015-03-10T11:07:10.000Z</time>
      </trkpt>
      <trkpt lat="44.84022" lon="6.77323">
        <ele>2733.6000976562</ele>
        <time>2015-03-10T11:07:12.000Z</time>
      </trkpt>
      <trkpt lat="44.84023" lon="6.77323">
        <ele>2734</ele>
        <time>2015-03-10T11:07:13.000Z</time>
      </trkpt>
      <trkpt lat="44.84028" lon="6.77325">
        <ele>2734.3999023438</ele>
        <time>2015-03-10T11:07:18.000Z</time>
      </trkpt>
      <trkpt lat="44.84029" lon="6.77326">
        <ele>2735</ele>
        <time>2015-03-10T11:07:20.000Z</time>
      </trkpt>
      <trkpt lat="44.84032" lon="6.77328">
        <ele>2736</ele>
        <time>2015-03-10T11:07:25.000Z</time>
      </trkpt>
      <trkpt lat="44.84034" lon="6.77329">
        <ele>2736.1999511719</ele>
        <time>2015-03-10T11:07:27.000Z</time>
      </trkpt>
      <trkpt lat="44.84037" lon="6.7733">
        <ele>2737.3999023438</ele>
        <time>2015-03-10T11:07:30.000Z</time>
      </trkpt>
      <trkpt lat="44.84038" lon="6.7733">
        <ele>2737.8000488281</ele>
        <time>2015-03-10T11:07:32.000Z</time>
      </trkpt>
      <trkpt lat="44.8404" lon="6.77331">
        <ele>2738.3999023438</ele>
        <time>2015-03-10T11:07:36.000Z</time>
      </trkpt>
      <trkpt lat="44.84042" lon="6.77332">
        <ele>2739.1999511719</ele>
        <time>2015-03-10T11:07:39.000Z</time>
      </trkpt>
      <trkpt lat="44.84043" lon="6.77333">
        <ele>2739.6000976562</ele>
        <time>2015-03-10T11:07:41.000Z</time>
      </trkpt>
      <trkpt lat="44.84045" lon="6.77334">
        <ele>2740.3999023438</ele>
        <time>2015-03-10T11:07:46.000Z</time>
      </trkpt>
      <trkpt lat="44.84046" lon="6.77335">
        <ele>2740.6000976562</ele>
        <time>2015-03-10T11:07:48.000Z</time>
      </trkpt>
      <trkpt lat="44.8405" lon="6.77336">
        <ele>2741.8000488281</ele>
        <time>2015-03-10T11:07:53.000Z</time>
      </trkpt>
      <trkpt lat="44.84053" lon="6.77337">
        <ele>2743</ele>
        <time>2015-03-10T11:07:58.000Z</time>
      </trkpt>
      <trkpt lat="44.84053" lon="6.77337">
        <ele>2743.3999023438</ele>
        <time>2015-03-10T11:08:01.000Z</time>
      </trkpt>
      <trkpt lat="44.84054" lon="6.77338">
        <ele>2744</ele>
        <time>2015-03-10T11:08:03.000Z</time>
      </trkpt>
      <trkpt lat="44.84056" lon="6.77338">
        <ele>2745.1999511719</ele>
        <time>2015-03-10T11:08:06.000Z</time>
      </trkpt>
      <trkpt lat="44.84056" lon="6.77339">
        <ele>2746.1999511719</ele>
        <time>2015-03-10T11:08:10.000Z</time>
      </trkpt>
      <trkpt lat="44.84059" lon="6.77341">
        <ele>2747.6000976562</ele>
        <time>2015-03-10T11:08:16.000Z</time>
      </trkpt>
      <trkpt lat="44.8406" lon="6.77342">
        <ele>2748.6000976562</ele>
        <time>2015-03-10T11:08:20.000Z</time>
      </trkpt>
      <trkpt lat="44.84062" lon="6.77343">
        <ele>2748.8000488281</ele>
        <time>2015-03-10T11:08:22.000Z</time>
      </trkpt>
      <trkpt lat="44.84063" lon="6.77343">
        <ele>2749.6000976562</ele>
        <time>2015-03-10T11:08:27.000Z</time>
      </trkpt>
      <trkpt lat="44.84064" lon="6.77344">
        <ele>2749.8000488281</ele>
        <time>2015-03-10T11:08:35.000Z</time>
      </trkpt>
      <trkpt lat="44.84064" lon="6.77341">
        <ele>2750.8000488281</ele>
        <time>2015-03-10T11:08:39.000Z</time>
      </trkpt>
      <trkpt lat="44.84065" lon="6.77341">
        <ele>2751.1999511719</ele>
        <time>2015-03-10T11:08:41.000Z</time>
      </trkpt>
      <trkpt lat="44.84066" lon="6.77341">
        <ele>2751.8000488281</ele>
        <time>2015-03-10T11:08:45.000Z</time>
      </trkpt>
      <trkpt lat="44.84066" lon="6.77341">
        <ele>2752</ele>
        <time>2015-03-10T11:08:48.000Z</time>
      </trkpt>
      <trkpt lat="44.84065" lon="6.77343">
        <ele>2752</ele>
        <time>2015-03-10T11:08:58.000Z</time>
      </trkpt>
      <trkpt lat="44.84065" lon="6.77344">
        <ele>2752.1999511719</ele>
        <time>2015-03-10T11:09:02.000Z</time>
      </trkpt>
      <trkpt lat="44.84066" lon="6.77346">
        <ele>2753.1999511719</ele>
        <time>2015-03-10T11:09:06.000Z</time>
      </trkpt>
      <trkpt lat="44.84066" lon="6.77345">
        <ele>2753.3999023438</ele>
        <time>2015-03-10T11:09:07.000Z</time>
      </trkpt>
      <trkpt lat="44.84066" lon="6.77345">
        <ele>2753.6000976562</ele>
        <time>2015-03-10T11:09:13.000Z</time>
      </trkpt>
      <trkpt lat="44.84066" lon="6.77345">
        <ele>2754.3999023438</ele>
        <time>2015-03-10T11:09:17.000Z</time>
      </trkpt>
      <trkpt lat="44.84066" lon="6.77345">
        <ele>2754.6000976562</ele>
        <time>2015-03-10T11:09:18.000Z</time>
      </trkpt>
      <trkpt lat="44.84066" lon="6.77351">
        <ele>2755.3999023438</ele>
        <time>2015-03-10T11:09:24.000Z</time>
      </trkpt>
      <trkpt lat="44.84065" lon="6.77353">
        <ele>2755.6000976562</ele>
        <time>2015-03-10T11:09:25.000Z</time>
      </trkpt>
      <trkpt lat="44.84064" lon="6.77359">
        <ele>2756.6000976562</ele>
        <time>2015-03-10T11:09:30.000Z</time>
      </trkpt>
      <trkpt lat="44.84064" lon="6.77359">
        <ele>2756.6000976562</ele>
        <time>2015-03-10T11:09:31.000Z</time>
      </trkpt>
      <trkpt lat="44.84064" lon="6.77359">
        <ele>2756.6000976562</ele>
        <time>2015-03-10T11:09:48.000Z</time>
      </trkpt>
      <trkpt lat="44.84064" lon="6.77359">
        <ele>2756.8000488281</ele>
        <time>2015-03-10T11:10:06.000Z</time>
      </trkpt>
      <trkpt lat="44.84064" lon="6.7736">
        <ele>2756.6000976562</ele>
        <time>2015-03-10T11:10:17.000Z</time>
      </trkpt>
      <trkpt lat="44.84063" lon="6.77363">
        <ele>2757.1999511719</ele>
        <time>2015-03-10T11:10:21.000Z</time>
      </trkpt>
      <trkpt lat="44.84063" lon="6.77364">
        <ele>2757.8000488281</ele>
        <time>2015-03-10T11:10:23.000Z</time>
      </trkpt>
      <trkpt lat="44.84062" lon="6.77366">
        <ele>2758.6000976562</ele>
        <time>2015-03-10T11:10:26.000Z</time>
      </trkpt>
      <trkpt lat="44.84062" lon="6.77367">
        <ele>2758.8000488281</ele>
        <time>2015-03-10T11:10:27.000Z</time>
      </trkpt>
      <trkpt lat="44.84061" lon="6.77368">
        <ele>2760</ele>
        <time>2015-03-10T11:10:31.000Z</time>
      </trkpt>
      <trkpt lat="44.84057" lon="6.77374">
        <ele>2761</ele>
        <time>2015-03-10T11:10:36.000Z</time>
      </trkpt>
      <trkpt lat="44.84053" lon="6.7738">
        <ele>2762</ele>
        <time>2015-03-10T11:10:41.000Z</time>
      </trkpt>
      <trkpt lat="44.84053" lon="6.7738">
        <ele>2762.1999511719</ele>
        <time>2015-03-10T11:10:42.000Z</time>
      </trkpt>
      <trkpt lat="44.84052" lon="6.77382">
        <ele>2763.1999511719</ele>
        <time>2015-03-10T11:10:46.000Z</time>
      </trkpt>
      <trkpt lat="44.84051" lon="6.77386">
        <ele>2764</ele>
        <time>2015-03-10T11:10:50.000Z</time>
      </trkpt>
      <trkpt lat="44.8405" lon="6.77387">
        <ele>2764.3999023438</ele>
        <time>2015-03-10T11:10:53.000Z</time>
      </trkpt>
      <trkpt lat="44.84049" lon="6.77388">
        <ele>2764.6000976562</ele>
        <time>2015-03-10T11:10:54.000Z</time>
      </trkpt>
      <trkpt lat="44.84045" lon="6.77393">
        <ele>2765.3999023438</ele>
        <time>2015-03-10T11:10:59.000Z</time>
      </trkpt>
      <trkpt lat="44.84044" lon="6.77393">
        <ele>2766.3999023438</ele>
        <time>2015-03-10T11:11:03.000Z</time>
      </trkpt>
      <trkpt lat="44.84044" lon="6.77393">
        <ele>2766.6000976562</ele>
        <time>2015-03-10T11:11:04.000Z</time>
      </trkpt>
      <trkpt lat="44.84049" lon="6.77394">
        <ele>2767.1999511719</ele>
        <time>2015-03-10T11:11:09.000Z</time>
      </trkpt>
      <trkpt lat="44.84051" lon="6.77394">
        <ele>2767.6000976562</ele>
        <time>2015-03-10T11:11:11.000Z</time>
      </trkpt>
      <trkpt lat="44.84052" lon="6.77394">
        <ele>2768.1999511719</ele>
        <time>2015-03-10T11:11:15.000Z</time>
      </trkpt>
      <trkpt lat="44.84052" lon="6.77394">
        <ele>2768.6000976562</ele>
        <time>2015-03-10T11:11:16.000Z</time>
      </trkpt>
      <trkpt lat="44.84054" lon="6.77395">
        <ele>2769.6000976562</ele>
        <time>2015-03-10T11:11:20.000Z</time>
      </trkpt>
      <trkpt lat="44.84054" lon="6.77395">
        <ele>2770.1999511719</ele>
        <time>2015-03-10T11:11:22.000Z</time>
      </trkpt>
      <trkpt lat="44.84059" lon="6.77397">
        <ele>2770.8000488281</ele>
        <time>2015-03-10T11:11:27.000Z</time>
      </trkpt>
      <trkpt lat="44.8406" lon="6.77398">
        <ele>2771</ele>
        <time>2015-03-10T11:11:29.000Z</time>
      </trkpt>
      <trkpt lat="44.8406" lon="6.77398">
        <ele>2771.8000488281</ele>
        <time>2015-03-10T11:11:32.000Z</time>
      </trkpt>
      <trkpt lat="44.84061" lon="6.77399">
        <ele>2772.1999511719</ele>
        <time>2015-03-10T11:11:38.000Z</time>
      </trkpt>
      <trkpt lat="44.84063" lon="6.774">
        <ele>2773.1999511719</ele>
        <time>2015-03-10T11:11:41.000Z</time>
      </trkpt>
      <trkpt lat="44.84064" lon="6.774">
        <ele>2773.8000488281</ele>
        <time>2015-03-10T11:11:44.000Z</time>
      </trkpt>
      <trkpt lat="44.84067" lon="6.77402">
        <ele>2774</ele>
        <time>2015-03-10T11:11:49.000Z</time>
      </trkpt>
      <trkpt lat="44.84068" lon="6.77403">
        <ele>2774.1999511719</ele>
        <time>2015-03-10T11:11:51.000Z</time>
      </trkpt>
      <trkpt lat="44.84069" lon="6.77404">
        <ele>2774.6000976562</ele>
        <time>2015-03-10T11:11:54.000Z</time>
      </trkpt>
      <trkpt lat="44.8407" lon="6.77404">
        <ele>2775.6000976562</ele>
        <time>2015-03-10T11:11:56.000Z</time>
      </trkpt>
      <trkpt lat="44.84073" lon="6.77407">
        <ele>2776.1999511719</ele>
        <time>2015-03-10T11:11:59.000Z</time>
      </trkpt>
      <trkpt lat="44.84073" lon="6.77407">
        <ele>2776.6000976562</ele>
        <time>2015-03-10T11:12:00.000Z</time>
      </trkpt>
      <trkpt lat="44.84077" lon="6.77409">
        <ele>2777.8000488281</ele>
        <time>2015-03-10T11:12:06.000Z</time>
      </trkpt>
      <trkpt lat="44.84079" lon="6.7741">
        <ele>2778.6000976562</ele>
        <time>2015-03-10T11:12:13.000Z</time>
      </trkpt>
      <trkpt lat="44.8408" lon="6.77411">
        <ele>2779</ele>
        <time>2015-03-10T11:12:15.000Z</time>
      </trkpt>
      <trkpt lat="44.84081" lon="6.77411">
        <ele>2779.6000976562</ele>
        <time>2015-03-10T11:12:18.000Z</time>
      </trkpt>
      <trkpt lat="44.84082" lon="6.77411">
        <ele>2780.3999023438</ele>
        <time>2015-03-10T11:12:19.000Z</time>
      </trkpt>
      <trkpt lat="44.84083" lon="6.77411">
        <ele>2781.1999511719</ele>
        <time>2015-03-10T11:12:25.000Z</time>
      </trkpt>
      <trkpt lat="44.84083" lon="6.77411">
        <ele>2781.3999023438</ele>
        <time>2015-03-10T11:12:26.000Z</time>
      </trkpt>
      <trkpt lat="44.84085" lon="6.77411">
        <ele>2781.3999023438</ele>
        <time>2015-03-10T11:12:36.000Z</time>
      </trkpt>
      <trkpt lat="44.84089" lon="6.77411">
        <ele>2782.3999023438</ele>
        <time>2015-03-10T11:12:42.000Z</time>
      </trkpt>
      <trkpt lat="44.8409" lon="6.77411">
        <ele>2783</ele>
        <time>2015-03-10T11:12:44.000Z</time>
      </trkpt>
      <trkpt lat="44.84091" lon="6.7741">
        <ele>2783.6000976562</ele>
        <time>2015-03-10T11:12:47.000Z</time>
      </trkpt>
      <trkpt lat="44.84093" lon="6.7741">
        <ele>2783.8000488281</ele>
        <time>2015-03-10T11:12:50.000Z</time>
      </trkpt>
      <trkpt lat="44.84095" lon="6.7741">
        <ele>2784.6000976562</ele>
        <time>2015-03-10T11:12:53.000Z</time>
      </trkpt>
      <trkpt lat="44.84096" lon="6.77409">
        <ele>2785.1999511719</ele>
        <time>2015-03-10T11:12:55.000Z</time>
      </trkpt>
      <trkpt lat="44.84097" lon="6.7741">
        <ele>2785.8000488281</ele>
        <time>2015-03-10T11:12:57.000Z</time>
      </trkpt>
      <trkpt lat="44.84099" lon="6.7741">
        <ele>2786.3999023438</ele>
        <time>2015-03-10T11:12:59.000Z</time>
      </trkpt>
      <trkpt lat="44.84102" lon="6.7741">
        <ele>2787</ele>
        <time>2015-03-10T11:13:03.000Z</time>
      </trkpt>
      <trkpt lat="44.84102" lon="6.7741">
        <ele>2787.1999511719</ele>
        <time>2015-03-10T11:13:04.000Z</time>
      </trkpt>
      <trkpt lat="44.84102" lon="6.7741">
        <ele>2788.1999511719</ele>
        <time>2015-03-10T11:13:07.000Z</time>
      </trkpt>
      <trkpt lat="44.84104" lon="6.77408">
        <ele>2788.8000488281</ele>
        <time>2015-03-10T11:13:13.000Z</time>
      </trkpt>
      <trkpt lat="44.84106" lon="6.77407">
        <ele>2789.1999511719</ele>
        <time>2015-03-10T11:13:16.000Z</time>
      </trkpt>
      <trkpt lat="44.84107" lon="6.77407">
        <ele>2789.3999023438</ele>
        <time>2015-03-10T11:13:17.000Z</time>
      </trkpt>
      <trkpt lat="44.84108" lon="6.77407">
        <ele>2789.8000488281</ele>
        <time>2015-03-10T11:13:22.000Z</time>
      </trkpt>
      <trkpt lat="44.84109" lon="6.77407">
        <ele>2790.3999023438</ele>
        <time>2015-03-10T11:13:24.000Z</time>
      </trkpt>
      <trkpt lat="44.8411" lon="6.77408">
        <ele>2791</ele>
        <time>2015-03-10T11:13:26.000Z</time>
      </trkpt>
      <trkpt lat="44.84111" lon="6.77412">
        <ele>2791.8000488281</ele>
        <time>2015-03-10T11:13:31.000Z</time>
      </trkpt>
      <trkpt lat="44.84111" lon="6.77413">
        <ele>2792</ele>
        <time>2015-03-10T11:13:32.000Z</time>
      </trkpt>
      <trkpt lat="44.84112" lon="6.77415">
        <ele>2793</ele>
        <time>2015-03-10T11:13:35.000Z</time>
      </trkpt>
      <trkpt lat="44.84112" lon="6.77416">
        <ele>2793.8000488281</ele>
        <time>2015-03-10T11:13:38.000Z</time>
      </trkpt>
      <trkpt lat="44.84112" lon="6.77416">
        <ele>2794.1999511719</ele>
        <time>2015-03-10T11:13:39.000Z</time>
      </trkpt>
      <trkpt lat="44.84114" lon="6.7742">
        <ele>2795.1999511719</ele>
        <time>2015-03-10T11:13:44.000Z</time>
      </trkpt>
      <trkpt lat="44.84115" lon="6.77422">
        <ele>2795.8000488281</ele>
        <time>2015-03-10T11:13:48.000Z</time>
      </trkpt>
      <trkpt lat="44.84115" lon="6.77423">
        <ele>2796.1999511719</ele>
        <time>2015-03-10T11:13:49.000Z</time>
      </trkpt>
      <trkpt lat="44.84116" lon="6.77424">
        <ele>2797.1999511719</ele>
        <time>2015-03-10T11:13:52.000Z</time>
      </trkpt>
      <trkpt lat="44.84117" lon="6.77424">
        <ele>2797.8000488281</ele>
        <time>2015-03-10T11:13:55.000Z</time>
      </trkpt>
      <trkpt lat="44.84119" lon="6.77424">
        <ele>2798.1999511719</ele>
        <time>2015-03-10T11:13:57.000Z</time>
      </trkpt>
      <trkpt lat="44.8412" lon="6.77424">
        <ele>2799.1999511719</ele>
        <time>2015-03-10T11:14:00.000Z</time>
      </trkpt>
      <trkpt lat="44.8412" lon="6.77424">
        <ele>2799.3999023438</ele>
        <time>2015-03-10T11:14:01.000Z</time>
      </trkpt>
      <trkpt lat="44.8412" lon="6.77424">
        <ele>2799.8000488281</ele>
        <time>2015-03-10T11:14:06.000Z</time>
      </trkpt>
      <trkpt lat="44.84122" lon="6.77426">
        <ele>2800.3999023438</ele>
        <time>2015-03-10T11:14:13.000Z</time>
      </trkpt>
      <trkpt lat="44.84124" lon="6.77432">
        <ele>2801.8000488281</ele>
        <time>2015-03-10T11:14:19.000Z</time>
      </trkpt>
      <trkpt lat="44.84124" lon="6.77432">
        <ele>2802.1999511719</ele>
        <time>2015-03-10T11:14:21.000Z</time>
      </trkpt>
      <trkpt lat="44.84124" lon="6.77433">
        <ele>2802.8000488281</ele>
        <time>2015-03-10T11:14:23.000Z</time>
      </trkpt>
      <trkpt lat="44.84124" lon="6.77436">
        <ele>2803.1999511719</ele>
        <time>2015-03-10T11:14:25.000Z</time>
      </trkpt>
      <trkpt lat="44.84124" lon="6.77437">
        <ele>2803.8000488281</ele>
        <time>2015-03-10T11:14:28.000Z</time>
      </trkpt>
      <trkpt lat="44.84124" lon="6.77438">
        <ele>2804</ele>
        <time>2015-03-10T11:14:29.000Z</time>
      </trkpt>
      <trkpt lat="44.84124" lon="6.77441">
        <ele>2804.8000488281</ele>
        <time>2015-03-10T11:14:34.000Z</time>
      </trkpt>
      <trkpt lat="44.84124" lon="6.77443">
        <ele>2805</ele>
        <time>2015-03-10T11:14:36.000Z</time>
      </trkpt>
      <trkpt lat="44.84123" lon="6.77445">
        <ele>2805.1999511719</ele>
        <time>2015-03-10T11:14:39.000Z</time>
      </trkpt>
      <trkpt lat="44.84122" lon="6.77452">
        <ele>2806</ele>
        <time>2015-03-10T11:14:45.000Z</time>
      </trkpt>
      <trkpt lat="44.84122" lon="6.77452">
        <ele>2806</ele>
        <time>2015-03-10T11:14:46.000Z</time>
      </trkpt>
      <trkpt lat="44.84122" lon="6.77452">
        <ele>2807</ele>
        <time>2015-03-10T11:14:54.000Z</time>
      </trkpt>
      <trkpt lat="44.84118" lon="6.77456">
        <ele>2807.1999511719</ele>
        <time>2015-03-10T11:15:00.000Z</time>
      </trkpt>
      <trkpt lat="44.84115" lon="6.77458">
        <ele>2807.6000976562</ele>
        <time>2015-03-10T11:15:02.000Z</time>
      </trkpt>
      <trkpt lat="44.84112" lon="6.77463">
        <ele>2808.1999511719</ele>
        <time>2015-03-10T11:15:07.000Z</time>
      </trkpt>
      <trkpt lat="44.84112" lon="6.77463">
        <ele>2808.1999511719</ele>
        <time>2015-03-10T11:15:08.000Z</time>
      </trkpt>
      <trkpt lat="44.8411" lon="6.77468">
        <ele>2809.3999023438</ele>
        <time>2015-03-10T11:15:12.000Z</time>
      </trkpt>
      <trkpt lat="44.84109" lon="6.7747">
        <ele>2809.6000976562</ele>
        <time>2015-03-10T11:15:14.000Z</time>
      </trkpt>
      <trkpt lat="44.84109" lon="6.77473">
        <ele>2810.3999023438</ele>
        <time>2015-03-10T11:15:20.000Z</time>
      </trkpt>
      <trkpt lat="44.84109" lon="6.77473">
        <ele>2810.6000976562</ele>
        <time>2015-03-10T11:15:21.000Z</time>
      </trkpt>
      <trkpt lat="44.84109" lon="6.77473">
        <ele>2811.3999023438</ele>
        <time>2015-03-10T11:15:23.000Z</time>
      </trkpt>
      <trkpt lat="44.84109" lon="6.77473">
        <ele>2812.6000976562</ele>
        <time>2015-03-10T11:15:27.000Z</time>
      </trkpt>
      <trkpt lat="44.84109" lon="6.77473">
        <ele>2812.6000976562</ele>
        <time>2015-03-10T11:15:28.000Z</time>
      </trkpt>
      <trkpt lat="44.84109" lon="6.77473">
        <ele>2812.3999023438</ele>
        <time>2015-03-10T11:15:40.000Z</time>
      </trkpt>
      <trkpt lat="44.84109" lon="6.77473">
        <ele>2812.3999023438</ele>
        <time>2015-03-10T11:15:54.000Z</time>
      </trkpt>
      <trkpt lat="44.84109" lon="6.77473">
        <ele>2812.3999023438</ele>
        <time>2015-03-10T11:16:04.000Z</time>
      </trkpt>
      <trkpt lat="44.84109" lon="6.77473">
        <ele>2812.3999023438</ele>
        <time>2015-03-10T11:16:23.000Z</time>
      </trkpt>
      <trkpt lat="44.84109" lon="6.77473">
        <ele>2812.3999023438</ele>
        <time>2015-03-10T11:16:33.000Z</time>
      </trkpt>
      <trkpt lat="44.84109" lon="6.77473">
        <ele>2812.3999023438</ele>
        <time>2015-03-10T11:16:44.000Z</time>
      </trkpt>
      <trkpt lat="44.84109" lon="6.77473">
        <ele>2812</ele>
        <time>2015-03-10T11:16:55.000Z</time>
      </trkpt>
      <trkpt lat="44.84109" lon="6.77473">
        <ele>2812.3999023438</ele>
        <time>2015-03-10T11:17:07.000Z</time>
      </trkpt>
      <trkpt lat="44.84109" lon="6.77473">
        <ele>2812.3999023438</ele>
        <time>2015-03-10T11:17:19.000Z</time>
      </trkpt>
      <trkpt lat="44.84109" lon="6.77473">
        <ele>2812.3999023438</ele>
        <time>2015-03-10T11:17:34.000Z</time>
      </trkpt>
      <trkpt lat="44.84109" lon="6.77473">
        <ele>2812.3999023438</ele>
        <time>2015-03-10T11:17:46.000Z</time>
      </trkpt>
      <trkpt lat="44.84109" lon="6.77474">
        <ele>2812.3999023438</ele>
        <time>2015-03-10T11:17:59.000Z</time>
      </trkpt>
      <trkpt lat="44.84108" lon="6.77475">
        <ele>2812.6000976562</ele>
        <time>2015-03-10T11:18:05.000Z</time>
      </trkpt>
      <trkpt lat="44.84108" lon="6.77476">
        <ele>2812.1999511719</ele>
        <time>2015-03-10T11:18:15.000Z</time>
      </trkpt>
      <trkpt lat="44.84108" lon="6.77477">
        <ele>2812.8000488281</ele>
        <time>2015-03-10T11:18:29.000Z</time>
      </trkpt>
      <trkpt lat="44.84108" lon="6.77477">
        <ele>2813</ele>
        <time>2015-03-10T11:18:43.000Z</time>
      </trkpt>
      <trkpt lat="44.84108" lon="6.77477">
        <ele>2812.6000976562</ele>
        <time>2015-03-10T11:18:58.000Z</time>
      </trkpt>
      <trkpt lat="44.84108" lon="6.77478">
        <ele>2812.6000976562</ele>
        <time>2015-03-10T11:19:16.000Z</time>
      </trkpt>
      <trkpt lat="44.84108" lon="6.77478">
        <ele>2812.6000976562</ele>
        <time>2015-03-10T11:19:37.000Z</time>
      </trkpt>
      <trkpt lat="44.84108" lon="6.77479">
        <ele>2812.6000976562</ele>
        <time>2015-03-10T11:19:53.000Z</time>
      </trkpt>
      <trkpt lat="44.84108" lon="6.77479">
        <ele>2812.6000976562</ele>
        <time>2015-03-10T11:20:08.000Z</time>
      </trkpt>
      <trkpt lat="44.84108" lon="6.77479">
        <ele>2812.3999023438</ele>
        <time>2015-03-10T11:20:25.000Z</time>
      </trkpt>
      <trkpt lat="44.84108" lon="6.77478">
        <ele>2812.6000976562</ele>
        <time>2015-03-10T11:20:42.000Z</time>
      </trkpt>
      <trkpt lat="44.84108" lon="6.77478">
        <ele>2812.6000976562</ele>
        <time>2015-03-10T11:20:58.000Z</time>
      </trkpt>
      <trkpt lat="44.84109" lon="6.77479">
        <ele>2812.1999511719</ele>
        <time>2015-03-10T11:21:15.000Z</time>
      </trkpt>
      <trkpt lat="44.84109" lon="6.77479">
        <ele>2812.3999023438</ele>
        <time>2015-03-10T11:21:31.000Z</time>
      </trkpt>
      <trkpt lat="44.84109" lon="6.77479">
        <ele>2812.6000976562</ele>
        <time>2015-03-10T11:21:48.000Z</time>
      </trkpt>
      <trkpt lat="44.84109" lon="6.77479">
        <ele>2812.3999023438</ele>
        <time>2015-03-10T11:22:02.000Z</time>
      </trkpt>
      <trkpt lat="44.84109" lon="6.77479">
        <ele>2812</ele>
        <time>2015-03-10T11:22:15.000Z</time>
      </trkpt>
      <trkpt lat="44.84109" lon="6.77479">
        <ele>2812.1999511719</ele>
        <time>2015-03-10T11:22:28.000Z</time>
      </trkpt>
      <trkpt lat="44.84109" lon="6.77479">
        <ele>2812.3999023438</ele>
        <time>2015-03-10T11:22:40.000Z</time>
      </trkpt>
      <trkpt lat="44.84109" lon="6.77478">
        <ele>2812.3999023438</ele>
        <time>2015-03-10T11:22:53.000Z</time>
      </trkpt>
      <trkpt lat="44.84109" lon="6.77478">
        <ele>2812.3999023438</ele>
        <time>2015-03-10T11:23:08.000Z</time>
      </trkpt>
      <trkpt lat="44.84109" lon="6.77478">
        <ele>2812.3999023438</ele>
        <time>2015-03-10T11:23:20.000Z</time>
      </trkpt>
      <trkpt lat="44.84109" lon="6.77478">
        <ele>2812.3999023438</ele>
        <time>2015-03-10T11:23:35.000Z</time>
      </trkpt>
      <trkpt lat="44.84109" lon="6.77478">
        <ele>2812.6000976562</ele>
        <time>2015-03-10T11:23:49.000Z</time>
      </trkpt>
      <trkpt lat="44.84109" lon="6.77478">
        <ele>2812.3999023438</ele>
        <time>2015-03-10T11:24:06.000Z</time>
      </trkpt>
      <trkpt lat="44.84109" lon="6.77478">
        <ele>2812.1999511719</ele>
        <time>2015-03-10T11:24:23.000Z</time>
      </trkpt>
      <trkpt lat="44.84109" lon="6.77478">
        <ele>2812.3999023438</ele>
        <time>2015-03-10T11:24:38.000Z</time>
      </trkpt>
      <trkpt lat="44.84108" lon="6.77478">
        <ele>2812.1999511719</ele>
        <time>2015-03-10T11:24:53.000Z</time>
      </trkpt>
      <trkpt lat="44.84108" lon="6.77478">
        <ele>2812.1999511719</ele>
        <time>2015-03-10T11:25:10.000Z</time>
      </trkpt>
      <trkpt lat="44.84108" lon="6.77478">
        <ele>2812.1999511719</ele>
        <time>2015-03-10T11:25:30.000Z</time>
      </trkpt>
      <trkpt lat="44.84108" lon="6.77478">
        <ele>2812.1999511719</ele>
        <time>2015-03-10T11:25:43.000Z</time>
      </trkpt>
      <trkpt lat="44.84108" lon="6.77478">
        <ele>2812.3999023438</ele>
        <time>2015-03-10T11:25:58.000Z</time>
      </trkpt>
      <trkpt lat="44.84109" lon="6.77477">
        <ele>2812.8000488281</ele>
        <time>2015-03-10T11:26:04.000Z</time>
      </trkpt>
      <trkpt lat="44.84109" lon="6.77477">
        <ele>2812.6000976562</ele>
        <time>2015-03-10T11:26:22.000Z</time>
      </trkpt>
      <trkpt lat="44.84109" lon="6.77477">
        <ele>2812.3999023438</ele>
        <time>2015-03-10T11:26:37.000Z</time>
      </trkpt>
      <trkpt lat="44.84109" lon="6.77477">
        <ele>2812.3999023438</ele>
        <time>2015-03-10T11:26:55.000Z</time>
      </trkpt>
      <trkpt lat="44.84109" lon="6.77477">
        <ele>2812.6000976562</ele>
        <time>2015-03-10T11:27:12.000Z</time>
      </trkpt>
      <trkpt lat="44.84109" lon="6.77477">
        <ele>2812.6000976562</ele>
        <time>2015-03-10T11:27:23.000Z</time>
      </trkpt>
      <trkpt lat="44.84109" lon="6.77477">
        <ele>2812.3999023438</ele>
        <time>2015-03-10T11:27:38.000Z</time>
      </trkpt>
      <trkpt lat="44.84109" lon="6.77477">
        <ele>2812.6000976562</ele>
        <time>2015-03-10T11:27:53.000Z</time>
      </trkpt>
      <trkpt lat="44.84108" lon="6.77478">
        <ele>2812.8000488281</ele>
        <time>2015-03-10T11:28:11.000Z</time>
      </trkpt>
      <trkpt lat="44.84108" lon="6.77478">
        <ele>2812.8000488281</ele>
        <time>2015-03-10T11:28:24.000Z</time>
      </trkpt>
      <trkpt lat="44.84108" lon="6.77478">
        <ele>2812.3999023438</ele>
        <time>2015-03-10T11:28:35.000Z</time>
      </trkpt>
      <trkpt lat="44.84108" lon="6.77478">
        <ele>2812.8000488281</ele>
        <time>2015-03-10T11:28:48.000Z</time>
      </trkpt>
      <trkpt lat="44.84108" lon="6.77478">
        <ele>2812.8000488281</ele>
        <time>2015-03-10T11:29:07.000Z</time>
      </trkpt>
      <trkpt lat="44.84108" lon="6.77477">
        <ele>2812.6000976562</ele>
        <time>2015-03-10T11:29:20.000Z</time>
      </trkpt>
      <trkpt lat="44.84108" lon="6.77477">
        <ele>2812.8000488281</ele>
        <time>2015-03-10T11:29:33.000Z</time>
      </trkpt>
      <trkpt lat="44.84108" lon="6.77477">
        <ele>2812.8000488281</ele>
        <time>2015-03-10T11:29:47.000Z</time>
      </trkpt>
      <trkpt lat="44.84108" lon="6.77475">
        <ele>2812.8000488281</ele>
        <time>2015-03-10T11:29:53.000Z</time>
      </trkpt>
      <trkpt lat="44.84108" lon="6.77475">
        <ele>2812.8000488281</ele>
        <time>2015-03-10T11:30:11.000Z</time>
      </trkpt>
      <trkpt lat="44.84108" lon="6.77475">
        <ele>2813</ele>
        <time>2015-03-10T11:30:27.000Z</time>
      </trkpt>
      <trkpt lat="44.84108" lon="6.77475">
        <ele>2813.1999511719</ele>
        <time>2015-03-10T11:30:39.000Z</time>
      </trkpt>
      <trkpt lat="44.84108" lon="6.77475">
        <ele>2813.1999511719</ele>
        <time>2015-03-10T11:30:53.000Z</time>
      </trkpt>
      <trkpt lat="44.84108" lon="6.77475">
        <ele>2813.1999511719</ele>
        <time>2015-03-10T11:31:05.000Z</time>
      </trkpt>
      <trkpt lat="44.84108" lon="6.77474">
        <ele>2813.1999511719</ele>
        <time>2015-03-10T11:31:22.000Z</time>
      </trkpt>
      <trkpt lat="44.84107" lon="6.77474">
        <ele>2813</ele>
        <time>2015-03-10T11:31:27.000Z</time>
      </trkpt>
      <trkpt lat="44.84107" lon="6.77474">
        <ele>2813</ele>
        <time>2015-03-10T11:31:41.000Z</time>
      </trkpt>
      <trkpt lat="44.84107" lon="6.77474">
        <ele>2813.1999511719</ele>
        <time>2015-03-10T11:31:53.000Z</time>
      </trkpt>
      <trkpt lat="44.84108" lon="6.77474">
        <ele>2812.8000488281</ele>
        <time>2015-03-10T11:32:03.000Z</time>
      </trkpt>
      <trkpt lat="44.84108" lon="6.77474">
        <ele>2813.6000976562</ele>
        <time>2015-03-10T11:32:10.000Z</time>
      </trkpt>
      <trkpt lat="44.84108" lon="6.77474">
        <ele>2813.3999023438</ele>
        <time>2015-03-10T11:32:14.000Z</time>
      </trkpt>
      <trkpt lat="44.84108" lon="6.77474">
        <ele>2813.3999023438</ele>
        <time>2015-03-10T11:32:31.000Z</time>
      </trkpt>
      <trkpt lat="44.84108" lon="6.77474">
        <ele>2812.6000976562</ele>
        <time>2015-03-10T11:32:40.000Z</time>
      </trkpt>
      <trkpt lat="44.84108" lon="6.77474">
        <ele>2812</ele>
        <time>2015-03-10T11:32:42.000Z</time>
      </trkpt>
      <trkpt lat="44.84108" lon="6.77474">
        <ele>2814</ele>
        <time>2015-03-10T11:32:48.000Z</time>
      </trkpt>
      <trkpt lat="44.84108" lon="6.77474">
        <ele>2813.3999023438</ele>
        <time>2015-03-10T11:32:55.000Z</time>
      </trkpt>
      <trkpt lat="44.84109" lon="6.77474">
        <ele>2813.1999511719</ele>
        <time>2015-03-10T11:33:09.000Z</time>
      </trkpt>
      <trkpt lat="44.84111" lon="6.77477">
        <ele>2813.6000976562</ele>
        <time>2015-03-10T11:33:16.000Z</time>
      </trkpt>
      <trkpt lat="44.8411" lon="6.7748">
        <ele>2813.8000488281</ele>
        <time>2015-03-10T11:33:24.000Z</time>
      </trkpt>
      <trkpt lat="44.84108" lon="6.77483">
        <ele>2814.1999511719</ele>
        <time>2015-03-10T11:33:29.000Z</time>
      </trkpt>
      <trkpt lat="44.84106" lon="6.77486">
        <ele>2815</ele>
        <time>2015-03-10T11:33:32.000Z</time>
      </trkpt>
      <trkpt lat="44.84105" lon="6.77488">
        <ele>2815.8000488281</ele>
        <time>2015-03-10T11:33:35.000Z</time>
      </trkpt>
      <trkpt lat="44.84104" lon="6.77489">
        <ele>2816</ele>
        <time>2015-03-10T11:33:37.000Z</time>
      </trkpt>
      <trkpt lat="44.84101" lon="6.77491">
        <ele>2815.6000976562</ele>
        <time>2015-03-10T11:33:42.000Z</time>
      </trkpt>
      <trkpt lat="44.84097" lon="6.77499">
        <ele>2815.8000488281</ele>
        <time>2015-03-10T11:33:48.000Z</time>
      </trkpt>
      <trkpt lat="44.84093" lon="6.77507">
        <ele>2816</ele>
        <time>2015-03-10T11:33:56.000Z</time>
      </trkpt>
      <trkpt lat="44.84092" lon="6.77509">
        <ele>2816.6000976562</ele>
        <time>2015-03-10T11:34:02.000Z</time>
      </trkpt>
      <trkpt lat="44.84091" lon="6.77512">
        <ele>2817.1999511719</ele>
        <time>2015-03-10T11:34:05.000Z</time>
      </trkpt>
      <trkpt lat="44.84091" lon="6.77513">
        <ele>2817.8000488281</ele>
        <time>2015-03-10T11:34:07.000Z</time>
      </trkpt>
      <trkpt lat="44.84089" lon="6.77517">
        <ele>2818.3999023438</ele>
        <time>2015-03-10T11:34:12.000Z</time>
      </trkpt>
      <trkpt lat="44.84089" lon="6.77518">
        <ele>2818.6000976562</ele>
        <time>2015-03-10T11:34:14.000Z</time>
      </trkpt>
      <trkpt lat="44.84088" lon="6.7752">
        <ele>2819.6000976562</ele>
        <time>2015-03-10T11:34:19.000Z</time>
      </trkpt>
      <trkpt lat="44.84087" lon="6.7752">
        <ele>2819.8000488281</ele>
        <time>2015-03-10T11:34:20.000Z</time>
      </trkpt>
      <trkpt lat="44.84086" lon="6.77522">
        <ele>2820.6000976562</ele>
        <time>2015-03-10T11:34:23.000Z</time>
      </trkpt>
      <trkpt lat="44.84085" lon="6.77524">
        <ele>2821</ele>
        <time>2015-03-10T11:34:26.000Z</time>
      </trkpt>
      <trkpt lat="44.84084" lon="6.77526">
        <ele>2821.8000488281</ele>
        <time>2015-03-10T11:34:29.000Z</time>
      </trkpt>
      <trkpt lat="44.84084" lon="6.77527">
        <ele>2822.1999511719</ele>
        <time>2015-03-10T11:34:32.000Z</time>
      </trkpt>
      <trkpt lat="44.84083" lon="6.77529">
        <ele>2822.8000488281</ele>
        <time>2015-03-10T11:34:35.000Z</time>
      </trkpt>
      <trkpt lat="44.84083" lon="6.77532">
        <ele>2823.6000976562</ele>
        <time>2015-03-10T11:34:39.000Z</time>
      </trkpt>
      <trkpt lat="44.84081" lon="6.77535">
        <ele>2823.8000488281</ele>
        <time>2015-03-10T11:34:44.000Z</time>
      </trkpt>
      <trkpt lat="44.84081" lon="6.77537">
        <ele>2824.3999023438</ele>
        <time>2015-03-10T11:34:46.000Z</time>
      </trkpt>
      <trkpt lat="44.84081" lon="6.77538">
        <ele>2825</ele>
        <time>2015-03-10T11:34:48.000Z</time>
      </trkpt>
      <trkpt lat="44.84081" lon="6.77541">
        <ele>2826</ele>
        <time>2015-03-10T11:34:53.000Z</time>
      </trkpt>
      <trkpt lat="44.84082" lon="6.77542">
        <ele>2826.1999511719</ele>
        <time>2015-03-10T11:34:55.000Z</time>
      </trkpt>
      <trkpt lat="44.84082" lon="6.77544">
        <ele>2826.3999023438</ele>
        <time>2015-03-10T11:35:00.000Z</time>
      </trkpt>
      <trkpt lat="44.84079" lon="6.77541">
        <ele>2827.1999511719</ele>
        <time>2015-03-10T11:35:07.000Z</time>
      </trkpt>
      <trkpt lat="44.84075" lon="6.7754">
        <ele>2828.1999511719</ele>
        <time>2015-03-10T11:35:15.000Z</time>
      </trkpt>
      <trkpt lat="44.84074" lon="6.77539">
        <ele>2828.3999023438</ele>
        <time>2015-03-10T11:35:16.000Z</time>
      </trkpt>
      <trkpt lat="44.84072" lon="6.77537">
        <ele>2829.1999511719</ele>
        <time>2015-03-10T11:35:21.000Z</time>
      </trkpt>
      <trkpt lat="44.84071" lon="6.77537">
        <ele>2829.6000976562</ele>
        <time>2015-03-10T11:35:24.000Z</time>
      </trkpt>
      <trkpt lat="44.8407" lon="6.77535">
        <ele>2830.1999511719</ele>
        <time>2015-03-10T11:35:31.000Z</time>
      </trkpt>
      <trkpt lat="44.8407" lon="6.77535">
        <ele>2830.3999023438</ele>
        <time>2015-03-10T11:35:32.000Z</time>
      </trkpt>
      <trkpt lat="44.84069" lon="6.77538">
        <ele>2830.8000488281</ele>
        <time>2015-03-10T11:35:38.000Z</time>
      </trkpt>
      <trkpt lat="44.84069" lon="6.77544">
        <ele>2831.3999023438</ele>
        <time>2015-03-10T11:35:44.000Z</time>
      </trkpt>
      <trkpt lat="44.84069" lon="6.77545">
        <ele>2831.3999023438</ele>
        <time>2015-03-10T11:35:45.000Z</time>
      </trkpt>
      <trkpt lat="44.84069" lon="6.77551">
        <ele>2832.6000976562</ele>
        <time>2015-03-10T11:35:51.000Z</time>
      </trkpt>
      <trkpt lat="44.84068" lon="6.77554">
        <ele>2833</ele>
        <time>2015-03-10T11:35:53.000Z</time>
      </trkpt>
      <trkpt lat="44.84068" lon="6.77556">
        <ele>2833.6000976562</ele>
        <time>2015-03-10T11:35:56.000Z</time>
      </trkpt>
      <trkpt lat="44.84068" lon="6.77557">
        <ele>2834</ele>
        <time>2015-03-10T11:35:58.000Z</time>
      </trkpt>
      <trkpt lat="44.84068" lon="6.77561">
        <ele>2834.8000488281</ele>
        <time>2015-03-10T11:36:02.000Z</time>
      </trkpt>
      <trkpt lat="44.84068" lon="6.77562">
        <ele>2835</ele>
        <time>2015-03-10T11:36:04.000Z</time>
      </trkpt>
      <trkpt lat="44.84067" lon="6.77566">
        <ele>2835.3999023438</ele>
        <time>2015-03-10T11:36:09.000Z</time>
      </trkpt>
      <trkpt lat="44.84067" lon="6.77567">
        <ele>2835.8000488281</ele>
        <time>2015-03-10T11:36:12.000Z</time>
      </trkpt>
      <trkpt lat="44.84065" lon="6.7757">
        <ele>2836.1999511719</ele>
        <time>2015-03-10T11:36:16.000Z</time>
      </trkpt>
      <trkpt lat="44.84063" lon="6.77573">
        <ele>2836.8000488281</ele>
        <time>2015-03-10T11:36:21.000Z</time>
      </trkpt>
      <trkpt lat="44.84063" lon="6.77573">
        <ele>2837</ele>
        <time>2015-03-10T11:36:22.000Z</time>
      </trkpt>
      <trkpt lat="44.84061" lon="6.77573">
        <ele>2838.1999511719</ele>
        <time>2015-03-10T11:36:26.000Z</time>
      </trkpt>
      <trkpt lat="44.8406" lon="6.77573">
        <ele>2838.6000976562</ele>
        <time>2015-03-10T11:36:27.000Z</time>
      </trkpt>
      <trkpt lat="44.84058" lon="6.77571">
        <ele>2839.1999511719</ele>
        <time>2015-03-10T11:36:30.000Z</time>
      </trkpt>
      <trkpt lat="44.84058" lon="6.7757">
        <ele>2839.8000488281</ele>
        <time>2015-03-10T11:36:32.000Z</time>
      </trkpt>
      <trkpt lat="44.84055" lon="6.77567">
        <ele>2840.3999023438</ele>
        <time>2015-03-10T11:36:38.000Z</time>
      </trkpt>
      <trkpt lat="44.84052" lon="6.77562">
        <ele>2841.6000976562</ele>
        <time>2015-03-10T11:36:44.000Z</time>
      </trkpt>
      <trkpt lat="44.84052" lon="6.77562">
        <ele>2842.1999511719</ele>
        <time>2015-03-10T11:36:46.000Z</time>
      </trkpt>
      <trkpt lat="44.84052" lon="6.77562">
        <ele>2842.6000976562</ele>
        <time>2015-03-10T11:36:47.000Z</time>
      </trkpt>
      <trkpt lat="44.84049" lon="6.7756">
        <ele>2843.3999023438</ele>
        <time>2015-03-10T11:36:54.000Z</time>
      </trkpt>
      <trkpt lat="44.84049" lon="6.7756">
        <ele>2843.6000976562</ele>
        <time>2015-03-10T11:36:56.000Z</time>
      </trkpt>
      <trkpt lat="44.84049" lon="6.77561">
        <ele>2844.6000976562</ele>
        <time>2015-03-10T11:37:00.000Z</time>
      </trkpt>
      <trkpt lat="44.84049" lon="6.77563">
        <ele>2844.8000488281</ele>
        <time>2015-03-10T11:37:01.000Z</time>
      </trkpt>
      <trkpt lat="44.84049" lon="6.77566">
        <ele>2845.3999023438</ele>
        <time>2015-03-10T11:37:06.000Z</time>
      </trkpt>
      <trkpt lat="44.84049" lon="6.77566">
        <ele>2845.8000488281</ele>
        <time>2015-03-10T11:37:07.000Z</time>
      </trkpt>
      <trkpt lat="44.84048" lon="6.7757">
        <ele>2846.8000488281</ele>
        <time>2015-03-10T11:37:11.000Z</time>
      </trkpt>
      <trkpt lat="44.84047" lon="6.77571">
        <ele>2846.8000488281</ele>
        <time>2015-03-10T11:37:13.000Z</time>
      </trkpt>
      <trkpt lat="44.84046" lon="6.77576">
        <ele>2847.1999511719</ele>
        <time>2015-03-10T11:37:19.000Z</time>
      </trkpt>
      <trkpt lat="44.84045" lon="6.77577">
        <ele>2847.8000488281</ele>
        <time>2015-03-10T11:37:22.000Z</time>
      </trkpt>
      <trkpt lat="44.84043" lon="6.77579">
        <ele>2848.8000488281</ele>
        <time>2015-03-10T11:37:25.000Z</time>
      </trkpt>
      <trkpt lat="44.84043" lon="6.77579">
        <ele>2849</ele>
        <time>2015-03-10T11:37:26.000Z</time>
      </trkpt>
      <trkpt lat="44.84041" lon="6.77582">
        <ele>2849.3999023438</ele>
        <time>2015-03-10T11:37:30.000Z</time>
      </trkpt>
      <trkpt lat="44.8404" lon="6.77586">
        <ele>2850.1999511719</ele>
        <time>2015-03-10T11:37:34.000Z</time>
      </trkpt>
      <trkpt lat="44.8404" lon="6.77586">
        <ele>2850.1999511719</ele>
        <time>2015-03-10T11:37:35.000Z</time>
      </trkpt>
      <trkpt lat="44.8404" lon="6.77586">
        <ele>2851.1999511719</ele>
        <time>2015-03-10T11:37:50.000Z</time>
      </trkpt>
      <trkpt lat="44.84039" lon="6.77591">
        <ele>2851.6000976562</ele>
        <time>2015-03-10T11:37:56.000Z</time>
      </trkpt>
      <trkpt lat="44.84038" lon="6.77595">
        <ele>2852.1999511719</ele>
        <time>2015-03-10T11:38:01.000Z</time>
      </trkpt>
      <trkpt lat="44.84038" lon="6.776">
        <ele>2853.1999511719</ele>
        <time>2015-03-10T11:38:06.000Z</time>
      </trkpt>
      <trkpt lat="44.84038" lon="6.77602">
        <ele>2853.6000976562</ele>
        <time>2015-03-10T11:38:08.000Z</time>
      </trkpt>
      <trkpt lat="44.84037" lon="6.77607">
        <ele>2854.3999023438</ele>
        <time>2015-03-10T11:38:14.000Z</time>
      </trkpt>
      <trkpt lat="44.84036" lon="6.77611">
        <ele>2855.3999023438</ele>
        <time>2015-03-10T11:38:20.000Z</time>
      </trkpt>
      <trkpt lat="44.84036" lon="6.77614">
        <ele>2856.6000976562</ele>
        <time>2015-03-10T11:38:23.000Z</time>
      </trkpt>
      <trkpt lat="44.84035" lon="6.77616">
        <ele>2857.1999511719</ele>
        <time>2015-03-10T11:38:26.000Z</time>
      </trkpt>
      <trkpt lat="44.84035" lon="6.77618">
        <ele>2857.6000976562</ele>
        <time>2015-03-10T11:38:28.000Z</time>
      </trkpt>
      <trkpt lat="44.84035" lon="6.77621">
        <ele>2858.3999023438</ele>
        <time>2015-03-10T11:38:32.000Z</time>
      </trkpt>
      <trkpt lat="44.84035" lon="6.77621">
        <ele>2858.8000488281</ele>
        <time>2015-03-10T11:38:34.000Z</time>
      </trkpt>
      <trkpt lat="44.84034" lon="6.77625">
        <ele>2860.1999511719</ele>
        <time>2015-03-10T11:38:39.000Z</time>
      </trkpt>
      <trkpt lat="44.84033" lon="6.77631">
        <ele>2861.3999023438</ele>
        <time>2015-03-10T11:38:45.000Z</time>
      </trkpt>
      <trkpt lat="44.84033" lon="6.77632">
        <ele>2861.6000976562</ele>
        <time>2015-03-10T11:38:46.000Z</time>
      </trkpt>
      <trkpt lat="44.84033" lon="6.77636">
        <ele>2862.6000976562</ele>
        <time>2015-03-10T11:38:52.000Z</time>
      </trkpt>
      <trkpt lat="44.84033" lon="6.77639">
        <ele>2863.8000488281</ele>
        <time>2015-03-10T11:38:58.000Z</time>
      </trkpt>
      <trkpt lat="44.84032" lon="6.77642">
        <ele>2865</ele>
        <time>2015-03-10T11:39:04.000Z</time>
      </trkpt>
      <trkpt lat="44.84032" lon="6.77643">
        <ele>2865.3999023438</ele>
        <time>2015-03-10T11:39:09.000Z</time>
      </trkpt>
      <trkpt lat="44.84031" lon="6.77645">
        <ele>2866.1999511719</ele>
        <time>2015-03-10T11:39:12.000Z</time>
      </trkpt>
      <trkpt lat="44.84031" lon="6.77645">
        <ele>2866.8000488281</ele>
        <time>2015-03-10T11:39:15.000Z</time>
      </trkpt>
      <trkpt lat="44.84031" lon="6.77645">
        <ele>2867.1999511719</ele>
        <time>2015-03-10T11:39:17.000Z</time>
      </trkpt>
      <trkpt lat="44.8403" lon="6.77647">
        <ele>2867.6000976562</ele>
        <time>2015-03-10T11:39:23.000Z</time>
      </trkpt>
      <trkpt lat="44.8403" lon="6.7765">
        <ele>2868.3999023438</ele>
        <time>2015-03-10T11:39:27.000Z</time>
      </trkpt>
      <trkpt lat="44.84029" lon="6.77651">
        <ele>2868.8000488281</ele>
        <time>2015-03-10T11:39:30.000Z</time>
      </trkpt>
      <trkpt lat="44.84028" lon="6.77654">
        <ele>2869.6000976562</ele>
        <time>2015-03-10T11:39:33.000Z</time>
      </trkpt>
      <trkpt lat="44.84028" lon="6.77655">
        <ele>2870</ele>
        <time>2015-03-10T11:39:36.000Z</time>
      </trkpt>
      <trkpt lat="44.84028" lon="6.77655">
        <ele>2870.6000976562</ele>
        <time>2015-03-10T11:39:43.000Z</time>
      </trkpt>
      <trkpt lat="44.84028" lon="6.77658">
        <ele>2871.1999511719</ele>
        <time>2015-03-10T11:39:46.000Z</time>
      </trkpt>
      <trkpt lat="44.84027" lon="6.77663">
        <ele>2871.8000488281</ele>
        <time>2015-03-10T11:39:49.000Z</time>
      </trkpt>
      <trkpt lat="44.84028" lon="6.77665">
        <ele>2871.8000488281</ele>
        <time>2015-03-10T11:39:51.000Z</time>
      </trkpt>
      <trkpt lat="44.84026" lon="6.77673">
        <ele>2872.1999511719</ele>
        <time>2015-03-10T11:39:57.000Z</time>
      </trkpt>
      <trkpt lat="44.84026" lon="6.77675">
        <ele>2872.8000488281</ele>
        <time>2015-03-10T11:39:59.000Z</time>
      </trkpt>
      <trkpt lat="44.84025" lon="6.77679">
        <ele>2873.6000976562</ele>
        <time>2015-03-10T11:40:03.000Z</time>
      </trkpt>
      <trkpt lat="44.84026" lon="6.77684">
        <ele>2873.8000488281</ele>
        <time>2015-03-10T11:40:07.000Z</time>
      </trkpt>
      <trkpt lat="44.84026" lon="6.77686">
        <ele>2874.3999023438</ele>
        <time>2015-03-10T11:40:09.000Z</time>
      </trkpt>
      <trkpt lat="44.84026" lon="6.77689">
        <ele>2875</ele>
        <time>2015-03-10T11:40:12.000Z</time>
      </trkpt>
      <trkpt lat="44.84025" lon="6.77692">
        <ele>2875.3999023438</ele>
        <time>2015-03-10T11:40:15.000Z</time>
      </trkpt>
      <trkpt lat="44.84024" lon="6.77696">
        <ele>2876</ele>
        <time>2015-03-10T11:40:19.000Z</time>
      </trkpt>
      <trkpt lat="44.84024" lon="6.77697">
        <ele>2877</ele>
        <time>2015-03-10T11:40:22.000Z</time>
      </trkpt>
      <trkpt lat="44.84024" lon="6.77697">
        <ele>2877.1999511719</ele>
        <time>2015-03-10T11:40:23.000Z</time>
      </trkpt>
      <trkpt lat="44.84024" lon="6.77697">
        <ele>2877.8000488281</ele>
        <time>2015-03-10T11:40:35.000Z</time>
      </trkpt>
      <trkpt lat="44.84024" lon="6.77697">
        <ele>2877.6000976562</ele>
        <time>2015-03-10T11:40:55.000Z</time>
      </trkpt>
      <trkpt lat="44.84024" lon="6.77697">
        <ele>2877.6000976562</ele>
        <time>2015-03-10T11:41:09.000Z</time>
      </trkpt>
      <trkpt lat="44.84024" lon="6.77697">
        <ele>2877.8000488281</ele>
        <time>2015-03-10T11:41:25.000Z</time>
      </trkpt>
      <trkpt lat="44.84023" lon="6.77694">
        <ele>2877.8000488281</ele>
        <time>2015-03-10T11:41:32.000Z</time>
      </trkpt>
      <trkpt lat="44.84022" lon="6.77691">
        <ele>2878.3999023438</ele>
        <time>2015-03-10T11:41:35.000Z</time>
      </trkpt>
      <trkpt lat="44.84019" lon="6.7769">
        <ele>2879.1999511719</ele>
        <time>2015-03-10T11:41:38.000Z</time>
      </trkpt>
      <trkpt lat="44.84017" lon="6.77689">
        <ele>2879.6000976562</ele>
        <time>2015-03-10T11:41:40.000Z</time>
      </trkpt>
      <trkpt lat="44.84015" lon="6.77685">
        <ele>2880.1999511719</ele>
        <time>2015-03-10T11:41:44.000Z</time>
      </trkpt>
      <trkpt lat="44.84014" lon="6.77684">
        <ele>2880.6000976562</ele>
        <time>2015-03-10T11:41:46.000Z</time>
      </trkpt>
      <trkpt lat="44.84013" lon="6.77683">
        <ele>2881.6000976562</ele>
        <time>2015-03-10T11:41:50.000Z</time>
      </trkpt>
      <trkpt lat="44.84013" lon="6.77683">
        <ele>2882.1999511719</ele>
        <time>2015-03-10T11:42:02.000Z</time>
      </trkpt>
      <trkpt lat="44.84013" lon="6.77683">
        <ele>2882.1999511719</ele>
        <time>2015-03-10T11:42:08.000Z</time>
      </trkpt>
      <trkpt lat="44.84013" lon="6.77683">
        <ele>2882.1999511719</ele>
        <time>2015-03-10T11:42:24.000Z</time>
      </trkpt>
      <trkpt lat="44.84012" lon="6.77683">
        <ele>2882.1999511719</ele>
        <time>2015-03-10T11:42:40.000Z</time>
      </trkpt>
      <trkpt lat="44.8401" lon="6.77681">
        <ele>2883</ele>
        <time>2015-03-10T11:42:44.000Z</time>
      </trkpt>
      <trkpt lat="44.84009" lon="6.7768">
        <ele>2883.1999511719</ele>
        <time>2015-03-10T11:42:45.000Z</time>
      </trkpt>
      <trkpt lat="44.84008" lon="6.77679">
        <ele>2884.1999511719</ele>
        <time>2015-03-10T11:42:50.000Z</time>
      </trkpt>
      <trkpt lat="44.84006" lon="6.77677">
        <ele>2884.8000488281</ele>
        <time>2015-03-10T11:42:52.000Z</time>
      </trkpt>
      <trkpt lat="44.84005" lon="6.77675">
        <ele>2885.1999511719</ele>
        <time>2015-03-10T11:42:54.000Z</time>
      </trkpt>
      <trkpt lat="44.84003" lon="6.77673">
        <ele>2886</ele>
        <time>2015-03-10T11:42:59.000Z</time>
      </trkpt>
      <trkpt lat="44.84002" lon="6.77673">
        <ele>2886.1999511719</ele>
        <time>2015-03-10T11:43:00.000Z</time>
      </trkpt>
      <trkpt lat="44.84001" lon="6.77673">
        <ele>2887.1999511719</ele>
        <time>2015-03-10T11:43:05.000Z</time>
      </trkpt>
      <trkpt lat="44.84001" lon="6.77674">
        <ele>2887.3999023438</ele>
        <time>2015-03-10T11:43:07.000Z</time>
      </trkpt>
      <trkpt lat="44.84002" lon="6.77679">
        <ele>2888.1999511719</ele>
        <time>2015-03-10T11:43:13.000Z</time>
      </trkpt>
      <trkpt lat="44.84001" lon="6.77681">
        <ele>2888.3999023438</ele>
        <time>2015-03-10T11:43:15.000Z</time>
      </trkpt>
      <trkpt lat="44.84001" lon="6.77684">
        <ele>2889</ele>
        <time>2015-03-10T11:43:20.000Z</time>
      </trkpt>
      <trkpt lat="44.84001" lon="6.77684">
        <ele>2889.6000976562</ele>
        <time>2015-03-10T11:43:26.000Z</time>
      </trkpt>
      <trkpt lat="44.84001" lon="6.77685">
        <ele>2890</ele>
        <time>2015-03-10T11:43:31.000Z</time>
      </trkpt>
      <trkpt lat="44.84001" lon="6.77688">
        <ele>2890.1999511719</ele>
        <time>2015-03-10T11:43:37.000Z</time>
      </trkpt>
      <trkpt lat="44.84001" lon="6.77688">
        <ele>2890.6000976562</ele>
        <time>2015-03-10T11:43:45.000Z</time>
      </trkpt>
      <trkpt lat="44.84001" lon="6.77688">
        <ele>2891</ele>
        <time>2015-03-10T11:43:47.000Z</time>
      </trkpt>
      <trkpt lat="44.83999" lon="6.77687">
        <ele>2890.8000488281</ele>
        <time>2015-03-10T11:43:56.000Z</time>
      </trkpt>
      <trkpt lat="44.83997" lon="6.77686">
        <ele>2891.8000488281</ele>
        <time>2015-03-10T11:44:00.000Z</time>
      </trkpt>
      <trkpt lat="44.83995" lon="6.77684">
        <ele>2892.1999511719</ele>
        <time>2015-03-10T11:44:04.000Z</time>
      </trkpt>
      <trkpt lat="44.83995" lon="6.77683">
        <ele>2893</ele>
        <time>2015-03-10T11:44:08.000Z</time>
      </trkpt>
      <trkpt lat="44.83995" lon="6.77683">
        <ele>2893.1999511719</ele>
        <time>2015-03-10T11:44:10.000Z</time>
      </trkpt>
      <trkpt lat="44.83992" lon="6.7768">
        <ele>2894</ele>
        <time>2015-03-10T11:44:14.000Z</time>
      </trkpt>
      <trkpt lat="44.8399" lon="6.77678">
        <ele>2894.8000488281</ele>
        <time>2015-03-10T11:44:18.000Z</time>
      </trkpt>
      <trkpt lat="44.83989" lon="6.77675">
        <ele>2895.1999511719</ele>
        <time>2015-03-10T11:44:21.000Z</time>
      </trkpt>
      <trkpt lat="44.83986" lon="6.77672">
        <ele>2896.1999511719</ele>
        <time>2015-03-10T11:44:25.000Z</time>
      </trkpt>
      <trkpt lat="44.83986" lon="6.77672">
        <ele>2896.3999023438</ele>
        <time>2015-03-10T11:44:26.000Z</time>
      </trkpt>
      <trkpt lat="44.83982" lon="6.77667">
        <ele>2896.6000976562</ele>
        <time>2015-03-10T11:44:36.000Z</time>
      </trkpt>
      <trkpt lat="44.83982" lon="6.77666">
        <ele>2897.6000976562</ele>
        <time>2015-03-10T11:44:38.000Z</time>
      </trkpt>
      <trkpt lat="44.83981" lon="6.77665">
        <ele>2898.3999023438</ele>
        <time>2015-03-10T11:44:43.000Z</time>
      </trkpt>
      <trkpt lat="44.83981" lon="6.77665">
        <ele>2898.6000976562</ele>
        <time>2015-03-10T11:44:44.000Z</time>
      </trkpt>
      <trkpt lat="44.8398" lon="6.77662">
        <ele>2899</ele>
        <time>2015-03-10T11:44:56.000Z</time>
      </trkpt>
      <trkpt lat="44.83978" lon="6.7766">
        <ele>2899.8000488281</ele>
        <time>2015-03-10T11:44:59.000Z</time>
      </trkpt>
      <trkpt lat="44.83977" lon="6.77657">
        <ele>2900.6000976562</ele>
        <time>2015-03-10T11:45:06.000Z</time>
      </trkpt>
      <trkpt lat="44.83977" lon="6.77657">
        <ele>2900.8000488281</ele>
        <time>2015-03-10T11:45:08.000Z</time>
      </trkpt>
      <trkpt lat="44.83977" lon="6.77661">
        <ele>2901</ele>
        <time>2015-03-10T11:45:13.000Z</time>
      </trkpt>
      <trkpt lat="44.83977" lon="6.77667">
        <ele>2901.3999023438</ele>
        <time>2015-03-10T11:45:17.000Z</time>
      </trkpt>
      <trkpt lat="44.83976" lon="6.77669">
        <ele>2902.3999023438</ele>
        <time>2015-03-10T11:45:19.000Z</time>
      </trkpt>
      <trkpt lat="44.83975" lon="6.77673">
        <ele>2903</ele>
        <time>2015-03-10T11:45:22.000Z</time>
      </trkpt>
      <trkpt lat="44.83975" lon="6.77674">
        <ele>2903.6000976562</ele>
        <time>2015-03-10T11:45:24.000Z</time>
      </trkpt>
      <trkpt lat="44.83975" lon="6.77676">
        <ele>2903.8000488281</ele>
        <time>2015-03-10T11:45:27.000Z</time>
      </trkpt>
      <trkpt lat="44.83975" lon="6.77678">
        <ele>2904.8000488281</ele>
        <time>2015-03-10T11:45:33.000Z</time>
      </trkpt>
      <trkpt lat="44.83975" lon="6.77681">
        <ele>2905.1999511719</ele>
        <time>2015-03-10T11:45:37.000Z</time>
      </trkpt>
      <trkpt lat="44.83975" lon="6.77682">
        <ele>2905.8000488281</ele>
        <time>2015-03-10T11:45:41.000Z</time>
      </trkpt>
      <trkpt lat="44.83975" lon="6.77682">
        <ele>2905.6000976562</ele>
        <time>2015-03-10T11:45:43.000Z</time>
      </trkpt>
      <trkpt lat="44.83975" lon="6.77682">
        <ele>2906.8000488281</ele>
        <time>2015-03-10T11:45:52.000Z</time>
      </trkpt>
      <trkpt lat="44.83971" lon="6.77678">
        <ele>2907.8000488281</ele>
        <time>2015-03-10T11:46:01.000Z</time>
      </trkpt>
      <trkpt lat="44.8397" lon="6.77678">
        <ele>2907.8000488281</ele>
        <time>2015-03-10T11:46:02.000Z</time>
      </trkpt>
      <trkpt lat="44.83969" lon="6.77677">
        <ele>2909</ele>
        <time>2015-03-10T11:46:10.000Z</time>
      </trkpt>
      <trkpt lat="44.83967" lon="6.77672">
        <ele>2910.1999511719</ele>
        <time>2015-03-10T11:46:15.000Z</time>
      </trkpt>
      <trkpt lat="44.83967" lon="6.77672">
        <ele>2910.8000488281</ele>
        <time>2015-03-10T11:46:18.000Z</time>
      </trkpt>
      <trkpt lat="44.83964" lon="6.7767">
        <ele>2911</ele>
        <time>2015-03-10T11:46:23.000Z</time>
      </trkpt>
      <trkpt lat="44.83963" lon="6.77674">
        <ele>2911.1999511719</ele>
        <time>2015-03-10T11:46:28.000Z</time>
      </trkpt>
      <trkpt lat="44.83963" lon="6.77676">
        <ele>2911.3999023438</ele>
        <time>2015-03-10T11:46:29.000Z</time>
      </trkpt>
      <trkpt lat="44.83963" lon="6.77677">
        <ele>2912.3999023438</ele>
        <time>2015-03-10T11:46:34.000Z</time>
      </trkpt>
      <trkpt lat="44.83962" lon="6.7768">
        <ele>2913.6000976562</ele>
        <time>2015-03-10T11:46:39.000Z</time>
      </trkpt>
      <trkpt lat="44.83961" lon="6.77684">
        <ele>2914</ele>
        <time>2015-03-10T11:46:45.000Z</time>
      </trkpt>
      <trkpt lat="44.83961" lon="6.77685">
        <ele>2915</ele>
        <time>2015-03-10T11:46:47.000Z</time>
      </trkpt>
      <trkpt lat="44.83961" lon="6.77687">
        <ele>2916</ele>
        <time>2015-03-10T11:46:50.000Z</time>
      </trkpt>
      <trkpt lat="44.8396" lon="6.77688">
        <ele>2916</ele>
        <time>2015-03-10T11:46:51.000Z</time>
      </trkpt>
      <trkpt lat="44.8396" lon="6.77692">
        <ele>2916.8000488281</ele>
        <time>2015-03-10T11:46:58.000Z</time>
      </trkpt>
      <trkpt lat="44.8396" lon="6.77693">
        <ele>2917.1999511719</ele>
        <time>2015-03-10T11:47:00.000Z</time>
      </trkpt>
      <trkpt lat="44.83961" lon="6.77695">
        <ele>2917.8000488281</ele>
        <time>2015-03-10T11:47:03.000Z</time>
      </trkpt>
      <trkpt lat="44.83961" lon="6.77696">
        <ele>2918.1999511719</ele>
        <time>2015-03-10T11:47:04.000Z</time>
      </trkpt>
      <trkpt lat="44.8396" lon="6.777">
        <ele>2918.6000976562</ele>
        <time>2015-03-10T11:47:08.000Z</time>
      </trkpt>
      <trkpt lat="44.83959" lon="6.77704">
        <ele>2919.1999511719</ele>
        <time>2015-03-10T11:47:12.000Z</time>
      </trkpt>
      <trkpt lat="44.83959" lon="6.77705">
        <ele>2919.8000488281</ele>
        <time>2015-03-10T11:47:14.000Z</time>
      </trkpt>
      <trkpt lat="44.83959" lon="6.77705">
        <ele>2920.1999511719</ele>
        <time>2015-03-10T11:47:18.000Z</time>
      </trkpt>
      <trkpt lat="44.83958" lon="6.77706">
        <ele>2920.8000488281</ele>
        <time>2015-03-10T11:47:24.000Z</time>
      </trkpt>
      <trkpt lat="44.83956" lon="6.77707">
        <ele>2921.3999023438</ele>
        <time>2015-03-10T11:47:30.000Z</time>
      </trkpt>
      <trkpt lat="44.83954" lon="6.77706">
        <ele>2922.8000488281</ele>
        <time>2015-03-10T11:47:34.000Z</time>
      </trkpt>
      <trkpt lat="44.83952" lon="6.77705">
        <ele>2923.1999511719</ele>
        <time>2015-03-10T11:47:37.000Z</time>
      </trkpt>
      <trkpt lat="44.83951" lon="6.77704">
        <ele>2923.8000488281</ele>
        <time>2015-03-10T11:47:39.000Z</time>
      </trkpt>
      <trkpt lat="44.83948" lon="6.77702">
        <ele>2924.3999023438</ele>
        <time>2015-03-10T11:47:43.000Z</time>
      </trkpt>
      <trkpt lat="44.83946" lon="6.777">
        <ele>2925</ele>
        <time>2015-03-10T11:47:46.000Z</time>
      </trkpt>
      <trkpt lat="44.83945" lon="6.77698">
        <ele>2925.8000488281</ele>
        <time>2015-03-10T11:47:50.000Z</time>
      </trkpt>
      <trkpt lat="44.83944" lon="6.77698">
        <ele>2926</ele>
        <time>2015-03-10T11:47:51.000Z</time>
      </trkpt>
      <trkpt lat="44.83943" lon="6.77695">
        <ele>2927</ele>
        <time>2015-03-10T11:47:57.000Z</time>
      </trkpt>
      <trkpt lat="44.83942" lon="6.77694">
        <ele>2927.3999023438</ele>
        <time>2015-03-10T11:47:58.000Z</time>
      </trkpt>
      <trkpt lat="44.83941" lon="6.77692">
        <ele>2928</ele>
        <time>2015-03-10T11:48:02.000Z</time>
      </trkpt>
      <trkpt lat="44.83939" lon="6.7769">
        <ele>2929.1999511719</ele>
        <time>2015-03-10T11:48:06.000Z</time>
      </trkpt>
      <trkpt lat="44.83939" lon="6.77689">
        <ele>2929.3999023438</ele>
        <time>2015-03-10T11:48:07.000Z</time>
      </trkpt>
      <trkpt lat="44.83938" lon="6.77688">
        <ele>2930.3999023438</ele>
        <time>2015-03-10T11:48:10.000Z</time>
      </trkpt>
      <trkpt lat="44.83937" lon="6.77685">
        <ele>2931.3999023438</ele>
        <time>2015-03-10T11:48:17.000Z</time>
      </trkpt>
      <trkpt lat="44.83937" lon="6.77685">
        <ele>2931.8000488281</ele>
        <time>2015-03-10T11:48:18.000Z</time>
      </trkpt>
      <trkpt lat="44.83936" lon="6.77685">
        <ele>2932.6000976562</ele>
        <time>2015-03-10T11:48:21.000Z</time>
      </trkpt>
      <trkpt lat="44.83935" lon="6.77686">
        <ele>2932.8000488281</ele>
        <time>2015-03-10T11:48:23.000Z</time>
      </trkpt>
      <trkpt lat="44.83933" lon="6.77687">
        <ele>2933.8000488281</ele>
        <time>2015-03-10T11:48:27.000Z</time>
      </trkpt>
      <trkpt lat="44.83932" lon="6.77688">
        <ele>2934.6000976562</ele>
        <time>2015-03-10T11:48:30.000Z</time>
      </trkpt>
      <trkpt lat="44.8393" lon="6.7769">
        <ele>2934.8000488281</ele>
        <time>2015-03-10T11:48:34.000Z</time>
      </trkpt>
      <trkpt lat="44.8393" lon="6.7769">
        <ele>2935</ele>
        <time>2015-03-10T11:48:35.000Z</time>
      </trkpt>
      <trkpt lat="44.83927" lon="6.77691">
        <ele>2936</ele>
        <time>2015-03-10T11:48:40.000Z</time>
      </trkpt>
      <trkpt lat="44.83927" lon="6.77691">
        <ele>2936.1999511719</ele>
        <time>2015-03-10T11:48:41.000Z</time>
      </trkpt>
      <trkpt lat="44.83925" lon="6.7769">
        <ele>2937.3999023438</ele>
        <time>2015-03-10T11:48:46.000Z</time>
      </trkpt>
      <trkpt lat="44.83924" lon="6.77689">
        <ele>2937.8000488281</ele>
        <time>2015-03-10T11:48:48.000Z</time>
      </trkpt>
      <trkpt lat="44.83921" lon="6.77686">
        <ele>2938</ele>
        <time>2015-03-10T11:48:53.000Z</time>
      </trkpt>
      <trkpt lat="44.8392" lon="6.77686">
        <ele>2938.6000976562</ele>
        <time>2015-03-10T11:48:56.000Z</time>
      </trkpt>
      <trkpt lat="44.83919" lon="6.77686">
        <ele>2939.1999511719</ele>
        <time>2015-03-10T11:48:59.000Z</time>
      </trkpt>
      <trkpt lat="44.83915" lon="6.77687">
        <ele>2939.6000976562</ele>
        <time>2015-03-10T11:49:04.000Z</time>
      </trkpt>
      <trkpt lat="44.83913" lon="6.77687">
        <ele>2940.6000976562</ele>
        <time>2015-03-10T11:49:09.000Z</time>
      </trkpt>
      <trkpt lat="44.83912" lon="6.77686">
        <ele>2940.8000488281</ele>
        <time>2015-03-10T11:49:10.000Z</time>
      </trkpt>
      <trkpt lat="44.83911" lon="6.77684">
        <ele>2941.8000488281</ele>
        <time>2015-03-10T11:49:14.000Z</time>
      </trkpt>
      <trkpt lat="44.8391" lon="6.77684">
        <ele>2942</ele>
        <time>2015-03-10T11:49:15.000Z</time>
      </trkpt>
      <trkpt lat="44.83907" lon="6.7768">
        <ele>2942.6000976562</ele>
        <time>2015-03-10T11:49:20.000Z</time>
      </trkpt>
      <trkpt lat="44.83903" lon="6.77678">
        <ele>2942.3999023438</ele>
        <time>2015-03-10T11:49:28.000Z</time>
      </trkpt>
      <trkpt lat="44.83902" lon="6.77677">
        <ele>2943.1999511719</ele>
        <time>2015-03-10T11:49:32.000Z</time>
      </trkpt>
      <trkpt lat="44.83902" lon="6.77677">
        <ele>2943.8000488281</ele>
        <time>2015-03-10T11:49:35.000Z</time>
      </trkpt>
      <trkpt lat="44.83902" lon="6.77677">
        <ele>2943.6000976562</ele>
        <time>2015-03-10T11:49:55.000Z</time>
      </trkpt>
      <trkpt lat="44.83898" lon="6.77676">
        <ele>2943.6000976562</ele>
        <time>2015-03-10T11:50:05.000Z</time>
      </trkpt>
      <trkpt lat="44.83891" lon="6.77672">
        <ele>2943.6000976562</ele>
        <time>2015-03-10T11:50:12.000Z</time>
      </trkpt>
      <trkpt lat="44.83882" lon="6.77669">
        <ele>2943</ele>
        <time>2015-03-10T11:50:20.000Z</time>
      </trkpt>
      <trkpt lat="44.83877" lon="6.77669">
        <ele>2942.6000976562</ele>
        <time>2015-03-10T11:50:25.000Z</time>
      </trkpt>
      <trkpt lat="44.83873" lon="6.77668">
        <ele>2942.6000976562</ele>
        <time>2015-03-10T11:50:31.000Z</time>
      </trkpt>
      <trkpt lat="44.83868" lon="6.77668">
        <ele>2943.1999511719</ele>
        <time>2015-03-10T11:50:38.000Z</time>
      </trkpt>
      <trkpt lat="44.83864" lon="6.77668">
        <ele>2944</ele>
        <time>2015-03-10T11:50:44.000Z</time>
      </trkpt>
      <trkpt lat="44.83864" lon="6.77668">
        <ele>2944.3999023438</ele>
        <time>2015-03-10T11:50:46.000Z</time>
      </trkpt>
      <trkpt lat="44.83862" lon="6.77668">
        <ele>2944.6000976562</ele>
        <time>2015-03-10T11:50:50.000Z</time>
      </trkpt>
      <trkpt lat="44.83859" lon="6.77667">
        <ele>2945</ele>
        <time>2015-03-10T11:50:55.000Z</time>
      </trkpt>
      <trkpt lat="44.83857" lon="6.77666">
        <ele>2945.6000976562</ele>
        <time>2015-03-10T11:50:58.000Z</time>
      </trkpt>
      <trkpt lat="44.83854" lon="6.77667">
        <ele>2946</ele>
        <time>2015-03-10T11:51:01.000Z</time>
      </trkpt>
      <trkpt lat="44.83851" lon="6.77666">
        <ele>2946.6000976562</ele>
        <time>2015-03-10T11:51:07.000Z</time>
      </trkpt>
      <trkpt lat="44.83849" lon="6.77667">
        <ele>2946.8000488281</ele>
        <time>2015-03-10T11:51:12.000Z</time>
      </trkpt>
      <trkpt lat="44.83847" lon="6.77666">
        <ele>2947.8000488281</ele>
        <time>2015-03-10T11:51:17.000Z</time>
      </trkpt>
      <trkpt lat="44.83846" lon="6.77666">
        <ele>2947.8000488281</ele>
        <time>2015-03-10T11:51:18.000Z</time>
      </trkpt>
      <trkpt lat="44.83842" lon="6.77666">
        <ele>2948.6000976562</ele>
        <time>2015-03-10T11:51:24.000Z</time>
      </trkpt>
      <trkpt lat="44.83841" lon="6.77665">
        <ele>2949</ele>
        <time>2015-03-10T11:51:26.000Z</time>
      </trkpt>
      <trkpt lat="44.83839" lon="6.77664">
        <ele>2949.3999023438</ele>
        <time>2015-03-10T11:51:29.000Z</time>
      </trkpt>
      <trkpt lat="44.83836" lon="6.77663">
        <ele>2949.8000488281</ele>
        <time>2015-03-10T11:51:34.000Z</time>
      </trkpt>
      <trkpt lat="44.83834" lon="6.77662">
        <ele>2950</ele>
        <time>2015-03-10T11:51:36.000Z</time>
      </trkpt>
      <trkpt lat="44.83834" lon="6.77662">
        <ele>2950.3999023438</ele>
        <time>2015-03-10T11:51:39.000Z</time>
      </trkpt>
      <trkpt lat="44.8383" lon="6.77661">
        <ele>2951</ele>
        <time>2015-03-10T11:51:46.000Z</time>
      </trkpt>
      <trkpt lat="44.83829" lon="6.7766">
        <ele>2951</ele>
        <time>2015-03-10T11:51:47.000Z</time>
      </trkpt>
      <trkpt lat="44.83825" lon="6.77659">
        <ele>2951.6000976562</ele>
        <time>2015-03-10T11:51:52.000Z</time>
      </trkpt>
      <trkpt lat="44.83825" lon="6.77659">
        <ele>2952.1999511719</ele>
        <time>2015-03-10T11:51:58.000Z</time>
      </trkpt>
      <trkpt lat="44.83825" lon="6.77659">
        <ele>2952</ele>
        <time>2015-03-10T11:52:05.000Z</time>
      </trkpt>
      <trkpt lat="44.83825" lon="6.77659">
        <ele>2952</ele>
        <time>2015-03-10T11:52:07.000Z</time>
      </trkpt>
      <trkpt lat="44.83823" lon="6.77659">
        <ele>2952</ele>
        <time>2015-03-10T11:52:15.000Z</time>
      </trkpt>
      <trkpt lat="44.83824" lon="6.77661">
        <ele>2952.6000976562</ele>
        <time>2015-03-10T11:52:21.000Z</time>
      </trkpt>
      <trkpt lat="44.83826" lon="6.77665">
        <ele>2953.3999023438</ele>
        <time>2015-03-10T11:52:25.000Z</time>
      </trkpt>
      <trkpt lat="44.83826" lon="6.77666">
        <ele>2954</ele>
        <time>2015-03-10T11:52:27.000Z</time>
      </trkpt>
      <trkpt lat="44.83827" lon="6.77667">
        <ele>2954.3999023438</ele>
        <time>2015-03-10T11:52:29.000Z</time>
      </trkpt>
      <trkpt lat="44.83829" lon="6.77669">
        <ele>2954.8000488281</ele>
        <time>2015-03-10T11:52:33.000Z</time>
      </trkpt>
      <trkpt lat="44.8383" lon="6.77673">
        <ele>2955.6000976562</ele>
        <time>2015-03-10T11:52:38.000Z</time>
      </trkpt>
      <trkpt lat="44.83831" lon="6.77675">
        <ele>2955.8000488281</ele>
        <time>2015-03-10T11:52:39.000Z</time>
      </trkpt>
      <trkpt lat="44.83832" lon="6.77677">
        <ele>2956.3999023438</ele>
        <time>2015-03-10T11:52:43.000Z</time>
      </trkpt>
      <trkpt lat="44.83833" lon="6.77679">
        <ele>2956.8000488281</ele>
        <time>2015-03-10T11:52:46.000Z</time>
      </trkpt>
      <trkpt lat="44.83834" lon="6.7768">
        <ele>2957.8000488281</ele>
        <time>2015-03-10T11:52:50.000Z</time>
      </trkpt>
      <trkpt lat="44.83834" lon="6.7768">
        <ele>2958</ele>
        <time>2015-03-10T11:52:51.000Z</time>
      </trkpt>
      <trkpt lat="44.83834" lon="6.7768">
        <ele>2958.6000976562</ele>
        <time>2015-03-10T11:53:03.000Z</time>
      </trkpt>
      <trkpt lat="44.83834" lon="6.77682">
        <ele>2959</ele>
        <time>2015-03-10T11:53:10.000Z</time>
      </trkpt>
      <trkpt lat="44.83834" lon="6.77684">
        <ele>2960</ele>
        <time>2015-03-10T11:53:17.000Z</time>
      </trkpt>
      <trkpt lat="44.83832" lon="6.77688">
        <ele>2961</ele>
        <time>2015-03-10T11:53:22.000Z</time>
      </trkpt>
      <trkpt lat="44.83831" lon="6.77687">
        <ele>2961.3999023438</ele>
        <time>2015-03-10T11:53:24.000Z</time>
      </trkpt>
      <trkpt lat="44.8383" lon="6.77688">
        <ele>2962</ele>
        <time>2015-03-10T11:53:26.000Z</time>
      </trkpt>
      <trkpt lat="44.83828" lon="6.77688">
        <ele>2962.6000976562</ele>
        <time>2015-03-10T11:53:29.000Z</time>
      </trkpt>
      <trkpt lat="44.83826" lon="6.77686">
        <ele>2963.1999511719</ele>
        <time>2015-03-10T11:53:32.000Z</time>
      </trkpt>
      <trkpt lat="44.83825" lon="6.77686">
        <ele>2963.3999023438</ele>
        <time>2015-03-10T11:53:34.000Z</time>
      </trkpt>
      <trkpt lat="44.83823" lon="6.77686">
        <ele>2964.1999511719</ele>
        <time>2015-03-10T11:53:38.000Z</time>
      </trkpt>
      <trkpt lat="44.83822" lon="6.77685">
        <ele>2964.6000976562</ele>
        <time>2015-03-10T11:53:40.000Z</time>
      </trkpt>
      <trkpt lat="44.8382" lon="6.77685">
        <ele>2965.1999511719</ele>
        <time>2015-03-10T11:53:43.000Z</time>
      </trkpt>
      <trkpt lat="44.83819" lon="6.77684">
        <ele>2966.1999511719</ele>
        <time>2015-03-10T11:53:46.000Z</time>
      </trkpt>
      <trkpt lat="44.83818" lon="6.77684">
        <ele>2966.3999023438</ele>
        <time>2015-03-10T11:53:47.000Z</time>
      </trkpt>
      <trkpt lat="44.83818" lon="6.77685">
        <ele>2967.3999023438</ele>
        <time>2015-03-10T11:53:53.000Z</time>
      </trkpt>
      <trkpt lat="44.83818" lon="6.77685">
        <ele>2967.3999023438</ele>
        <time>2015-03-10T11:53:58.000Z</time>
      </trkpt>
      <trkpt lat="44.83818" lon="6.77685">
        <ele>2967.8000488281</ele>
        <time>2015-03-10T11:54:06.000Z</time>
      </trkpt>
      <trkpt lat="44.83818" lon="6.77688">
        <ele>2968.1999511719</ele>
        <time>2015-03-10T11:54:13.000Z</time>
      </trkpt>
      <trkpt lat="44.83818" lon="6.77691">
        <ele>2968.6000976562</ele>
        <time>2015-03-10T11:54:17.000Z</time>
      </trkpt>
      <trkpt lat="44.83818" lon="6.77692">
        <ele>2969.3999023438</ele>
        <time>2015-03-10T11:54:19.000Z</time>
      </trkpt>
      <trkpt lat="44.83818" lon="6.77693">
        <ele>2969.8000488281</ele>
        <time>2015-03-10T11:54:20.000Z</time>
      </trkpt>
      <trkpt lat="44.83815" lon="6.77699">
        <ele>2970.6000976562</ele>
        <time>2015-03-10T11:54:26.000Z</time>
      </trkpt>
      <trkpt lat="44.83815" lon="6.77699">
        <ele>2971</ele>
        <time>2015-03-10T11:54:27.000Z</time>
      </trkpt>
      <trkpt lat="44.83815" lon="6.77699">
        <ele>2971.6000976562</ele>
        <time>2015-03-10T11:54:33.000Z</time>
      </trkpt>
      <trkpt lat="44.83815" lon="6.77698">
        <ele>2972</ele>
        <time>2015-03-10T11:54:35.000Z</time>
      </trkpt>
      <trkpt lat="44.83814" lon="6.77697">
        <ele>2972.6000976562</ele>
        <time>2015-03-10T11:54:38.000Z</time>
      </trkpt>
      <trkpt lat="44.83812" lon="6.77695">
        <ele>2973.1999511719</ele>
        <time>2015-03-10T11:54:44.000Z</time>
      </trkpt>
      <trkpt lat="44.83811" lon="6.77694">
        <ele>2973.3999023438</ele>
        <time>2015-03-10T11:54:45.000Z</time>
      </trkpt>
      <trkpt lat="44.8381" lon="6.77694">
        <ele>2974.3999023438</ele>
        <time>2015-03-10T11:54:48.000Z</time>
      </trkpt>
      <trkpt lat="44.83809" lon="6.77694">
        <ele>2974.6000976562</ele>
        <time>2015-03-10T11:54:50.000Z</time>
      </trkpt>
      <trkpt lat="44.83806" lon="6.77693">
        <ele>2975.3999023438</ele>
        <time>2015-03-10T11:54:53.000Z</time>
      </trkpt>
      <trkpt lat="44.83806" lon="6.77693">
        <ele>2976</ele>
        <time>2015-03-10T11:54:55.000Z</time>
      </trkpt>
      <trkpt lat="44.83805" lon="6.77692">
        <ele>2976.3999023438</ele>
        <time>2015-03-10T11:54:58.000Z</time>
      </trkpt>
      <trkpt lat="44.83803" lon="6.77691">
        <ele>2976.6000976562</ele>
        <time>2015-03-10T11:55:00.000Z</time>
      </trkpt>
      <trkpt lat="44.83802" lon="6.7769">
        <ele>2977.6000976562</ele>
        <time>2015-03-10T11:55:04.000Z</time>
      </trkpt>
      <trkpt lat="44.83802" lon="6.7769">
        <ele>2978.1999511719</ele>
        <time>2015-03-10T11:55:06.000Z</time>
      </trkpt>
      <trkpt lat="44.83803" lon="6.77692">
        <ele>2978</ele>
        <time>2015-03-10T11:55:12.000Z</time>
      </trkpt>
      <trkpt lat="44.83803" lon="6.77695">
        <ele>2978.6000976562</ele>
        <time>2015-03-10T11:55:16.000Z</time>
      </trkpt>
      <trkpt lat="44.83803" lon="6.77696">
        <ele>2978.8000488281</ele>
        <time>2015-03-10T11:55:17.000Z</time>
      </trkpt>
      <trkpt lat="44.83802" lon="6.77698">
        <ele>2979.6000976562</ele>
        <time>2015-03-10T11:55:21.000Z</time>
      </trkpt>
      <trkpt lat="44.83802" lon="6.77699">
        <ele>2980</ele>
        <time>2015-03-10T11:55:24.000Z</time>
      </trkpt>
      <trkpt lat="44.83801" lon="6.777">
        <ele>2980.8000488281</ele>
        <time>2015-03-10T11:55:29.000Z</time>
      </trkpt>
      <trkpt lat="44.83801" lon="6.777">
        <ele>2981.6000976562</ele>
        <time>2015-03-10T11:55:31.000Z</time>
      </trkpt>
      <trkpt lat="44.838" lon="6.77699">
        <ele>2981.3999023438</ele>
        <time>2015-03-10T11:55:47.000Z</time>
      </trkpt>
      <trkpt lat="44.83798" lon="6.77698">
        <ele>2982.1999511719</ele>
        <time>2015-03-10T11:55:52.000Z</time>
      </trkpt>
      <trkpt lat="44.83796" lon="6.77698">
        <ele>2982.3999023438</ele>
        <time>2015-03-10T11:55:53.000Z</time>
      </trkpt>
      <trkpt lat="44.83796" lon="6.77698">
        <ele>2983.1999511719</ele>
        <time>2015-03-10T11:55:57.000Z</time>
      </trkpt>
      <trkpt lat="44.83796" lon="6.77699">
        <ele>2983.3999023438</ele>
        <time>2015-03-10T11:55:58.000Z</time>
      </trkpt>
      <trkpt lat="44.83795" lon="6.77701">
        <ele>2984.3999023438</ele>
        <time>2015-03-10T11:56:01.000Z</time>
      </trkpt>
      <trkpt lat="44.83795" lon="6.77701">
        <ele>2984.6000976562</ele>
        <time>2015-03-10T11:56:04.000Z</time>
      </trkpt>
      <trkpt lat="44.83794" lon="6.777">
        <ele>2985.6000976562</ele>
        <time>2015-03-10T11:56:08.000Z</time>
      </trkpt>
      <trkpt lat="44.83791" lon="6.77698">
        <ele>2986.1999511719</ele>
        <time>2015-03-10T11:56:14.000Z</time>
      </trkpt>
      <trkpt lat="44.83789" lon="6.77698">
        <ele>2986.6000976562</ele>
        <time>2015-03-10T11:56:17.000Z</time>
      </trkpt>
      <trkpt lat="44.83789" lon="6.77698">
        <ele>2987.3999023438</ele>
        <time>2015-03-10T11:56:21.000Z</time>
      </trkpt>
      <trkpt lat="44.83789" lon="6.77698">
        <ele>2987.3999023438</ele>
        <time>2015-03-10T11:56:41.000Z</time>
      </trkpt>
      <trkpt lat="44.83789" lon="6.77698">
        <ele>2987.3999023438</ele>
        <time>2015-03-10T11:56:58.000Z</time>
      </trkpt>
      <trkpt lat="44.83785" lon="6.77696">
        <ele>2987.3999023438</ele>
        <time>2015-03-10T11:57:06.000Z</time>
      </trkpt>
      <trkpt lat="44.83783" lon="6.77695">
        <ele>2987.1999511719</ele>
        <time>2015-03-10T11:57:15.000Z</time>
      </trkpt>
      <trkpt lat="44.83776" lon="6.77694">
        <ele>2987.6000976562</ele>
        <time>2015-03-10T11:57:21.000Z</time>
      </trkpt>
      <trkpt lat="44.83773" lon="6.77693">
        <ele>2988.1999511719</ele>
        <time>2015-03-10T11:57:26.000Z</time>
      </trkpt>
      <trkpt lat="44.83768" lon="6.77693">
        <ele>2988.8000488281</ele>
        <time>2015-03-10T11:57:32.000Z</time>
      </trkpt>
      <trkpt lat="44.83767" lon="6.77693">
        <ele>2990</ele>
        <time>2015-03-10T11:57:36.000Z</time>
      </trkpt>
      <trkpt lat="44.83767" lon="6.77693">
        <ele>2990.3999023438</ele>
        <time>2015-03-10T11:57:38.000Z</time>
      </trkpt>
      <trkpt lat="44.83767" lon="6.77693">
        <ele>2990.6000976562</ele>
        <time>2015-03-10T11:57:40.000Z</time>
      </trkpt>
      <trkpt lat="44.83767" lon="6.77693">
        <ele>2990.6000976562</ele>
        <time>2015-03-10T11:57:56.000Z</time>
      </trkpt>
      <trkpt lat="44.83767" lon="6.77693">
        <ele>2990.6000976562</ele>
        <time>2015-03-10T11:58:15.000Z</time>
      </trkpt>
      <trkpt lat="44.83767" lon="6.77693">
        <ele>2990.6000976562</ele>
        <time>2015-03-10T11:58:31.000Z</time>
      </trkpt>
      <trkpt lat="44.83767" lon="6.77693">
        <ele>2990.1999511719</ele>
        <time>2015-03-10T11:58:48.000Z</time>
      </trkpt>
      <trkpt lat="44.83767" lon="6.77693">
        <ele>2990.6000976562</ele>
        <time>2015-03-10T11:59:01.000Z</time>
      </trkpt>
      <trkpt lat="44.83767" lon="6.77693">
        <ele>2990.6000976562</ele>
        <time>2015-03-10T11:59:09.000Z</time>
      </trkpt>
      <trkpt lat="44.83767" lon="6.77692">
        <ele>2990.3999023438</ele>
        <time>2015-03-10T11:59:22.000Z</time>
      </trkpt>
      <trkpt lat="44.83767" lon="6.77692">
        <ele>2990.1999511719</ele>
        <time>2015-03-10T11:59:37.000Z</time>
      </trkpt>
      <trkpt lat="44.83767" lon="6.77692">
        <ele>2991</ele>
        <time>2015-03-10T11:59:44.000Z</time>
      </trkpt>
      <trkpt lat="44.83767" lon="6.77692">
        <ele>2991.1999511719</ele>
        <time>2015-03-10T11:59:52.000Z</time>
      </trkpt>
      <trkpt lat="44.83767" lon="6.77692">
        <ele>2990.8000488281</ele>
        <time>2015-03-10T12:00:05.000Z</time>
      </trkpt>
      <trkpt lat="44.83767" lon="6.77692">
        <ele>2990.8000488281</ele>
        <time>2015-03-10T12:00:19.000Z</time>
      </trkpt>
      <trkpt lat="44.83767" lon="6.77692">
        <ele>2991</ele>
        <time>2015-03-10T12:00:36.000Z</time>
      </trkpt>
      <trkpt lat="44.83767" lon="6.77692">
        <ele>2991</ele>
        <time>2015-03-10T12:00:50.000Z</time>
      </trkpt>
      <trkpt lat="44.83767" lon="6.77692">
        <ele>2990.8000488281</ele>
        <time>2015-03-10T12:01:04.000Z</time>
      </trkpt>
      <trkpt lat="44.83767" lon="6.77691">
        <ele>2991</ele>
        <time>2015-03-10T12:01:24.000Z</time>
      </trkpt>
      <trkpt lat="44.83767" lon="6.77691">
        <ele>2991</ele>
        <time>2015-03-10T12:01:39.000Z</time>
      </trkpt>
      <trkpt lat="44.83767" lon="6.77691">
        <ele>2991</ele>
        <time>2015-03-10T12:01:54.000Z</time>
      </trkpt>
      <trkpt lat="44.83767" lon="6.77691">
        <ele>2990.8000488281</ele>
        <time>2015-03-10T12:02:07.000Z</time>
      </trkpt>
      <trkpt lat="44.83767" lon="6.77691">
        <ele>2991.1999511719</ele>
        <time>2015-03-10T12:02:22.000Z</time>
      </trkpt>
      <trkpt lat="44.83767" lon="6.77691">
        <ele>2991</ele>
        <time>2015-03-10T12:02:36.000Z</time>
      </trkpt>
      <trkpt lat="44.83767" lon="6.77691">
        <ele>2991</ele>
        <time>2015-03-10T12:02:46.000Z</time>
      </trkpt>
      <trkpt lat="44.83767" lon="6.77691">
        <ele>2991.1999511719</ele>
        <time>2015-03-10T12:02:51.000Z</time>
      </trkpt>
      <trkpt lat="44.83767" lon="6.77691">
        <ele>2991</ele>
        <time>2015-03-10T12:03:02.000Z</time>
      </trkpt>
      <trkpt lat="44.83766" lon="6.77691">
        <ele>2991.1999511719</ele>
        <time>2015-03-10T12:03:13.000Z</time>
      </trkpt>
      <trkpt lat="44.83766" lon="6.77691">
        <ele>2991.1999511719</ele>
        <time>2015-03-10T12:03:28.000Z</time>
      </trkpt>
      <trkpt lat="44.83766" lon="6.77691">
        <ele>2991.1999511719</ele>
        <time>2015-03-10T12:03:42.000Z</time>
      </trkpt>
      <trkpt lat="44.83766" lon="6.77691">
        <ele>2991</ele>
        <time>2015-03-10T12:03:58.000Z</time>
      </trkpt>
      <trkpt lat="44.83766" lon="6.77691">
        <ele>2991.3999023438</ele>
        <time>2015-03-10T12:04:11.000Z</time>
      </trkpt>
      <trkpt lat="44.83766" lon="6.77691">
        <ele>2991.3999023438</ele>
        <time>2015-03-10T12:04:23.000Z</time>
      </trkpt>
      <trkpt lat="44.83766" lon="6.7769">
        <ele>2991.1999511719</ele>
        <time>2015-03-10T12:04:37.000Z</time>
      </trkpt>
      <trkpt lat="44.83766" lon="6.7769">
        <ele>2991.1999511719</ele>
        <time>2015-03-10T12:04:49.000Z</time>
      </trkpt>
      <trkpt lat="44.83766" lon="6.7769">
        <ele>2991.1999511719</ele>
        <time>2015-03-10T12:05:05.000Z</time>
      </trkpt>
      <trkpt lat="44.83766" lon="6.7769">
        <ele>2991.1999511719</ele>
        <time>2015-03-10T12:05:17.000Z</time>
      </trkpt>
      <trkpt lat="44.83766" lon="6.7769">
        <ele>2991.1999511719</ele>
        <time>2015-03-10T12:05:32.000Z</time>
      </trkpt>
      <trkpt lat="44.83766" lon="6.7769">
        <ele>2991.1999511719</ele>
        <time>2015-03-10T12:05:44.000Z</time>
      </trkpt>
      <trkpt lat="44.83766" lon="6.7769">
        <ele>2991.3999023438</ele>
        <time>2015-03-10T12:05:59.000Z</time>
      </trkpt>
      <trkpt lat="44.83766" lon="6.7769">
        <ele>2991.1999511719</ele>
        <time>2015-03-10T12:06:12.000Z</time>
      </trkpt>
      <trkpt lat="44.83766" lon="6.7769">
        <ele>2991.3999023438</ele>
        <time>2015-03-10T12:06:26.000Z</time>
      </trkpt>
      <trkpt lat="44.83766" lon="6.7769">
        <ele>2991.6000976562</ele>
        <time>2015-03-10T12:06:42.000Z</time>
      </trkpt>
      <trkpt lat="44.83766" lon="6.7769">
        <ele>2991.6000976562</ele>
        <time>2015-03-10T12:06:55.000Z</time>
      </trkpt>
      <trkpt lat="44.83766" lon="6.7769">
        <ele>2991.3999023438</ele>
        <time>2015-03-10T12:07:06.000Z</time>
      </trkpt>
      <trkpt lat="44.83766" lon="6.7769">
        <ele>2991.3999023438</ele>
        <time>2015-03-10T12:07:22.000Z</time>
      </trkpt>
      <trkpt lat="44.83766" lon="6.7769">
        <ele>2991.1999511719</ele>
        <time>2015-03-10T12:07:33.000Z</time>
      </trkpt>
      <trkpt lat="44.83766" lon="6.7769">
        <ele>2991.6000976562</ele>
        <time>2015-03-10T12:07:44.000Z</time>
      </trkpt>
      <trkpt lat="44.83766" lon="6.7769">
        <ele>2991.8000488281</ele>
        <time>2015-03-10T12:07:53.000Z</time>
      </trkpt>
      <trkpt lat="44.83766" lon="6.7769">
        <ele>2992</ele>
        <time>2015-03-10T12:08:00.000Z</time>
      </trkpt>
      <trkpt lat="44.83766" lon="6.77691">
        <ele>2992.3999023438</ele>
        <time>2015-03-10T12:08:01.000Z</time>
      </trkpt>
      <trkpt lat="44.83765" lon="6.77691">
        <ele>2993.1999511719</ele>
        <time>2015-03-10T12:08:03.000Z</time>
      </trkpt>
      <trkpt lat="44.83763" lon="6.77692">
        <ele>2993.8000488281</ele>
        <time>2015-03-10T12:08:07.000Z</time>
      </trkpt>
      <trkpt lat="44.83763" lon="6.77692">
        <ele>2994.1999511719</ele>
        <time>2015-03-10T12:08:09.000Z</time>
      </trkpt>
      <trkpt lat="44.83762" lon="6.77693">
        <ele>2994.8000488281</ele>
        <time>2015-03-10T12:08:13.000Z</time>
      </trkpt>
      <trkpt lat="44.83762" lon="6.77693">
        <ele>2995.1999511719</ele>
        <time>2015-03-10T12:08:16.000Z</time>
      </trkpt>
      <trkpt lat="44.83762" lon="6.77693">
        <ele>2995.3999023438</ele>
        <time>2015-03-10T12:08:18.000Z</time>
      </trkpt>
      <trkpt lat="44.83762" lon="6.77693">
        <ele>2996.3999023438</ele>
        <time>2015-03-10T12:08:23.000Z</time>
      </trkpt>
      <trkpt lat="44.83762" lon="6.77693">
        <ele>2997.6000976562</ele>
        <time>2015-03-10T12:08:29.000Z</time>
      </trkpt>
      <trkpt lat="44.83761" lon="6.77693">
        <ele>2997.8000488281</ele>
        <time>2015-03-10T12:08:32.000Z</time>
      </trkpt>
      <trkpt lat="44.8376" lon="6.77693">
        <ele>2998.6000976562</ele>
        <time>2015-03-10T12:08:40.000Z</time>
      </trkpt>
      <trkpt lat="44.8376" lon="6.77693">
        <ele>2998.6000976562</ele>
        <time>2015-03-10T12:08:41.000Z</time>
      </trkpt>
      <trkpt lat="44.8376" lon="6.77693">
        <ele>2999.1999511719</ele>
        <time>2015-03-10T12:08:48.000Z</time>
      </trkpt>
      <trkpt lat="44.8376" lon="6.77693">
        <ele>2999.6000976562</ele>
        <time>2015-03-10T12:08:49.000Z</time>
      </trkpt>
      <trkpt lat="44.8376" lon="6.77693">
        <ele>3000.8000488281</ele>
        <time>2015-03-10T12:08:53.000Z</time>
      </trkpt>
      <trkpt lat="44.8376" lon="6.77693">
        <ele>3001</ele>
        <time>2015-03-10T12:09:02.000Z</time>
      </trkpt>
      <trkpt lat="44.83759" lon="6.77694">
        <ele>3001.1999511719</ele>
        <time>2015-03-10T12:09:17.000Z</time>
      </trkpt>
      <trkpt lat="44.83759" lon="6.77694">
        <ele>3001</ele>
        <time>2015-03-10T12:09:33.000Z</time>
      </trkpt>
      <trkpt lat="44.83759" lon="6.77694">
        <ele>3001</ele>
        <time>2015-03-10T12:09:52.000Z</time>
      </trkpt>
      <trkpt lat="44.83758" lon="6.77694">
        <ele>3001</ele>
        <time>2015-03-10T12:10:07.000Z</time>
      </trkpt>
      <trkpt lat="44.83758" lon="6.77694">
        <ele>3001</ele>
        <time>2015-03-10T12:10:32.000Z</time>
      </trkpt>
      <trkpt lat="44.83758" lon="6.77694">
        <ele>3001.1999511719</ele>
        <time>2015-03-10T12:10:52.000Z</time>
      </trkpt>
      <trkpt lat="44.83758" lon="6.77694">
        <ele>3001.1999511719</ele>
        <time>2015-03-10T12:11:16.000Z</time>
      </trkpt>
      <trkpt lat="44.83758" lon="6.77694">
        <ele>3001.1999511719</ele>
        <time>2015-03-10T12:11:24.000Z</time>
      </trkpt>
      <trkpt lat="44.83758" lon="6.77694">
        <ele>3001.1999511719</ele>
        <time>2015-03-10T12:11:40.000Z</time>
      </trkpt>
      <trkpt lat="44.83757" lon="6.77694">
        <ele>3001.1999511719</ele>
        <time>2015-03-10T12:12:02.000Z</time>
      </trkpt>
      <trkpt lat="44.83757" lon="6.77695">
        <ele>3001.3999023438</ele>
        <time>2015-03-10T12:12:12.000Z</time>
      </trkpt>
      <trkpt lat="44.83757" lon="6.77695">
        <ele>3000.8000488281</ele>
        <time>2015-03-10T12:12:22.000Z</time>
      </trkpt>
      <trkpt lat="44.83757" lon="6.77695">
        <ele>3001.6000976562</ele>
        <time>2015-03-10T12:12:39.000Z</time>
      </trkpt>
      <trkpt lat="44.83757" lon="6.77695">
        <ele>3001.8000488281</ele>
        <time>2015-03-10T12:12:48.000Z</time>
      </trkpt>
      <trkpt lat="44.83757" lon="6.77695">
        <ele>3002</ele>
        <time>2015-03-10T12:12:53.000Z</time>
      </trkpt>
      <trkpt lat="44.83757" lon="6.77695">
        <ele>3002</ele>
        <time>2015-03-10T12:13:05.000Z</time>
      </trkpt>
      <trkpt lat="44.83757" lon="6.77695">
        <ele>3002</ele>
        <time>2015-03-10T12:13:15.000Z</time>
      </trkpt>
      <trkpt lat="44.83757" lon="6.77695">
        <ele>3001.8000488281</ele>
        <time>2015-03-10T12:13:26.000Z</time>
      </trkpt>
      <trkpt lat="44.83757" lon="6.77695">
        <ele>3001.8000488281</ele>
        <time>2015-03-10T12:13:40.000Z</time>
      </trkpt>
      <trkpt lat="44.83757" lon="6.77696">
        <ele>3002</ele>
        <time>2015-03-10T12:13:56.000Z</time>
      </trkpt>
      <trkpt lat="44.83757" lon="6.77696">
        <ele>3002</ele>
        <time>2015-03-10T12:14:08.000Z</time>
      </trkpt>
      <trkpt lat="44.83757" lon="6.77696">
        <ele>3001.3999023438</ele>
        <time>2015-03-10T12:14:20.000Z</time>
      </trkpt>
      <trkpt lat="44.83757" lon="6.77696">
        <ele>3001</ele>
        <time>2015-03-10T12:14:32.000Z</time>
      </trkpt>
      <trkpt lat="44.83757" lon="6.77696">
        <ele>3002</ele>
        <time>2015-03-10T12:14:44.000Z</time>
      </trkpt>
      <trkpt lat="44.83757" lon="6.77696">
        <ele>3001.8000488281</ele>
        <time>2015-03-10T12:14:57.000Z</time>
      </trkpt>
      <trkpt lat="44.83756" lon="6.77695">
        <ele>3002.1999511719</ele>
        <time>2015-03-10T12:15:07.000Z</time>
      </trkpt>
      <trkpt lat="44.83756" lon="6.77695">
        <ele>3001.6000976562</ele>
        <time>2015-03-10T12:15:18.000Z</time>
      </trkpt>
      <trkpt lat="44.83756" lon="6.77695">
        <ele>3001.3999023438</ele>
        <time>2015-03-10T12:15:31.000Z</time>
      </trkpt>
      <trkpt lat="44.83756" lon="6.77695">
        <ele>3001.8000488281</ele>
        <time>2015-03-10T12:15:47.000Z</time>
      </trkpt>
      <trkpt lat="44.83756" lon="6.77695">
        <ele>3001.8000488281</ele>
        <time>2015-03-10T12:16:03.000Z</time>
      </trkpt>
      <trkpt lat="44.83756" lon="6.77695">
        <ele>3001.8000488281</ele>
        <time>2015-03-10T12:16:20.000Z</time>
      </trkpt>
      <trkpt lat="44.83756" lon="6.77695">
        <ele>3001.6000976562</ele>
        <time>2015-03-10T12:16:27.000Z</time>
      </trkpt>
      <trkpt lat="44.83756" lon="6.77695">
        <ele>3000.8000488281</ele>
        <time>2015-03-10T12:16:32.000Z</time>
      </trkpt>
      <trkpt lat="44.83756" lon="6.77695">
        <ele>3000.1999511719</ele>
        <time>2015-03-10T12:16:36.000Z</time>
      </trkpt>
      <trkpt lat="44.83756" lon="6.77695">
        <ele>2999.8000488281</ele>
        <time>2015-03-10T12:16:38.000Z</time>
      </trkpt>
      <trkpt lat="44.83756" lon="6.77695">
        <ele>2999.6000976562</ele>
        <time>2015-03-10T12:16:45.000Z</time>
      </trkpt>
      <trkpt lat="44.83756" lon="6.77695">
        <ele>2999.1999511719</ele>
        <time>2015-03-10T12:16:54.000Z</time>
      </trkpt>
      <trkpt lat="44.83759" lon="6.77695">
        <ele>2998.8000488281</ele>
        <time>2015-03-10T12:17:00.000Z</time>
      </trkpt>
      <trkpt lat="44.83759" lon="6.77695">
        <ele>2998.6000976562</ele>
        <time>2015-03-10T12:17:01.000Z</time>
      </trkpt>
      <trkpt lat="44.8376" lon="6.77694">
        <ele>2997.3999023438</ele>
        <time>2015-03-10T12:17:06.000Z</time>
      </trkpt>
      <trkpt lat="44.83761" lon="6.77693">
        <ele>2996.6000976562</ele>
        <time>2015-03-10T12:17:10.000Z</time>
      </trkpt>
      <trkpt lat="44.83762" lon="6.77693">
        <ele>2996.1999511719</ele>
        <time>2015-03-10T12:17:12.000Z</time>
      </trkpt>
      <trkpt lat="44.83764" lon="6.77692">
        <ele>2995.1999511719</ele>
        <time>2015-03-10T12:17:17.000Z</time>
      </trkpt>
      <trkpt lat="44.83764" lon="6.77692">
        <ele>2994.8000488281</ele>
        <time>2015-03-10T12:17:19.000Z</time>
      </trkpt>
      <trkpt lat="44.83764" lon="6.77692">
        <ele>2994</ele>
        <time>2015-03-10T12:17:26.000Z</time>
      </trkpt>
      <trkpt lat="44.83764" lon="6.77692">
        <ele>2993.6000976562</ele>
        <time>2015-03-10T12:17:30.000Z</time>
      </trkpt>
      <trkpt lat="44.83764" lon="6.77692">
        <ele>2993</ele>
        <time>2015-03-10T12:17:34.000Z</time>
      </trkpt>
      <trkpt lat="44.83764" lon="6.77692">
        <ele>2992.1999511719</ele>
        <time>2015-03-10T12:17:40.000Z</time>
      </trkpt>
      <trkpt lat="44.83764" lon="6.77692">
        <ele>2993</ele>
        <time>2015-03-10T12:17:47.000Z</time>
      </trkpt>
      <trkpt lat="44.83764" lon="6.77693">
        <ele>2992.6000976562</ele>
        <time>2015-03-10T12:18:08.000Z</time>
      </trkpt>
      <trkpt lat="44.83764" lon="6.77693">
        <ele>2992.6000976562</ele>
        <time>2015-03-10T12:18:27.000Z</time>
      </trkpt>
      <trkpt lat="44.83766" lon="6.77692">
        <ele>2992.6000976562</ele>
        <time>2015-03-10T12:18:46.000Z</time>
      </trkpt>
      <trkpt lat="44.83766" lon="6.77692">
        <ele>2992.3999023438</ele>
        <time>2015-03-10T12:19:05.000Z</time>
      </trkpt>
      <trkpt lat="44.83766" lon="6.77692">
        <ele>2992.3999023438</ele>
        <time>2015-03-10T12:19:18.000Z</time>
      </trkpt>
      <trkpt lat="44.83766" lon="6.77692">
        <ele>2992.3999023438</ele>
        <time>2015-03-10T12:19:33.000Z</time>
      </trkpt>
      <trkpt lat="44.83766" lon="6.77692">
        <ele>2992.6000976562</ele>
        <time>2015-03-10T12:19:51.000Z</time>
      </trkpt>
      <trkpt lat="44.83766" lon="6.77693">
        <ele>2992.6000976562</ele>
        <time>2015-03-10T12:20:12.000Z</time>
      </trkpt>
      <trkpt lat="44.83766" lon="6.77693">
        <ele>2992.6000976562</ele>
        <time>2015-03-10T12:20:21.000Z</time>
      </trkpt>
      <trkpt lat="44.83766" lon="6.77693">
        <ele>2991.8000488281</ele>
        <time>2015-03-10T12:20:29.000Z</time>
      </trkpt>
      <trkpt lat="44.83766" lon="6.77693">
        <ele>2992.1999511719</ele>
        <time>2015-03-10T12:20:31.000Z</time>
      </trkpt>
      <trkpt lat="44.83766" lon="6.77693">
        <ele>2992.1999511719</ele>
        <time>2015-03-10T12:20:45.000Z</time>
      </trkpt>
      <trkpt lat="44.83766" lon="6.77693">
        <ele>2992.3999023438</ele>
        <time>2015-03-10T12:21:01.000Z</time>
      </trkpt>
      <trkpt lat="44.83766" lon="6.77693">
        <ele>2992.1999511719</ele>
        <time>2015-03-10T12:21:15.000Z</time>
      </trkpt>
      <trkpt lat="44.83766" lon="6.77693">
        <ele>2992.3999023438</ele>
        <time>2015-03-10T12:21:36.000Z</time>
      </trkpt>
      <trkpt lat="44.83766" lon="6.77693">
        <ele>2992.3999023438</ele>
        <time>2015-03-10T12:21:54.000Z</time>
      </trkpt>
      <trkpt lat="44.83766" lon="6.77693">
        <ele>2992.8000488281</ele>
        <time>2015-03-10T12:22:11.000Z</time>
      </trkpt>
      <trkpt lat="44.83766" lon="6.77693">
        <ele>2993</ele>
        <time>2015-03-10T12:22:12.000Z</time>
      </trkpt>
      <trkpt lat="44.83766" lon="6.77692">
        <ele>2992.6000976562</ele>
        <time>2015-03-10T12:22:22.000Z</time>
      </trkpt>
      <trkpt lat="44.83766" lon="6.77692">
        <ele>2992.3999023438</ele>
        <time>2015-03-10T12:22:33.000Z</time>
      </trkpt>
      <trkpt lat="44.83766" lon="6.77692">
        <ele>2992.3999023438</ele>
        <time>2015-03-10T12:22:46.000Z</time>
      </trkpt>
      <trkpt lat="44.83766" lon="6.77692">
        <ele>2992.1999511719</ele>
        <time>2015-03-10T12:22:58.000Z</time>
      </trkpt>
      <trkpt lat="44.83766" lon="6.77692">
        <ele>2992</ele>
        <time>2015-03-10T12:23:09.000Z</time>
      </trkpt>
      <trkpt lat="44.83766" lon="6.77692">
        <ele>2991.6000976562</ele>
        <time>2015-03-10T12:23:13.000Z</time>
      </trkpt>
      <trkpt lat="44.83766" lon="6.77692">
        <ele>2992</ele>
        <time>2015-03-10T12:23:28.000Z</time>
      </trkpt>
      <trkpt lat="44.83766" lon="6.77692">
        <ele>2991.8000488281</ele>
        <time>2015-03-10T12:23:39.000Z</time>
      </trkpt>
      <trkpt lat="44.83766" lon="6.77692">
        <ele>2992.3999023438</ele>
        <time>2015-03-10T12:23:49.000Z</time>
      </trkpt>
      <trkpt lat="44.83766" lon="6.77692">
        <ele>2991.8000488281</ele>
        <time>2015-03-10T12:24:05.000Z</time>
      </trkpt>
      <trkpt lat="44.83766" lon="6.77692">
        <ele>2992.6000976562</ele>
        <time>2015-03-10T12:24:12.000Z</time>
      </trkpt>
      <trkpt lat="44.83766" lon="6.77692">
        <ele>2992.3999023438</ele>
        <time>2015-03-10T12:24:21.000Z</time>
      </trkpt>
      <trkpt lat="44.83766" lon="6.77692">
        <ele>2992.1999511719</ele>
        <time>2015-03-10T12:24:32.000Z</time>
      </trkpt>
      <trkpt lat="44.83766" lon="6.77692">
        <ele>2992.1999511719</ele>
        <time>2015-03-10T12:24:42.000Z</time>
      </trkpt>
      <trkpt lat="44.83766" lon="6.77693">
        <ele>2991.8000488281</ele>
        <time>2015-03-10T12:24:56.000Z</time>
      </trkpt>
      <trkpt lat="44.83766" lon="6.77693">
        <ele>2992.1999511719</ele>
        <time>2015-03-10T12:25:10.000Z</time>
      </trkpt>
      <trkpt lat="44.83766" lon="6.77693">
        <ele>2992</ele>
        <time>2015-03-10T12:25:20.000Z</time>
      </trkpt>
      <trkpt lat="44.83767" lon="6.77693">
        <ele>2991.8000488281</ele>
        <time>2015-03-10T12:25:28.000Z</time>
      </trkpt>
      <trkpt lat="44.83767" lon="6.77693">
        <ele>2991.6000976562</ele>
        <time>2015-03-10T12:25:29.000Z</time>
      </trkpt>
      <trkpt lat="44.83771" lon="6.77691">
        <ele>2991.3999023438</ele>
        <time>2015-03-10T12:25:32.000Z</time>
      </trkpt>
      <trkpt lat="44.83773" lon="6.77691">
        <ele>2991.1999511719</ele>
        <time>2015-03-10T12:25:33.000Z</time>
      </trkpt>
      <trkpt lat="44.83778" lon="6.7769">
        <ele>2990.6000976562</ele>
        <time>2015-03-10T12:25:35.000Z</time>
      </trkpt>
      <trkpt lat="44.83783" lon="6.7769">
        <ele>2989.6000976562</ele>
        <time>2015-03-10T12:25:37.000Z</time>
      </trkpt>
      <trkpt lat="44.83785" lon="6.77689">
        <ele>2988.1999511719</ele>
        <time>2015-03-10T12:25:39.000Z</time>
      </trkpt>
      <trkpt lat="44.83789" lon="6.77687">
        <ele>2986.6000976562</ele>
        <time>2015-03-10T12:25:41.000Z</time>
      </trkpt>
      <trkpt lat="44.83798" lon="6.77688">
        <ele>2985.3999023438</ele>
        <time>2015-03-10T12:25:44.000Z</time>
      </trkpt>
      <trkpt lat="44.838" lon="6.77688">
        <ele>2984.3999023438</ele>
        <time>2015-03-10T12:25:45.000Z</time>
      </trkpt>
      <trkpt lat="44.83801" lon="6.77688">
        <ele>2983.3999023438</ele>
        <time>2015-03-10T12:25:46.000Z</time>
      </trkpt>
      <trkpt lat="44.83801" lon="6.77687">
        <ele>2982.1999511719</ele>
        <time>2015-03-10T12:25:47.000Z</time>
      </trkpt>
      <trkpt lat="44.83806" lon="6.77688">
        <ele>2980.3999023438</ele>
        <time>2015-03-10T12:25:49.000Z</time>
      </trkpt>
      <trkpt lat="44.83811" lon="6.7769">
        <ele>2979.3999023438</ele>
        <time>2015-03-10T12:25:51.000Z</time>
      </trkpt>
      <trkpt lat="44.83812" lon="6.77689">
        <ele>2979</ele>
        <time>2015-03-10T12:25:52.000Z</time>
      </trkpt>
      <trkpt lat="44.83813" lon="6.77689">
        <ele>2977.8000488281</ele>
        <time>2015-03-10T12:25:54.000Z</time>
      </trkpt>
      <trkpt lat="44.83816" lon="6.77689">
        <ele>2976.6000976562</ele>
        <time>2015-03-10T12:25:56.000Z</time>
      </trkpt>
      <trkpt lat="44.83818" lon="6.7769">
        <ele>2975.3999023438</ele>
        <time>2015-03-10T12:25:59.000Z</time>
      </trkpt>
      <trkpt lat="44.83819" lon="6.7769">
        <ele>2974.1999511719</ele>
        <time>2015-03-10T12:26:01.000Z</time>
      </trkpt>
      <trkpt lat="44.83823" lon="6.77692">
        <ele>2973</ele>
        <time>2015-03-10T12:26:04.000Z</time>
      </trkpt>
      <trkpt lat="44.83826" lon="6.77691">
        <ele>2972.6000976562</ele>
        <time>2015-03-10T12:26:05.000Z</time>
      </trkpt>
      <trkpt lat="44.8383" lon="6.77685">
        <ele>2971.8000488281</ele>
        <time>2015-03-10T12:26:07.000Z</time>
      </trkpt>
      <trkpt lat="44.83833" lon="6.77681">
        <ele>2970.1999511719</ele>
        <time>2015-03-10T12:26:09.000Z</time>
      </trkpt>
      <trkpt lat="44.83835" lon="6.77681">
        <ele>2969</ele>
        <time>2015-03-10T12:26:10.000Z</time>
      </trkpt>
      <trkpt lat="44.83836" lon="6.7768">
        <ele>2967.6000976562</ele>
        <time>2015-03-10T12:26:11.000Z</time>
      </trkpt>
      <trkpt lat="44.83837" lon="6.7768">
        <ele>2966.6000976562</ele>
        <time>2015-03-10T12:26:12.000Z</time>
      </trkpt>
      <trkpt lat="44.83838" lon="6.77679">
        <ele>2965</ele>
        <time>2015-03-10T12:26:14.000Z</time>
      </trkpt>
      <trkpt lat="44.83838" lon="6.77678">
        <ele>2964</ele>
        <time>2015-03-10T12:26:16.000Z</time>
      </trkpt>
      <trkpt lat="44.83837" lon="6.77677">
        <ele>2963.6000976562</ele>
        <time>2015-03-10T12:26:17.000Z</time>
      </trkpt>
      <trkpt lat="44.83837" lon="6.77677">
        <ele>2963</ele>
        <time>2015-03-10T12:26:19.000Z</time>
      </trkpt>
      <trkpt lat="44.83837" lon="6.77676">
        <ele>2962.6000976562</ele>
        <time>2015-03-10T12:26:20.000Z</time>
      </trkpt>
      <trkpt lat="44.83836" lon="6.77675">
        <ele>2962.3999023438</ele>
        <time>2015-03-10T12:26:21.000Z</time>
      </trkpt>
      <trkpt lat="44.83834" lon="6.77671">
        <ele>2961.8000488281</ele>
        <time>2015-03-10T12:26:23.000Z</time>
      </trkpt>
      <trkpt lat="44.83832" lon="6.77668">
        <ele>2960.6000976562</ele>
        <time>2015-03-10T12:26:25.000Z</time>
      </trkpt>
      <trkpt lat="44.83833" lon="6.77666">
        <ele>2959.3999023438</ele>
        <time>2015-03-10T12:26:26.000Z</time>
      </trkpt>
      <trkpt lat="44.83834" lon="6.77665">
        <ele>2958</ele>
        <time>2015-03-10T12:26:27.000Z</time>
      </trkpt>
      <trkpt lat="44.83835" lon="6.77664">
        <ele>2956.8000488281</ele>
        <time>2015-03-10T12:26:28.000Z</time>
      </trkpt>
      <trkpt lat="44.83838" lon="6.77663">
        <ele>2955.3999023438</ele>
        <time>2015-03-10T12:26:30.000Z</time>
      </trkpt>
      <trkpt lat="44.83841" lon="6.77664">
        <ele>2954.8000488281</ele>
        <time>2015-03-10T12:26:31.000Z</time>
      </trkpt>
      <trkpt lat="44.83844" lon="6.77665">
        <ele>2954.1999511719</ele>
        <time>2015-03-10T12:26:32.000Z</time>
      </trkpt>
      <trkpt lat="44.83849" lon="6.77666">
        <ele>2953.1999511719</ele>
        <time>2015-03-10T12:26:33.000Z</time>
      </trkpt>
      <trkpt lat="44.83854" lon="6.77669">
        <ele>2952</ele>
        <time>2015-03-10T12:26:34.000Z</time>
      </trkpt>
      <trkpt lat="44.83859" lon="6.77671">
        <ele>2950.8000488281</ele>
        <time>2015-03-10T12:26:35.000Z</time>
      </trkpt>
      <trkpt lat="44.83866" lon="6.77672">
        <ele>2949.8000488281</ele>
        <time>2015-03-10T12:26:36.000Z</time>
      </trkpt>
      <trkpt lat="44.83872" lon="6.77673">
        <ele>2948.6000976562</ele>
        <time>2015-03-10T12:26:37.000Z</time>
      </trkpt>
      <trkpt lat="44.83877" lon="6.77674">
        <ele>2947.6000976562</ele>
        <time>2015-03-10T12:26:38.000Z</time>
      </trkpt>
      <trkpt lat="44.83885" lon="6.77676">
        <ele>2946</ele>
        <time>2015-03-10T12:26:40.000Z</time>
      </trkpt>
      <trkpt lat="44.83888" lon="6.77676">
        <ele>2945</ele>
        <time>2015-03-10T12:26:44.000Z</time>
      </trkpt>
      <trkpt lat="44.83888" lon="6.77674">
        <ele>2945</ele>
        <time>2015-03-10T12:26:52.000Z</time>
      </trkpt>
      <trkpt lat="44.83888" lon="6.77674">
        <ele>2945</ele>
        <time>2015-03-10T12:26:55.000Z</time>
      </trkpt>
      <trkpt lat="44.83888" lon="6.77674">
        <ele>2944.6000976562</ele>
        <time>2015-03-10T12:27:07.000Z</time>
      </trkpt>
      <trkpt lat="44.83888" lon="6.77674">
        <ele>2944.6000976562</ele>
        <time>2015-03-10T12:27:27.000Z</time>
      </trkpt>
      <trkpt lat="44.83891" lon="6.77676">
        <ele>2944.6000976562</ele>
        <time>2015-03-10T12:27:39.000Z</time>
      </trkpt>
      <trkpt lat="44.83899" lon="6.77679">
        <ele>2944.8000488281</ele>
        <time>2015-03-10T12:27:46.000Z</time>
      </trkpt>
      <trkpt lat="44.83912" lon="6.77687">
        <ele>2945</ele>
        <time>2015-03-10T12:27:50.000Z</time>
      </trkpt>
      <trkpt lat="44.83922" lon="6.77688">
        <ele>2944.1999511719</ele>
        <time>2015-03-10T12:27:53.000Z</time>
      </trkpt>
      <trkpt lat="44.83926" lon="6.77691">
        <ele>2943.6000976562</ele>
        <time>2015-03-10T12:27:54.000Z</time>
      </trkpt>
      <trkpt lat="44.83932" lon="6.77692">
        <ele>2941.3999023438</ele>
        <time>2015-03-10T12:27:56.000Z</time>
      </trkpt>
      <trkpt lat="44.83933" lon="6.77692">
        <ele>2940.3999023438</ele>
        <time>2015-03-10T12:27:57.000Z</time>
      </trkpt>
      <trkpt lat="44.83933" lon="6.77693">
        <ele>2939.1999511719</ele>
        <time>2015-03-10T12:27:59.000Z</time>
      </trkpt>
      <trkpt lat="44.83933" lon="6.77693">
        <ele>2938.6000976562</ele>
        <time>2015-03-10T12:28:00.000Z</time>
      </trkpt>
      <trkpt lat="44.83933" lon="6.77693">
        <ele>2937.6000976562</ele>
        <time>2015-03-10T12:28:01.000Z</time>
      </trkpt>
      <trkpt lat="44.83933" lon="6.77693">
        <ele>2936.6000976562</ele>
        <time>2015-03-10T12:28:02.000Z</time>
      </trkpt>
      <trkpt lat="44.83934" lon="6.77692">
        <ele>2936.1999511719</ele>
        <time>2015-03-10T12:28:09.000Z</time>
      </trkpt>
      <trkpt lat="44.83935" lon="6.77692">
        <ele>2936.1999511719</ele>
        <time>2015-03-10T12:28:10.000Z</time>
      </trkpt>
      <trkpt lat="44.83938" lon="6.77696">
        <ele>2935.1999511719</ele>
        <time>2015-03-10T12:28:13.000Z</time>
      </trkpt>
      <trkpt lat="44.83938" lon="6.77696">
        <ele>2934.8000488281</ele>
        <time>2015-03-10T12:28:14.000Z</time>
      </trkpt>
      <trkpt lat="44.83938" lon="6.77696">
        <ele>2934</ele>
        <time>2015-03-10T12:28:16.000Z</time>
      </trkpt>
      <trkpt lat="44.83939" lon="6.77695">
        <ele>2933</ele>
        <time>2015-03-10T12:28:19.000Z</time>
      </trkpt>
      <trkpt lat="44.8394" lon="6.77694">
        <ele>2932.8000488281</ele>
        <time>2015-03-10T12:28:20.000Z</time>
      </trkpt>
      <trkpt lat="44.83943" lon="6.77691">
        <ele>2932.1999511719</ele>
        <time>2015-03-10T12:28:23.000Z</time>
      </trkpt>
      <trkpt lat="44.83945" lon="6.77691">
        <ele>2932</ele>
        <time>2015-03-10T12:28:24.000Z</time>
      </trkpt>
      <trkpt lat="44.83946" lon="6.77691">
        <ele>2931.3999023438</ele>
        <time>2015-03-10T12:28:25.000Z</time>
      </trkpt>
      <trkpt lat="44.83948" lon="6.77692">
        <ele>2929.3999023438</ele>
        <time>2015-03-10T12:28:26.000Z</time>
      </trkpt>
      <trkpt lat="44.83949" lon="6.7769">
        <ele>2928.6000976562</ele>
        <time>2015-03-10T12:28:27.000Z</time>
      </trkpt>
      <trkpt lat="44.83949" lon="6.77691">
        <ele>2928</ele>
        <time>2015-03-10T12:28:28.000Z</time>
      </trkpt>
      <trkpt lat="44.83949" lon="6.77691">
        <ele>2926.8000488281</ele>
        <time>2015-03-10T12:28:31.000Z</time>
      </trkpt>
      <trkpt lat="44.83949" lon="6.77691">
        <ele>2925.8000488281</ele>
        <time>2015-03-10T12:28:33.000Z</time>
      </trkpt>
      <trkpt lat="44.83949" lon="6.77691">
        <ele>2925.3999023438</ele>
        <time>2015-03-10T12:28:34.000Z</time>
      </trkpt>
      <trkpt lat="44.83951" lon="6.77691">
        <ele>2924.8000488281</ele>
        <time>2015-03-10T12:28:44.000Z</time>
      </trkpt>
      <trkpt lat="44.83952" lon="6.77691">
        <ele>2924.3999023438</ele>
        <time>2015-03-10T12:28:46.000Z</time>
      </trkpt>
      <trkpt lat="44.83952" lon="6.77691">
        <ele>2923.8000488281</ele>
        <time>2015-03-10T12:28:49.000Z</time>
      </trkpt>
      <trkpt lat="44.83953" lon="6.7769">
        <ele>2923.3999023438</ele>
        <time>2015-03-10T12:28:52.000Z</time>
      </trkpt>
      <trkpt lat="44.83954" lon="6.77687">
        <ele>2923.1999511719</ele>
        <time>2015-03-10T12:28:53.000Z</time>
      </trkpt>
      <trkpt lat="44.83956" lon="6.77676">
        <ele>2922.1999511719</ele>
        <time>2015-03-10T12:28:56.000Z</time>
      </trkpt>
      <trkpt lat="44.83955" lon="6.77673">
        <ele>2921.6000976562</ele>
        <time>2015-03-10T12:28:57.000Z</time>
      </trkpt>
      <trkpt lat="44.83955" lon="6.77672">
        <ele>2920.8000488281</ele>
        <time>2015-03-10T12:28:58.000Z</time>
      </trkpt>
      <trkpt lat="44.83956" lon="6.77672">
        <ele>2919.1999511719</ele>
        <time>2015-03-10T12:29:00.000Z</time>
      </trkpt>
      <trkpt lat="44.83962" lon="6.77675">
        <ele>2918</ele>
        <time>2015-03-10T12:29:02.000Z</time>
      </trkpt>
      <trkpt lat="44.83965" lon="6.77677">
        <ele>2917.1999511719</ele>
        <time>2015-03-10T12:29:03.000Z</time>
      </trkpt>
      <trkpt lat="44.83968" lon="6.77675">
        <ele>2916.3999023438</ele>
        <time>2015-03-10T12:29:04.000Z</time>
      </trkpt>
      <trkpt lat="44.8397" lon="6.77672">
        <ele>2915.6000976562</ele>
        <time>2015-03-10T12:29:05.000Z</time>
      </trkpt>
      <trkpt lat="44.83972" lon="6.77669">
        <ele>2915.1999511719</ele>
        <time>2015-03-10T12:29:06.000Z</time>
      </trkpt>
      <trkpt lat="44.83979" lon="6.7767">
        <ele>2914</ele>
        <time>2015-03-10T12:29:08.000Z</time>
      </trkpt>
      <trkpt lat="44.83982" lon="6.77672">
        <ele>2913</ele>
        <time>2015-03-10T12:29:09.000Z</time>
      </trkpt>
      <trkpt lat="44.83984" lon="6.7767">
        <ele>2911.6000976562</ele>
        <time>2015-03-10T12:29:10.000Z</time>
      </trkpt>
      <trkpt lat="44.83986" lon="6.77666">
        <ele>2910</ele>
        <time>2015-03-10T12:29:11.000Z</time>
      </trkpt>
      <trkpt lat="44.83989" lon="6.77663">
        <ele>2908.1999511719</ele>
        <time>2015-03-10T12:29:12.000Z</time>
      </trkpt>
      <trkpt lat="44.83991" lon="6.77661">
        <ele>2906.6000976562</ele>
        <time>2015-03-10T12:29:13.000Z</time>
      </trkpt>
      <trkpt lat="44.83993" lon="6.77661">
        <ele>2903.8000488281</ele>
        <time>2015-03-10T12:29:14.000Z</time>
      </trkpt>
      <trkpt lat="44.83995" lon="6.7766">
        <ele>2902</ele>
        <time>2015-03-10T12:29:15.000Z</time>
      </trkpt>
      <trkpt lat="44.83997" lon="6.77659">
        <ele>2900.3999023438</ele>
        <time>2015-03-10T12:29:16.000Z</time>
      </trkpt>
      <trkpt lat="44.83999" lon="6.77659">
        <ele>2899.3999023438</ele>
        <time>2015-03-10T12:29:17.000Z</time>
      </trkpt>
      <trkpt lat="44.84004" lon="6.77659">
        <ele>2897</ele>
        <time>2015-03-10T12:29:19.000Z</time>
      </trkpt>
      <trkpt lat="44.84005" lon="6.77654">
        <ele>2895.3999023438</ele>
        <time>2015-03-10T12:29:20.000Z</time>
      </trkpt>
      <trkpt lat="44.84006" lon="6.7765">
        <ele>2894.1999511719</ele>
        <time>2015-03-10T12:29:21.000Z</time>
      </trkpt>
      <trkpt lat="44.84007" lon="6.77646">
        <ele>2893.1999511719</ele>
        <time>2015-03-10T12:29:22.000Z</time>
      </trkpt>
      <trkpt lat="44.84007" lon="6.77642">
        <ele>2892</ele>
        <time>2015-03-10T12:29:23.000Z</time>
      </trkpt>
      <trkpt lat="44.84008" lon="6.7764">
        <ele>2890.3999023438</ele>
        <time>2015-03-10T12:29:24.000Z</time>
      </trkpt>
      <trkpt lat="44.84011" lon="6.77639">
        <ele>2888.6000976562</ele>
        <time>2015-03-10T12:29:25.000Z</time>
      </trkpt>
      <trkpt lat="44.84013" lon="6.77638">
        <ele>2887.1999511719</ele>
        <time>2015-03-10T12:29:26.000Z</time>
      </trkpt>
      <trkpt lat="44.84015" lon="6.77636">
        <ele>2886.1999511719</ele>
        <time>2015-03-10T12:29:27.000Z</time>
      </trkpt>
      <trkpt lat="44.84017" lon="6.77632">
        <ele>2885.1999511719</ele>
        <time>2015-03-10T12:29:28.000Z</time>
      </trkpt>
      <trkpt lat="44.84018" lon="6.7763">
        <ele>2883.8000488281</ele>
        <time>2015-03-10T12:29:29.000Z</time>
      </trkpt>
      <trkpt lat="44.84021" lon="6.77629">
        <ele>2882</ele>
        <time>2015-03-10T12:29:30.000Z</time>
      </trkpt>
      <trkpt lat="44.84022" lon="6.77628">
        <ele>2880.1999511719</ele>
        <time>2015-03-10T12:29:31.000Z</time>
      </trkpt>
      <trkpt lat="44.84023" lon="6.77628">
        <ele>2878.8000488281</ele>
        <time>2015-03-10T12:29:32.000Z</time>
      </trkpt>
      <trkpt lat="44.84024" lon="6.77629">
        <ele>2877.8000488281</ele>
        <time>2015-03-10T12:29:33.000Z</time>
      </trkpt>
      <trkpt lat="44.84024" lon="6.7763">
        <ele>2876.8000488281</ele>
        <time>2015-03-10T12:29:34.000Z</time>
      </trkpt>
      <trkpt lat="44.84025" lon="6.77631">
        <ele>2875.8000488281</ele>
        <time>2015-03-10T12:29:35.000Z</time>
      </trkpt>
      <trkpt lat="44.84026" lon="6.7763">
        <ele>2874.6000976562</ele>
        <time>2015-03-10T12:29:36.000Z</time>
      </trkpt>
      <trkpt lat="44.84027" lon="6.77629">
        <ele>2873.8000488281</ele>
        <time>2015-03-10T12:29:37.000Z</time>
      </trkpt>
      <trkpt lat="44.8403" lon="6.77631">
        <ele>2872.6000976562</ele>
        <time>2015-03-10T12:29:38.000Z</time>
      </trkpt>
      <trkpt lat="44.84036" lon="6.77629">
        <ele>2871.3999023438</ele>
        <time>2015-03-10T12:29:40.000Z</time>
      </trkpt>
      <trkpt lat="44.84038" lon="6.77626">
        <ele>2871</ele>
        <time>2015-03-10T12:29:41.000Z</time>
      </trkpt>
      <trkpt lat="44.84042" lon="6.77621">
        <ele>2869.8000488281</ele>
        <time>2015-03-10T12:29:43.000Z</time>
      </trkpt>
      <trkpt lat="44.84045" lon="6.77616">
        <ele>2868.6000976562</ele>
        <time>2015-03-10T12:29:44.000Z</time>
      </trkpt>
      <trkpt lat="44.84048" lon="6.77611">
        <ele>2867</ele>
        <time>2015-03-10T12:29:45.000Z</time>
      </trkpt>
      <trkpt lat="44.8405" lon="6.77604">
        <ele>2866</ele>
        <time>2015-03-10T12:29:46.000Z</time>
      </trkpt>
      <trkpt lat="44.84052" lon="6.77593">
        <ele>2864.1999511719</ele>
        <time>2015-03-10T12:29:48.000Z</time>
      </trkpt>
      <trkpt lat="44.84052" lon="6.7759">
        <ele>2862.3999023438</ele>
        <time>2015-03-10T12:29:49.000Z</time>
      </trkpt>
      <trkpt lat="44.84051" lon="6.77587">
        <ele>2861</ele>
        <time>2015-03-10T12:29:50.000Z</time>
      </trkpt>
      <trkpt lat="44.84051" lon="6.77586">
        <ele>2860</ele>
        <time>2015-03-10T12:29:51.000Z</time>
      </trkpt>
      <trkpt lat="44.8405" lon="6.77586">
        <ele>2859.3999023438</ele>
        <time>2015-03-10T12:29:52.000Z</time>
      </trkpt>
      <trkpt lat="44.84051" lon="6.77585">
        <ele>2859</ele>
        <time>2015-03-10T12:29:53.000Z</time>
      </trkpt>
      <trkpt lat="44.84055" lon="6.77587">
        <ele>2858.1999511719</ele>
        <time>2015-03-10T12:29:55.000Z</time>
      </trkpt>
      <trkpt lat="44.8406" lon="6.77578">
        <ele>2856.8000488281</ele>
        <time>2015-03-10T12:29:57.000Z</time>
      </trkpt>
      <trkpt lat="44.84061" lon="6.77572">
        <ele>2856.1999511719</ele>
        <time>2015-03-10T12:29:58.000Z</time>
      </trkpt>
      <trkpt lat="44.84062" lon="6.77568">
        <ele>2855.8000488281</ele>
        <time>2015-03-10T12:29:59.000Z</time>
      </trkpt>
      <trkpt lat="44.84064" lon="6.77561">
        <ele>2854.1999511719</ele>
        <time>2015-03-10T12:30:01.000Z</time>
      </trkpt>
      <trkpt lat="44.84066" lon="6.7756">
        <ele>2851.8000488281</ele>
        <time>2015-03-10T12:30:02.000Z</time>
      </trkpt>
      <trkpt lat="44.84068" lon="6.77557">
        <ele>2850.6000976562</ele>
        <time>2015-03-10T12:30:03.000Z</time>
      </trkpt>
      <trkpt lat="44.84071" lon="6.77554">
        <ele>2849.6000976562</ele>
        <time>2015-03-10T12:30:04.000Z</time>
      </trkpt>
      <trkpt lat="44.84078" lon="6.77547">
        <ele>2848</ele>
        <time>2015-03-10T12:30:06.000Z</time>
      </trkpt>
      <trkpt lat="44.84081" lon="6.77543">
        <ele>2847</ele>
        <time>2015-03-10T12:30:07.000Z</time>
      </trkpt>
      <trkpt lat="44.84084" lon="6.77541">
        <ele>2845.8000488281</ele>
        <time>2015-03-10T12:30:08.000Z</time>
      </trkpt>
      <trkpt lat="44.84086" lon="6.77538">
        <ele>2844.3999023438</ele>
        <time>2015-03-10T12:30:09.000Z</time>
      </trkpt>
      <trkpt lat="44.84088" lon="6.77535">
        <ele>2842.3999023438</ele>
        <time>2015-03-10T12:30:10.000Z</time>
      </trkpt>
      <trkpt lat="44.84087" lon="6.77533">
        <ele>2840.6000976562</ele>
        <time>2015-03-10T12:30:11.000Z</time>
      </trkpt>
      <trkpt lat="44.84086" lon="6.77532">
        <ele>2839.1999511719</ele>
        <time>2015-03-10T12:30:12.000Z</time>
      </trkpt>
      <trkpt lat="44.84084" lon="6.77532">
        <ele>2837.8000488281</ele>
        <time>2015-03-10T12:30:13.000Z</time>
      </trkpt>
      <trkpt lat="44.84083" lon="6.77532">
        <ele>2836.3999023438</ele>
        <time>2015-03-10T12:30:14.000Z</time>
      </trkpt>
      <trkpt lat="44.84083" lon="6.77532">
        <ele>2835.1999511719</ele>
        <time>2015-03-10T12:30:15.000Z</time>
      </trkpt>
      <trkpt lat="44.84083" lon="6.77532">
        <ele>2834</ele>
        <time>2015-03-10T12:30:17.000Z</time>
      </trkpt>
      <trkpt lat="44.84083" lon="6.77531">
        <ele>2833.3999023438</ele>
        <time>2015-03-10T12:30:22.000Z</time>
      </trkpt>
      <trkpt lat="44.84088" lon="6.77523">
        <ele>2833.1999511719</ele>
        <time>2015-03-10T12:30:24.000Z</time>
      </trkpt>
      <trkpt lat="44.84088" lon="6.77516">
        <ele>2833</ele>
        <time>2015-03-10T12:30:25.000Z</time>
      </trkpt>
      <trkpt lat="44.84092" lon="6.77508">
        <ele>2831.1999511719</ele>
        <time>2015-03-10T12:30:27.000Z</time>
      </trkpt>
      <trkpt lat="44.84093" lon="6.77502">
        <ele>2829.6000976562</ele>
        <time>2015-03-10T12:30:28.000Z</time>
      </trkpt>
      <trkpt lat="44.84094" lon="6.77495">
        <ele>2828.1999511719</ele>
        <time>2015-03-10T12:30:29.000Z</time>
      </trkpt>
      <trkpt lat="44.84096" lon="6.77492">
        <ele>2827</ele>
        <time>2015-03-10T12:30:30.000Z</time>
      </trkpt>
      <trkpt lat="44.84098" lon="6.77492">
        <ele>2825.8000488281</ele>
        <time>2015-03-10T12:30:31.000Z</time>
      </trkpt>
      <trkpt lat="44.84099" lon="6.77491">
        <ele>2824.3999023438</ele>
        <time>2015-03-10T12:30:32.000Z</time>
      </trkpt>
      <trkpt lat="44.84099" lon="6.77491">
        <ele>2823</ele>
        <time>2015-03-10T12:30:33.000Z</time>
      </trkpt>
      <trkpt lat="44.84098" lon="6.77491">
        <ele>2822</ele>
        <time>2015-03-10T12:30:34.000Z</time>
      </trkpt>
      <trkpt lat="44.84098" lon="6.77491">
        <ele>2821.1999511719</ele>
        <time>2015-03-10T12:30:35.000Z</time>
      </trkpt>
      <trkpt lat="44.84098" lon="6.77491">
        <ele>2820.3999023438</ele>
        <time>2015-03-10T12:30:36.000Z</time>
      </trkpt>
      <trkpt lat="44.84098" lon="6.77491">
        <ele>2819.1999511719</ele>
        <time>2015-03-10T12:30:39.000Z</time>
      </trkpt>
      <trkpt lat="44.84098" lon="6.77491">
        <ele>2819.1999511719</ele>
        <time>2015-03-10T12:30:42.000Z</time>
      </trkpt>
      <trkpt lat="44.84098" lon="6.77491">
        <ele>2819.3999023438</ele>
        <time>2015-03-10T12:30:55.000Z</time>
      </trkpt>
      <trkpt lat="44.84099" lon="6.7749">
        <ele>2819.3999023438</ele>
        <time>2015-03-10T12:30:57.000Z</time>
      </trkpt>
      <trkpt lat="44.84103" lon="6.77489">
        <ele>2819</ele>
        <time>2015-03-10T12:31:01.000Z</time>
      </trkpt>
      <trkpt lat="44.84103" lon="6.77489">
        <ele>2818.6000976562</ele>
        <time>2015-03-10T12:31:12.000Z</time>
      </trkpt>
      <trkpt lat="44.84103" lon="6.77489">
        <ele>2818.3999023438</ele>
        <time>2015-03-10T12:31:18.000Z</time>
      </trkpt>
      <trkpt lat="44.84103" lon="6.77489">
        <ele>2818.3999023438</ele>
        <time>2015-03-10T12:31:24.000Z</time>
      </trkpt>
      <trkpt lat="44.84108" lon="6.77483">
        <ele>2818.3999023438</ele>
        <time>2015-03-10T12:31:27.000Z</time>
      </trkpt>
      <trkpt lat="44.8411" lon="6.77481">
        <ele>2818.3999023438</ele>
        <time>2015-03-10T12:31:28.000Z</time>
      </trkpt>
      <trkpt lat="44.8411" lon="6.77481">
        <ele>2818</ele>
        <time>2015-03-10T12:31:30.000Z</time>
      </trkpt>
      <trkpt lat="44.8411" lon="6.77481">
        <ele>2817.3999023438</ele>
        <time>2015-03-10T12:31:32.000Z</time>
      </trkpt>
      <trkpt lat="44.8411" lon="6.77481">
        <ele>2817</ele>
        <time>2015-03-10T12:31:34.000Z</time>
      </trkpt>
      <trkpt lat="44.8411" lon="6.77481">
        <ele>2816.8000488281</ele>
        <time>2015-03-10T12:31:47.000Z</time>
      </trkpt>
      <trkpt lat="44.8411" lon="6.77481">
        <ele>2816.6000976562</ele>
        <time>2015-03-10T12:32:02.000Z</time>
      </trkpt>
      <trkpt lat="44.8411" lon="6.77481">
        <ele>2816.6000976562</ele>
        <time>2015-03-10T12:32:17.000Z</time>
      </trkpt>
      <trkpt lat="44.8411" lon="6.77481">
        <ele>2816.6000976562</ele>
        <time>2015-03-10T12:32:30.000Z</time>
      </trkpt>
      <trkpt lat="44.8411" lon="6.77481">
        <ele>2816.6000976562</ele>
        <time>2015-03-10T12:32:44.000Z</time>
      </trkpt>
      <trkpt lat="44.8411" lon="6.77481">
        <ele>2816.3999023438</ele>
        <time>2015-03-10T12:33:00.000Z</time>
      </trkpt>
      <trkpt lat="44.8411" lon="6.77481">
        <ele>2816.6000976562</ele>
        <time>2015-03-10T12:33:15.000Z</time>
      </trkpt>
      <trkpt lat="44.8411" lon="6.77481">
        <ele>2816.6000976562</ele>
        <time>2015-03-10T12:33:29.000Z</time>
      </trkpt>
      <trkpt lat="44.8411" lon="6.77481">
        <ele>2816.6000976562</ele>
        <time>2015-03-10T12:33:44.000Z</time>
      </trkpt>
      <trkpt lat="44.8411" lon="6.77481">
        <ele>2816.6000976562</ele>
        <time>2015-03-10T12:34:01.000Z</time>
      </trkpt>
      <trkpt lat="44.8411" lon="6.77481">
        <ele>2816.6000976562</ele>
        <time>2015-03-10T12:34:20.000Z</time>
      </trkpt>
      <trkpt lat="44.8411" lon="6.77481">
        <ele>2816.6000976562</ele>
        <time>2015-03-10T12:34:41.000Z</time>
      </trkpt>
      <trkpt lat="44.8411" lon="6.77481">
        <ele>2816.6000976562</ele>
        <time>2015-03-10T12:35:01.000Z</time>
      </trkpt>
      <trkpt lat="44.8411" lon="6.77481">
        <ele>2816.8000488281</ele>
        <time>2015-03-10T12:35:22.000Z</time>
      </trkpt>
      <trkpt lat="44.8411" lon="6.77481">
        <ele>2816.8000488281</ele>
        <time>2015-03-10T12:35:37.000Z</time>
      </trkpt>
      <trkpt lat="44.8411" lon="6.77481">
        <ele>2816.8000488281</ele>
        <time>2015-03-10T12:36:01.000Z</time>
      </trkpt>
      <trkpt lat="44.84111" lon="6.77481">
        <ele>2817</ele>
        <time>2015-03-10T12:36:20.000Z</time>
      </trkpt>
      <trkpt lat="44.84111" lon="6.77481">
        <ele>2817</ele>
        <time>2015-03-10T12:36:35.000Z</time>
      </trkpt>
      <trkpt lat="44.84111" lon="6.77481">
        <ele>2817</ele>
        <time>2015-03-10T12:36:55.000Z</time>
      </trkpt>
      <trkpt lat="44.84111" lon="6.77481">
        <ele>2817.1999511719</ele>
        <time>2015-03-10T12:37:13.000Z</time>
      </trkpt>
      <trkpt lat="44.8411" lon="6.77481">
        <ele>2817</ele>
        <time>2015-03-10T12:37:36.000Z</time>
      </trkpt>
      <trkpt lat="44.8411" lon="6.77481">
        <ele>2817.1999511719</ele>
        <time>2015-03-10T12:37:58.000Z</time>
      </trkpt>
      <trkpt lat="44.8411" lon="6.77481">
        <ele>2817.1999511719</ele>
        <time>2015-03-10T12:38:19.000Z</time>
      </trkpt>
      <trkpt lat="44.8411" lon="6.77481">
        <ele>2817</ele>
        <time>2015-03-10T12:38:31.000Z</time>
      </trkpt>
      <trkpt lat="44.8411" lon="6.77481">
        <ele>2817</ele>
        <time>2015-03-10T12:38:45.000Z</time>
      </trkpt>
      <trkpt lat="44.8411" lon="6.77481">
        <ele>2817</ele>
        <time>2015-03-10T12:39:01.000Z</time>
      </trkpt>
      <trkpt lat="44.8411" lon="6.77481">
        <ele>2817</ele>
        <time>2015-03-10T12:39:18.000Z</time>
      </trkpt>
      <trkpt lat="44.8411" lon="6.77481">
        <ele>2817</ele>
        <time>2015-03-10T12:39:37.000Z</time>
      </trkpt>
      <trkpt lat="44.8411" lon="6.77481">
        <ele>2817</ele>
        <time>2015-03-10T12:39:53.000Z</time>
      </trkpt>
      <trkpt lat="44.8411" lon="6.77481">
        <ele>2816.8000488281</ele>
        <time>2015-03-10T12:40:10.000Z</time>
      </trkpt>
      <trkpt lat="44.8411" lon="6.77481">
        <ele>2816.8000488281</ele>
        <time>2015-03-10T12:40:27.000Z</time>
      </trkpt>
      <trkpt lat="44.84113" lon="6.77472">
        <ele>2816.6000976562</ele>
        <time>2015-03-10T12:40:34.000Z</time>
      </trkpt>
      <trkpt lat="44.8412" lon="6.77452">
        <ele>2815.8000488281</ele>
        <time>2015-03-10T12:40:37.000Z</time>
      </trkpt>
      <trkpt lat="44.84124" lon="6.77439">
        <ele>2814.6000976562</ele>
        <time>2015-03-10T12:40:39.000Z</time>
      </trkpt>
      <trkpt lat="44.84125" lon="6.77426">
        <ele>2813</ele>
        <time>2015-03-10T12:40:41.000Z</time>
      </trkpt>
      <trkpt lat="44.84124" lon="6.7742">
        <ele>2812</ele>
        <time>2015-03-10T12:40:42.000Z</time>
      </trkpt>
      <trkpt lat="44.84124" lon="6.77419">
        <ele>2810.1999511719</ele>
        <time>2015-03-10T12:40:44.000Z</time>
      </trkpt>
      <trkpt lat="44.84124" lon="6.77419">
        <ele>2809.3999023438</ele>
        <time>2015-03-10T12:40:45.000Z</time>
      </trkpt>
      <trkpt lat="44.84124" lon="6.77419">
        <ele>2808.6000976562</ele>
        <time>2015-03-10T12:40:46.000Z</time>
      </trkpt>
      <trkpt lat="44.84124" lon="6.77419">
        <ele>2807</ele>
        <time>2015-03-10T12:40:48.000Z</time>
      </trkpt>
      <trkpt lat="44.84124" lon="6.77419">
        <ele>2805.8000488281</ele>
        <time>2015-03-10T12:40:51.000Z</time>
      </trkpt>
      <trkpt lat="44.84123" lon="6.77419">
        <ele>2805.6000976562</ele>
        <time>2015-03-10T12:40:55.000Z</time>
      </trkpt>
      <trkpt lat="44.84121" lon="6.77421">
        <ele>2805</ele>
        <time>2015-03-10T12:40:59.000Z</time>
      </trkpt>
      <trkpt lat="44.84117" lon="6.77422">
        <ele>2804.6000976562</ele>
        <time>2015-03-10T12:41:00.000Z</time>
      </trkpt>
      <trkpt lat="44.84114" lon="6.77421">
        <ele>2804.1999511719</ele>
        <time>2015-03-10T12:41:01.000Z</time>
      </trkpt>
      <trkpt lat="44.84112" lon="6.77419">
        <ele>2803.6000976562</ele>
        <time>2015-03-10T12:41:02.000Z</time>
      </trkpt>
      <trkpt lat="44.84112" lon="6.77415">
        <ele>2803</ele>
        <time>2015-03-10T12:41:03.000Z</time>
      </trkpt>
      <trkpt lat="44.84104" lon="6.77412">
        <ele>2801.8000488281</ele>
        <time>2015-03-10T12:41:05.000Z</time>
      </trkpt>
      <trkpt lat="44.84097" lon="6.77414">
        <ele>2800.3999023438</ele>
        <time>2015-03-10T12:41:07.000Z</time>
      </trkpt>
      <trkpt lat="44.84094" lon="6.77412">
        <ele>2798.8000488281</ele>
        <time>2015-03-10T12:41:08.000Z</time>
      </trkpt>
      <trkpt lat="44.84091" lon="6.7741">
        <ele>2796.1999511719</ele>
        <time>2015-03-10T12:41:09.000Z</time>
      </trkpt>
      <trkpt lat="44.84088" lon="6.77408">
        <ele>2793.8000488281</ele>
        <time>2015-03-10T12:41:10.000Z</time>
      </trkpt>
      <trkpt lat="44.84089" lon="6.77404">
        <ele>2792.1999511719</ele>
        <time>2015-03-10T12:41:11.000Z</time>
      </trkpt>
      <trkpt lat="44.84089" lon="6.77399">
        <ele>2791.1999511719</ele>
        <time>2015-03-10T12:41:12.000Z</time>
      </trkpt>
      <trkpt lat="44.84088" lon="6.77396">
        <ele>2790.3999023438</ele>
        <time>2015-03-10T12:41:13.000Z</time>
      </trkpt>
      <trkpt lat="44.84087" lon="6.77392">
        <ele>2789.1999511719</ele>
        <time>2015-03-10T12:41:14.000Z</time>
      </trkpt>
      <trkpt lat="44.84083" lon="6.77386">
        <ele>2787.8000488281</ele>
        <time>2015-03-10T12:41:15.000Z</time>
      </trkpt>
      <trkpt lat="44.84079" lon="6.77383">
        <ele>2783.6000976562</ele>
        <time>2015-03-10T12:41:16.000Z</time>
      </trkpt>
      <trkpt lat="44.84073" lon="6.77381">
        <ele>2781.6000976562</ele>
        <time>2015-03-10T12:41:17.000Z</time>
      </trkpt>
      <trkpt lat="44.84067" lon="6.7738">
        <ele>2779.8000488281</ele>
        <time>2015-03-10T12:41:18.000Z</time>
      </trkpt>
      <trkpt lat="44.84061" lon="6.77379">
        <ele>2777.6000976562</ele>
        <time>2015-03-10T12:41:19.000Z</time>
      </trkpt>
      <trkpt lat="44.84057" lon="6.77375">
        <ele>2775.1999511719</ele>
        <time>2015-03-10T12:41:20.000Z</time>
      </trkpt>
      <trkpt lat="44.84052" lon="6.7737">
        <ele>2772.8000488281</ele>
        <time>2015-03-10T12:41:21.000Z</time>
      </trkpt>
      <trkpt lat="44.84047" lon="6.77367">
        <ele>2771</ele>
        <time>2015-03-10T12:41:22.000Z</time>
      </trkpt>
      <trkpt lat="44.84044" lon="6.77362">
        <ele>2769</ele>
        <time>2015-03-10T12:41:23.000Z</time>
      </trkpt>
      <trkpt lat="44.84039" lon="6.77357">
        <ele>2766.8000488281</ele>
        <time>2015-03-10T12:41:24.000Z</time>
      </trkpt>
      <trkpt lat="44.84034" lon="6.77353">
        <ele>2764.6000976562</ele>
        <time>2015-03-10T12:41:25.000Z</time>
      </trkpt>
      <trkpt lat="44.84028" lon="6.7735">
        <ele>2762.3999023438</ele>
        <time>2015-03-10T12:41:26.000Z</time>
      </trkpt>
      <trkpt lat="44.84021" lon="6.77348">
        <ele>2760</ele>
        <time>2015-03-10T12:41:27.000Z</time>
      </trkpt>
      <trkpt lat="44.84015" lon="6.77342">
        <ele>2757</ele>
        <time>2015-03-10T12:41:28.000Z</time>
      </trkpt>
      <trkpt lat="44.84011" lon="6.77338">
        <ele>2754.1999511719</ele>
        <time>2015-03-10T12:41:29.000Z</time>
      </trkpt>
      <trkpt lat="44.84007" lon="6.77335">
        <ele>2752</ele>
        <time>2015-03-10T12:41:30.000Z</time>
      </trkpt>
      <trkpt lat="44.84004" lon="6.77331">
        <ele>2749.8000488281</ele>
        <time>2015-03-10T12:41:31.000Z</time>
      </trkpt>
      <trkpt lat="44.83998" lon="6.77326">
        <ele>2747.1999511719</ele>
        <time>2015-03-10T12:41:32.000Z</time>
      </trkpt>
      <trkpt lat="44.83994" lon="6.77327">
        <ele>2744.3999023438</ele>
        <time>2015-03-10T12:41:33.000Z</time>
      </trkpt>
      <trkpt lat="44.83991" lon="6.77324">
        <ele>2742</ele>
        <time>2015-03-10T12:41:34.000Z</time>
      </trkpt>
      <trkpt lat="44.83987" lon="6.77323">
        <ele>2740.3999023438</ele>
        <time>2015-03-10T12:41:35.000Z</time>
      </trkpt>
      <trkpt lat="44.83985" lon="6.77315">
        <ele>2739.3999023438</ele>
        <time>2015-03-10T12:41:36.000Z</time>
      </trkpt>
      <trkpt lat="44.83976" lon="6.77304">
        <ele>2737</ele>
        <time>2015-03-10T12:41:38.000Z</time>
      </trkpt>
      <trkpt lat="44.83972" lon="6.77299">
        <ele>2735</ele>
        <time>2015-03-10T12:41:39.000Z</time>
      </trkpt>
      <trkpt lat="44.83968" lon="6.77293">
        <ele>2730.8000488281</ele>
        <time>2015-03-10T12:41:40.000Z</time>
      </trkpt>
      <trkpt lat="44.83962" lon="6.77288">
        <ele>2728.1999511719</ele>
        <time>2015-03-10T12:41:41.000Z</time>
      </trkpt>
      <trkpt lat="44.83957" lon="6.77284">
        <ele>2725.3999023438</ele>
        <time>2015-03-10T12:41:42.000Z</time>
      </trkpt>
      <trkpt lat="44.83956" lon="6.77276">
        <ele>2722.6000976562</ele>
        <time>2015-03-10T12:41:43.000Z</time>
      </trkpt>
      <trkpt lat="44.83953" lon="6.77267">
        <ele>2719.6000976562</ele>
        <time>2015-03-10T12:41:44.000Z</time>
      </trkpt>
      <trkpt lat="44.83951" lon="6.77259">
        <ele>2717</ele>
        <time>2015-03-10T12:41:45.000Z</time>
      </trkpt>
      <trkpt lat="44.83949" lon="6.7725">
        <ele>2714.6000976562</ele>
        <time>2015-03-10T12:41:46.000Z</time>
      </trkpt>
      <trkpt lat="44.83945" lon="6.77241">
        <ele>2712.1999511719</ele>
        <time>2015-03-10T12:41:47.000Z</time>
      </trkpt>
      <trkpt lat="44.83941" lon="6.77235">
        <ele>2709.8000488281</ele>
        <time>2015-03-10T12:41:48.000Z</time>
      </trkpt>
      <trkpt lat="44.83937" lon="6.77226">
        <ele>2707.3999023438</ele>
        <time>2015-03-10T12:41:49.000Z</time>
      </trkpt>
      <trkpt lat="44.83931" lon="6.77218">
        <ele>2705</ele>
        <time>2015-03-10T12:41:50.000Z</time>
      </trkpt>
      <trkpt lat="44.83928" lon="6.77208">
        <ele>2702.3999023438</ele>
        <time>2015-03-10T12:41:51.000Z</time>
      </trkpt>
      <trkpt lat="44.83924" lon="6.77197">
        <ele>2699.3999023438</ele>
        <time>2015-03-10T12:41:52.000Z</time>
      </trkpt>
      <trkpt lat="44.83919" lon="6.77188">
        <ele>2696.3999023438</ele>
        <time>2015-03-10T12:41:53.000Z</time>
      </trkpt>
      <trkpt lat="44.83914" lon="6.7718">
        <ele>2693.3999023438</ele>
        <time>2015-03-10T12:41:54.000Z</time>
      </trkpt>
      <trkpt lat="44.83908" lon="6.77173">
        <ele>2690.3999023438</ele>
        <time>2015-03-10T12:41:55.000Z</time>
      </trkpt>
      <trkpt lat="44.83903" lon="6.77166">
        <ele>2687.1999511719</ele>
        <time>2015-03-10T12:41:56.000Z</time>
      </trkpt>
      <trkpt lat="44.83898" lon="6.77156">
        <ele>2684</ele>
        <time>2015-03-10T12:41:57.000Z</time>
      </trkpt>
      <trkpt lat="44.83894" lon="6.77149">
        <ele>2681.3999023438</ele>
        <time>2015-03-10T12:41:58.000Z</time>
      </trkpt>
      <trkpt lat="44.83891" lon="6.77139">
        <ele>2679.1999511719</ele>
        <time>2015-03-10T12:41:59.000Z</time>
      </trkpt>
      <trkpt lat="44.83886" lon="6.77129">
        <ele>2676.8000488281</ele>
        <time>2015-03-10T12:42:00.000Z</time>
      </trkpt>
      <trkpt lat="44.83881" lon="6.77119">
        <ele>2674.1999511719</ele>
        <time>2015-03-10T12:42:01.000Z</time>
      </trkpt>
      <trkpt lat="44.83875" lon="6.77108">
        <ele>2671.3999023438</ele>
        <time>2015-03-10T12:42:02.000Z</time>
      </trkpt>
      <trkpt lat="44.83871" lon="6.77097">
        <ele>2668.8000488281</ele>
        <time>2015-03-10T12:42:03.000Z</time>
      </trkpt>
      <trkpt lat="44.8388" lon="6.77069">
        <ele>2664</ele>
        <time>2015-03-10T12:42:04.000Z</time>
      </trkpt>
      <trkpt lat="44.83887" lon="6.77048">
        <ele>2662.1999511719</ele>
        <time>2015-03-10T12:42:05.000Z</time>
      </trkpt>
      <trkpt lat="44.83889" lon="6.77039">
        <ele>2660.6000976562</ele>
        <time>2015-03-10T12:42:06.000Z</time>
      </trkpt>
      <trkpt lat="44.8389" lon="6.77033">
        <ele>2659.1999511719</ele>
        <time>2015-03-10T12:42:07.000Z</time>
      </trkpt>
      <trkpt lat="44.83891" lon="6.77027">
        <ele>2657.3999023438</ele>
        <time>2015-03-10T12:42:08.000Z</time>
      </trkpt>
      <trkpt lat="44.83891" lon="6.77021">
        <ele>2655.3999023438</ele>
        <time>2015-03-10T12:42:09.000Z</time>
      </trkpt>
      <trkpt lat="44.83891" lon="6.77016">
        <ele>2653.8000488281</ele>
        <time>2015-03-10T12:42:10.000Z</time>
      </trkpt>
      <trkpt lat="44.83891" lon="6.77011">
        <ele>2652.6000976562</ele>
        <time>2015-03-10T12:42:11.000Z</time>
      </trkpt>
      <trkpt lat="44.83891" lon="6.77009">
        <ele>2651.8000488281</ele>
        <time>2015-03-10T12:42:12.000Z</time>
      </trkpt>
      <trkpt lat="44.83892" lon="6.77006">
        <ele>2651.3999023438</ele>
        <time>2015-03-10T12:42:13.000Z</time>
      </trkpt>
      <trkpt lat="44.83896" lon="6.76998">
        <ele>2650.6000976562</ele>
        <time>2015-03-10T12:42:16.000Z</time>
      </trkpt>
      <trkpt lat="44.83896" lon="6.76998">
        <ele>2650.3999023438</ele>
        <time>2015-03-10T12:42:17.000Z</time>
      </trkpt>
      <trkpt lat="44.83896" lon="6.76998">
        <ele>2650.3999023438</ele>
        <time>2015-03-10T12:42:27.000Z</time>
      </trkpt>
      <trkpt lat="44.83896" lon="6.76998">
        <ele>2650.1999511719</ele>
        <time>2015-03-10T12:42:45.000Z</time>
      </trkpt>
      <trkpt lat="44.83903" lon="6.77003">
        <ele>2650.3999023438</ele>
        <time>2015-03-10T12:43:05.000Z</time>
      </trkpt>
      <trkpt lat="44.83903" lon="6.77003">
        <ele>2650.3999023438</ele>
        <time>2015-03-10T12:43:17.000Z</time>
      </trkpt>
      <trkpt lat="44.83903" lon="6.77003">
        <ele>2650.1999511719</ele>
        <time>2015-03-10T12:43:29.000Z</time>
      </trkpt>
      <trkpt lat="44.83904" lon="6.77002">
        <ele>2650.3999023438</ele>
        <time>2015-03-10T12:43:45.000Z</time>
      </trkpt>
      <trkpt lat="44.83904" lon="6.77002">
        <ele>2650.3999023438</ele>
        <time>2015-03-10T12:44:02.000Z</time>
      </trkpt>
      <trkpt lat="44.83909" lon="6.77004">
        <ele>2650.3999023438</ele>
        <time>2015-03-10T12:44:18.000Z</time>
      </trkpt>
      <trkpt lat="44.83909" lon="6.77004">
        <ele>2650.1999511719</ele>
        <time>2015-03-10T12:44:34.000Z</time>
      </trkpt>
      <trkpt lat="44.83909" lon="6.77004">
        <ele>2650.1999511719</ele>
        <time>2015-03-10T12:44:50.000Z</time>
      </trkpt>
      <trkpt lat="44.83912" lon="6.77006">
        <ele>2650</ele>
        <time>2015-03-10T12:45:05.000Z</time>
      </trkpt>
      <trkpt lat="44.83912" lon="6.77006">
        <ele>2650.1999511719</ele>
        <time>2015-03-10T12:45:19.000Z</time>
      </trkpt>
      <trkpt lat="44.83916" lon="6.77001">
        <ele>2650.1999511719</ele>
        <time>2015-03-10T12:45:27.000Z</time>
      </trkpt>
      <trkpt lat="44.83917" lon="6.77002">
        <ele>2649.3999023438</ele>
        <time>2015-03-10T12:45:31.000Z</time>
      </trkpt>
      <trkpt lat="44.83919" lon="6.77001">
        <ele>2648.8000488281</ele>
        <time>2015-03-10T12:45:32.000Z</time>
      </trkpt>
      <trkpt lat="44.83921" lon="6.77">
        <ele>2648.1999511719</ele>
        <time>2015-03-10T12:45:33.000Z</time>
      </trkpt>
      <trkpt lat="44.83921" lon="6.77">
        <ele>2647.8000488281</ele>
        <time>2015-03-10T12:45:35.000Z</time>
      </trkpt>
      <trkpt lat="44.8392" lon="6.77003">
        <ele>2647.6000976562</ele>
        <time>2015-03-10T12:45:42.000Z</time>
      </trkpt>
      <trkpt lat="44.8392" lon="6.77007">
        <ele>2647.6000976562</ele>
        <time>2015-03-10T12:45:44.000Z</time>
      </trkpt>
      <trkpt lat="44.83919" lon="6.77008">
        <ele>2647.6000976562</ele>
        <time>2015-03-10T12:45:45.000Z</time>
      </trkpt>
      <trkpt lat="44.83912" lon="6.77019">
        <ele>2647</ele>
        <time>2015-03-10T12:45:47.000Z</time>
      </trkpt>
      <trkpt lat="44.83908" lon="6.77024">
        <ele>2646.1999511719</ele>
        <time>2015-03-10T12:45:48.000Z</time>
      </trkpt>
      <trkpt lat="44.83902" lon="6.77026">
        <ele>2645</ele>
        <time>2015-03-10T12:45:49.000Z</time>
      </trkpt>
      <trkpt lat="44.83897" lon="6.77028">
        <ele>2643.1999511719</ele>
        <time>2015-03-10T12:45:50.000Z</time>
      </trkpt>
      <trkpt lat="44.83891" lon="6.7703">
        <ele>2641.1999511719</ele>
        <time>2015-03-10T12:45:51.000Z</time>
      </trkpt>
      <trkpt lat="44.83885" lon="6.77031">
        <ele>2639.6000976562</ele>
        <time>2015-03-10T12:45:52.000Z</time>
      </trkpt>
      <trkpt lat="44.83879" lon="6.77032">
        <ele>2638.3999023438</ele>
        <time>2015-03-10T12:45:53.000Z</time>
      </trkpt>
      <trkpt lat="44.83874" lon="6.77032">
        <ele>2637.3999023438</ele>
        <time>2015-03-10T12:45:54.000Z</time>
      </trkpt>
      <trkpt lat="44.8387" lon="6.77031">
        <ele>2636.3999023438</ele>
        <time>2015-03-10T12:45:55.000Z</time>
      </trkpt>
      <trkpt lat="44.83866" lon="6.77029">
        <ele>2635.6000976562</ele>
        <time>2015-03-10T12:45:56.000Z</time>
      </trkpt>
      <trkpt lat="44.83856" lon="6.77026">
        <ele>2634.6000976562</ele>
        <time>2015-03-10T12:45:59.000Z</time>
      </trkpt>
      <trkpt lat="44.83853" lon="6.77026">
        <ele>2634.3999023438</ele>
        <time>2015-03-10T12:46:00.000Z</time>
      </trkpt>
      <trkpt lat="44.83843" lon="6.77028">
        <ele>2633</ele>
        <time>2015-03-10T12:46:04.000Z</time>
      </trkpt>
      <trkpt lat="44.83838" lon="6.77028">
        <ele>2632.8000488281</ele>
        <time>2015-03-10T12:46:06.000Z</time>
      </trkpt>
      <trkpt lat="44.83831" lon="6.77029">
        <ele>2632</ele>
        <time>2015-03-10T12:46:09.000Z</time>
      </trkpt>
      <trkpt lat="44.83819" lon="6.77028">
        <ele>2630.8000488281</ele>
        <time>2015-03-10T12:46:14.000Z</time>
      </trkpt>
      <trkpt lat="44.83807" lon="6.77025">
        <ele>2629.8000488281</ele>
        <time>2015-03-10T12:46:20.000Z</time>
      </trkpt>
      <trkpt lat="44.83805" lon="6.77025">
        <ele>2629.6000976562</ele>
        <time>2015-03-10T12:46:21.000Z</time>
      </trkpt>
      <trkpt lat="44.83785" lon="6.77022">
        <ele>2628.6000976562</ele>
        <time>2015-03-10T12:46:27.000Z</time>
      </trkpt>
      <trkpt lat="44.8378" lon="6.7702">
        <ele>2628</ele>
        <time>2015-03-10T12:46:28.000Z</time>
      </trkpt>
      <trkpt lat="44.83776" lon="6.77019">
        <ele>2627.6000976562</ele>
        <time>2015-03-10T12:46:29.000Z</time>
      </trkpt>
      <trkpt lat="44.83765" lon="6.77015">
        <ele>2626.3999023438</ele>
        <time>2015-03-10T12:46:31.000Z</time>
      </trkpt>
      <trkpt lat="44.83755" lon="6.7701">
        <ele>2624.6000976562</ele>
        <time>2015-03-10T12:46:33.000Z</time>
      </trkpt>
      <trkpt lat="44.83752" lon="6.77007">
        <ele>2623.8000488281</ele>
        <time>2015-03-10T12:46:34.000Z</time>
      </trkpt>
      <trkpt lat="44.83749" lon="6.77004">
        <ele>2623.3999023438</ele>
        <time>2015-03-10T12:46:35.000Z</time>
      </trkpt>
      <trkpt lat="44.83739" lon="6.76994">
        <ele>2622.3999023438</ele>
        <time>2015-03-10T12:46:40.000Z</time>
      </trkpt>
      <trkpt lat="44.83738" lon="6.76993">
        <ele>2621.3999023438</ele>
        <time>2015-03-10T12:46:45.000Z</time>
      </trkpt>
      <trkpt lat="44.83738" lon="6.76993">
        <ele>2621.1999511719</ele>
        <time>2015-03-10T12:46:46.000Z</time>
      </trkpt>
      <trkpt lat="44.83739" lon="6.76986">
        <ele>2621</ele>
        <time>2015-03-10T12:46:47.000Z</time>
      </trkpt>
      <trkpt lat="44.83741" lon="6.76983">
        <ele>2620.8000488281</ele>
        <time>2015-03-10T12:46:48.000Z</time>
      </trkpt>
      <trkpt lat="44.83747" lon="6.76971">
        <ele>2620</ele>
        <time>2015-03-10T12:46:50.000Z</time>
      </trkpt>
      <trkpt lat="44.83755" lon="6.76959">
        <ele>2616</ele>
        <time>2015-03-10T12:46:52.000Z</time>
      </trkpt>
      <trkpt lat="44.83759" lon="6.76953">
        <ele>2614</ele>
        <time>2015-03-10T12:46:53.000Z</time>
      </trkpt>
      <trkpt lat="44.83763" lon="6.76944">
        <ele>2611.6000976562</ele>
        <time>2015-03-10T12:46:54.000Z</time>
      </trkpt>
      <trkpt lat="44.83766" lon="6.76936">
        <ele>2609</ele>
        <time>2015-03-10T12:46:55.000Z</time>
      </trkpt>
      <trkpt lat="44.83769" lon="6.76929">
        <ele>2606.3999023438</ele>
        <time>2015-03-10T12:46:56.000Z</time>
      </trkpt>
      <trkpt lat="44.83769" lon="6.7692">
        <ele>2603.6000976562</ele>
        <time>2015-03-10T12:46:57.000Z</time>
      </trkpt>
      <trkpt lat="44.83768" lon="6.76912">
        <ele>2600.6000976562</ele>
        <time>2015-03-10T12:46:58.000Z</time>
      </trkpt>
      <trkpt lat="44.83767" lon="6.76905">
        <ele>2597.8000488281</ele>
        <time>2015-03-10T12:46:59.000Z</time>
      </trkpt>
      <trkpt lat="44.83763" lon="6.76901">
        <ele>2595.6000976562</ele>
        <time>2015-03-10T12:47:00.000Z</time>
      </trkpt>
      <trkpt lat="44.83756" lon="6.76902">
        <ele>2594</ele>
        <time>2015-03-10T12:47:01.000Z</time>
      </trkpt>
      <trkpt lat="44.8375" lon="6.76902">
        <ele>2593</ele>
        <time>2015-03-10T12:47:02.000Z</time>
      </trkpt>
      <trkpt lat="44.83744" lon="6.769">
        <ele>2592.1999511719</ele>
        <time>2015-03-10T12:47:03.000Z</time>
      </trkpt>
      <trkpt lat="44.83735" lon="6.76895">
        <ele>2591</ele>
        <time>2015-03-10T12:47:05.000Z</time>
      </trkpt>
      <trkpt lat="44.83727" lon="6.76891">
        <ele>2589.8000488281</ele>
        <time>2015-03-10T12:47:07.000Z</time>
      </trkpt>
      <trkpt lat="44.83718" lon="6.76889">
        <ele>2588.8000488281</ele>
        <time>2015-03-10T12:47:10.000Z</time>
      </trkpt>
      <trkpt lat="44.83712" lon="6.76896">
        <ele>2588</ele>
        <time>2015-03-10T12:47:13.000Z</time>
      </trkpt>
      <trkpt lat="44.83711" lon="6.76896">
        <ele>2587.6000976562</ele>
        <time>2015-03-10T12:47:14.000Z</time>
      </trkpt>
      <trkpt lat="44.83707" lon="6.76897">
        <ele>2587.1999511719</ele>
        <time>2015-03-10T12:47:19.000Z</time>
      </trkpt>
      <trkpt lat="44.83697" lon="6.76894">
        <ele>2586.6000976562</ele>
        <time>2015-03-10T12:47:22.000Z</time>
      </trkpt>
      <trkpt lat="44.83694" lon="6.76892">
        <ele>2586.1999511719</ele>
        <time>2015-03-10T12:47:23.000Z</time>
      </trkpt>
      <trkpt lat="44.83687" lon="6.76889">
        <ele>2585.1999511719</ele>
        <time>2015-03-10T12:47:25.000Z</time>
      </trkpt>
      <trkpt lat="44.83678" lon="6.76886">
        <ele>2584.1999511719</ele>
        <time>2015-03-10T12:47:27.000Z</time>
      </trkpt>
      <trkpt lat="44.83671" lon="6.76881">
        <ele>2582.8000488281</ele>
        <time>2015-03-10T12:47:29.000Z</time>
      </trkpt>
      <trkpt lat="44.83666" lon="6.76875">
        <ele>2581.3999023438</ele>
        <time>2015-03-10T12:47:31.000Z</time>
      </trkpt>
      <trkpt lat="44.83663" lon="6.76871">
        <ele>2579.8000488281</ele>
        <time>2015-03-10T12:47:33.000Z</time>
      </trkpt>
      <trkpt lat="44.8366" lon="6.76865">
        <ele>2578.3999023438</ele>
        <time>2015-03-10T12:47:36.000Z</time>
      </trkpt>
      <trkpt lat="44.8366" lon="6.76863">
        <ele>2577.3999023438</ele>
        <time>2015-03-10T12:47:38.000Z</time>
      </trkpt>
      <trkpt lat="44.83661" lon="6.76859">
        <ele>2576.6000976562</ele>
        <time>2015-03-10T12:47:39.000Z</time>
      </trkpt>
      <trkpt lat="44.83664" lon="6.76858">
        <ele>2574.6000976562</ele>
        <time>2015-03-10T12:47:40.000Z</time>
      </trkpt>
      <trkpt lat="44.83668" lon="6.76858">
        <ele>2573.6000976562</ele>
        <time>2015-03-10T12:47:41.000Z</time>
      </trkpt>
      <trkpt lat="44.83671" lon="6.76859">
        <ele>2572.6000976562</ele>
        <time>2015-03-10T12:47:42.000Z</time>
      </trkpt>
      <trkpt lat="44.83674" lon="6.76859">
        <ele>2571.3999023438</ele>
        <time>2015-03-10T12:47:43.000Z</time>
      </trkpt>
      <trkpt lat="44.83677" lon="6.76858">
        <ele>2570.1999511719</ele>
        <time>2015-03-10T12:47:44.000Z</time>
      </trkpt>
      <trkpt lat="44.83681" lon="6.76855">
        <ele>2569.1999511719</ele>
        <time>2015-03-10T12:47:45.000Z</time>
      </trkpt>
      <trkpt lat="44.83682" lon="6.76855">
        <ele>2568</ele>
        <time>2015-03-10T12:47:46.000Z</time>
      </trkpt>
      <trkpt lat="44.83681" lon="6.76854">
        <ele>2566.1999511719</ele>
        <time>2015-03-10T12:47:48.000Z</time>
      </trkpt>
      <trkpt lat="44.83681" lon="6.76853">
        <ele>2565</ele>
        <time>2015-03-10T12:47:49.000Z</time>
      </trkpt>
      <trkpt lat="44.8368" lon="6.76852">
        <ele>2563.6000976562</ele>
        <time>2015-03-10T12:47:50.000Z</time>
      </trkpt>
      <trkpt lat="44.83682" lon="6.76847">
        <ele>2562.1999511719</ele>
        <time>2015-03-10T12:47:51.000Z</time>
      </trkpt>
      <trkpt lat="44.83684" lon="6.76843">
        <ele>2560.8000488281</ele>
        <time>2015-03-10T12:47:52.000Z</time>
      </trkpt>
      <trkpt lat="44.83687" lon="6.76838">
        <ele>2559.6000976562</ele>
        <time>2015-03-10T12:47:53.000Z</time>
      </trkpt>
      <trkpt lat="44.83688" lon="6.7683">
        <ele>2558.6000976562</ele>
        <time>2015-03-10T12:47:54.000Z</time>
      </trkpt>
      <trkpt lat="44.8369" lon="6.76824">
        <ele>2557.1999511719</ele>
        <time>2015-03-10T12:47:55.000Z</time>
      </trkpt>
      <trkpt lat="44.83691" lon="6.76817">
        <ele>2555.3999023438</ele>
        <time>2015-03-10T12:47:56.000Z</time>
      </trkpt>
      <trkpt lat="44.83692" lon="6.76809">
        <ele>2553</ele>
        <time>2015-03-10T12:47:57.000Z</time>
      </trkpt>
      <trkpt lat="44.83693" lon="6.768">
        <ele>2550.3999023438</ele>
        <time>2015-03-10T12:47:58.000Z</time>
      </trkpt>
      <trkpt lat="44.83695" lon="6.76791">
        <ele>2548</ele>
        <time>2015-03-10T12:47:59.000Z</time>
      </trkpt>
      <trkpt lat="44.83696" lon="6.76783">
        <ele>2545.6000976562</ele>
        <time>2015-03-10T12:48:00.000Z</time>
      </trkpt>
      <trkpt lat="44.83696" lon="6.76774">
        <ele>2543.1999511719</ele>
        <time>2015-03-10T12:48:01.000Z</time>
      </trkpt>
      <trkpt lat="44.83696" lon="6.76765">
        <ele>2540.3999023438</ele>
        <time>2015-03-10T12:48:02.000Z</time>
      </trkpt>
      <trkpt lat="44.83696" lon="6.76756">
        <ele>2537.6000976562</ele>
        <time>2015-03-10T12:48:03.000Z</time>
      </trkpt>
      <trkpt lat="44.83696" lon="6.76747">
        <ele>2532.6000976562</ele>
        <time>2015-03-10T12:48:04.000Z</time>
      </trkpt>
      <trkpt lat="44.83696" lon="6.76739">
        <ele>2530.3999023438</ele>
        <time>2015-03-10T12:48:05.000Z</time>
      </trkpt>
      <trkpt lat="44.83698" lon="6.76731">
        <ele>2528</ele>
        <time>2015-03-10T12:48:06.000Z</time>
      </trkpt>
      <trkpt lat="44.837" lon="6.76723">
        <ele>2525.6000976562</ele>
        <time>2015-03-10T12:48:07.000Z</time>
      </trkpt>
      <trkpt lat="44.83703" lon="6.76715">
        <ele>2523.3999023438</ele>
        <time>2015-03-10T12:48:08.000Z</time>
      </trkpt>
      <trkpt lat="44.83704" lon="6.76708">
        <ele>2521.1999511719</ele>
        <time>2015-03-10T12:48:09.000Z</time>
      </trkpt>
      <trkpt lat="44.83706" lon="6.76702">
        <ele>2519.1999511719</ele>
        <time>2015-03-10T12:48:10.000Z</time>
      </trkpt>
      <trkpt lat="44.83708" lon="6.76694">
        <ele>2516.8000488281</ele>
        <time>2015-03-10T12:48:11.000Z</time>
      </trkpt>
      <trkpt lat="44.83709" lon="6.76688">
        <ele>2514.6000976562</ele>
        <time>2015-03-10T12:48:12.000Z</time>
      </trkpt>
      <trkpt lat="44.83711" lon="6.76681">
        <ele>2512.1999511719</ele>
        <time>2015-03-10T12:48:13.000Z</time>
      </trkpt>
      <trkpt lat="44.83712" lon="6.76674">
        <ele>2509.6000976562</ele>
        <time>2015-03-10T12:48:14.000Z</time>
      </trkpt>
      <trkpt lat="44.83713" lon="6.76665">
        <ele>2507.1999511719</ele>
        <time>2015-03-10T12:48:15.000Z</time>
      </trkpt>
      <trkpt lat="44.83714" lon="6.76655">
        <ele>2504.8000488281</ele>
        <time>2015-03-10T12:48:16.000Z</time>
      </trkpt>
      <trkpt lat="44.83716" lon="6.76644">
        <ele>2502.1999511719</ele>
        <time>2015-03-10T12:48:17.000Z</time>
      </trkpt>
      <trkpt lat="44.83716" lon="6.76635">
        <ele>2499.8000488281</ele>
        <time>2015-03-10T12:48:18.000Z</time>
      </trkpt>
      <trkpt lat="44.83718" lon="6.76626">
        <ele>2497.8000488281</ele>
        <time>2015-03-10T12:48:19.000Z</time>
      </trkpt>
      <trkpt lat="44.83719" lon="6.7662">
        <ele>2496</ele>
        <time>2015-03-10T12:48:20.000Z</time>
      </trkpt>
      <trkpt lat="44.8372" lon="6.76614">
        <ele>2494.1999511719</ele>
        <time>2015-03-10T12:48:21.000Z</time>
      </trkpt>
      <trkpt lat="44.8372" lon="6.7661">
        <ele>2492.1999511719</ele>
        <time>2015-03-10T12:48:22.000Z</time>
      </trkpt>
      <trkpt lat="44.83719" lon="6.76606">
        <ele>2490.3999023438</ele>
        <time>2015-03-10T12:48:23.000Z</time>
      </trkpt>
      <trkpt lat="44.83718" lon="6.76603">
        <ele>2488.8000488281</ele>
        <time>2015-03-10T12:48:24.000Z</time>
      </trkpt>
      <trkpt lat="44.83717" lon="6.766">
        <ele>2487.8000488281</ele>
        <time>2015-03-10T12:48:25.000Z</time>
      </trkpt>
      <trkpt lat="44.83717" lon="6.76597">
        <ele>2487.1999511719</ele>
        <time>2015-03-10T12:48:26.000Z</time>
      </trkpt>
      <trkpt lat="44.83719" lon="6.76587">
        <ele>2486.3999023438</ele>
        <time>2015-03-10T12:48:33.000Z</time>
      </trkpt>
      <trkpt lat="44.83715" lon="6.76595">
        <ele>2486.1999511719</ele>
        <time>2015-03-10T12:48:38.000Z</time>
      </trkpt>
      <trkpt lat="44.83713" lon="6.76604">
        <ele>2486.1999511719</ele>
        <time>2015-03-10T12:48:44.000Z</time>
      </trkpt>
      <trkpt lat="44.83716" lon="6.76602">
        <ele>2486.1999511719</ele>
        <time>2015-03-10T12:48:46.000Z</time>
      </trkpt>
      <trkpt lat="44.83718" lon="6.766">
        <ele>2486.1999511719</ele>
        <time>2015-03-10T12:48:47.000Z</time>
      </trkpt>
      <trkpt lat="44.83729" lon="6.76598">
        <ele>2484.6000976562</ele>
        <time>2015-03-10T12:48:50.000Z</time>
      </trkpt>
      <trkpt lat="44.83738" lon="6.76595">
        <ele>2483.8000488281</ele>
        <time>2015-03-10T12:48:51.000Z</time>
      </trkpt>
      <trkpt lat="44.83744" lon="6.76592">
        <ele>2481.1999511719</ele>
        <time>2015-03-10T12:48:52.000Z</time>
      </trkpt>
      <trkpt lat="44.83751" lon="6.76593">
        <ele>2479.6000976562</ele>
        <time>2015-03-10T12:48:53.000Z</time>
      </trkpt>
      <trkpt lat="44.83757" lon="6.76594">
        <ele>2478.1999511719</ele>
        <time>2015-03-10T12:48:54.000Z</time>
      </trkpt>
      <trkpt lat="44.83768" lon="6.76593">
        <ele>2476.6000976562</ele>
        <time>2015-03-10T12:48:56.000Z</time>
      </trkpt>
      <trkpt lat="44.83784" lon="6.76589">
        <ele>2475.3999023438</ele>
        <time>2015-03-10T12:48:59.000Z</time>
      </trkpt>
      <trkpt lat="44.83793" lon="6.76584">
        <ele>2474.6000976562</ele>
        <time>2015-03-10T12:49:01.000Z</time>
      </trkpt>
      <trkpt lat="44.83797" lon="6.7658">
        <ele>2474.1999511719</ele>
        <time>2015-03-10T12:49:02.000Z</time>
      </trkpt>
      <trkpt lat="44.83803" lon="6.76573">
        <ele>2472.6000976562</ele>
        <time>2015-03-10T12:49:04.000Z</time>
      </trkpt>
      <trkpt lat="44.83809" lon="6.76563">
        <ele>2470.6000976562</ele>
        <time>2015-03-10T12:49:06.000Z</time>
      </trkpt>
      <trkpt lat="44.83812" lon="6.76556">
        <ele>2469.3999023438</ele>
        <time>2015-03-10T12:49:07.000Z</time>
      </trkpt>
      <trkpt lat="44.83815" lon="6.76549">
        <ele>2467.8000488281</ele>
        <time>2015-03-10T12:49:08.000Z</time>
      </trkpt>
      <trkpt lat="44.83818" lon="6.76542">
        <ele>2465.8000488281</ele>
        <time>2015-03-10T12:49:09.000Z</time>
      </trkpt>
      <trkpt lat="44.8382" lon="6.76536">
        <ele>2463.6000976562</ele>
        <time>2015-03-10T12:49:10.000Z</time>
      </trkpt>
      <trkpt lat="44.83822" lon="6.76529">
        <ele>2461.3999023438</ele>
        <time>2015-03-10T12:49:11.000Z</time>
      </trkpt>
      <trkpt lat="44.83826" lon="6.76523">
        <ele>2459.3999023438</ele>
        <time>2015-03-10T12:49:12.000Z</time>
      </trkpt>
      <trkpt lat="44.83828" lon="6.76516">
        <ele>2457.6000976562</ele>
        <time>2015-03-10T12:49:13.000Z</time>
      </trkpt>
      <trkpt lat="44.8383" lon="6.76508">
        <ele>2455.8000488281</ele>
        <time>2015-03-10T12:49:14.000Z</time>
      </trkpt>
      <trkpt lat="44.83833" lon="6.76499">
        <ele>2454.1999511719</ele>
        <time>2015-03-10T12:49:15.000Z</time>
      </trkpt>
      <trkpt lat="44.83836" lon="6.76491">
        <ele>2450.8000488281</ele>
        <time>2015-03-10T12:49:16.000Z</time>
      </trkpt>
      <trkpt lat="44.83839" lon="6.76481">
        <ele>2448.8000488281</ele>
        <time>2015-03-10T12:49:17.000Z</time>
      </trkpt>
      <trkpt lat="44.83842" lon="6.76472">
        <ele>2446.3999023438</ele>
        <time>2015-03-10T12:49:18.000Z</time>
      </trkpt>
      <trkpt lat="44.83845" lon="6.76464">
        <ele>2444</ele>
        <time>2015-03-10T12:49:19.000Z</time>
      </trkpt>
      <trkpt lat="44.83852" lon="6.76458">
        <ele>2442</ele>
        <time>2015-03-10T12:49:20.000Z</time>
      </trkpt>
      <trkpt lat="44.83858" lon="6.76455">
        <ele>2440</ele>
        <time>2015-03-10T12:49:21.000Z</time>
      </trkpt>
      <trkpt lat="44.83865" lon="6.76453">
        <ele>2438.1999511719</ele>
        <time>2015-03-10T12:49:22.000Z</time>
      </trkpt>
      <trkpt lat="44.8387" lon="6.76456">
        <ele>2436.6000976562</ele>
        <time>2015-03-10T12:49:23.000Z</time>
      </trkpt>
      <trkpt lat="44.83872" lon="6.76457">
        <ele>2435.3999023438</ele>
        <time>2015-03-10T12:49:24.000Z</time>
      </trkpt>
      <trkpt lat="44.83874" lon="6.76458">
        <ele>2433.8000488281</ele>
        <time>2015-03-10T12:49:26.000Z</time>
      </trkpt>
      <trkpt lat="44.83877" lon="6.76459">
        <ele>2433.3999023438</ele>
        <time>2015-03-10T12:49:28.000Z</time>
      </trkpt>
      <trkpt lat="44.83872" lon="6.76465">
        <ele>2433.8000488281</ele>
        <time>2015-03-10T12:49:34.000Z</time>
      </trkpt>
      <trkpt lat="44.83872" lon="6.76465">
        <ele>2433.8000488281</ele>
        <time>2015-03-10T12:49:46.000Z</time>
      </trkpt>
      <trkpt lat="44.83872" lon="6.76465">
        <ele>2433.6000976562</ele>
        <time>2015-03-10T12:50:07.000Z</time>
      </trkpt>
      <trkpt lat="44.83871" lon="6.76467">
        <ele>2433.6000976562</ele>
        <time>2015-03-10T12:50:21.000Z</time>
      </trkpt>
      <trkpt lat="44.83874" lon="6.76465">
        <ele>2433.6000976562</ele>
        <time>2015-03-10T12:50:28.000Z</time>
      </trkpt>
      <trkpt lat="44.83875" lon="6.76464">
        <ele>2433.6000976562</ele>
        <time>2015-03-10T12:50:29.000Z</time>
      </trkpt>
      <trkpt lat="44.83877" lon="6.76469">
        <ele>2432.8000488281</ele>
        <time>2015-03-10T12:50:35.000Z</time>
      </trkpt>
      <trkpt lat="44.83879" lon="6.7647">
        <ele>2432.3999023438</ele>
        <time>2015-03-10T12:50:41.000Z</time>
      </trkpt>
      <trkpt lat="44.83889" lon="6.76474">
        <ele>2431.1999511719</ele>
        <time>2015-03-10T12:50:44.000Z</time>
      </trkpt>
      <trkpt lat="44.83894" lon="6.76473">
        <ele>2430.3999023438</ele>
        <time>2015-03-10T12:50:45.000Z</time>
      </trkpt>
      <trkpt lat="44.83898" lon="6.76472">
        <ele>2429.6000976562</ele>
        <time>2015-03-10T12:50:46.000Z</time>
      </trkpt>
      <trkpt lat="44.83909" lon="6.76469">
        <ele>2427.3999023438</ele>
        <time>2015-03-10T12:50:48.000Z</time>
      </trkpt>
      <trkpt lat="44.83916" lon="6.7647">
        <ele>2426</ele>
        <time>2015-03-10T12:50:49.000Z</time>
      </trkpt>
      <trkpt lat="44.83923" lon="6.76472">
        <ele>2424.6000976562</ele>
        <time>2015-03-10T12:50:50.000Z</time>
      </trkpt>
      <trkpt lat="44.83931" lon="6.76473">
        <ele>2422.8000488281</ele>
        <time>2015-03-10T12:50:51.000Z</time>
      </trkpt>
      <trkpt lat="44.83937" lon="6.76474">
        <ele>2418.3999023438</ele>
        <time>2015-03-10T12:50:52.000Z</time>
      </trkpt>
      <trkpt lat="44.83941" lon="6.76471">
        <ele>2416.6000976562</ele>
        <time>2015-03-10T12:50:53.000Z</time>
      </trkpt>
      <trkpt lat="44.83943" lon="6.76469">
        <ele>2415.1999511719</ele>
        <time>2015-03-10T12:50:54.000Z</time>
      </trkpt>
      <trkpt lat="44.83949" lon="6.76461">
        <ele>2413.6000976562</ele>
        <time>2015-03-10T12:50:56.000Z</time>
      </trkpt>
      <trkpt lat="44.83952" lon="6.76456">
        <ele>2412.6000976562</ele>
        <time>2015-03-10T12:50:57.000Z</time>
      </trkpt>
      <trkpt lat="44.83951" lon="6.76452">
        <ele>2411.8000488281</ele>
        <time>2015-03-10T12:50:58.000Z</time>
      </trkpt>
      <trkpt lat="44.83953" lon="6.76442">
        <ele>2409.8000488281</ele>
        <time>2015-03-10T12:51:00.000Z</time>
      </trkpt>
      <trkpt lat="44.83956" lon="6.76438">
        <ele>2408.3999023438</ele>
        <time>2015-03-10T12:51:01.000Z</time>
      </trkpt>
      <trkpt lat="44.8396" lon="6.76437">
        <ele>2407.1999511719</ele>
        <time>2015-03-10T12:51:02.000Z</time>
      </trkpt>
      <trkpt lat="44.83966" lon="6.76436">
        <ele>2406</ele>
        <time>2015-03-10T12:51:03.000Z</time>
      </trkpt>
      <trkpt lat="44.83971" lon="6.76436">
        <ele>2404.6000976562</ele>
        <time>2015-03-10T12:51:04.000Z</time>
      </trkpt>
      <trkpt lat="44.83978" lon="6.76438">
        <ele>2402.8000488281</ele>
        <time>2015-03-10T12:51:05.000Z</time>
      </trkpt>
      <trkpt lat="44.83985" lon="6.76435">
        <ele>2401</ele>
        <time>2015-03-10T12:51:06.000Z</time>
      </trkpt>
      <trkpt lat="44.83992" lon="6.76433">
        <ele>2399.3999023438</ele>
        <time>2015-03-10T12:51:07.000Z</time>
      </trkpt>
      <trkpt lat="44.83997" lon="6.76432">
        <ele>2398</ele>
        <time>2015-03-10T12:51:08.000Z</time>
      </trkpt>
      <trkpt lat="44.84001" lon="6.7643">
        <ele>2396.8000488281</ele>
        <time>2015-03-10T12:51:09.000Z</time>
      </trkpt>
      <trkpt lat="44.84006" lon="6.76425">
        <ele>2395.8000488281</ele>
        <time>2015-03-10T12:51:10.000Z</time>
      </trkpt>
      <trkpt lat="44.84015" lon="6.76417">
        <ele>2394.3999023438</ele>
        <time>2015-03-10T12:51:11.000Z</time>
      </trkpt>
      <trkpt lat="44.84023" lon="6.76409">
        <ele>2392.6000976562</ele>
        <time>2015-03-10T12:51:12.000Z</time>
      </trkpt>
      <trkpt lat="44.8403" lon="6.76403">
        <ele>2390.6000976562</ele>
        <time>2015-03-10T12:51:13.000Z</time>
      </trkpt>
      <trkpt lat="44.84034" lon="6.76398">
        <ele>2389</ele>
        <time>2015-03-10T12:51:14.000Z</time>
      </trkpt>
      <trkpt lat="44.84038" lon="6.76393">
        <ele>2387.3999023438</ele>
        <time>2015-03-10T12:51:15.000Z</time>
      </trkpt>
      <trkpt lat="44.8404" lon="6.76387">
        <ele>2384</ele>
        <time>2015-03-10T12:51:16.000Z</time>
      </trkpt>
      <trkpt lat="44.84039" lon="6.76379">
        <ele>2382.6000976562</ele>
        <time>2015-03-10T12:51:17.000Z</time>
      </trkpt>
      <trkpt lat="44.84039" lon="6.76373">
        <ele>2381.1999511719</ele>
        <time>2015-03-10T12:51:18.000Z</time>
      </trkpt>
      <trkpt lat="44.84037" lon="6.76368">
        <ele>2379.6000976562</ele>
        <time>2015-03-10T12:51:19.000Z</time>
      </trkpt>
      <trkpt lat="44.84034" lon="6.76361">
        <ele>2377.8000488281</ele>
        <time>2015-03-10T12:51:20.000Z</time>
      </trkpt>
      <trkpt lat="44.84033" lon="6.76356">
        <ele>2376</ele>
        <time>2015-03-10T12:51:21.000Z</time>
      </trkpt>
      <trkpt lat="44.84031" lon="6.7635">
        <ele>2374</ele>
        <time>2015-03-10T12:51:22.000Z</time>
      </trkpt>
      <trkpt lat="44.84029" lon="6.76345">
        <ele>2372</ele>
        <time>2015-03-10T12:51:23.000Z</time>
      </trkpt>
      <trkpt lat="44.84028" lon="6.76338">
        <ele>2370</ele>
        <time>2015-03-10T12:51:24.000Z</time>
      </trkpt>
      <trkpt lat="44.84025" lon="6.76328">
        <ele>2368</ele>
        <time>2015-03-10T12:51:25.000Z</time>
      </trkpt>
      <trkpt lat="44.84022" lon="6.76312">
        <ele>2366</ele>
        <time>2015-03-10T12:51:26.000Z</time>
      </trkpt>
      <trkpt lat="44.84018" lon="6.76299">
        <ele>2364.1999511719</ele>
        <time>2015-03-10T12:51:27.000Z</time>
      </trkpt>
      <trkpt lat="44.84015" lon="6.76288">
        <ele>2362.6000976562</ele>
        <time>2015-03-10T12:51:28.000Z</time>
      </trkpt>
      <trkpt lat="44.84011" lon="6.76276">
        <ele>2361</ele>
        <time>2015-03-10T12:51:29.000Z</time>
      </trkpt>
      <trkpt lat="44.84007" lon="6.76265">
        <ele>2359.3999023438</ele>
        <time>2015-03-10T12:51:30.000Z</time>
      </trkpt>
      <trkpt lat="44.84005" lon="6.76252">
        <ele>2357.3999023438</ele>
        <time>2015-03-10T12:51:31.000Z</time>
      </trkpt>
      <trkpt lat="44.84002" lon="6.7624">
        <ele>2355.3999023438</ele>
        <time>2015-03-10T12:51:32.000Z</time>
      </trkpt>
      <trkpt lat="44.83999" lon="6.76228">
        <ele>2353.1999511719</ele>
        <time>2015-03-10T12:51:33.000Z</time>
      </trkpt>
      <trkpt lat="44.83994" lon="6.76215">
        <ele>2350.6000976562</ele>
        <time>2015-03-10T12:51:34.000Z</time>
      </trkpt>
      <trkpt lat="44.8399" lon="6.76204">
        <ele>2347.8000488281</ele>
        <time>2015-03-10T12:51:35.000Z</time>
      </trkpt>
      <trkpt lat="44.83986" lon="6.76192">
        <ele>2345.3999023438</ele>
        <time>2015-03-10T12:51:36.000Z</time>
      </trkpt>
      <trkpt lat="44.83984" lon="6.7618">
        <ele>2343.3999023438</ele>
        <time>2015-03-10T12:51:37.000Z</time>
      </trkpt>
      <trkpt lat="44.83979" lon="6.76171">
        <ele>2341.8000488281</ele>
        <time>2015-03-10T12:51:38.000Z</time>
      </trkpt>
      <trkpt lat="44.83975" lon="6.76165">
        <ele>2340.3999023438</ele>
        <time>2015-03-10T12:51:39.000Z</time>
      </trkpt>
      <trkpt lat="44.83964" lon="6.76163">
        <ele>2337.3999023438</ele>
        <time>2015-03-10T12:51:40.000Z</time>
      </trkpt>
      <trkpt lat="44.83958" lon="6.76161">
        <ele>2336.1999511719</ele>
        <time>2015-03-10T12:51:41.000Z</time>
      </trkpt>
      <trkpt lat="44.83951" lon="6.76159">
        <ele>2334.8000488281</ele>
        <time>2015-03-10T12:51:42.000Z</time>
      </trkpt>
      <trkpt lat="44.83954" lon="6.7616">
        <ele>2333.3999023438</ele>
        <time>2015-03-10T12:51:44.000Z</time>
      </trkpt>
      <trkpt lat="44.83955" lon="6.7616">
        <ele>2333.1999511719</ele>
        <time>2015-03-10T12:51:45.000Z</time>
      </trkpt>
      <trkpt lat="44.8395" lon="6.7616">
        <ele>2332.6000976562</ele>
        <time>2015-03-10T12:51:54.000Z</time>
      </trkpt>
      <trkpt lat="44.8395" lon="6.7616">
        <ele>2332.3999023438</ele>
        <time>2015-03-10T12:51:59.000Z</time>
      </trkpt>
      <trkpt lat="44.8395" lon="6.7616">
        <ele>2332.1999511719</ele>
        <time>2015-03-10T12:52:13.000Z</time>
      </trkpt>
      <trkpt lat="44.83948" lon="6.76161">
        <ele>2332.1999511719</ele>
        <time>2015-03-10T12:52:28.000Z</time>
      </trkpt>
      <trkpt lat="44.83948" lon="6.76161">
        <ele>2332.1999511719</ele>
        <time>2015-03-10T12:52:48.000Z</time>
      </trkpt>
      <trkpt lat="44.83948" lon="6.76161">
        <ele>2332.3999023438</ele>
        <time>2015-03-10T12:53:05.000Z</time>
      </trkpt>
      <trkpt lat="44.83946" lon="6.7616">
        <ele>2332.1999511719</ele>
        <time>2015-03-10T12:53:22.000Z</time>
      </trkpt>
      <trkpt lat="44.83946" lon="6.7616">
        <ele>2332.1999511719</ele>
        <time>2015-03-10T12:53:40.000Z</time>
      </trkpt>
      <trkpt lat="44.83946" lon="6.76161">
        <ele>2332.1999511719</ele>
        <time>2015-03-10T12:53:57.000Z</time>
      </trkpt>
      <trkpt lat="44.83946" lon="6.76161">
        <ele>2332.1999511719</ele>
        <time>2015-03-10T12:54:11.000Z</time>
      </trkpt>
      <trkpt lat="44.83946" lon="6.76161">
        <ele>2332.1999511719</ele>
        <time>2015-03-10T12:54:22.000Z</time>
      </trkpt>
      <trkpt lat="44.83945" lon="6.76161">
        <ele>2332.1999511719</ele>
        <time>2015-03-10T12:54:33.000Z</time>
      </trkpt>
      <trkpt lat="44.83945" lon="6.76161">
        <ele>2332.1999511719</ele>
        <time>2015-03-10T12:54:49.000Z</time>
      </trkpt>
      <trkpt lat="44.83946" lon="6.76161">
        <ele>2332.3999023438</ele>
        <time>2015-03-10T12:55:08.000Z</time>
      </trkpt>
      <trkpt lat="44.83946" lon="6.76161">
        <ele>2332.3999023438</ele>
        <time>2015-03-10T12:55:25.000Z</time>
      </trkpt>
      <trkpt lat="44.83946" lon="6.76161">
        <ele>2332.1999511719</ele>
        <time>2015-03-10T12:55:43.000Z</time>
      </trkpt>
      <trkpt lat="44.83945" lon="6.76162">
        <ele>2332.3999023438</ele>
        <time>2015-03-10T12:55:58.000Z</time>
      </trkpt>
      <trkpt lat="44.83945" lon="6.76162">
        <ele>2332.3999023438</ele>
        <time>2015-03-10T12:56:14.000Z</time>
      </trkpt>
      <trkpt lat="44.83945" lon="6.76162">
        <ele>2332.3999023438</ele>
        <time>2015-03-10T12:56:30.000Z</time>
      </trkpt>
      <trkpt lat="44.83945" lon="6.76162">
        <ele>2332.3999023438</ele>
        <time>2015-03-10T12:56:46.000Z</time>
      </trkpt>
      <trkpt lat="44.83945" lon="6.76162">
        <ele>2332.6000976562</ele>
        <time>2015-03-10T12:57:01.000Z</time>
      </trkpt>
      <trkpt lat="44.83946" lon="6.76163">
        <ele>2332.3999023438</ele>
        <time>2015-03-10T12:57:12.000Z</time>
      </trkpt>
      <trkpt lat="44.83946" lon="6.76163">
        <ele>2332.3999023438</ele>
        <time>2015-03-10T12:57:27.000Z</time>
      </trkpt>
      <trkpt lat="44.83946" lon="6.76163">
        <ele>2332.3999023438</ele>
        <time>2015-03-10T12:57:29.000Z</time>
      </trkpt>
      <trkpt lat="44.83946" lon="6.76163">
        <ele>2332.3999023438</ele>
        <time>2015-03-10T12:57:40.000Z</time>
      </trkpt>
      <trkpt lat="44.83946" lon="6.76163">
        <ele>2332.8000488281</ele>
        <time>2015-03-10T12:57:50.000Z</time>
      </trkpt>
      <trkpt lat="44.83946" lon="6.76163">
        <ele>2332.3999023438</ele>
        <time>2015-03-10T12:58:05.000Z</time>
      </trkpt>
      <trkpt lat="44.83946" lon="6.76163">
        <ele>2332.6000976562</ele>
        <time>2015-03-10T12:58:17.000Z</time>
      </trkpt>
      <trkpt lat="44.83946" lon="6.76163">
        <ele>2332.3999023438</ele>
        <time>2015-03-10T12:58:28.000Z</time>
      </trkpt>
      <trkpt lat="44.83942" lon="6.76154">
        <ele>2332.1999511719</ele>
        <time>2015-03-10T12:58:36.000Z</time>
      </trkpt>
      <trkpt lat="44.8395" lon="6.76133">
        <ele>2331</ele>
        <time>2015-03-10T12:58:39.000Z</time>
      </trkpt>
      <trkpt lat="44.83957" lon="6.76124">
        <ele>2329.8000488281</ele>
        <time>2015-03-10T12:58:41.000Z</time>
      </trkpt>
      <trkpt lat="44.83959" lon="6.76119">
        <ele>2329</ele>
        <time>2015-03-10T12:58:42.000Z</time>
      </trkpt>
      <trkpt lat="44.8396" lon="6.76116">
        <ele>2328</ele>
        <time>2015-03-10T12:58:43.000Z</time>
      </trkpt>
      <trkpt lat="44.83959" lon="6.76112">
        <ele>2327</ele>
        <time>2015-03-10T12:58:45.000Z</time>
      </trkpt>
      <trkpt lat="44.83958" lon="6.76105">
        <ele>2325.6000976562</ele>
        <time>2015-03-10T12:58:47.000Z</time>
      </trkpt>
      <trkpt lat="44.83958" lon="6.76101">
        <ele>2324.6000976562</ele>
        <time>2015-03-10T12:58:48.000Z</time>
      </trkpt>
      <trkpt lat="44.83958" lon="6.76097">
        <ele>2323.6000976562</ele>
        <time>2015-03-10T12:58:49.000Z</time>
      </trkpt>
      <trkpt lat="44.83958" lon="6.76092">
        <ele>2322.3999023438</ele>
        <time>2015-03-10T12:58:50.000Z</time>
      </trkpt>
      <trkpt lat="44.83959" lon="6.76087">
        <ele>2320.8000488281</ele>
        <time>2015-03-10T12:58:51.000Z</time>
      </trkpt>
      <trkpt lat="44.83956" lon="6.76083">
        <ele>2319</ele>
        <time>2015-03-10T12:58:52.000Z</time>
      </trkpt>
      <trkpt lat="44.83951" lon="6.76081">
        <ele>2314.6000976562</ele>
        <time>2015-03-10T12:58:53.000Z</time>
      </trkpt>
      <trkpt lat="44.83946" lon="6.76079">
        <ele>2312.3999023438</ele>
        <time>2015-03-10T12:58:54.000Z</time>
      </trkpt>
      <trkpt lat="44.83941" lon="6.76079">
        <ele>2310</ele>
        <time>2015-03-10T12:58:55.000Z</time>
      </trkpt>
      <trkpt lat="44.83938" lon="6.76076">
        <ele>2307.3999023438</ele>
        <time>2015-03-10T12:58:56.000Z</time>
      </trkpt>
      <trkpt lat="44.83933" lon="6.76067">
        <ele>2305.3999023438</ele>
        <time>2015-03-10T12:58:57.000Z</time>
      </trkpt>
      <trkpt lat="44.83931" lon="6.76057">
        <ele>2303.3999023438</ele>
        <time>2015-03-10T12:58:58.000Z</time>
      </trkpt>
      <trkpt lat="44.83929" lon="6.76048">
        <ele>2301.8000488281</ele>
        <time>2015-03-10T12:58:59.000Z</time>
      </trkpt>
      <trkpt lat="44.83926" lon="6.7604">
        <ele>2300.3999023438</ele>
        <time>2015-03-10T12:59:00.000Z</time>
      </trkpt>
      <trkpt lat="44.83923" lon="6.76033">
        <ele>2299</ele>
        <time>2015-03-10T12:59:01.000Z</time>
      </trkpt>
      <trkpt lat="44.83919" lon="6.76027">
        <ele>2297.1999511719</ele>
        <time>2015-03-10T12:59:02.000Z</time>
      </trkpt>
      <trkpt lat="44.83915" lon="6.76026">
        <ele>2295</ele>
        <time>2015-03-10T12:59:03.000Z</time>
      </trkpt>
      <trkpt lat="44.83914" lon="6.76027">
        <ele>2292.8000488281</ele>
        <time>2015-03-10T12:59:04.000Z</time>
      </trkpt>
      <trkpt lat="44.83914" lon="6.76032">
        <ele>2290.8000488281</ele>
        <time>2015-03-10T12:59:05.000Z</time>
      </trkpt>
      <trkpt lat="44.83914" lon="6.76035">
        <ele>2289.3999023438</ele>
        <time>2015-03-10T12:59:06.000Z</time>
      </trkpt>
      <trkpt lat="44.83922" lon="6.76047">
        <ele>2288</ele>
        <time>2015-03-10T12:59:08.000Z</time>
      </trkpt>
      <trkpt lat="44.83942" lon="6.76083">
        <ele>2287.6000976562</ele>
        <time>2015-03-10T12:59:13.000Z</time>
      </trkpt>
      <trkpt lat="44.83944" lon="6.76092">
        <ele>2287.6000976562</ele>
        <time>2015-03-10T12:59:14.000Z</time>
      </trkpt>
      <trkpt lat="44.83948" lon="6.76107">
        <ele>2287.6000976562</ele>
        <time>2015-03-10T12:59:16.000Z</time>
      </trkpt>
      <trkpt lat="44.83953" lon="6.76115">
        <ele>2286.6000976562</ele>
        <time>2015-03-10T12:59:18.000Z</time>
      </trkpt>
      <trkpt lat="44.83953" lon="6.76127">
        <ele>2285.3999023438</ele>
        <time>2015-03-10T12:59:20.000Z</time>
      </trkpt>
      <trkpt lat="44.83953" lon="6.76134">
        <ele>2284.8000488281</ele>
        <time>2015-03-10T12:59:21.000Z</time>
      </trkpt>
      <trkpt lat="44.83953" lon="6.76143">
        <ele>2284</ele>
        <time>2015-03-10T12:59:22.000Z</time>
      </trkpt>
      <trkpt lat="44.83954" lon="6.76149">
        <ele>2282.6000976562</ele>
        <time>2015-03-10T12:59:23.000Z</time>
      </trkpt>
      <trkpt lat="44.83954" lon="6.76155">
        <ele>2281.1999511719</ele>
        <time>2015-03-10T12:59:24.000Z</time>
      </trkpt>
      <trkpt lat="44.83953" lon="6.76159">
        <ele>2280</ele>
        <time>2015-03-10T12:59:25.000Z</time>
      </trkpt>
      <trkpt lat="44.8395" lon="6.76162">
        <ele>2279</ele>
        <time>2015-03-10T12:59:26.000Z</time>
      </trkpt>
      <trkpt lat="44.83946" lon="6.76165">
        <ele>2277.3999023438</ele>
        <time>2015-03-10T12:59:27.000Z</time>
      </trkpt>
      <trkpt lat="44.83942" lon="6.76168">
        <ele>2275.3999023438</ele>
        <time>2015-03-10T12:59:28.000Z</time>
      </trkpt>
      <trkpt lat="44.83939" lon="6.76169">
        <ele>2273.1999511719</ele>
        <time>2015-03-10T12:59:29.000Z</time>
      </trkpt>
      <trkpt lat="44.83937" lon="6.76169">
        <ele>2271.6000976562</ele>
        <time>2015-03-10T12:59:30.000Z</time>
      </trkpt>
      <trkpt lat="44.83936" lon="6.76169">
        <ele>2270.8000488281</ele>
        <time>2015-03-10T12:59:31.000Z</time>
      </trkpt>
      <trkpt lat="44.83934" lon="6.76169">
        <ele>2270.1999511719</ele>
        <time>2015-03-10T12:59:32.000Z</time>
      </trkpt>
      <trkpt lat="44.83931" lon="6.76171">
        <ele>2269</ele>
        <time>2015-03-10T12:59:36.000Z</time>
      </trkpt>
      <trkpt lat="44.83928" lon="6.76174">
        <ele>2268</ele>
        <time>2015-03-10T12:59:39.000Z</time>
      </trkpt>
      <trkpt lat="44.83933" lon="6.76179">
        <ele>2267.8000488281</ele>
        <time>2015-03-10T12:59:40.000Z</time>
      </trkpt>
      <trkpt lat="44.8394" lon="6.76186">
        <ele>2267</ele>
        <time>2015-03-10T12:59:42.000Z</time>
      </trkpt>
      <trkpt lat="44.83949" lon="6.7619">
        <ele>2266.8000488281</ele>
        <time>2015-03-10T12:59:44.000Z</time>
      </trkpt>
      <trkpt lat="44.83946" lon="6.7618">
        <ele>2266.3999023438</ele>
        <time>2015-03-10T12:59:47.000Z</time>
      </trkpt>
      <trkpt lat="44.83945" lon="6.76171">
        <ele>2266.3999023438</ele>
        <time>2015-03-10T12:59:48.000Z</time>
      </trkpt>
      <trkpt lat="44.83942" lon="6.76152">
        <ele>2265.3999023438</ele>
        <time>2015-03-10T12:59:50.000Z</time>
      </trkpt>
      <trkpt lat="44.83936" lon="6.76135">
        <ele>2263.8000488281</ele>
        <time>2015-03-10T12:59:52.000Z</time>
      </trkpt>
      <trkpt lat="44.83929" lon="6.76127">
        <ele>2263</ele>
        <time>2015-03-10T12:59:53.000Z</time>
      </trkpt>
      <trkpt lat="44.83923" lon="6.76117">
        <ele>2261.6000976562</ele>
        <time>2015-03-10T12:59:54.000Z</time>
      </trkpt>
      <trkpt lat="44.83919" lon="6.76106">
        <ele>2259.8000488281</ele>
        <time>2015-03-10T12:59:55.000Z</time>
      </trkpt>
      <trkpt lat="44.83916" lon="6.76097">
        <ele>2258.1999511719</ele>
        <time>2015-03-10T12:59:56.000Z</time>
      </trkpt>
      <trkpt lat="44.83916" lon="6.76088">
        <ele>2257</ele>
        <time>2015-03-10T12:59:57.000Z</time>
      </trkpt>
      <trkpt lat="44.83916" lon="6.76077">
        <ele>2256</ele>
        <time>2015-03-10T12:59:58.000Z</time>
      </trkpt>
      <trkpt lat="44.83915" lon="6.76065">
        <ele>2254.8000488281</ele>
        <time>2015-03-10T12:59:59.000Z</time>
      </trkpt>
      <trkpt lat="44.83914" lon="6.76054">
        <ele>2253.8000488281</ele>
        <time>2015-03-10T13:00:00.000Z</time>
      </trkpt>
      <trkpt lat="44.83913" lon="6.76043">
        <ele>2252.8000488281</ele>
        <time>2015-03-10T13:00:01.000Z</time>
      </trkpt>
      <trkpt lat="44.83913" lon="6.76037">
        <ele>2251.6000976562</ele>
        <time>2015-03-10T13:00:02.000Z</time>
      </trkpt>
      <trkpt lat="44.83913" lon="6.76033">
        <ele>2250.3999023438</ele>
        <time>2015-03-10T13:00:03.000Z</time>
      </trkpt>
      <trkpt lat="44.83913" lon="6.7603">
        <ele>2248.6000976562</ele>
        <time>2015-03-10T13:00:05.000Z</time>
      </trkpt>
      <trkpt lat="44.83906" lon="6.76007">
        <ele>2248.1999511719</ele>
        <time>2015-03-10T13:00:08.000Z</time>
      </trkpt>
      <trkpt lat="44.83888" lon="6.75951">
        <ele>2247.8000488281</ele>
        <time>2015-03-10T13:00:17.000Z</time>
      </trkpt>
      <trkpt lat="44.83881" lon="6.75936">
        <ele>2247.8000488281</ele>
        <time>2015-03-10T13:00:27.000Z</time>
      </trkpt>
      <trkpt lat="44.83878" lon="6.75928">
        <ele>2247.8000488281</ele>
        <time>2015-03-10T13:00:38.000Z</time>
      </trkpt>
      <trkpt lat="44.83878" lon="6.75928">
        <ele>2248</ele>
        <time>2015-03-10T13:00:56.000Z</time>
      </trkpt>
      <trkpt lat="44.83875" lon="6.75921">
        <ele>2247.8000488281</ele>
        <time>2015-03-10T13:01:05.000Z</time>
      </trkpt>
      <trkpt lat="44.83875" lon="6.75921">
        <ele>2247.6000976562</ele>
        <time>2015-03-10T13:01:08.000Z</time>
      </trkpt>
      <trkpt lat="44.83875" lon="6.75921">
        <ele>2247.3999023438</ele>
        <time>2015-03-10T13:01:16.000Z</time>
      </trkpt>
      <trkpt lat="44.83875" lon="6.75921">
        <ele>2247.3999023438</ele>
        <time>2015-03-10T13:01:31.000Z</time>
      </trkpt>
      <trkpt lat="44.83873" lon="6.75918">
        <ele>2247.3999023438</ele>
        <time>2015-03-10T13:01:49.000Z</time>
      </trkpt>
      <trkpt lat="44.83873" lon="6.75918">
        <ele>2247.3999023438</ele>
        <time>2015-03-10T13:02:03.000Z</time>
      </trkpt>
      <trkpt lat="44.83868" lon="6.75908">
        <ele>2247.1999511719</ele>
        <time>2015-03-10T13:02:23.000Z</time>
      </trkpt>
      <trkpt lat="44.83868" lon="6.75908">
        <ele>2247.1999511719</ele>
        <time>2015-03-10T13:02:43.000Z</time>
      </trkpt>
      <trkpt lat="44.83867" lon="6.75904">
        <ele>2247.1999511719</ele>
        <time>2015-03-10T13:02:55.000Z</time>
      </trkpt>
      <trkpt lat="44.83867" lon="6.75904">
        <ele>2246.8000488281</ele>
        <time>2015-03-10T13:03:05.000Z</time>
      </trkpt>
      <trkpt lat="44.83867" lon="6.75904">
        <ele>2246.8000488281</ele>
        <time>2015-03-10T13:03:16.000Z</time>
      </trkpt>
      <trkpt lat="44.83863" lon="6.75898">
        <ele>2246.8000488281</ele>
        <time>2015-03-10T13:03:26.000Z</time>
      </trkpt>
      <trkpt lat="44.83857" lon="6.75882">
        <ele>2246.6000976562</ele>
        <time>2015-03-10T13:03:28.000Z</time>
      </trkpt>
      <trkpt lat="44.83853" lon="6.75874">
        <ele>2246.3999023438</ele>
        <time>2015-03-10T13:03:29.000Z</time>
      </trkpt>
      <trkpt lat="44.83844" lon="6.7585">
        <ele>2245</ele>
        <time>2015-03-10T13:03:32.000Z</time>
      </trkpt>
      <trkpt lat="44.83842" lon="6.75837">
        <ele>2244.1999511719</ele>
        <time>2015-03-10T13:03:33.000Z</time>
      </trkpt>
      <trkpt lat="44.83839" lon="6.75823">
        <ele>2243.6000976562</ele>
        <time>2015-03-10T13:03:34.000Z</time>
      </trkpt>
      <trkpt lat="44.83829" lon="6.75801">
        <ele>2242.3999023438</ele>
        <time>2015-03-10T13:03:36.000Z</time>
      </trkpt>
      <trkpt lat="44.83822" lon="6.75785">
        <ele>2240.1999511719</ele>
        <time>2015-03-10T13:03:38.000Z</time>
      </trkpt>
      <trkpt lat="44.83819" lon="6.75779">
        <ele>2239</ele>
        <time>2015-03-10T13:03:39.000Z</time>
      </trkpt>
      <trkpt lat="44.83817" lon="6.75775">
        <ele>2237.8000488281</ele>
        <time>2015-03-10T13:03:40.000Z</time>
      </trkpt>
      <trkpt lat="44.83816" lon="6.75771">
        <ele>2235.8000488281</ele>
        <time>2015-03-10T13:03:41.000Z</time>
      </trkpt>
      <trkpt lat="44.83812" lon="6.75765">
        <ele>2235</ele>
        <time>2015-03-10T13:03:43.000Z</time>
      </trkpt>
      <trkpt lat="44.8381" lon="6.75762">
        <ele>2234.8000488281</ele>
        <time>2015-03-10T13:03:44.000Z</time>
      </trkpt>
      <trkpt lat="44.83809" lon="6.75761">
        <ele>2234</ele>
        <time>2015-03-10T13:03:53.000Z</time>
      </trkpt>
      <trkpt lat="44.83809" lon="6.75761">
        <ele>2234.1999511719</ele>
        <time>2015-03-10T13:04:04.000Z</time>
      </trkpt>
      <trkpt lat="44.83809" lon="6.75761">
        <ele>2234.3999023438</ele>
        <time>2015-03-10T13:04:17.000Z</time>
      </trkpt>
      <trkpt lat="44.83807" lon="6.75757">
        <ele>2234.3999023438</ele>
        <time>2015-03-10T13:04:33.000Z</time>
      </trkpt>
      <trkpt lat="44.83807" lon="6.75757">
        <ele>2234.3999023438</ele>
        <time>2015-03-10T13:04:43.000Z</time>
      </trkpt>
      <trkpt lat="44.83807" lon="6.75756">
        <ele>2234.3999023438</ele>
        <time>2015-03-10T13:04:47.000Z</time>
      </trkpt>
      <trkpt lat="44.83807" lon="6.75754">
        <ele>2234.3999023438</ele>
        <time>2015-03-10T13:04:49.000Z</time>
      </trkpt>
      <trkpt lat="44.83819" lon="6.75747">
        <ele>2233.8000488281</ele>
        <time>2015-03-10T13:04:52.000Z</time>
      </trkpt>
      <trkpt lat="44.83824" lon="6.75744">
        <ele>2233</ele>
        <time>2015-03-10T13:04:53.000Z</time>
      </trkpt>
      <trkpt lat="44.83828" lon="6.7574">
        <ele>2230.1999511719</ele>
        <time>2015-03-10T13:04:54.000Z</time>
      </trkpt>
      <trkpt lat="44.83831" lon="6.75738">
        <ele>2229.1999511719</ele>
        <time>2015-03-10T13:04:55.000Z</time>
      </trkpt>
      <trkpt lat="44.83836" lon="6.75734">
        <ele>2228.3999023438</ele>
        <time>2015-03-10T13:04:57.000Z</time>
      </trkpt>
      <trkpt lat="44.83841" lon="6.75733">
        <ele>2228.3999023438</ele>
        <time>2015-03-10T13:05:00.000Z</time>
      </trkpt>
      <trkpt lat="44.83841" lon="6.75733">
        <ele>2228.6000976562</ele>
        <time>2015-03-10T13:05:10.000Z</time>
      </trkpt>
      <trkpt lat="44.83841" lon="6.75733">
        <ele>2228.3999023438</ele>
        <time>2015-03-10T13:05:19.000Z</time>
      </trkpt>
      <trkpt lat="44.83841" lon="6.75731">
        <ele>2228.3999023438</ele>
        <time>2015-03-10T13:05:20.000Z</time>
      </trkpt>
      <trkpt lat="44.83841" lon="6.75728">
        <ele>2228.1999511719</ele>
        <time>2015-03-10T13:05:21.000Z</time>
      </trkpt>
      <trkpt lat="44.83842" lon="6.75719">
        <ele>2227.8000488281</ele>
        <time>2015-03-10T13:05:23.000Z</time>
      </trkpt>
      <trkpt lat="44.83841" lon="6.75712">
        <ele>2226.3999023438</ele>
        <time>2015-03-10T13:05:25.000Z</time>
      </trkpt>
      <trkpt lat="44.8384" lon="6.75709">
        <ele>2225.8000488281</ele>
        <time>2015-03-10T13:05:26.000Z</time>
      </trkpt>
      <trkpt lat="44.8384" lon="6.75707">
        <ele>2225.1999511719</ele>
        <time>2015-03-10T13:05:27.000Z</time>
      </trkpt>
      <trkpt lat="44.83839" lon="6.75704">
        <ele>2223.6000976562</ele>
        <time>2015-03-10T13:05:29.000Z</time>
      </trkpt>
      <trkpt lat="44.83838" lon="6.75703">
        <ele>2223</ele>
        <time>2015-03-10T13:05:30.000Z</time>
      </trkpt>
      <trkpt lat="44.83837" lon="6.75703">
        <ele>2222.3999023438</ele>
        <time>2015-03-10T13:05:32.000Z</time>
      </trkpt>
      <trkpt lat="44.83835" lon="6.75703">
        <ele>2222.1999511719</ele>
        <time>2015-03-10T13:05:37.000Z</time>
      </trkpt>
      <trkpt lat="44.83833" lon="6.75703">
        <ele>2222</ele>
        <time>2015-03-10T13:05:42.000Z</time>
      </trkpt>
      <trkpt lat="44.83831" lon="6.75704">
        <ele>2221.8000488281</ele>
        <time>2015-03-10T13:05:43.000Z</time>
      </trkpt>
      <trkpt lat="44.8382" lon="6.75706">
        <ele>2221.1999511719</ele>
        <time>2015-03-10T13:05:47.000Z</time>
      </trkpt>
      <trkpt lat="44.83815" lon="6.75706">
        <ele>2220.8000488281</ele>
        <time>2015-03-10T13:05:48.000Z</time>
      </trkpt>
      <trkpt lat="44.83812" lon="6.75706">
        <ele>2220.1999511719</ele>
        <time>2015-03-10T13:05:49.000Z</time>
      </trkpt>
      <trkpt lat="44.8381" lon="6.75705">
        <ele>2219.8000488281</ele>
        <time>2015-03-10T13:05:50.000Z</time>
      </trkpt>
      <trkpt lat="44.83808" lon="6.75706">
        <ele>2219.3999023438</ele>
        <time>2015-03-10T13:05:51.000Z</time>
      </trkpt>
      <trkpt lat="44.83807" lon="6.75706">
        <ele>2218.6000976562</ele>
        <time>2015-03-10T13:05:52.000Z</time>
      </trkpt>
      <trkpt lat="44.83805" lon="6.75706">
        <ele>2217.6000976562</ele>
        <time>2015-03-10T13:05:54.000Z</time>
      </trkpt>
      <trkpt lat="44.83805" lon="6.75706">
        <ele>2217</ele>
        <time>2015-03-10T13:05:56.000Z</time>
      </trkpt>
      <trkpt lat="44.83805" lon="6.75706">
        <ele>2216.6000976562</ele>
        <time>2015-03-10T13:06:10.000Z</time>
      </trkpt>
      <trkpt lat="44.83805" lon="6.75706">
        <ele>2216.6000976562</ele>
        <time>2015-03-10T13:06:17.000Z</time>
      </trkpt>
      <trkpt lat="44.83805" lon="6.75706">
        <ele>2216.8000488281</ele>
        <time>2015-03-10T13:06:33.000Z</time>
      </trkpt>
      <trkpt lat="44.83805" lon="6.75703">
        <ele>2216.6000976562</ele>
        <time>2015-03-10T13:06:36.000Z</time>
      </trkpt>
      <trkpt lat="44.83803" lon="6.75697">
        <ele>2216.3999023438</ele>
        <time>2015-03-10T13:06:37.000Z</time>
      </trkpt>
      <trkpt lat="44.838" lon="6.75683">
        <ele>2215.8000488281</ele>
        <time>2015-03-10T13:06:40.000Z</time>
      </trkpt>
      <trkpt lat="44.83799" lon="6.75681">
        <ele>2215.1999511719</ele>
        <time>2015-03-10T13:06:41.000Z</time>
      </trkpt>
      <trkpt lat="44.83799" lon="6.75679">
        <ele>2214.3999023438</ele>
        <time>2015-03-10T13:06:42.000Z</time>
      </trkpt>
      <trkpt lat="44.83798" lon="6.75678">
        <ele>2213.1999511719</ele>
        <time>2015-03-10T13:06:43.000Z</time>
      </trkpt>
      <trkpt lat="44.83797" lon="6.75673">
        <ele>2211.8000488281</ele>
        <time>2015-03-10T13:06:45.000Z</time>
      </trkpt>
      <trkpt lat="44.83796" lon="6.75668">
        <ele>2210.6000976562</ele>
        <time>2015-03-10T13:06:47.000Z</time>
      </trkpt>
      <trkpt lat="44.83795" lon="6.75663">
        <ele>2209.8000488281</ele>
        <time>2015-03-10T13:06:51.000Z</time>
      </trkpt>
      <trkpt lat="44.83794" lon="6.75662">
        <ele>2209.6000976562</ele>
        <time>2015-03-10T13:06:53.000Z</time>
      </trkpt>
      <trkpt lat="44.83794" lon="6.75662">
        <ele>2208</ele>
        <time>2015-03-10T13:06:55.000Z</time>
      </trkpt>
      <trkpt lat="44.83794" lon="6.75662">
        <ele>2206.8000488281</ele>
        <time>2015-03-10T13:06:57.000Z</time>
      </trkpt>
      <trkpt lat="44.83794" lon="6.75662">
        <ele>2206.3999023438</ele>
        <time>2015-03-10T13:06:59.000Z</time>
      </trkpt>
      <trkpt lat="44.83794" lon="6.75663">
        <ele>2206.8000488281</ele>
        <time>2015-03-10T13:07:10.000Z</time>
      </trkpt>
      <trkpt lat="44.83793" lon="6.75661">
        <ele>2206.8000488281</ele>
        <time>2015-03-10T13:07:11.000Z</time>
      </trkpt>
      <trkpt lat="44.83793" lon="6.75653">
        <ele>2206.3999023438</ele>
        <time>2015-03-10T13:07:14.000Z</time>
      </trkpt>
      <trkpt lat="44.83792" lon="6.75651">
        <ele>2206.1999511719</ele>
        <time>2015-03-10T13:07:15.000Z</time>
      </trkpt>
      <trkpt lat="44.83789" lon="6.75648">
        <ele>2205.6000976562</ele>
        <time>2015-03-10T13:07:17.000Z</time>
      </trkpt>
      <trkpt lat="44.83786" lon="6.75648">
        <ele>2204.3999023438</ele>
        <time>2015-03-10T13:07:18.000Z</time>
      </trkpt>
      <trkpt lat="44.83781" lon="6.75649">
        <ele>2203.1999511719</ele>
        <time>2015-03-10T13:07:20.000Z</time>
      </trkpt>
      <trkpt lat="44.83776" lon="6.75651">
        <ele>2202.1999511719</ele>
        <time>2015-03-10T13:07:22.000Z</time>
      </trkpt>
      <trkpt lat="44.83769" lon="6.75653">
        <ele>2200.8000488281</ele>
        <time>2015-03-10T13:07:24.000Z</time>
      </trkpt>
      <trkpt lat="44.83762" lon="6.75654">
        <ele>2199.8000488281</ele>
        <time>2015-03-10T13:07:26.000Z</time>
      </trkpt>
      <trkpt lat="44.83753" lon="6.75656">
        <ele>2197.3999023438</ele>
        <time>2015-03-10T13:07:28.000Z</time>
      </trkpt>
      <trkpt lat="44.83748" lon="6.75655">
        <ele>2196</ele>
        <time>2015-03-10T13:07:29.000Z</time>
      </trkpt>
      <trkpt lat="44.83743" lon="6.75655">
        <ele>2194.6000976562</ele>
        <time>2015-03-10T13:07:30.000Z</time>
      </trkpt>
      <trkpt lat="44.83739" lon="6.75653">
        <ele>2193.3999023438</ele>
        <time>2015-03-10T13:07:31.000Z</time>
      </trkpt>
      <trkpt lat="44.83737" lon="6.75652">
        <ele>2192.3999023438</ele>
        <time>2015-03-10T13:07:32.000Z</time>
      </trkpt>
      <trkpt lat="44.83735" lon="6.75651">
        <ele>2191.6000976562</ele>
        <time>2015-03-10T13:07:33.000Z</time>
      </trkpt>
      <trkpt lat="44.83734" lon="6.75651">
        <ele>2191.1999511719</ele>
        <time>2015-03-10T13:07:34.000Z</time>
      </trkpt>
      <trkpt lat="44.83731" lon="6.75651">
        <ele>2190.3999023438</ele>
        <time>2015-03-10T13:07:39.000Z</time>
      </trkpt>
      <trkpt lat="44.8373" lon="6.75651">
        <ele>2190</ele>
        <time>2015-03-10T13:07:41.000Z</time>
      </trkpt>
      <trkpt lat="44.83727" lon="6.75652">
        <ele>2189</ele>
        <time>2015-03-10T13:07:44.000Z</time>
      </trkpt>
      <trkpt lat="44.83719" lon="6.75649">
        <ele>2188</ele>
        <time>2015-03-10T13:07:51.000Z</time>
      </trkpt>
      <trkpt lat="44.83719" lon="6.75647">
        <ele>2187.8000488281</ele>
        <time>2015-03-10T13:07:52.000Z</time>
      </trkpt>
      <trkpt lat="44.83718" lon="6.75642">
        <ele>2187</ele>
        <time>2015-03-10T13:07:55.000Z</time>
      </trkpt>
      <trkpt lat="44.83716" lon="6.75641">
        <ele>2186.8000488281</ele>
        <time>2015-03-10T13:07:56.000Z</time>
      </trkpt>
      <trkpt lat="44.83715" lon="6.7564">
        <ele>2186.3999023438</ele>
        <time>2015-03-10T13:07:57.000Z</time>
      </trkpt>
      <trkpt lat="44.83714" lon="6.75639">
        <ele>2185.6000976562</ele>
        <time>2015-03-10T13:07:58.000Z</time>
      </trkpt>
      <trkpt lat="44.83712" lon="6.75637">
        <ele>2184.1999511719</ele>
        <time>2015-03-10T13:07:59.000Z</time>
      </trkpt>
      <trkpt lat="44.8371" lon="6.75635">
        <ele>2183</ele>
        <time>2015-03-10T13:08:00.000Z</time>
      </trkpt>
      <trkpt lat="44.83707" lon="6.75634">
        <ele>2182.1999511719</ele>
        <time>2015-03-10T13:08:01.000Z</time>
      </trkpt>
      <trkpt lat="44.83705" lon="6.75634">
        <ele>2181.6000976562</ele>
        <time>2015-03-10T13:08:02.000Z</time>
      </trkpt>
      <trkpt lat="44.83702" lon="6.75632">
        <ele>2179.8000488281</ele>
        <time>2015-03-10T13:08:04.000Z</time>
      </trkpt>
      <trkpt lat="44.83702" lon="6.7563">
        <ele>2178.8000488281</ele>
        <time>2015-03-10T13:08:05.000Z</time>
      </trkpt>
      <trkpt lat="44.83701" lon="6.75628">
        <ele>2177.8000488281</ele>
        <time>2015-03-10T13:08:06.000Z</time>
      </trkpt>
      <trkpt lat="44.83701" lon="6.75627">
        <ele>2177.6000976562</ele>
        <time>2015-03-10T13:08:16.000Z</time>
      </trkpt>
      <trkpt lat="44.83701" lon="6.75627">
        <ele>2177.6000976562</ele>
        <time>2015-03-10T13:08:33.000Z</time>
      </trkpt>
      <trkpt lat="44.837" lon="6.75624">
        <ele>2177.6000976562</ele>
        <time>2015-03-10T13:08:46.000Z</time>
      </trkpt>
      <trkpt lat="44.83701" lon="6.75621">
        <ele>2177.3999023438</ele>
        <time>2015-03-10T13:08:47.000Z</time>
      </trkpt>
      <trkpt lat="44.83704" lon="6.75606">
        <ele>2176.8000488281</ele>
        <time>2015-03-10T13:08:50.000Z</time>
      </trkpt>
      <trkpt lat="44.83704" lon="6.75601">
        <ele>2176.6000976562</ele>
        <time>2015-03-10T13:08:51.000Z</time>
      </trkpt>
      <trkpt lat="44.83702" lon="6.75588">
        <ele>2174.1999511719</ele>
        <time>2015-03-10T13:08:54.000Z</time>
      </trkpt>
      <trkpt lat="44.83704" lon="6.75584">
        <ele>2173</ele>
        <time>2015-03-10T13:08:55.000Z</time>
      </trkpt>
      <trkpt lat="44.83706" lon="6.75581">
        <ele>2172</ele>
        <time>2015-03-10T13:08:56.000Z</time>
      </trkpt>
      <trkpt lat="44.83707" lon="6.7558">
        <ele>2171</ele>
        <time>2015-03-10T13:08:57.000Z</time>
      </trkpt>
      <trkpt lat="44.83709" lon="6.7558">
        <ele>2169.3999023438</ele>
        <time>2015-03-10T13:08:59.000Z</time>
      </trkpt>
      <trkpt lat="44.83709" lon="6.75581">
        <ele>2168.6000976562</ele>
        <time>2015-03-10T13:09:02.000Z</time>
      </trkpt>
      <trkpt lat="44.83709" lon="6.75582">
        <ele>2168</ele>
        <time>2015-03-10T13:09:06.000Z</time>
      </trkpt>
      <trkpt lat="44.83709" lon="6.75582">
        <ele>2167.6000976562</ele>
        <time>2015-03-10T13:09:10.000Z</time>
      </trkpt>
      <trkpt lat="44.83708" lon="6.75584">
        <ele>2167.6000976562</ele>
        <time>2015-03-10T13:09:18.000Z</time>
      </trkpt>
      <trkpt lat="44.83707" lon="6.75584">
        <ele>2167.3999023438</ele>
        <time>2015-03-10T13:09:26.000Z</time>
      </trkpt>
      <trkpt lat="44.83703" lon="6.75582">
        <ele>2167.1999511719</ele>
        <time>2015-03-10T13:09:29.000Z</time>
      </trkpt>
      <trkpt lat="44.837" lon="6.75581">
        <ele>2167</ele>
        <time>2015-03-10T13:09:30.000Z</time>
      </trkpt>
      <trkpt lat="44.83698" lon="6.75579">
        <ele>2166.8000488281</ele>
        <time>2015-03-10T13:09:31.000Z</time>
      </trkpt>
      <trkpt lat="44.83694" lon="6.75576">
        <ele>2166</ele>
        <time>2015-03-10T13:09:33.000Z</time>
      </trkpt>
      <trkpt lat="44.83692" lon="6.75573">
        <ele>2165.3999023438</ele>
        <time>2015-03-10T13:09:34.000Z</time>
      </trkpt>
      <trkpt lat="44.83692" lon="6.75568">
        <ele>2165</ele>
        <time>2015-03-10T13:09:35.000Z</time>
      </trkpt>
      <trkpt lat="44.83692" lon="6.75563">
        <ele>2164.6000976562</ele>
        <time>2015-03-10T13:09:36.000Z</time>
      </trkpt>
      <trkpt lat="44.8369" lon="6.75556">
        <ele>2163.3999023438</ele>
        <time>2015-03-10T13:09:38.000Z</time>
      </trkpt>
      <trkpt lat="44.8369" lon="6.75551">
        <ele>2163</ele>
        <time>2015-03-10T13:09:39.000Z</time>
      </trkpt>
      <trkpt lat="44.8369" lon="6.75546">
        <ele>2162.1999511719</ele>
        <time>2015-03-10T13:09:40.000Z</time>
      </trkpt>
      <trkpt lat="44.8369" lon="6.75541">
        <ele>2161</ele>
        <time>2015-03-10T13:09:41.000Z</time>
      </trkpt>
      <trkpt lat="44.83687" lon="6.75536">
        <ele>2158.8000488281</ele>
        <time>2015-03-10T13:09:42.000Z</time>
      </trkpt>
      <trkpt lat="44.83683" lon="6.75531">
        <ele>2158</ele>
        <time>2015-03-10T13:09:43.000Z</time>
      </trkpt>
      <trkpt lat="44.83679" lon="6.75528">
        <ele>2156.8000488281</ele>
        <time>2015-03-10T13:09:44.000Z</time>
      </trkpt>
      <trkpt lat="44.83676" lon="6.75527">
        <ele>2155.1999511719</ele>
        <time>2015-03-10T13:09:45.000Z</time>
      </trkpt>
      <trkpt lat="44.83672" lon="6.7553">
        <ele>2153.6000976562</ele>
        <time>2015-03-10T13:09:46.000Z</time>
      </trkpt>
      <trkpt lat="44.83667" lon="6.75531">
        <ele>2152.1999511719</ele>
        <time>2015-03-10T13:09:47.000Z</time>
      </trkpt>
      <trkpt lat="44.83663" lon="6.75532">
        <ele>2151</ele>
        <time>2015-03-10T13:09:48.000Z</time>
      </trkpt>
      <trkpt lat="44.83658" lon="6.75533">
        <ele>2150</ele>
        <time>2015-03-10T13:09:49.000Z</time>
      </trkpt>
      <trkpt lat="44.83652" lon="6.75534">
        <ele>2149.1999511719</ele>
        <time>2015-03-10T13:09:50.000Z</time>
      </trkpt>
      <trkpt lat="44.83646" lon="6.75536">
        <ele>2148.6000976562</ele>
        <time>2015-03-10T13:09:51.000Z</time>
      </trkpt>
      <trkpt lat="44.83635" lon="6.75538">
        <ele>2146.6000976562</ele>
        <time>2015-03-10T13:09:53.000Z</time>
      </trkpt>
      <trkpt lat="44.8363" lon="6.7554">
        <ele>2145.1999511719</ele>
        <time>2015-03-10T13:09:54.000Z</time>
      </trkpt>
      <trkpt lat="44.83626" lon="6.75542">
        <ele>2143.8000488281</ele>
        <time>2015-03-10T13:09:55.000Z</time>
      </trkpt>
      <trkpt lat="44.83622" lon="6.75542">
        <ele>2142.3999023438</ele>
        <time>2015-03-10T13:09:56.000Z</time>
      </trkpt>
      <trkpt lat="44.8362" lon="6.75542">
        <ele>2141.1999511719</ele>
        <time>2015-03-10T13:09:57.000Z</time>
      </trkpt>
      <trkpt lat="44.8362" lon="6.75542">
        <ele>2140.1999511719</ele>
        <time>2015-03-10T13:09:58.000Z</time>
      </trkpt>
      <trkpt lat="44.83618" lon="6.75542">
        <ele>2139</ele>
        <time>2015-03-10T13:10:00.000Z</time>
      </trkpt>
      <trkpt lat="44.83613" lon="6.75543">
        <ele>2138.6000976562</ele>
        <time>2015-03-10T13:10:03.000Z</time>
      </trkpt>
      <trkpt lat="44.8361" lon="6.75543">
        <ele>2137.8000488281</ele>
        <time>2015-03-10T13:10:06.000Z</time>
      </trkpt>
      <trkpt lat="44.83608" lon="6.75542">
        <ele>2137.3999023438</ele>
        <time>2015-03-10T13:10:07.000Z</time>
      </trkpt>
      <trkpt lat="44.83607" lon="6.75541">
        <ele>2137.1999511719</ele>
        <time>2015-03-10T13:10:08.000Z</time>
      </trkpt>
      <trkpt lat="44.83604" lon="6.7554">
        <ele>2136.1999511719</ele>
        <time>2015-03-10T13:10:10.000Z</time>
      </trkpt>
      <trkpt lat="44.83603" lon="6.75538">
        <ele>2134.6000976562</ele>
        <time>2015-03-10T13:10:12.000Z</time>
      </trkpt>
      <trkpt lat="44.83601" lon="6.75538">
        <ele>2134</ele>
        <time>2015-03-10T13:10:14.000Z</time>
      </trkpt>
      <trkpt lat="44.836" lon="6.75538">
        <ele>2133.6000976562</ele>
        <time>2015-03-10T13:10:16.000Z</time>
      </trkpt>
      <trkpt lat="44.83596" lon="6.75541">
        <ele>2133.3999023438</ele>
        <time>2015-03-10T13:10:22.000Z</time>
      </trkpt>
      <trkpt lat="44.83593" lon="6.75544">
        <ele>2133.8000488281</ele>
        <time>2015-03-10T13:10:33.000Z</time>
      </trkpt>
      <trkpt lat="44.83592" lon="6.75546">
        <ele>2133.8000488281</ele>
        <time>2015-03-10T13:10:34.000Z</time>
      </trkpt>
      <trkpt lat="44.83587" lon="6.75555">
        <ele>2133.1999511719</ele>
        <time>2015-03-10T13:10:38.000Z</time>
      </trkpt>
      <trkpt lat="44.83582" lon="6.75566">
        <ele>2132.3999023438</ele>
        <time>2015-03-10T13:10:41.000Z</time>
      </trkpt>
      <trkpt lat="44.83579" lon="6.75572">
        <ele>2131.3999023438</ele>
        <time>2015-03-10T13:10:43.000Z</time>
      </trkpt>
      <trkpt lat="44.83577" lon="6.75575">
        <ele>2130.8000488281</ele>
        <time>2015-03-10T13:10:44.000Z</time>
      </trkpt>
      <trkpt lat="44.83575" lon="6.75579">
        <ele>2130.1999511719</ele>
        <time>2015-03-10T13:10:45.000Z</time>
      </trkpt>
      <trkpt lat="44.83567" lon="6.75594">
        <ele>2129</ele>
        <time>2015-03-10T13:10:48.000Z</time>
      </trkpt>
      <trkpt lat="44.83564" lon="6.756">
        <ele>2128.3999023438</ele>
        <time>2015-03-10T13:10:49.000Z</time>
      </trkpt>
      <trkpt lat="44.83563" lon="6.75605">
        <ele>2127.8000488281</ele>
        <time>2015-03-10T13:10:50.000Z</time>
      </trkpt>
      <trkpt lat="44.8356" lon="6.75609">
        <ele>2126.1999511719</ele>
        <time>2015-03-10T13:10:52.000Z</time>
      </trkpt>
      <trkpt lat="44.83558" lon="6.7561">
        <ele>2125</ele>
        <time>2015-03-10T13:10:54.000Z</time>
      </trkpt>
      <trkpt lat="44.83557" lon="6.75609">
        <ele>2124.8000488281</ele>
        <time>2015-03-10T13:10:57.000Z</time>
      </trkpt>
      <trkpt lat="44.83557" lon="6.75609">
        <ele>2124.6000976562</ele>
        <time>2015-03-10T13:11:10.000Z</time>
      </trkpt>
      <trkpt lat="44.83557" lon="6.75609">
        <ele>2124.3999023438</ele>
        <time>2015-03-10T13:11:21.000Z</time>
      </trkpt>
      <trkpt lat="44.83556" lon="6.75608">
        <ele>2124.3999023438</ele>
        <time>2015-03-10T13:11:22.000Z</time>
      </trkpt>
      <trkpt lat="44.83556" lon="6.75605">
        <ele>2124</ele>
        <time>2015-03-10T13:11:25.000Z</time>
      </trkpt>
      <trkpt lat="44.83555" lon="6.75602">
        <ele>2123.8000488281</ele>
        <time>2015-03-10T13:11:26.000Z</time>
      </trkpt>
      <trkpt lat="44.83555" lon="6.75597">
        <ele>2123.3999023438</ele>
        <time>2015-03-10T13:11:28.000Z</time>
      </trkpt>
      <trkpt lat="44.83553" lon="6.7559">
        <ele>2122.3999023438</ele>
        <time>2015-03-10T13:11:30.000Z</time>
      </trkpt>
      <trkpt lat="44.8355" lon="6.75587">
        <ele>2121.8000488281</ele>
        <time>2015-03-10T13:11:31.000Z</time>
      </trkpt>
      <trkpt lat="44.83547" lon="6.75583">
        <ele>2121.1999511719</ele>
        <time>2015-03-10T13:11:32.000Z</time>
      </trkpt>
      <trkpt lat="44.83542" lon="6.75578">
        <ele>2119.1999511719</ele>
        <time>2015-03-10T13:11:34.000Z</time>
      </trkpt>
      <trkpt lat="44.83541" lon="6.75578">
        <ele>2118</ele>
        <time>2015-03-10T13:11:35.000Z</time>
      </trkpt>
      <trkpt lat="44.8354" lon="6.75577">
        <ele>2117</ele>
        <time>2015-03-10T13:11:36.000Z</time>
      </trkpt>
      <trkpt lat="44.83538" lon="6.75577">
        <ele>2116.1999511719</ele>
        <time>2015-03-10T13:11:37.000Z</time>
      </trkpt>
      <trkpt lat="44.83538" lon="6.75574">
        <ele>2115.3999023438</ele>
        <time>2015-03-10T13:11:39.000Z</time>
      </trkpt>
      <trkpt lat="44.83539" lon="6.75571">
        <ele>2115.1999511719</ele>
        <time>2015-03-10T13:11:40.000Z</time>
      </trkpt>
      <trkpt lat="44.83541" lon="6.75568">
        <ele>2115.1999511719</ele>
        <time>2015-03-10T13:11:41.000Z</time>
      </trkpt>
      <trkpt lat="44.83541" lon="6.75564">
        <ele>2114.3999023438</ele>
        <time>2015-03-10T13:11:43.000Z</time>
      </trkpt>
      <trkpt lat="44.83539" lon="6.75562">
        <ele>2113.8000488281</ele>
        <time>2015-03-10T13:11:44.000Z</time>
      </trkpt>
      <trkpt lat="44.83539" lon="6.75558">
        <ele>2112</ele>
        <time>2015-03-10T13:11:46.000Z</time>
      </trkpt>
      <trkpt lat="44.83539" lon="6.75556">
        <ele>2110.6000976562</ele>
        <time>2015-03-10T13:11:47.000Z</time>
      </trkpt>
      <trkpt lat="44.83539" lon="6.75552">
        <ele>2109.3999023438</ele>
        <time>2015-03-10T13:11:48.000Z</time>
      </trkpt>
      <trkpt lat="44.83537" lon="6.75547">
        <ele>2108</ele>
        <time>2015-03-10T13:11:50.000Z</time>
      </trkpt>
      <trkpt lat="44.83533" lon="6.75543">
        <ele>2106.3999023438</ele>
        <time>2015-03-10T13:11:52.000Z</time>
      </trkpt>
      <trkpt lat="44.83531" lon="6.75541">
        <ele>2105.1999511719</ele>
        <time>2015-03-10T13:11:53.000Z</time>
      </trkpt>
      <trkpt lat="44.83529" lon="6.75538">
        <ele>2104</ele>
        <time>2015-03-10T13:11:54.000Z</time>
      </trkpt>
      <trkpt lat="44.83527" lon="6.75536">
        <ele>2102.6000976562</ele>
        <time>2015-03-10T13:11:55.000Z</time>
      </trkpt>
      <trkpt lat="44.83526" lon="6.75533">
        <ele>2101.3999023438</ele>
        <time>2015-03-10T13:11:56.000Z</time>
      </trkpt>
      <trkpt lat="44.83523" lon="6.75529">
        <ele>2100.6000976562</ele>
        <time>2015-03-10T13:11:57.000Z</time>
      </trkpt>
      <trkpt lat="44.83522" lon="6.75523">
        <ele>2100</ele>
        <time>2015-03-10T13:11:58.000Z</time>
      </trkpt>
      <trkpt lat="44.83521" lon="6.75517">
        <ele>2099.3999023438</ele>
        <time>2015-03-10T13:11:59.000Z</time>
      </trkpt>
      <trkpt lat="44.83521" lon="6.75512">
        <ele>2098.8000488281</ele>
        <time>2015-03-10T13:12:00.000Z</time>
      </trkpt>
      <trkpt lat="44.8352" lon="6.75508">
        <ele>2098</ele>
        <time>2015-03-10T13:12:01.000Z</time>
      </trkpt>
      <trkpt lat="44.8352" lon="6.75504">
        <ele>2097.3999023438</ele>
        <time>2015-03-10T13:12:02.000Z</time>
      </trkpt>
      <trkpt lat="44.8352" lon="6.75496">
        <ele>2095.6000976562</ele>
        <time>2015-03-10T13:12:04.000Z</time>
      </trkpt>
      <trkpt lat="44.83519" lon="6.75491">
        <ele>2094.3999023438</ele>
        <time>2015-03-10T13:12:05.000Z</time>
      </trkpt>
      <trkpt lat="44.8352" lon="6.75486">
        <ele>2092</ele>
        <time>2015-03-10T13:12:06.000Z</time>
      </trkpt>
      <trkpt lat="44.83518" lon="6.7548">
        <ele>2091</ele>
        <time>2015-03-10T13:12:07.000Z</time>
      </trkpt>
      <trkpt lat="44.83515" lon="6.75474">
        <ele>2089.8000488281</ele>
        <time>2015-03-10T13:12:08.000Z</time>
      </trkpt>
      <trkpt lat="44.83515" lon="6.75467">
        <ele>2088.6000976562</ele>
        <time>2015-03-10T13:12:09.000Z</time>
      </trkpt>
      <trkpt lat="44.83515" lon="6.75459">
        <ele>2087.3999023438</ele>
        <time>2015-03-10T13:12:10.000Z</time>
      </trkpt>
      <trkpt lat="44.83515" lon="6.7545">
        <ele>2086.3999023438</ele>
        <time>2015-03-10T13:12:11.000Z</time>
      </trkpt>
      <trkpt lat="44.83514" lon="6.75436">
        <ele>2084.8000488281</ele>
        <time>2015-03-10T13:12:13.000Z</time>
      </trkpt>
      <trkpt lat="44.83512" lon="6.75423">
        <ele>2082.8000488281</ele>
        <time>2015-03-10T13:12:15.000Z</time>
      </trkpt>
      <trkpt lat="44.83511" lon="6.75417">
        <ele>2081.6000976562</ele>
        <time>2015-03-10T13:12:16.000Z</time>
      </trkpt>
      <trkpt lat="44.8351" lon="6.75411">
        <ele>2080.1999511719</ele>
        <time>2015-03-10T13:12:17.000Z</time>
      </trkpt>
      <trkpt lat="44.8351" lon="6.75403">
        <ele>2078.3999023438</ele>
        <time>2015-03-10T13:12:18.000Z</time>
      </trkpt>
      <trkpt lat="44.83508" lon="6.75396">
        <ele>2076.8000488281</ele>
        <time>2015-03-10T13:12:19.000Z</time>
      </trkpt>
      <trkpt lat="44.83506" lon="6.75389">
        <ele>2075.3999023438</ele>
        <time>2015-03-10T13:12:20.000Z</time>
      </trkpt>
      <trkpt lat="44.83505" lon="6.75382">
        <ele>2074</ele>
        <time>2015-03-10T13:12:21.000Z</time>
      </trkpt>
      <trkpt lat="44.83502" lon="6.75375">
        <ele>2072.3999023438</ele>
        <time>2015-03-10T13:12:22.000Z</time>
      </trkpt>
      <trkpt lat="44.83498" lon="6.75369">
        <ele>2070.8000488281</ele>
        <time>2015-03-10T13:12:23.000Z</time>
      </trkpt>
      <trkpt lat="44.83496" lon="6.75362">
        <ele>2069.3999023438</ele>
        <time>2015-03-10T13:12:24.000Z</time>
      </trkpt>
      <trkpt lat="44.83492" lon="6.75353">
        <ele>2067.8000488281</ele>
        <time>2015-03-10T13:12:25.000Z</time>
      </trkpt>
      <trkpt lat="44.83488" lon="6.75345">
        <ele>2066</ele>
        <time>2015-03-10T13:12:26.000Z</time>
      </trkpt>
      <trkpt lat="44.83483" lon="6.75337">
        <ele>2064</ele>
        <time>2015-03-10T13:12:27.000Z</time>
      </trkpt>
      <trkpt lat="44.83478" lon="6.75329">
        <ele>2062</ele>
        <time>2015-03-10T13:12:28.000Z</time>
      </trkpt>
      <trkpt lat="44.83473" lon="6.75321">
        <ele>2059.6000976562</ele>
        <time>2015-03-10T13:12:29.000Z</time>
      </trkpt>
      <trkpt lat="44.8347" lon="6.75313">
        <ele>2055.3999023438</ele>
        <time>2015-03-10T13:12:30.000Z</time>
      </trkpt>
      <trkpt lat="44.83468" lon="6.75305">
        <ele>2054</ele>
        <time>2015-03-10T13:12:31.000Z</time>
      </trkpt>
      <trkpt lat="44.83465" lon="6.75298">
        <ele>2052.8000488281</ele>
        <time>2015-03-10T13:12:32.000Z</time>
      </trkpt>
      <trkpt lat="44.83462" lon="6.75289">
        <ele>2051.1999511719</ele>
        <time>2015-03-10T13:12:33.000Z</time>
      </trkpt>
      <trkpt lat="44.83459" lon="6.75282">
        <ele>2049.3999023438</ele>
        <time>2015-03-10T13:12:34.000Z</time>
      </trkpt>
      <trkpt lat="44.83455" lon="6.75274">
        <ele>2048</ele>
        <time>2015-03-10T13:12:35.000Z</time>
      </trkpt>
      <trkpt lat="44.83452" lon="6.75269">
        <ele>2046.5999755859</ele>
        <time>2015-03-10T13:12:36.000Z</time>
      </trkpt>
      <trkpt lat="44.83452" lon="6.75261">
        <ele>2045.1999511719</ele>
        <time>2015-03-10T13:12:37.000Z</time>
      </trkpt>
      <trkpt lat="44.83452" lon="6.75256">
        <ele>2043.8000488281</ele>
        <time>2015-03-10T13:12:38.000Z</time>
      </trkpt>
      <trkpt lat="44.83452" lon="6.75251">
        <ele>2042.8000488281</ele>
        <time>2015-03-10T13:12:39.000Z</time>
      </trkpt>
      <trkpt lat="44.83453" lon="6.7525">
        <ele>2042</ele>
        <time>2015-03-10T13:12:40.000Z</time>
      </trkpt>
      <trkpt lat="44.83454" lon="6.75251">
        <ele>2041.1999511719</ele>
        <time>2015-03-10T13:12:41.000Z</time>
      </trkpt>
      <trkpt lat="44.83454" lon="6.75251">
        <ele>2040.5999755859</ele>
        <time>2015-03-10T13:12:42.000Z</time>
      </trkpt>
      <trkpt lat="44.83454" lon="6.75252">
        <ele>2039.8000488281</ele>
        <time>2015-03-10T13:12:43.000Z</time>
      </trkpt>
      <trkpt lat="44.83454" lon="6.75253">
        <ele>2038.5999755859</ele>
        <time>2015-03-10T13:12:45.000Z</time>
      </trkpt>
      <trkpt lat="44.83454" lon="6.75253">
        <ele>2038</ele>
        <time>2015-03-10T13:12:50.000Z</time>
      </trkpt>
      <trkpt lat="44.83454" lon="6.75253">
        <ele>2038.1999511719</ele>
        <time>2015-03-10T13:13:01.000Z</time>
      </trkpt>
      <trkpt lat="44.83454" lon="6.75253">
        <ele>2038</ele>
        <time>2015-03-10T13:13:12.000Z</time>
      </trkpt>
      <trkpt lat="44.83454" lon="6.75255">
        <ele>2038</ele>
        <time>2015-03-10T13:13:29.000Z</time>
      </trkpt>
      <trkpt lat="44.83455" lon="6.75258">
        <ele>2038</ele>
        <time>2015-03-10T13:13:44.000Z</time>
      </trkpt>
      <trkpt lat="44.83456" lon="6.75259">
        <ele>2038.1999511719</ele>
        <time>2015-03-10T13:13:52.000Z</time>
      </trkpt>
      <trkpt lat="44.83456" lon="6.75259">
        <ele>2038</ele>
        <time>2015-03-10T13:14:01.000Z</time>
      </trkpt>
      <trkpt lat="44.83456" lon="6.75259">
        <ele>2038.1999511719</ele>
        <time>2015-03-10T13:14:17.000Z</time>
      </trkpt>
      <trkpt lat="44.83456" lon="6.75259">
        <ele>2038.4000244141</ele>
        <time>2015-03-10T13:14:34.000Z</time>
      </trkpt>
      <trkpt lat="44.83456" lon="6.75259">
        <ele>2038</ele>
        <time>2015-03-10T13:14:45.000Z</time>
      </trkpt>
      <trkpt lat="44.83456" lon="6.75259">
        <ele>2038</ele>
        <time>2015-03-10T13:14:58.000Z</time>
      </trkpt>
      <trkpt lat="44.83456" lon="6.7526">
        <ele>2038</ele>
        <time>2015-03-10T13:15:15.000Z</time>
      </trkpt>
      <trkpt lat="44.83456" lon="6.7526">
        <ele>2038</ele>
        <time>2015-03-10T13:15:29.000Z</time>
      </trkpt>
      <trkpt lat="44.83456" lon="6.7526">
        <ele>2038</ele>
        <time>2015-03-10T13:15:43.000Z</time>
      </trkpt>
      <trkpt lat="44.83456" lon="6.75261">
        <ele>2038</ele>
        <time>2015-03-10T13:15:59.000Z</time>
      </trkpt>
      <trkpt lat="44.83456" lon="6.75261">
        <ele>2037.8000488281</ele>
        <time>2015-03-10T13:16:14.000Z</time>
      </trkpt>
      <trkpt lat="44.83456" lon="6.75261">
        <ele>2037.8000488281</ele>
        <time>2015-03-10T13:16:26.000Z</time>
      </trkpt>
      <trkpt lat="44.83456" lon="6.75261">
        <ele>2038</ele>
        <time>2015-03-10T13:16:39.000Z</time>
      </trkpt>
      <trkpt lat="44.83461" lon="6.75258">
        <ele>2038</ele>
        <time>2015-03-10T13:16:49.000Z</time>
      </trkpt>
      <trkpt lat="44.83462" lon="6.7526">
        <ele>2038</ele>
        <time>2015-03-10T13:16:58.000Z</time>
      </trkpt>
      <trkpt lat="44.83459" lon="6.75264">
        <ele>2038</ele>
        <time>2015-03-10T13:17:10.000Z</time>
      </trkpt>
      <trkpt lat="44.83459" lon="6.75264">
        <ele>2038</ele>
        <time>2015-03-10T13:17:20.000Z</time>
      </trkpt>
      <trkpt lat="44.83459" lon="6.75264">
        <ele>2038</ele>
        <time>2015-03-10T13:17:35.000Z</time>
      </trkpt>
      <trkpt lat="44.8346" lon="6.75263">
        <ele>2037.8000488281</ele>
        <time>2015-03-10T13:17:46.000Z</time>
      </trkpt>
      <trkpt lat="44.8346" lon="6.75263">
        <ele>2038</ele>
        <time>2015-03-10T13:18:00.000Z</time>
      </trkpt>
      <trkpt lat="44.8346" lon="6.75263">
        <ele>2038.1999511719</ele>
        <time>2015-03-10T13:18:14.000Z</time>
      </trkpt>
      <trkpt lat="44.8346" lon="6.75264">
        <ele>2038.1999511719</ele>
        <time>2015-03-10T13:18:29.000Z</time>
      </trkpt>
      <trkpt lat="44.8346" lon="6.75264">
        <ele>2038</ele>
        <time>2015-03-10T13:18:45.000Z</time>
      </trkpt>
      <trkpt lat="44.83459" lon="6.75264">
        <ele>2038</ele>
        <time>2015-03-10T13:18:59.000Z</time>
      </trkpt>
      <trkpt lat="44.83459" lon="6.75264">
        <ele>2038.1999511719</ele>
        <time>2015-03-10T13:19:14.000Z</time>
      </trkpt>
      <trkpt lat="44.83459" lon="6.75264">
        <ele>2038</ele>
        <time>2015-03-10T13:19:28.000Z</time>
      </trkpt>
      <trkpt lat="44.8345" lon="6.75259">
        <ele>2037.8000488281</ele>
        <time>2015-03-10T13:19:36.000Z</time>
      </trkpt>
      <trkpt lat="44.83448" lon="6.75255">
        <ele>2037.5999755859</ele>
        <time>2015-03-10T13:19:37.000Z</time>
      </trkpt>
      <trkpt lat="44.83448" lon="6.7525">
        <ele>2037.4000244141</ele>
        <time>2015-03-10T13:19:38.000Z</time>
      </trkpt>
      <trkpt lat="44.83448" lon="6.75246">
        <ele>2036.5999755859</ele>
        <time>2015-03-10T13:19:40.000Z</time>
      </trkpt>
      <trkpt lat="44.83449" lon="6.75245">
        <ele>2036.1999511719</ele>
        <time>2015-03-10T13:19:41.000Z</time>
      </trkpt>
      <trkpt lat="44.83449" lon="6.75244">
        <ele>2035</ele>
        <time>2015-03-10T13:19:43.000Z</time>
      </trkpt>
      <trkpt lat="44.83448" lon="6.75242">
        <ele>2034</ele>
        <time>2015-03-10T13:19:46.000Z</time>
      </trkpt>
      <trkpt lat="44.83448" lon="6.75242">
        <ele>2033.8000488281</ele>
        <time>2015-03-10T13:19:47.000Z</time>
      </trkpt>
      <trkpt lat="44.83448" lon="6.75242">
        <ele>2034</ele>
        <time>2015-03-10T13:19:57.000Z</time>
      </trkpt>
      <trkpt lat="44.83448" lon="6.75242">
        <ele>2034</ele>
        <time>2015-03-10T13:20:10.000Z</time>
      </trkpt>
      <trkpt lat="44.83448" lon="6.75241">
        <ele>2033.8000488281</ele>
        <time>2015-03-10T13:20:25.000Z</time>
      </trkpt>
      <trkpt lat="44.83448" lon="6.75241">
        <ele>2034</ele>
        <time>2015-03-10T13:20:38.000Z</time>
      </trkpt>
      <trkpt lat="44.83448" lon="6.75241">
        <ele>2034.1999511719</ele>
        <time>2015-03-10T13:20:52.000Z</time>
      </trkpt>
      <trkpt lat="44.83448" lon="6.75242">
        <ele>2034.1999511719</ele>
        <time>2015-03-10T13:21:01.000Z</time>
      </trkpt>
      <trkpt lat="44.83448" lon="6.75242">
        <ele>2034</ele>
        <time>2015-03-10T13:21:13.000Z</time>
      </trkpt>
      <trkpt lat="44.83448" lon="6.75244">
        <ele>2034</ele>
        <time>2015-03-10T13:21:24.000Z</time>
      </trkpt>
      <trkpt lat="44.8345" lon="6.75244">
        <ele>2034</ele>
        <time>2015-03-10T13:21:30.000Z</time>
      </trkpt>
      <trkpt lat="44.83452" lon="6.75243">
        <ele>2033.5999755859</ele>
        <time>2015-03-10T13:21:38.000Z</time>
      </trkpt>
      <trkpt lat="44.83452" lon="6.75243">
        <ele>2033.4000244141</ele>
        <time>2015-03-10T13:21:48.000Z</time>
      </trkpt>
      <trkpt lat="44.83452" lon="6.75243">
        <ele>2033.1999511719</ele>
        <time>2015-03-10T13:22:02.000Z</time>
      </trkpt>
      <trkpt lat="44.83452" lon="6.75243">
        <ele>2033.1999511719</ele>
        <time>2015-03-10T13:22:18.000Z</time>
      </trkpt>
      <trkpt lat="44.83452" lon="6.75243">
        <ele>2033</ele>
        <time>2015-03-10T13:22:30.000Z</time>
      </trkpt>
      <trkpt lat="44.83452" lon="6.75243">
        <ele>2033.1999511719</ele>
        <time>2015-03-10T13:22:37.000Z</time>
      </trkpt>
      <trkpt lat="44.83452" lon="6.75243">
        <ele>2033</ele>
        <time>2015-03-10T13:22:51.000Z</time>
      </trkpt>
      <trkpt lat="44.83451" lon="6.75241">
        <ele>2033</ele>
        <time>2015-03-10T13:23:05.000Z</time>
      </trkpt>
      <trkpt lat="44.83451" lon="6.75241">
        <ele>2032.8000488281</ele>
        <time>2015-03-10T13:23:06.000Z</time>
      </trkpt>
      <trkpt lat="44.83455" lon="6.75238">
        <ele>2033</ele>
        <time>2015-03-10T13:23:12.000Z</time>
      </trkpt>
      <trkpt lat="44.83462" lon="6.75223">
        <ele>2032.4000244141</ele>
        <time>2015-03-10T13:23:18.000Z</time>
      </trkpt>
      <trkpt lat="44.83464" lon="6.75216">
        <ele>2031.8000488281</ele>
        <time>2015-03-10T13:23:20.000Z</time>
      </trkpt>
      <trkpt lat="44.83469" lon="6.75206">
        <ele>2030.5999755859</ele>
        <time>2015-03-10T13:23:23.000Z</time>
      </trkpt>
      <trkpt lat="44.83474" lon="6.75198">
        <ele>2029.5999755859</ele>
        <time>2015-03-10T13:23:26.000Z</time>
      </trkpt>
      <trkpt lat="44.83479" lon="6.7519">
        <ele>2028.4000244141</ele>
        <time>2015-03-10T13:23:29.000Z</time>
      </trkpt>
      <trkpt lat="44.83485" lon="6.7518">
        <ele>2027.1999511719</ele>
        <time>2015-03-10T13:23:32.000Z</time>
      </trkpt>
      <trkpt lat="44.83489" lon="6.75175">
        <ele>2026.1999511719</ele>
        <time>2015-03-10T13:23:34.000Z</time>
      </trkpt>
      <trkpt lat="44.83491" lon="6.75172">
        <ele>2026</ele>
        <time>2015-03-10T13:23:35.000Z</time>
      </trkpt>
      <trkpt lat="44.83498" lon="6.7516">
        <ele>2025</ele>
        <time>2015-03-10T13:23:38.000Z</time>
      </trkpt>
      <trkpt lat="44.83501" lon="6.75157">
        <ele>2024.5999755859</ele>
        <time>2015-03-10T13:23:39.000Z</time>
      </trkpt>
      <trkpt lat="44.83509" lon="6.75151">
        <ele>2023.8000488281</ele>
        <time>2015-03-10T13:23:41.000Z</time>
      </trkpt>
      <trkpt lat="44.8352" lon="6.7514">
        <ele>2022.1999511719</ele>
        <time>2015-03-10T13:23:44.000Z</time>
      </trkpt>
      <trkpt lat="44.83527" lon="6.75132">
        <ele>2021</ele>
        <time>2015-03-10T13:23:46.000Z</time>
      </trkpt>
      <trkpt lat="44.83534" lon="6.75123">
        <ele>2019.8000488281</ele>
        <time>2015-03-10T13:23:48.000Z</time>
      </trkpt>
      <trkpt lat="44.83538" lon="6.75118">
        <ele>2019.4000244141</ele>
        <time>2015-03-10T13:23:49.000Z</time>
      </trkpt>
      <trkpt lat="44.83547" lon="6.75108">
        <ele>2018.5999755859</ele>
        <time>2015-03-10T13:23:51.000Z</time>
      </trkpt>
      <trkpt lat="44.83552" lon="6.75103">
        <ele>2018.1999511719</ele>
        <time>2015-03-10T13:23:52.000Z</time>
      </trkpt>
      <trkpt lat="44.83558" lon="6.75098">
        <ele>2017.5999755859</ele>
        <time>2015-03-10T13:23:53.000Z</time>
      </trkpt>
      <trkpt lat="44.83567" lon="6.75088">
        <ele>2016.4000244141</ele>
        <time>2015-03-10T13:23:55.000Z</time>
      </trkpt>
      <trkpt lat="44.83578" lon="6.75082">
        <ele>2014.5999755859</ele>
        <time>2015-03-10T13:23:57.000Z</time>
      </trkpt>
      <trkpt lat="44.83584" lon="6.75078">
        <ele>2013.8000488281</ele>
        <time>2015-03-10T13:23:58.000Z</time>
      </trkpt>
      <trkpt lat="44.8359" lon="6.75076">
        <ele>2013.1999511719</ele>
        <time>2015-03-10T13:23:59.000Z</time>
      </trkpt>
      <trkpt lat="44.83602" lon="6.75071">
        <ele>2011.5999755859</ele>
        <time>2015-03-10T13:24:01.000Z</time>
      </trkpt>
      <trkpt lat="44.83608" lon="6.75069">
        <ele>2010.5999755859</ele>
        <time>2015-03-10T13:24:02.000Z</time>
      </trkpt>
      <trkpt lat="44.83614" lon="6.75065">
        <ele>2009.8000488281</ele>
        <time>2015-03-10T13:24:03.000Z</time>
      </trkpt>
      <trkpt lat="44.83625" lon="6.75053">
        <ele>2008.1999511719</ele>
        <time>2015-03-10T13:24:05.000Z</time>
      </trkpt>
      <trkpt lat="44.83632" lon="6.75036">
        <ele>2006.4000244141</ele>
        <time>2015-03-10T13:24:07.000Z</time>
      </trkpt>
      <trkpt lat="44.83635" lon="6.75028">
        <ele>2004.5999755859</ele>
        <time>2015-03-10T13:24:08.000Z</time>
      </trkpt>
      <trkpt lat="44.83642" lon="6.75013">
        <ele>2003</ele>
        <time>2015-03-10T13:24:10.000Z</time>
      </trkpt>
      <trkpt lat="44.83652" lon="6.75001">
        <ele>2002</ele>
        <time>2015-03-10T13:24:12.000Z</time>
      </trkpt>
      <trkpt lat="44.83656" lon="6.74994">
        <ele>2001.4000244141</ele>
        <time>2015-03-10T13:24:13.000Z</time>
      </trkpt>
      <trkpt lat="44.83659" lon="6.74988">
        <ele>2001</ele>
        <time>2015-03-10T13:24:14.000Z</time>
      </trkpt>
      <trkpt lat="44.83667" lon="6.74977">
        <ele>1999.4000244141</ele>
        <time>2015-03-10T13:24:16.000Z</time>
      </trkpt>
      <trkpt lat="44.83675" lon="6.74966">
        <ele>1998.1999511719</ele>
        <time>2015-03-10T13:24:18.000Z</time>
      </trkpt>
      <trkpt lat="44.83683" lon="6.74953">
        <ele>1997.4000244141</ele>
        <time>2015-03-10T13:24:20.000Z</time>
      </trkpt>
      <trkpt lat="44.83687" lon="6.74946">
        <ele>1997</ele>
        <time>2015-03-10T13:24:21.000Z</time>
      </trkpt>
      <trkpt lat="44.83693" lon="6.74931">
        <ele>1995.8000488281</ele>
        <time>2015-03-10T13:24:23.000Z</time>
      </trkpt>
      <trkpt lat="44.837" lon="6.74915">
        <ele>1994.5999755859</ele>
        <time>2015-03-10T13:24:25.000Z</time>
      </trkpt>
      <trkpt lat="44.83708" lon="6.749">
        <ele>1993.4000244141</ele>
        <time>2015-03-10T13:24:27.000Z</time>
      </trkpt>
      <trkpt lat="44.83714" lon="6.74887">
        <ele>1992.4000244141</ele>
        <time>2015-03-10T13:24:29.000Z</time>
      </trkpt>
      <trkpt lat="44.83729" lon="6.74865">
        <ele>1991.1999511719</ele>
        <time>2015-03-10T13:24:33.000Z</time>
      </trkpt>
      <trkpt lat="44.83741" lon="6.74849">
        <ele>1990</ele>
        <time>2015-03-10T13:24:36.000Z</time>
      </trkpt>
      <trkpt lat="44.83758" lon="6.74829">
        <ele>1988.8000488281</ele>
        <time>2015-03-10T13:24:40.000Z</time>
      </trkpt>
      <trkpt lat="44.83775" lon="6.74814">
        <ele>1987.4000244141</ele>
        <time>2015-03-10T13:24:44.000Z</time>
      </trkpt>
      <trkpt lat="44.8379" lon="6.74806">
        <ele>1986.5999755859</ele>
        <time>2015-03-10T13:24:47.000Z</time>
      </trkpt>
      <trkpt lat="44.83795" lon="6.74802">
        <ele>1986.1999511719</ele>
        <time>2015-03-10T13:24:48.000Z</time>
      </trkpt>
      <trkpt lat="44.8381" lon="6.74791">
        <ele>1985.1999511719</ele>
        <time>2015-03-10T13:24:51.000Z</time>
      </trkpt>
      <trkpt lat="44.83815" lon="6.74788">
        <ele>1984.5999755859</ele>
        <time>2015-03-10T13:24:52.000Z</time>
      </trkpt>
      <trkpt lat="44.8382" lon="6.74785">
        <ele>1984</ele>
        <time>2015-03-10T13:24:53.000Z</time>
      </trkpt>
      <trkpt lat="44.83829" lon="6.74781">
        <ele>1982.1999511719</ele>
        <time>2015-03-10T13:24:56.000Z</time>
      </trkpt>
      <trkpt lat="44.83831" lon="6.74779">
        <ele>1981.4000244141</ele>
        <time>2015-03-10T13:25:01.000Z</time>
      </trkpt>
      <trkpt lat="44.83832" lon="6.74779">
        <ele>1981.1999511719</ele>
        <time>2015-03-10T13:25:07.000Z</time>
      </trkpt>
      <trkpt lat="44.83834" lon="6.74776">
        <ele>1981.1999511719</ele>
        <time>2015-03-10T13:25:09.000Z</time>
      </trkpt>
      <trkpt lat="44.83837" lon="6.74773">
        <ele>1981</ele>
        <time>2015-03-10T13:25:10.000Z</time>
      </trkpt>
      <trkpt lat="44.83844" lon="6.7477">
        <ele>1980.1999511719</ele>
        <time>2015-03-10T13:25:14.000Z</time>
      </trkpt>
      <trkpt lat="44.83845" lon="6.7477">
        <ele>1979</ele>
        <time>2015-03-10T13:25:17.000Z</time>
      </trkpt>
      <trkpt lat="44.83847" lon="6.74769">
        <ele>1978.1999511719</ele>
        <time>2015-03-10T13:25:23.000Z</time>
      </trkpt>
      <trkpt lat="44.83857" lon="6.74758">
        <ele>1978</ele>
        <time>2015-03-10T13:25:27.000Z</time>
      </trkpt>
      <trkpt lat="44.83861" lon="6.74754">
        <ele>1977.8000488281</ele>
        <time>2015-03-10T13:25:28.000Z</time>
      </trkpt>
      <trkpt lat="44.83871" lon="6.74742">
        <ele>1976.4000244141</ele>
        <time>2015-03-10T13:25:30.000Z</time>
      </trkpt>
      <trkpt lat="44.83876" lon="6.74737">
        <ele>1975.4000244141</ele>
        <time>2015-03-10T13:25:31.000Z</time>
      </trkpt>
      <trkpt lat="44.83882" lon="6.74731">
        <ele>1974.4000244141</ele>
        <time>2015-03-10T13:25:32.000Z</time>
      </trkpt>
      <trkpt lat="44.83894" lon="6.74721">
        <ele>1972.4000244141</ele>
        <time>2015-03-10T13:25:34.000Z</time>
      </trkpt>
      <trkpt lat="44.839" lon="6.74717">
        <ele>1971.1999511719</ele>
        <time>2015-03-10T13:25:35.000Z</time>
      </trkpt>
      <trkpt lat="44.83905" lon="6.74714">
        <ele>1969.8000488281</ele>
        <time>2015-03-10T13:25:36.000Z</time>
      </trkpt>
      <trkpt lat="44.8391" lon="6.74711">
        <ele>1968.1999511719</ele>
        <time>2015-03-10T13:25:37.000Z</time>
      </trkpt>
      <trkpt lat="44.83916" lon="6.74707">
        <ele>1966.5999755859</ele>
        <time>2015-03-10T13:25:38.000Z</time>
      </trkpt>
      <trkpt lat="44.83921" lon="6.74705">
        <ele>1965.4000244141</ele>
        <time>2015-03-10T13:25:39.000Z</time>
      </trkpt>
      <trkpt lat="44.83927" lon="6.74701">
        <ele>1964.1999511719</ele>
        <time>2015-03-10T13:25:40.000Z</time>
      </trkpt>
      <trkpt lat="44.83941" lon="6.74694">
        <ele>1962.4000244141</ele>
        <time>2015-03-10T13:25:42.000Z</time>
      </trkpt>
      <trkpt lat="44.83947" lon="6.74692">
        <ele>1961</ele>
        <time>2015-03-10T13:25:43.000Z</time>
      </trkpt>
      <trkpt lat="44.83954" lon="6.74689">
        <ele>1958.4000244141</ele>
        <time>2015-03-10T13:25:44.000Z</time>
      </trkpt>
      <trkpt lat="44.83961" lon="6.74686">
        <ele>1957</ele>
        <time>2015-03-10T13:25:45.000Z</time>
      </trkpt>
      <trkpt lat="44.83969" lon="6.74682">
        <ele>1956</ele>
        <time>2015-03-10T13:25:46.000Z</time>
      </trkpt>
      <trkpt lat="44.83984" lon="6.74673">
        <ele>1954</ele>
        <time>2015-03-10T13:25:48.000Z</time>
      </trkpt>
      <trkpt lat="44.83992" lon="6.74667">
        <ele>1953</ele>
        <time>2015-03-10T13:25:49.000Z</time>
      </trkpt>
      <trkpt lat="44.84" lon="6.74662">
        <ele>1951.8000488281</ele>
        <time>2015-03-10T13:25:50.000Z</time>
      </trkpt>
      <trkpt lat="44.84008" lon="6.74657">
        <ele>1950.4000244141</ele>
        <time>2015-03-10T13:25:51.000Z</time>
      </trkpt>
      <trkpt lat="44.84016" lon="6.74653">
        <ele>1949.1999511719</ele>
        <time>2015-03-10T13:25:52.000Z</time>
      </trkpt>
      <trkpt lat="44.84024" lon="6.74649">
        <ele>1948.1999511719</ele>
        <time>2015-03-10T13:25:53.000Z</time>
      </trkpt>
      <trkpt lat="44.84041" lon="6.74641">
        <ele>1946.8000488281</ele>
        <time>2015-03-10T13:25:55.000Z</time>
      </trkpt>
      <trkpt lat="44.84059" lon="6.74636">
        <ele>1945.4000244141</ele>
        <time>2015-03-10T13:25:57.000Z</time>
      </trkpt>
      <trkpt lat="44.84067" lon="6.74633">
        <ele>1944.5999755859</ele>
        <time>2015-03-10T13:25:58.000Z</time>
      </trkpt>
      <trkpt lat="44.84076" lon="6.7463">
        <ele>1943.8000488281</ele>
        <time>2015-03-10T13:25:59.000Z</time>
      </trkpt>
      <trkpt lat="44.84095" lon="6.74622">
        <ele>1942.1999511719</ele>
        <time>2015-03-10T13:26:01.000Z</time>
      </trkpt>
      <trkpt lat="44.84104" lon="6.74616">
        <ele>1941.4000244141</ele>
        <time>2015-03-10T13:26:02.000Z</time>
      </trkpt>
      <trkpt lat="44.84112" lon="6.7461">
        <ele>1940.8000488281</ele>
        <time>2015-03-10T13:26:03.000Z</time>
      </trkpt>
      <trkpt lat="44.84128" lon="6.74601">
        <ele>1939.1999511719</ele>
        <time>2015-03-10T13:26:05.000Z</time>
      </trkpt>
      <trkpt lat="44.84141" lon="6.74596">
        <ele>1938</ele>
        <time>2015-03-10T13:26:07.000Z</time>
      </trkpt>
      <trkpt lat="44.84171" lon="6.7458">
        <ele>1937</ele>
        <time>2015-03-10T13:26:12.000Z</time>
      </trkpt>
      <trkpt lat="44.84177" lon="6.74577">
        <ele>1936.5999755859</ele>
        <time>2015-03-10T13:26:13.000Z</time>
      </trkpt>
      <trkpt lat="44.84182" lon="6.74574">
        <ele>1936</ele>
        <time>2015-03-10T13:26:14.000Z</time>
      </trkpt>
      <trkpt lat="44.84193" lon="6.74568">
        <ele>1934.5999755859</ele>
        <time>2015-03-10T13:26:16.000Z</time>
      </trkpt>
      <trkpt lat="44.84199" lon="6.74563">
        <ele>1934.4000244141</ele>
        <time>2015-03-10T13:26:17.000Z</time>
      </trkpt>
      <trkpt lat="44.84204" lon="6.74558">
        <ele>1934</ele>
        <time>2015-03-10T13:26:18.000Z</time>
      </trkpt>
      <trkpt lat="44.84216" lon="6.74549">
        <ele>1933.1999511719</ele>
        <time>2015-03-10T13:26:20.000Z</time>
      </trkpt>
      <trkpt lat="44.84235" lon="6.7453">
        <ele>1932</ele>
        <time>2015-03-10T13:26:23.000Z</time>
      </trkpt>
      <trkpt lat="44.84242" lon="6.74523">
        <ele>1931.4000244141</ele>
        <time>2015-03-10T13:26:24.000Z</time>
      </trkpt>
      <trkpt lat="44.84248" lon="6.74514">
        <ele>1930.5999755859</ele>
        <time>2015-03-10T13:26:25.000Z</time>
      </trkpt>
      <trkpt lat="44.8426" lon="6.745">
        <ele>1928.5999755859</ele>
        <time>2015-03-10T13:26:27.000Z</time>
      </trkpt>
      <trkpt lat="44.84274" lon="6.74487">
        <ele>1927</ele>
        <time>2015-03-10T13:26:29.000Z</time>
      </trkpt>
      <trkpt lat="44.8428" lon="6.74481">
        <ele>1926.1999511719</ele>
        <time>2015-03-10T13:26:30.000Z</time>
      </trkpt>
      <trkpt lat="44.84287" lon="6.74475">
        <ele>1925.1999511719</ele>
        <time>2015-03-10T13:26:31.000Z</time>
      </trkpt>
      <trkpt lat="44.84294" lon="6.7447">
        <ele>1923.4000244141</ele>
        <time>2015-03-10T13:26:32.000Z</time>
      </trkpt>
      <trkpt lat="44.84309" lon="6.74458">
        <ele>1921.5999755859</ele>
        <time>2015-03-10T13:26:34.000Z</time>
      </trkpt>
      <trkpt lat="44.84316" lon="6.74452">
        <ele>1920.5999755859</ele>
        <time>2015-03-10T13:26:35.000Z</time>
      </trkpt>
      <trkpt lat="44.84324" lon="6.74446">
        <ele>1919.4000244141</ele>
        <time>2015-03-10T13:26:36.000Z</time>
      </trkpt>
      <trkpt lat="44.84332" lon="6.7444">
        <ele>1918.1999511719</ele>
        <time>2015-03-10T13:26:37.000Z</time>
      </trkpt>
      <trkpt lat="44.8434" lon="6.74434">
        <ele>1917</ele>
        <time>2015-03-10T13:26:38.000Z</time>
      </trkpt>
      <trkpt lat="44.84349" lon="6.74429">
        <ele>1916</ele>
        <time>2015-03-10T13:26:39.000Z</time>
      </trkpt>
      <trkpt lat="44.84366" lon="6.74419">
        <ele>1914.1999511719</ele>
        <time>2015-03-10T13:26:41.000Z</time>
      </trkpt>
      <trkpt lat="44.84381" lon="6.74413">
        <ele>1912.1999511719</ele>
        <time>2015-03-10T13:26:43.000Z</time>
      </trkpt>
      <trkpt lat="44.84395" lon="6.74407">
        <ele>1910.5999755859</ele>
        <time>2015-03-10T13:26:45.000Z</time>
      </trkpt>
      <trkpt lat="44.8441" lon="6.74397">
        <ele>1909.1999511719</ele>
        <time>2015-03-10T13:26:47.000Z</time>
      </trkpt>
      <trkpt lat="44.84418" lon="6.7439">
        <ele>1908.5999755859</ele>
        <time>2015-03-10T13:26:48.000Z</time>
      </trkpt>
      <trkpt lat="44.84427" lon="6.74384">
        <ele>1907.8000488281</ele>
        <time>2015-03-10T13:26:49.000Z</time>
      </trkpt>
      <trkpt lat="44.84442" lon="6.74371">
        <ele>1905.8000488281</ele>
        <time>2015-03-10T13:26:51.000Z</time>
      </trkpt>
      <trkpt lat="44.8445" lon="6.74364">
        <ele>1904.8000488281</ele>
        <time>2015-03-10T13:26:52.000Z</time>
      </trkpt>
      <trkpt lat="44.84457" lon="6.74357">
        <ele>1903.5999755859</ele>
        <time>2015-03-10T13:26:53.000Z</time>
      </trkpt>
      <trkpt lat="44.84463" lon="6.7435">
        <ele>1902.4000244141</ele>
        <time>2015-03-10T13:26:54.000Z</time>
      </trkpt>
      <trkpt lat="44.8447" lon="6.74342">
        <ele>1901.1999511719</ele>
        <time>2015-03-10T13:26:55.000Z</time>
      </trkpt>
      <trkpt lat="44.84476" lon="6.74334">
        <ele>1898.8000488281</ele>
        <time>2015-03-10T13:26:56.000Z</time>
      </trkpt>
      <trkpt lat="44.84483" lon="6.74328">
        <ele>1897.4000244141</ele>
        <time>2015-03-10T13:26:57.000Z</time>
      </trkpt>
      <trkpt lat="44.84491" lon="6.74322">
        <ele>1896</ele>
        <time>2015-03-10T13:26:58.000Z</time>
      </trkpt>
      <trkpt lat="44.84496" lon="6.74316">
        <ele>1895</ele>
        <time>2015-03-10T13:26:59.000Z</time>
      </trkpt>
      <trkpt lat="44.84504" lon="6.7431">
        <ele>1894.1999511719</ele>
        <time>2015-03-10T13:27:00.000Z</time>
      </trkpt>
      <trkpt lat="44.8451" lon="6.74304">
        <ele>1893.1999511719</ele>
        <time>2015-03-10T13:27:01.000Z</time>
      </trkpt>
      <trkpt lat="44.84517" lon="6.74298">
        <ele>1892</ele>
        <time>2015-03-10T13:27:02.000Z</time>
      </trkpt>
      <trkpt lat="44.84524" lon="6.74292">
        <ele>1891</ele>
        <time>2015-03-10T13:27:03.000Z</time>
      </trkpt>
      <trkpt lat="44.84532" lon="6.74286">
        <ele>1889.8000488281</ele>
        <time>2015-03-10T13:27:04.000Z</time>
      </trkpt>
      <trkpt lat="44.84541" lon="6.7428">
        <ele>1888.5999755859</ele>
        <time>2015-03-10T13:27:05.000Z</time>
      </trkpt>
      <trkpt lat="44.84549" lon="6.74275">
        <ele>1887.1999511719</ele>
        <time>2015-03-10T13:27:06.000Z</time>
      </trkpt>
      <trkpt lat="44.84559" lon="6.74271">
        <ele>1886</ele>
        <time>2015-03-10T13:27:07.000Z</time>
      </trkpt>
      <trkpt lat="44.84577" lon="6.74261">
        <ele>1884</ele>
        <time>2015-03-10T13:27:09.000Z</time>
      </trkpt>
      <trkpt lat="44.84585" lon="6.74254">
        <ele>1883</ele>
        <time>2015-03-10T13:27:10.000Z</time>
      </trkpt>
      <trkpt lat="44.84596" lon="6.74247">
        <ele>1881.5999755859</ele>
        <time>2015-03-10T13:27:11.000Z</time>
      </trkpt>
      <trkpt lat="44.84607" lon="6.74239">
        <ele>1880.1999511719</ele>
        <time>2015-03-10T13:27:12.000Z</time>
      </trkpt>
      <trkpt lat="44.84617" lon="6.74232">
        <ele>1878.5999755859</ele>
        <time>2015-03-10T13:27:13.000Z</time>
      </trkpt>
      <trkpt lat="44.84627" lon="6.74225">
        <ele>1877</ele>
        <time>2015-03-10T13:27:14.000Z</time>
      </trkpt>
      <trkpt lat="44.84638" lon="6.74218">
        <ele>1875.8000488281</ele>
        <time>2015-03-10T13:27:15.000Z</time>
      </trkpt>
      <trkpt lat="44.84655" lon="6.74205">
        <ele>1874</ele>
        <time>2015-03-10T13:27:17.000Z</time>
      </trkpt>
      <trkpt lat="44.84664" lon="6.74198">
        <ele>1873.4000244141</ele>
        <time>2015-03-10T13:27:18.000Z</time>
      </trkpt>
      <trkpt lat="44.84673" lon="6.7419">
        <ele>1872.4000244141</ele>
        <time>2015-03-10T13:27:19.000Z</time>
      </trkpt>
      <trkpt lat="44.84682" lon="6.74183">
        <ele>1870</ele>
        <time>2015-03-10T13:27:20.000Z</time>
      </trkpt>
      <trkpt lat="44.84685" lon="6.74175">
        <ele>1868.5999755859</ele>
        <time>2015-03-10T13:27:21.000Z</time>
      </trkpt>
      <trkpt lat="44.84693" lon="6.7417">
        <ele>1867.1999511719</ele>
        <time>2015-03-10T13:27:22.000Z</time>
      </trkpt>
      <trkpt lat="44.84702" lon="6.74166">
        <ele>1865.8000488281</ele>
        <time>2015-03-10T13:27:23.000Z</time>
      </trkpt>
      <trkpt lat="44.8471" lon="6.74162">
        <ele>1864.4000244141</ele>
        <time>2015-03-10T13:27:24.000Z</time>
      </trkpt>
      <trkpt lat="44.8472" lon="6.74159">
        <ele>1863.1999511719</ele>
        <time>2015-03-10T13:27:25.000Z</time>
      </trkpt>
      <trkpt lat="44.84738" lon="6.74149">
        <ele>1861.8000488281</ele>
        <time>2015-03-10T13:27:27.000Z</time>
      </trkpt>
      <trkpt lat="44.84749" lon="6.74144">
        <ele>1861.1999511719</ele>
        <time>2015-03-10T13:27:28.000Z</time>
      </trkpt>
      <trkpt lat="44.84759" lon="6.74137">
        <ele>1860.1999511719</ele>
        <time>2015-03-10T13:27:29.000Z</time>
      </trkpt>
      <trkpt lat="44.84769" lon="6.7413">
        <ele>1859.1999511719</ele>
        <time>2015-03-10T13:27:30.000Z</time>
      </trkpt>
      <trkpt lat="44.84779" lon="6.74124">
        <ele>1858</ele>
        <time>2015-03-10T13:27:31.000Z</time>
      </trkpt>
      <trkpt lat="44.84788" lon="6.74117">
        <ele>1857</ele>
        <time>2015-03-10T13:27:32.000Z</time>
      </trkpt>
      <trkpt lat="44.84796" lon="6.74111">
        <ele>1855.8000488281</ele>
        <time>2015-03-10T13:27:33.000Z</time>
      </trkpt>
      <trkpt lat="44.84804" lon="6.74104">
        <ele>1854.8000488281</ele>
        <time>2015-03-10T13:27:34.000Z</time>
      </trkpt>
      <trkpt lat="44.84818" lon="6.74091">
        <ele>1853</ele>
        <time>2015-03-10T13:27:36.000Z</time>
      </trkpt>
      <trkpt lat="44.84834" lon="6.74079">
        <ele>1851.1999511719</ele>
        <time>2015-03-10T13:27:38.000Z</time>
      </trkpt>
      <trkpt lat="44.84849" lon="6.74066">
        <ele>1849.5999755859</ele>
        <time>2015-03-10T13:27:40.000Z</time>
      </trkpt>
      <trkpt lat="44.84852" lon="6.7406">
        <ele>1848.5999755859</ele>
        <time>2015-03-10T13:27:41.000Z</time>
      </trkpt>
      <trkpt lat="44.84854" lon="6.74054">
        <ele>1848</ele>
        <time>2015-03-10T13:27:42.000Z</time>
      </trkpt>
      <trkpt lat="44.84859" lon="6.74038">
        <ele>1846.4000244141</ele>
        <time>2015-03-10T13:27:44.000Z</time>
      </trkpt>
      <trkpt lat="44.84871" lon="6.74023">
        <ele>1844.5999755859</ele>
        <time>2015-03-10T13:27:46.000Z</time>
      </trkpt>
      <trkpt lat="44.84887" lon="6.74009">
        <ele>1842.8000488281</ele>
        <time>2015-03-10T13:27:48.000Z</time>
      </trkpt>
      <trkpt lat="44.84898" lon="6.73996">
        <ele>1841.1999511719</ele>
        <time>2015-03-10T13:27:50.000Z</time>
      </trkpt>
      <trkpt lat="44.84904" lon="6.73989">
        <ele>1840.4000244141</ele>
        <time>2015-03-10T13:27:51.000Z</time>
      </trkpt>
      <trkpt lat="44.84912" lon="6.73983">
        <ele>1839.5999755859</ele>
        <time>2015-03-10T13:27:52.000Z</time>
      </trkpt>
      <trkpt lat="44.8493" lon="6.7397">
        <ele>1837.8000488281</ele>
        <time>2015-03-10T13:27:54.000Z</time>
      </trkpt>
      <trkpt lat="44.84938" lon="6.73964">
        <ele>1836.5999755859</ele>
        <time>2015-03-10T13:27:55.000Z</time>
      </trkpt>
      <trkpt lat="44.84945" lon="6.73958">
        <ele>1835.5999755859</ele>
        <time>2015-03-10T13:27:56.000Z</time>
      </trkpt>
      <trkpt lat="44.84955" lon="6.73956">
        <ele>1834.8000488281</ele>
        <time>2015-03-10T13:27:57.000Z</time>
      </trkpt>
      <trkpt lat="44.84965" lon="6.73954">
        <ele>1834</ele>
        <time>2015-03-10T13:27:58.000Z</time>
      </trkpt>
      <trkpt lat="44.84967" lon="6.73945">
        <ele>1833</ele>
        <time>2015-03-10T13:27:59.000Z</time>
      </trkpt>
      <trkpt lat="44.8497" lon="6.73937">
        <ele>1832</ele>
        <time>2015-03-10T13:28:00.000Z</time>
      </trkpt>
      <trkpt lat="44.84975" lon="6.73929">
        <ele>1830.5999755859</ele>
        <time>2015-03-10T13:28:01.000Z</time>
      </trkpt>
      <trkpt lat="44.84979" lon="6.73918">
        <ele>1829.4000244141</ele>
        <time>2015-03-10T13:28:02.000Z</time>
      </trkpt>
      <trkpt lat="44.84982" lon="6.73909">
        <ele>1828</ele>
        <time>2015-03-10T13:28:03.000Z</time>
      </trkpt>
      <trkpt lat="44.84986" lon="6.73901">
        <ele>1826.5999755859</ele>
        <time>2015-03-10T13:28:04.000Z</time>
      </trkpt>
      <trkpt lat="44.84991" lon="6.73894">
        <ele>1825.5999755859</ele>
        <time>2015-03-10T13:28:05.000Z</time>
      </trkpt>
      <trkpt lat="44.85004" lon="6.73879">
        <ele>1824.5999755859</ele>
        <time>2015-03-10T13:28:07.000Z</time>
      </trkpt>
      <trkpt lat="44.85013" lon="6.73864">
        <ele>1823.5999755859</ele>
        <time>2015-03-10T13:28:09.000Z</time>
      </trkpt>
      <trkpt lat="44.85018" lon="6.73856">
        <ele>1823</ele>
        <time>2015-03-10T13:28:10.000Z</time>
      </trkpt>
      <trkpt lat="44.85022" lon="6.73849">
        <ele>1822.4000244141</ele>
        <time>2015-03-10T13:28:11.000Z</time>
      </trkpt>
      <trkpt lat="44.85032" lon="6.73835">
        <ele>1821.4000244141</ele>
        <time>2015-03-10T13:28:13.000Z</time>
      </trkpt>
      <trkpt lat="44.85042" lon="6.73822">
        <ele>1820.1999511719</ele>
        <time>2015-03-10T13:28:15.000Z</time>
      </trkpt>
      <trkpt lat="44.85052" lon="6.73804">
        <ele>1819</ele>
        <time>2015-03-10T13:28:18.000Z</time>
      </trkpt>
      <trkpt lat="44.85058" lon="6.7378">
        <ele>1817.8000488281</ele>
        <time>2015-03-10T13:28:22.000Z</time>
      </trkpt>
      <trkpt lat="44.85065" lon="6.73759">
        <ele>1816.1999511719</ele>
        <time>2015-03-10T13:28:25.000Z</time>
      </trkpt>
      <trkpt lat="44.85067" lon="6.73752">
        <ele>1815.5999755859</ele>
        <time>2015-03-10T13:28:26.000Z</time>
      </trkpt>
      <trkpt lat="44.85072" lon="6.73737">
        <ele>1815.1999511719</ele>
        <time>2015-03-10T13:28:28.000Z</time>
      </trkpt>
      <trkpt lat="44.85085" lon="6.73706">
        <ele>1813.8000488281</ele>
        <time>2015-03-10T13:28:32.000Z</time>
      </trkpt>
      <trkpt lat="44.85091" lon="6.73693">
        <ele>1812.4000244141</ele>
        <time>2015-03-10T13:28:34.000Z</time>
      </trkpt>
      <trkpt lat="44.85094" lon="6.73686">
        <ele>1812</ele>
        <time>2015-03-10T13:28:35.000Z</time>
      </trkpt>
      <trkpt lat="44.85093" lon="6.73677">
        <ele>1811.4000244141</ele>
        <time>2015-03-10T13:28:37.000Z</time>
      </trkpt>
      <trkpt lat="44.85093" lon="6.73667">
        <ele>1811</ele>
        <time>2015-03-10T13:28:39.000Z</time>
      </trkpt>
      <trkpt lat="44.85096" lon="6.73652">
        <ele>1810</ele>
        <time>2015-03-10T13:28:42.000Z</time>
      </trkpt>
      <trkpt lat="44.85098" lon="6.73643">
        <ele>1809.4000244141</ele>
        <time>2015-03-10T13:28:44.000Z</time>
      </trkpt>
      <trkpt lat="44.85098" lon="6.73637">
        <ele>1808.8000488281</ele>
        <time>2015-03-10T13:28:45.000Z</time>
      </trkpt>
      <trkpt lat="44.85086" lon="6.73616">
        <ele>1807.8000488281</ele>
        <time>2015-03-10T13:28:48.000Z</time>
      </trkpt>
      <trkpt lat="44.8508" lon="6.73595">
        <ele>1806.5999755859</ele>
        <time>2015-03-10T13:28:51.000Z</time>
      </trkpt>
      <trkpt lat="44.85079" lon="6.73587">
        <ele>1806</ele>
        <time>2015-03-10T13:28:52.000Z</time>
      </trkpt>
      <trkpt lat="44.85078" lon="6.7358">
        <ele>1805.5999755859</ele>
        <time>2015-03-10T13:28:53.000Z</time>
      </trkpt>
      <trkpt lat="44.85077" lon="6.73559">
        <ele>1804.1999511719</ele>
        <time>2015-03-10T13:28:56.000Z</time>
      </trkpt>
      <trkpt lat="44.85085" lon="6.73551">
        <ele>1804</ele>
        <time>2015-03-10T13:28:58.000Z</time>
      </trkpt>
      <trkpt lat="44.85095" lon="6.73547">
        <ele>1803</ele>
        <time>2015-03-10T13:29:00.000Z</time>
      </trkpt>
      <trkpt lat="44.85103" lon="6.73543">
        <ele>1801.1999511719</ele>
        <time>2015-03-10T13:29:02.000Z</time>
      </trkpt>
      <trkpt lat="44.85107" lon="6.7354">
        <ele>1800.8000488281</ele>
        <time>2015-03-10T13:29:03.000Z</time>
      </trkpt>
      <trkpt lat="44.85115" lon="6.73532">
        <ele>1800.1999511719</ele>
        <time>2015-03-10T13:29:05.000Z</time>
      </trkpt>
      <trkpt lat="44.85127" lon="6.73521">
        <ele>1798.5999755859</ele>
        <time>2015-03-10T13:29:08.000Z</time>
      </trkpt>
      <trkpt lat="44.85129" lon="6.73516">
        <ele>1798.1999511719</ele>
        <time>2015-03-10T13:29:09.000Z</time>
      </trkpt>
      <trkpt lat="44.85132" lon="6.73511">
        <ele>1797.5999755859</ele>
        <time>2015-03-10T13:29:10.000Z</time>
      </trkpt>
      <trkpt lat="44.8514" lon="6.73498">
        <ele>1796.4000244141</ele>
        <time>2015-03-10T13:29:13.000Z</time>
      </trkpt>
      <trkpt lat="44.85142" lon="6.73484">
        <ele>1795.5999755859</ele>
        <time>2015-03-10T13:29:15.000Z</time>
      </trkpt>
      <trkpt lat="44.85119" lon="6.73471">
        <ele>1795</ele>
        <time>2015-03-10T13:29:16.000Z</time>
      </trkpt>
      <trkpt lat="44.8511" lon="6.73447">
        <ele>1793.8000488281</ele>
        <time>2015-03-10T13:29:19.000Z</time>
      </trkpt>
      <trkpt lat="44.851" lon="6.73438">
        <ele>1793</ele>
        <time>2015-03-10T13:29:20.000Z</time>
      </trkpt>
      <trkpt lat="44.85091" lon="6.7343">
        <ele>1792.8000488281</ele>
        <time>2015-03-10T13:29:21.000Z</time>
      </trkpt>
      <trkpt lat="44.85078" lon="6.73414">
        <ele>1792</ele>
        <time>2015-03-10T13:29:23.000Z</time>
      </trkpt>
      <trkpt lat="44.85079" lon="6.73407">
        <ele>1791.5999755859</ele>
        <time>2015-03-10T13:29:24.000Z</time>
      </trkpt>
      <trkpt lat="44.85071" lon="6.73382">
        <ele>1790.1999511719</ele>
        <time>2015-03-10T13:29:27.000Z</time>
      </trkpt>
      <trkpt lat="44.85069" lon="6.73365">
        <ele>1789.1999511719</ele>
        <time>2015-03-10T13:29:29.000Z</time>
      </trkpt>
      <trkpt lat="44.85068" lon="6.73356">
        <ele>1788.5999755859</ele>
        <time>2015-03-10T13:29:30.000Z</time>
      </trkpt>
      <trkpt lat="44.85068" lon="6.73347">
        <ele>1788.1999511719</ele>
        <time>2015-03-10T13:29:31.000Z</time>
      </trkpt>
      <trkpt lat="44.85073" lon="6.73329">
        <ele>1786.5999755859</ele>
        <time>2015-03-10T13:29:33.000Z</time>
      </trkpt>
      <trkpt lat="44.85077" lon="6.73311">
        <ele>1785.1999511719</ele>
        <time>2015-03-10T13:29:35.000Z</time>
      </trkpt>
      <trkpt lat="44.8508" lon="6.73301">
        <ele>1784.5999755859</ele>
        <time>2015-03-10T13:29:36.000Z</time>
      </trkpt>
      <trkpt lat="44.85082" lon="6.73292">
        <ele>1784.1999511719</ele>
        <time>2015-03-10T13:29:37.000Z</time>
      </trkpt>
      <trkpt lat="44.85089" lon="6.73266">
        <ele>1782.8000488281</ele>
        <time>2015-03-10T13:29:40.000Z</time>
      </trkpt>
      <trkpt lat="44.85094" lon="6.7325">
        <ele>1781.4000244141</ele>
        <time>2015-03-10T13:29:42.000Z</time>
      </trkpt>
      <trkpt lat="44.851" lon="6.73235">
        <ele>1779.8000488281</ele>
        <time>2015-03-10T13:29:44.000Z</time>
      </trkpt>
      <trkpt lat="44.85107" lon="6.73211">
        <ele>1778.1999511719</ele>
        <time>2015-03-10T13:29:47.000Z</time>
      </trkpt>
      <trkpt lat="44.85113" lon="6.73196">
        <ele>1776.5999755859</ele>
        <time>2015-03-10T13:29:49.000Z</time>
      </trkpt>
      <trkpt lat="44.8512" lon="6.73182">
        <ele>1775.5999755859</ele>
        <time>2015-03-10T13:29:51.000Z</time>
      </trkpt>
      <trkpt lat="44.85128" lon="6.7317">
        <ele>1774.5999755859</ele>
        <time>2015-03-10T13:29:53.000Z</time>
      </trkpt>
      <trkpt lat="44.85147" lon="6.7316">
        <ele>1773.1999511719</ele>
        <time>2015-03-10T13:29:56.000Z</time>
      </trkpt>
      <trkpt lat="44.85157" lon="6.7316">
        <ele>1772.5999755859</ele>
        <time>2015-03-10T13:29:57.000Z</time>
      </trkpt>
      <trkpt lat="44.85165" lon="6.73159">
        <ele>1772</ele>
        <time>2015-03-10T13:29:58.000Z</time>
      </trkpt>
      <trkpt lat="44.85187" lon="6.73154">
        <ele>1770.5999755859</ele>
        <time>2015-03-10T13:30:01.000Z</time>
      </trkpt>
      <trkpt lat="44.85211" lon="6.73142">
        <ele>1769.4000244141</ele>
        <time>2015-03-10T13:30:05.000Z</time>
      </trkpt>
      <trkpt lat="44.85226" lon="6.73132">
        <ele>1767.5999755859</ele>
        <time>2015-03-10T13:30:08.000Z</time>
      </trkpt>
      <trkpt lat="44.85241" lon="6.73121">
        <ele>1766.8000488281</ele>
        <time>2015-03-10T13:30:12.000Z</time>
      </trkpt>
      <trkpt lat="44.85243" lon="6.73118">
        <ele>1766.5999755859</ele>
        <time>2015-03-10T13:30:13.000Z</time>
      </trkpt>
      <trkpt lat="44.85258" lon="6.731">
        <ele>1765.5999755859</ele>
        <time>2015-03-10T13:30:19.000Z</time>
      </trkpt>
      <trkpt lat="44.85261" lon="6.73098">
        <ele>1765.4000244141</ele>
        <time>2015-03-10T13:30:20.000Z</time>
      </trkpt>
      <trkpt lat="44.85278" lon="6.73073">
        <ele>1764.4000244141</ele>
        <time>2015-03-10T13:30:27.000Z</time>
      </trkpt>
      <trkpt lat="44.85291" lon="6.73054">
        <ele>1763.1999511719</ele>
        <time>2015-03-10T13:30:32.000Z</time>
      </trkpt>
      <trkpt lat="44.85302" lon="6.73039">
        <ele>1762.8000488281</ele>
        <time>2015-03-10T13:30:36.000Z</time>
      </trkpt>
      <trkpt lat="44.85313" lon="6.73025">
        <ele>1762</ele>
        <time>2015-03-10T13:30:39.000Z</time>
      </trkpt>
      <trkpt lat="44.85319" lon="6.73014">
        <ele>1761</ele>
        <time>2015-03-10T13:30:42.000Z</time>
      </trkpt>
      <trkpt lat="44.85324" lon="6.73007">
        <ele>1760.4000244141</ele>
        <time>2015-03-10T13:30:44.000Z</time>
      </trkpt>
      <trkpt lat="44.85326" lon="6.73003">
        <ele>1760.1999511719</ele>
        <time>2015-03-10T13:30:45.000Z</time>
      </trkpt>
      <trkpt lat="44.8533" lon="6.72997">
        <ele>1759.8000488281</ele>
        <time>2015-03-10T13:30:47.000Z</time>
      </trkpt>
      <trkpt lat="44.8534" lon="6.7298">
        <ele>1759</ele>
        <time>2015-03-10T13:30:52.000Z</time>
      </trkpt>
      <trkpt lat="44.85343" lon="6.72973">
        <ele>1758.8000488281</ele>
        <time>2015-03-10T13:30:54.000Z</time>
      </trkpt>
      <trkpt lat="44.85348" lon="6.72963">
        <ele>1758.4000244141</ele>
        <time>2015-03-10T13:30:57.000Z</time>
      </trkpt>
      <trkpt lat="44.8536" lon="6.72941">
        <ele>1757.5999755859</ele>
        <time>2015-03-10T13:31:04.000Z</time>
      </trkpt>
      <trkpt lat="44.85363" lon="6.72935">
        <ele>1757.4000244141</ele>
        <time>2015-03-10T13:31:06.000Z</time>
      </trkpt>
      <trkpt lat="44.85381" lon="6.7291">
        <ele>1757.5999755859</ele>
        <time>2015-03-10T13:31:15.000Z</time>
      </trkpt>
      <trkpt lat="44.85396" lon="6.72898">
        <ele>1756.8000488281</ele>
        <time>2015-03-10T13:31:22.000Z</time>
      </trkpt>
      <trkpt lat="44.85407" lon="6.72883">
        <ele>1756.5999755859</ele>
        <time>2015-03-10T13:31:29.000Z</time>
      </trkpt>
      <trkpt lat="44.85418" lon="6.72868">
        <ele>1756.5999755859</ele>
        <time>2015-03-10T13:31:36.000Z</time>
      </trkpt>
      <trkpt lat="44.85426" lon="6.72856">
        <ele>1756.1999511719</ele>
        <time>2015-03-10T13:31:42.000Z</time>
      </trkpt>
      <trkpt lat="44.85432" lon="6.72851">
        <ele>1756.1999511719</ele>
        <time>2015-03-10T13:31:50.000Z</time>
      </trkpt>
      <trkpt lat="44.85433" lon="6.7285">
        <ele>1756</ele>
        <time>2015-03-10T13:31:58.000Z</time>
      </trkpt>
      <trkpt lat="44.85436" lon="6.72845">
        <ele>1756</ele>
        <time>2015-03-10T13:32:04.000Z</time>
      </trkpt>
      <trkpt lat="44.85439" lon="6.72833">
        <ele>1755.5999755859</ele>
        <time>2015-03-10T13:32:10.000Z</time>
      </trkpt>
      <trkpt lat="44.85443" lon="6.72823">
        <ele>1755.5999755859</ele>
        <time>2015-03-10T13:32:16.000Z</time>
      </trkpt>
      <trkpt lat="44.85446" lon="6.72818">
        <ele>1755.5999755859</ele>
        <time>2015-03-10T13:32:19.000Z</time>
      </trkpt>
      <trkpt lat="44.85456" lon="6.72811">
        <ele>1755.5999755859</ele>
        <time>2015-03-10T13:32:26.000Z</time>
      </trkpt>
      <trkpt lat="44.85465" lon="6.72808">
        <ele>1755.1999511719</ele>
        <time>2015-03-10T13:32:34.000Z</time>
      </trkpt>
      <trkpt lat="44.85473" lon="6.72799">
        <ele>1755</ele>
        <time>2015-03-10T13:32:41.000Z</time>
      </trkpt>
      <trkpt lat="44.85479" lon="6.72791">
        <ele>1755</ele>
        <time>2015-03-10T13:32:48.000Z</time>
      </trkpt>
      <trkpt lat="44.85485" lon="6.72788">
        <ele>1755.1999511719</ele>
        <time>2015-03-10T13:32:55.000Z</time>
      </trkpt>
      <trkpt lat="44.85492" lon="6.72778">
        <ele>1755</ele>
        <time>2015-03-10T13:33:01.000Z</time>
      </trkpt>
      <trkpt lat="44.85499" lon="6.72767">
        <ele>1755</ele>
        <time>2015-03-10T13:33:09.000Z</time>
      </trkpt>
      <trkpt lat="44.85511" lon="6.72754">
        <ele>1754.8000488281</ele>
        <time>2015-03-10T13:33:19.000Z</time>
      </trkpt>
      <trkpt lat="44.85513" lon="6.72752">
        <ele>1754.5999755859</ele>
        <time>2015-03-10T13:33:22.000Z</time>
      </trkpt>
      <trkpt lat="44.85522" lon="6.72742">
        <ele>1754</ele>
        <time>2015-03-10T13:33:29.000Z</time>
      </trkpt>
      <trkpt lat="44.85527" lon="6.7273">
        <ele>1754</ele>
        <time>2015-03-10T13:33:36.000Z</time>
      </trkpt>
      <trkpt lat="44.85529" lon="6.72727">
        <ele>1754</ele>
        <time>2015-03-10T13:33:38.000Z</time>
      </trkpt>
      <trkpt lat="44.85531" lon="6.72723">
        <ele>1753.8000488281</ele>
        <time>2015-03-10T13:33:44.000Z</time>
      </trkpt>
      <trkpt lat="44.85531" lon="6.72723">
        <ele>1753.8000488281</ele>
        <time>2015-03-10T13:33:52.000Z</time>
      </trkpt>
      <trkpt lat="44.85531" lon="6.72723">
        <ele>1753.4000244141</ele>
        <time>2015-03-10T13:33:57.000Z</time>
      </trkpt>
      <trkpt lat="44.85531" lon="6.72723">
        <ele>1754.1999511719</ele>
        <time>2015-03-10T13:34:05.000Z</time>
      </trkpt>
      <trkpt lat="44.85531" lon="6.72723">
        <ele>1754.5999755859</ele>
        <time>2015-03-10T13:34:06.000Z</time>
      </trkpt>
    </trkseg>
  </trk>
</gpx>